LH428 / D-AIKA 7700 Squawk Report (22nd of April, 2018)

Aircraft A333 Reg No. D-AIKA Age 14 years old
Model A330 Jet engines 2 First flight 09-02-04
Registered 03-03-04 Rollout 01-04 Delivered 03-03-04
Construction No. 570 Line No. N/A Series 343X
ADSHEX 3C6561 Airline name Lufthansa Owner N/A
Airfield based Frankfurt-Main~Hessen~D First tracked 2011-04-01 16:37:02

Flight history for D-AIKA

Route Flight No Date Playback
Franz Josef Strauss (MUC) - John F Kennedy Intl (JFK) LH410 2018-07-23 15:54:00
Lester B Pearson Intl (YYZ) - Franz Josef Strauss (MUC) LH495 2018-07-23 08:49:00
Franz Josef Strauss (MUC) - Lester B Pearson Intl (YYZ) LH494 2018-07-23 00:53:00
Charlotte Douglas Intl (CLT) - Franz Josef Strauss (MUC) LH429 2018-07-22 08:36:00
Franz Josef Strauss (MUC) - Charlotte Douglas Intl (CLT) LH428 2018-07-22 00:08:00
Pierre Elliott Trudeau Intl (YUL) - Franz Josef Strauss (MUC) LH475 2018-07-21 07:47:00
Franz Josef Strauss (MUC) - Pierre Elliott Trudeau Intl (YUL) LH474 2018-07-20 22:29:00
Chhatrapati Shivaji Intl (BOM) - Franz Josef Strauss (MUC) LH765 2018-07-20 03:57:00
Franz Josef Strauss (MUC) - Chhatrapati Shivaji Intl (BOM) LH764 2018-07-19 19:47:00
Indira Gandhi Intl (DEL) - Franz Josef Strauss (MUC) LH763 2018-07-19 03:44:00
Franz Josef Strauss (MUC) - Indira Gandhi Intl (DEL) LH762 2018-07-18 17:51:00
Charlotte Douglas Intl (CLT) - Franz Josef Strauss (MUC) LH429 2018-07-18 07:44:00
Franz Josef Strauss (MUC) - Charlotte Douglas Intl (CLT) LH428 2018-07-17 23:14:00
Chicago Ohare Intl (ORD) - Franz Josef Strauss (MUC) LH437 2018-07-16 08:02:00
Franz Josef Strauss (MUC) - Chicago Ohare Intl (ORD) LH436 2018-07-15 17:08:00
Chhatrapati Shivaji Intl (BOM) - Franz Josef Strauss (MUC) LH765 2018-07-15 03:55:00
Franz Josef Strauss (MUC) - Chhatrapati Shivaji Intl (BOM) LH764 2018-07-14 20:40:00
Charlotte Douglas Intl (CLT) - Franz Josef Strauss (MUC) LH429 2018-07-14 07:27:00
Franz Josef Strauss (MUC) - Charlotte Douglas Intl (CLT) LH428 2018-07-13 19:49:00
Indira Gandhi Intl (DEL) - Franz Josef Strauss (MUC) LH763 2018-07-13 10:21:00
Time Lat Lon Altitude Heading Speed Vertical Rate
2018-04-22 16:30:00 GMT 48.353378 11.797979 0 84 0
2018-04-22 16:30:00 GMT 48.353378 11.797979 0 84 0
2018-04-22 16:29:50 GMT 48.353222 11.797961 0 84 0
2018-04-22 16:29:35 GMT 48.353233 11.797802 0 84 0
2018-04-22 16:29:30 GMT 48.353237 11.798124 0 84 0
2018-04-22 16:29:09 GMT 48.353230 11.798106 0 84 0
2018-04-22 16:28:54 GMT 48.353233 11.798119 0 84 0
2018-04-22 16:28:39 GMT 48.353237 11.798124 0 84 0
2018-04-22 16:28:27 GMT 48.353401 11.798124 0 84 0
2018-04-22 16:28:15 GMT 48.353230 11.798124 0 84 0
2018-04-22 16:28:05 GMT 48.353233 11.798190 0 84 0
2018-04-22 16:27:50 GMT 48.353230 11.797889 0 84 0
2018-04-22 16:27:39 GMT 48.353233 11.797908 0 84 0
2018-04-22 16:27:19 GMT 48.353252 11.797907 0 84 0
2018-04-22 16:27:09 GMT 48.353256 11.797908 0 84 0
2018-04-22 16:26:59 GMT 48.353256 11.797996 0 84 0
2018-04-22 16:26:29 GMT 48.353222 11.798084 0 84 0
2018-04-22 16:26:14 GMT 48.353230 11.798070 0 84 0
2018-04-22 16:25:59 GMT 48.353230 11.798142 0 84 0
2018-04-22 16:25:50 GMT 48.353230 11.798160 0 84 0
2018-04-22 16:25:30 GMT 48.353230 11.798214 0 84 0
2018-04-22 16:25:20 GMT 48.353062 11.798225 0 84 0
2018-04-22 16:25:10 GMT 48.353252 11.798250 0 84 0
2018-04-22 16:24:59 GMT 48.353264 11.798286 0 84 0
2018-04-22 16:24:46 GMT 48.353245 11.797978 0 84 0
2018-04-22 16:24:21 GMT 48.353252 11.797979 0 84 0
2018-04-22 16:24:15 GMT 48.353237 11.797997 0 84 0
2018-04-22 16:24:01 GMT 48.353233 11.798014 0 84 0
2018-04-22 16:23:50 GMT 48.353237 11.797961 0 84 0
2018-04-22 16:23:43 GMT 48.353252 11.798214 0 84 0
2018-04-22 16:23:18 GMT 48.353222 11.797978 0 84 0
2018-04-22 16:22:53 GMT 48.353233 11.797996 0 84 0
2018-04-22 16:22:48 GMT 48.353233 11.798014 0 84 0
2018-04-22 16:22:32 GMT 48.353252 11.798088 0 84 0
2018-04-22 16:22:27 GMT 48.353252 11.798142 0 84 0
2018-04-22 16:22:16 GMT 48.353256 11.798190 0 84 0
2018-04-22 16:22:01 GMT 48.353237 11.797961 0 84 0
2018-04-22 16:21:51 GMT 48.353237 11.797943 0 84 0
2018-04-22 16:20:47 GMT 48.353153 11.797978 0 84 0
2018-04-22 16:20:32 GMT 48.353165 11.797961 0 84 0
2018-04-22 16:20:17 GMT 48.353157 11.797961 0 84 0
2018-04-22 16:19:52 GMT 48.353210 11.797855 0 84 0
2018-04-22 16:19:32 GMT 48.353230 11.797889 0 84 0
2018-04-22 16:18:21 GMT 48.353233 11.797996 0 84 0
2018-04-22 16:17:46 GMT 48.353210 11.798049 0 84 0
2018-04-22 16:16:30 GMT 48.353256 11.797926 0 84 0
2018-04-22 16:16:26 GMT 48.353252 11.797925 0 84 0
2018-04-22 16:16:16 GMT 48.353264 11.797907 0 84 0
2018-04-22 16:16:06 GMT 48.353256 11.797890 0 84 0
2018-04-22 16:15:56 GMT 48.353252 11.797889 0 84 0
2018-04-22 16:15:46 GMT 48.353245 11.797908 0 84 0
We lost coverage of the aircraft here for a total of 11 minutes
2018-04-22 16:04:25 GMT 48.353191 11.797925 0 84 0
2018-04-22 16:04:25 GMT 48.353191 11.797925 0 84 0
2018-04-22 16:04:25 GMT 48.353191 11.797925 0 84 0
2018-04-22 16:04:25 GMT 48.353191 11.797925 0 84 0
2018-04-22 16:04:25 GMT 48.353191 11.797925 0 84 0
2018-04-22 16:04:10 GMT 48.353191 11.797943 0 84 0
2018-04-22 16:04:00 GMT 48.353191 11.797961 0 84 0
2018-04-22 16:01:21 GMT 48.353214 11.797997 0 84 0
2018-04-22 16:01:16 GMT 48.353203 11.797997 0 84 0
2018-04-22 16:01:01 GMT 48.353191 11.798015 0 84 0
2018-04-22 16:00:51 GMT 48.353188 11.797996 0 84 0
2018-04-22 16:00:07 GMT 48.353199 11.797961 0 84 0
2018-04-22 15:59:57 GMT 48.353199 11.797943 0 84 0
2018-04-22 15:55:58 GMT 48.353188 11.797943 0 84 0
2018-04-22 15:55:58 GMT 48.353188 11.797943 0 84 0
2018-04-22 15:55:58 GMT 48.353188 11.797943 0 84 0
2018-04-22 15:51:09 GMT 48.353230 11.797925 0 0
2018-04-22 15:51:09 GMT 48.353230 11.797925 0 0
2018-04-22 15:51:09 GMT 48.353230 11.797925 0 0
2018-04-22 15:51:09 GMT 48.353230 11.797925 0 84 0 0
2018-04-22 15:50:29 GMT 48.353210 11.797996 0 84 0 0
2018-04-22 15:49:55 GMT 48.353256 11.797978 0 84 0 0
2018-04-22 15:49:50 GMT 48.353264 11.797979 0 84 0 0
2018-04-22 15:49:39 GMT 48.353268 11.797996 0 84 0 0
2018-04-22 15:49:10 GMT 48.353237 11.798015 0 84 0 0
2018-04-22 15:48:20 GMT 48.353245 11.798014 0 84 0 0
2018-04-22 15:48:17 GMT 48.353252 11.797997 0 84 0 0
2018-04-22 15:48:04 GMT 48.353237 11.797979 0 84 0 0
2018-04-22 15:47:55 GMT 48.353210 11.797978 0 84 0 0
We lost coverage of the aircraft here for a total of 49 minutes
2018-04-22 14:59:16 GMT 48.353188 11.797978 0 84 0 0
2018-04-22 14:59:16 GMT 48.353188 11.797978 0 84 0 0
2018-04-22 14:59:16 GMT 48.353188 11.797978 0 84 0 0
2018-04-22 14:59:16 GMT 48.353188 11.797978 0 84 0 0
2018-04-22 14:59:16 GMT 48.353188 11.797978 0 84 0 0
2018-04-22 14:56:56 GMT 48.353134 11.797943 0 84 0 0
2018-04-22 14:56:51 GMT 48.353165 11.797961 0 84 0 0
2018-04-22 14:55:26 GMT 48.353233 11.797890 0 84 0 0
2018-04-22 14:55:02 GMT 48.353203 11.797925 0 84 0 0
2018-04-22 14:54:52 GMT 48.353210 11.797943 0 84 0 0
2018-04-22 14:54:36 GMT 48.353191 11.797871 0 84 0 0
2018-04-22 14:54:21 GMT 48.353180 11.797835 0 84 0 0
2018-04-22 14:54:16 GMT 48.353199 11.797890 0 84 0 0
2018-04-22 14:54:06 GMT 48.353203 11.797925 0 84 0 0
2018-04-22 14:53:56 GMT 48.353191 11.797925 0 84 0 0
2018-04-22 14:53:46 GMT 48.353153 11.797837 0 84 0 0
2018-04-22 14:53:37 GMT 48.353191 11.797961 0 84 0 0
2018-04-22 14:53:27 GMT 48.353188 11.797961 0 84 0 0
2018-04-22 14:53:12 GMT 48.353188 11.797943 0 84 0 0
2018-04-22 14:53:06 GMT 48.353191 11.797943 0 84 0 0
2018-04-22 14:52:55 GMT 48.353210 11.797943 0 84 0 0
2018-04-22 14:52:43 GMT 48.353210 11.797908 0 84 2 0
2018-04-22 14:52:33 GMT 48.353191 11.797762 0 81 4 0
2018-04-22 14:52:23 GMT 48.353165 11.797468 0 84 6 0
2018-04-22 14:52:12 GMT 48.353123 11.797058 0 73 9 0
2018-04-22 14:52:01 GMT 48.353043 11.796425 0 101 9 0
2018-04-22 14:51:51 GMT 48.353310 11.796082 0 174 12 0
2018-04-22 14:51:40 GMT 48.353985 11.795974 0 174 18 0
2018-04-22 14:51:26 GMT 48.355247 11.795760 0 174 21 0
2018-04-22 14:51:18 GMT 48.355923 11.795654 0 174 20 0
2018-04-22 14:51:07 GMT 48.356823 11.795504 0 174 18 0
2018-04-22 14:50:55 GMT 48.357697 11.795341 0 174 16 0
2018-04-22 14:50:45 GMT 48.358383 11.795232 0 174 14 0
2018-04-22 14:50:34 GMT 48.358990 11.795124 0 174 11 0
2018-04-22 14:50:23 GMT 48.359470 11.795038 0 171 12 0
2018-04-22 14:50:14 GMT 48.359909 11.794962 0 174 10 0
2018-04-22 14:50:11 GMT 48.360023 11.794962 0 174 10 0
2018-04-22 14:50:05 GMT 48.360291 11.794925 0 182 10 0
2018-04-22 14:50:02 GMT 48.360397 11.794932 0 180 10 0
2018-04-22 14:49:55 GMT 48.360741 11.794880 0 165 11 0
2018-04-22 14:49:50 GMT 48.360924 11.794774 0 137 11 0
2018-04-22 14:49:39 GMT 48.361015 11.794140 0 84 13 0
2018-04-22 14:49:34 GMT 48.360970 11.793612 0 81 14 0
2018-04-22 14:49:30 GMT 48.360943 11.793263 0 84 15 0
2018-04-22 14:49:24 GMT 48.360901 11.792696 0 84 18 0
2018-04-22 14:49:20 GMT 48.360863 11.792179 0 84 18 0
2018-04-22 14:49:14 GMT 48.360817 11.791583 0 84 17 0
2018-04-22 14:49:09 GMT 48.360764 11.790989 0 81 15 0
2018-04-22 14:48:58 GMT 48.360676 11.789974 0 84 19 0
2018-04-22 14:48:46 GMT 48.360535 11.788023 0 84 28 0
2018-04-22 14:48:13 GMT 48.360130 11.782728 0 84 22 0
2018-04-22 14:47:58 GMT 48.359974 11.780759 0 84 19 0
2018-04-22 14:47:52 GMT 48.359921 11.780018 0 84 17 0
2018-04-22 14:47:38 GMT 48.359814 11.778699 0 84 12 0
2018-04-22 14:47:16 GMT 48.359688 11.777432 0 84 8 0
2018-04-22 14:46:58 GMT 48.359978 11.776693 0 171 9 0
2018-04-22 14:46:47 GMT 48.360477 11.776604 0 168 12 0
2018-04-22 14:46:12 GMT 48.362480 11.779052 0 233 33 0
2018-04-22 14:46:03 GMT 48.363331 11.780795 0 236 37 0
2018-04-22 14:45:59 GMT 48.363670 11.781657 0 244 37 0
2018-04-22 14:45:52 GMT 48.363979 11.783253 0 261 40 0
2018-04-22 14:45:48 GMT 48.364086 11.784499 0 264 55 0
2018-04-22 14:45:41 GMT 48.364288 11.787256 0 264 76 0
2018-04-22 14:45:35 GMT 48.364529 11.790372 0 264 84 0
2018-04-22 14:45:31 GMT 48.364727 11.792866 0 264 88 0
2018-04-22 14:45:25 GMT 48.365021 11.796605 0 264 96 0
2018-04-22 14:45:21 GMT 48.365215 11.799298 0 264 110 0
2018-04-22 14:45:17 GMT 48.365433 11.802151 0 264 125 0
2018-04-22 14:45:09 GMT 48.365971 11.809110 0 264 150 0
2018-04-22 14:44:59 GMT 48.366703 11.818976 1,350 264 152 -512
2018-04-22 14:44:53 GMT 48.367172 11.825585 1,475 263 153 -1024
2018-04-22 14:44:48 GMT 48.367588 11.830685 1,550 264 152 -768
2018-04-22 14:44:36 GMT 48.368519 11.843479 1,700 264 152 -640
2018-04-22 14:44:25 GMT 48.369415 11.854741 1,850 263 153 -1024
2018-04-22 14:44:12 GMT 48.370605 11.868896 2,025 264 153 -640
2018-04-22 14:44:03 GMT 48.371265 11.878389 2,125 264 154 -832
2018-04-22 14:43:52 GMT 48.372196 11.890821 2,275 264 156 -832
2018-04-22 14:43:42 GMT 48.372986 11.901081 2,425 264 157 -896
2018-04-22 14:43:34 GMT 48.373672 11.909743 2,550 264 157 -960
2018-04-22 14:43:31 GMT 48.373875 11.912432 2,700 264 159 -640
2018-04-22 14:43:24 GMT 48.374542 11.921293 2,675 264 160 -896
2018-04-22 14:43:20 GMT 48.374771 11.924603 2,700 264 159 -640
2018-04-22 14:43:13 GMT 48.375317 11.932381 2,825 264 159 -768
2018-04-22 14:43:10 GMT 48.375595 11.936293 2,975 264 166 -768
2018-04-22 14:43:06 GMT 48.375961 11.941153 2,900 264 162 -832
2018-04-22 14:43:03 GMT 48.376144 11.943406 2,925 264 165 -768
2018-04-22 14:42:59 GMT 48.376602 11.949040 3,000 264 167 -960
2018-04-22 14:42:53 GMT 48.377060 11.955097 3,375 264 171 -960
2018-04-22 14:42:48 GMT 48.377506 11.960859 3,200 263 176 -1152
2018-04-22 14:42:45 GMT 48.377975 11.965802 3,250 263 177 -1216
2018-04-22 14:42:42 GMT 48.378113 11.967773 3,300 264 187 -1088
2018-04-22 14:42:36 GMT 48.378670 11.975098 3,400 264 181 -832
2018-04-22 14:42:32 GMT 48.379074 11.980732 3,550 264 187 -1088
2018-04-22 14:42:27 GMT 48.379623 11.988126 3,500 264 187 -1088
2018-04-22 14:42:24 GMT 48.379898 11.992000 3,550 264 187 -1088
2018-04-22 14:42:21 GMT 48.380066 11.994179 3,625 264 187 -1088
2018-04-22 14:42:15 GMT 48.380623 12.001696 3,700 265 188 -832
2018-04-22 14:42:12 GMT 48.380905 12.006578 3,725 265 189 -896
2018-04-22 14:42:08 GMT 48.381275 12.011960 3,775 264 192 -1152
2018-04-22 14:42:04 GMT 48.381786 12.018320 3,875 263 191 -1024
2018-04-22 14:42:01 GMT 48.382160 12.022801 3,950 265 192 -896
2018-04-22 14:41:55 GMT 48.382626 12.028873 4,100 264 192 -1088
2018-04-22 14:41:51 GMT 48.383011 12.033480 4,075 264 191 -1088
2018-04-22 14:41:46 GMT 48.383560 12.041156 4,175 265 191 -896
2018-04-22 14:41:42 GMT 48.384022 12.047376 4,275 265 192 -1088
2018-04-22 14:41:39 GMT 48.384209 12.050629 4,300 265 194 -1280
2018-04-22 14:41:32 GMT 48.384933 12.060312 4,475 263 192 -1216
2018-04-22 14:41:29 GMT 48.385162 12.062988 4,525 263 191 -1216
2018-04-22 14:41:24 GMT 48.385792 12.070505 4,625 264 189 -1216
2018-04-22 14:41:19 GMT 48.386307 12.077355 4,725 265 187 -896
2018-04-22 14:41:13 GMT 48.386864 12.085828 4,825 264 188 0
2018-04-22 14:41:10 GMT 48.387039 12.088271 4,875 264 188 -1088
2018-04-22 14:41:07 GMT 48.387280 12.091538 4,900 264 188 -960
2018-04-22 14:41:03 GMT 48.387680 12.097074 4,925 264 191 448
2018-04-22 14:41:00 GMT 48.387978 12.101151 4,975 264 191 448
2018-04-22 14:40:57 GMT 48.388321 12.105525 4,950 264 197 256
2018-04-22 14:40:53 GMT 48.388870 12.112568 4,925 264 204 0
2018-04-22 14:40:50 GMT 48.389004 12.114667 4,925 264 203 0
2018-04-22 14:40:47 GMT 48.389282 12.118354 4,925 264 206 0
2018-04-22 14:40:44 GMT 48.389656 12.123413 4,925 264 209 0
2018-04-22 14:40:41 GMT 48.389935 12.127172 4,925 264 211 0
2018-04-22 14:40:38 GMT 48.390354 12.133026 4,925 264 214 0
2018-04-22 14:40:34 GMT 48.390774 12.138375 4,925 264 218 -64
2018-04-22 14:40:30 GMT 48.391296 12.145174 4,925 264 223 192
2018-04-22 14:40:27 GMT 48.391571 12.148907 4,925 264 224 128
2018-04-22 14:40:24 GMT 48.391983 12.154348 4,925 264 227 0
2018-04-22 14:40:19 GMT 48.392448 12.160709 4,925 264 234 256
2018-04-22 14:40:16 GMT 48.392853 12.165668 4,900 264 240 0
2018-04-22 14:40:09 GMT 48.393814 12.177922 4,950 267 247 -128
2018-04-22 14:40:06 GMT 48.394356 12.184488 4,925 264 246 -256
2018-04-22 14:40:00 GMT 48.394962 12.193740 4,950 265 247 64
2018-04-22 14:39:54 GMT 48.395382 12.202269 4,950 268 246 -384
2018-04-22 14:39:48 GMT 48.395645 12.212360 5,075 269 247 -576
2018-04-22 14:39:44 GMT 48.395847 12.220772 5,025 267 248 -576
2018-04-22 14:39:38 GMT 48.396870 12.231686 5,125 255 248 -1600
2018-04-22 14:39:34 GMT 48.398163 12.237361 5,250 243 247 -1600
2018-04-22 14:39:28 GMT 48.401367 12.245671 5,375 234 247 -1024
2018-04-22 14:39:23 GMT 48.405109 12.252864 5,450 231 248 -704
2018-04-22 14:39:18 GMT 48.408279 12.258559 5,525 231 249 -832
2018-04-22 14:39:14 GMT 48.412262 12.265672 5,600 231 249 -1024
2018-04-22 14:39:11 GMT 48.413589 12.268066 5,625 231 249 -1088
2018-04-22 14:39:07 GMT 48.417206 12.274405 5,725 230 248 -1216
2018-04-22 14:39:04 GMT 48.418797 12.277149 5,775 227 247 -1600
2018-04-22 14:39:01 GMT 48.421497 12.281342 5,850 224 247 -1472
2018-04-22 14:38:57 GMT 48.425594 12.286835 5,975 218 248 -1152
2018-04-22 14:38:54 GMT 48.428059 12.289364 6,025 167 258 -704
2018-04-22 14:38:50 GMT 48.431458 12.292328 6,050 206 250 -448
2018-04-22 14:38:46 GMT 48.436020 12.295074 6,075 194 253 -960
2018-04-22 14:38:41 GMT 48.443253 12.297222 6,175 184 255 -960
2018-04-22 14:38:38 GMT 48.444901 12.297363 6,200 182 256 -960
2018-04-22 14:38:35 GMT 48.448471 12.297293 6,300 167 258 -704
2018-04-22 14:38:32 GMT 48.453106 12.296303 6,300 167 259 -704
2018-04-22 14:38:28 GMT 48.457294 12.294641 6,350 159 260 -1024
2018-04-22 14:38:23 GMT 48.463673 12.290304 6,450 150 263 -576
2018-04-22 14:38:20 GMT 48.465115 12.289003 6,575 140 266 -704
2018-04-22 14:38:17 GMT 48.468613 12.285180 6,500 140 266 -704
2018-04-22 14:38:14 GMT 48.472145 12.280257 6,575 115 271 -704
2018-04-22 14:38:11 GMT 48.474472 12.276165 6,600 127 269 -896
2018-04-22 14:38:08 GMT 48.476807 12.271236 6,650 120 271 -832
2018-04-22 14:38:05 GMT 48.478477 12.266814 6,675 101 273 -1024
2018-04-22 14:38:00 GMT 48.480850 12.258502 6,750 83 294 -1216
2018-04-22 14:37:56 GMT 48.482162 12.251376 6,800 97 274 -1152
2018-04-22 14:37:53 GMT 48.482712 12.245319 6,875 84 290 -320
2018-04-22 14:37:49 GMT 48.482849 12.239192 7,000 83 294 -1216
2018-04-22 14:37:45 GMT 48.482342 12.228578 7,025 83 280 -960
2018-04-22 14:37:42 GMT 48.482117 12.225318 7,125 83 285 -512
2018-04-22 14:37:39 GMT 48.481659 12.219121 7,100 83 282 -768
2018-04-22 14:37:34 GMT 48.480850 12.207907 7,175 83 285 -448
2018-04-22 14:37:31 GMT 48.480526 12.203570 7,200 83 289 -128
2018-04-22 14:37:28 GMT 48.480194 12.198627 7,225 83 294 -1216
2018-04-22 14:37:24 GMT 48.479324 12.187007 7,225 83 291 -320
2018-04-22 14:37:21 GMT 48.479080 12.183187 7,500 83 293 -1280
2018-04-22 14:37:17 GMT 48.478546 12.176091 7,275 83 293 -768
2018-04-22 14:37:14 GMT 48.478043 12.169189 7,350 83 293 -1216
2018-04-22 14:37:11 GMT 48.477592 12.163239 7,375 83 294 -1216
2018-04-22 14:37:08 GMT 48.477081 12.155938 7,550 83 294 -1216
2018-04-22 14:37:04 GMT 48.476521 12.148566 7,525 83 294 -1344
2018-04-22 14:37:01 GMT 48.476028 12.141442 7,600 83 296 -704
2018-04-22 14:36:56 GMT 48.475357 12.132303 7,750 83 296 -704
2018-04-22 14:36:53 GMT 48.474846 12.125798 7,750 83 296 -704
2018-04-22 14:36:50 GMT 48.474426 12.120016 7,775 83 296 -704
2018-04-22 14:36:46 GMT 48.473820 12.112210 8,000 83 297 -896
2018-04-22 14:36:41 GMT 48.473030 12.101513 7,925 83 298 -1344
2018-04-22 14:36:35 GMT 48.472229 12.090595 8,050 83 297 -1408
2018-04-22 14:36:32 GMT 48.471588 12.082142 8,150 83 297 -1216
2018-04-22 14:36:29 GMT 48.471214 12.077010 8,250 83 298 -1024
2018-04-22 14:36:25 GMT 48.470608 12.068554 8,325 83 298 -1088
2018-04-22 14:36:19 GMT 48.469677 12.056194 8,400 84 297 -1024
2018-04-22 14:36:15 GMT 48.468933 12.046016 8,625 83 297 -896
2018-04-22 14:36:11 GMT 48.468430 12.039466 8,550 83 297 -896
2018-04-22 14:36:08 GMT 48.467972 12.033269 8,550 83 297 -832
2018-04-22 14:36:03 GMT 48.467331 12.024607 8,625 83 296 -960
2018-04-22 14:36:00 GMT 48.466782 12.017212 8,700 83 297 -704
2018-04-22 14:35:57 GMT 48.466232 12.009888 8,750 83 297 -1024
2018-04-22 14:35:53 GMT 48.465721 12.002636 8,800 83 297 -704
2018-04-22 14:35:50 GMT 48.465302 11.997070 8,850 83 297 -1088
2018-04-22 14:35:47 GMT 48.464905 11.991718 8,950 84 296 -1024
2018-04-22 14:35:43 GMT 48.464092 11.980808 8,975 83 298 -1024
2018-04-22 14:35:38 GMT 48.463486 11.973196 9,050 83 299 -896
2018-04-22 14:35:35 GMT 48.462788 11.963894 9,125 83 299 -960
2018-04-22 14:35:30 GMT 48.461998 11.953559 9,200 83 299 -960
2018-04-22 14:35:27 GMT 48.461700 11.949604 9,300 83 301 -1024
2018-04-22 14:35:23 GMT 48.460972 11.939826 9,300 83 301 -1024
2018-04-22 14:35:19 GMT 48.460373 11.932138 9,375 83 301 -896
2018-04-22 14:35:15 GMT 48.459763 11.924575 9,575 83 301 -1024
2018-04-22 14:35:12 GMT 48.459229 11.917138 9,475 83 301 -1024
2018-04-22 14:35:09 GMT 48.458725 11.910447 9,550 83 301 -1024
2018-04-22 14:35:05 GMT 48.458130 11.902489 9,650 83 303 -896
2018-04-22 14:35:01 GMT 48.457527 11.894796 9,675 83 304 -1024
2018-04-22 14:34:58 GMT 48.457016 11.887641 9,775 83 303 -1024
2018-04-22 14:34:55 GMT 48.456642 11.882653 9,800 83 303 -1024
2018-04-22 14:34:51 GMT 48.455994 11.874197 9,850 83 303 -1024
2018-04-22 14:34:48 GMT 48.455475 11.867277 9,900 83 303 -960
2018-04-22 14:34:45 GMT 48.455063 11.861431 9,975 83 303 -960
2018-04-22 14:34:42 GMT 48.454643 11.856127 9,975 83 303 -960
2018-04-22 14:34:39 GMT 48.454102 11.848825 10,025 83 303 -1024
2018-04-22 14:34:35 GMT 48.453293 11.838491 10,100 83 304 -1024
2018-04-22 14:34:32 GMT 48.452820 11.831994 10,150 83 304 -1088
2018-04-22 14:34:29 GMT 48.452312 11.825481 10,225 83 304 -832
2018-04-22 14:34:26 GMT 48.451813 11.818965 10,250 83 307 -1088
2018-04-22 14:34:23 GMT 48.451492 11.814247 10,300 83 306 -1024
2018-04-22 14:34:20 GMT 48.451103 11.809002 10,325 83 307 -1152
2018-04-22 14:34:16 GMT 48.450405 11.800111 10,400 83 307 -1024
2018-04-22 14:34:13 GMT 48.449799 11.792450 10,475 83 308 -1024
2018-04-22 14:34:10 GMT 48.449383 11.786885 10,500 83 309 -960
2018-04-22 14:34:07 GMT 48.448730 11.778356 10,575 83 309 -896
2018-04-22 14:34:04 GMT 48.448402 11.774091 10,600 82 308 -896
2018-04-22 14:34:01 GMT 48.447968 11.768329 10,675 83 308 -1024
2018-04-22 14:33:58 GMT 48.447472 11.762165 10,725 83 309 -960
2018-04-22 14:33:55 GMT 48.446960 11.755732 10,750 83 309 -960
2018-04-22 14:33:51 GMT 48.446121 11.744674 10,825 83 309 -960
2018-04-22 14:33:48 GMT 48.445816 11.740582 10,900 83 307 -896
2018-04-22 14:33:45 GMT 48.445190 11.732314 11,000 83 307 -576
2018-04-22 14:33:42 GMT 48.444866 11.728050 11,000 83 307 0
2018-04-22 14:33:39 GMT 48.444447 11.722557 10,975 83 305 0
2018-04-22 14:33:35 GMT 48.443653 11.712438 11,000 83 306 0
2018-04-22 14:33:32 GMT 48.443237 11.707161 10,975 83 306 0
2018-04-22 14:33:29 GMT 48.442772 11.701018 11,000 83 305 0
2018-04-22 14:33:24 GMT 48.441788 11.688185 10,975 83 306 0
2018-04-22 14:33:21 GMT 48.441422 11.683537 10,975 83 306 0
2018-04-22 14:33:18 GMT 48.441010 11.678044 10,975 83 307 0
2018-04-22 14:33:15 GMT 48.440395 11.670588 10,975 82 308 0
2018-04-22 14:33:12 GMT 48.439838 11.663361 10,975 83 309 0
2018-04-22 14:33:08 GMT 48.439270 11.655860 10,975 83 310 0
2018-04-22 14:33:05 GMT 48.438812 11.650134 10,975 82 310 -64
2018-04-22 14:33:02 GMT 48.438171 11.642198 11,000 83 309 -128
2018-04-22 14:32:58 GMT 48.437557 11.633871 11,000 83 309 0
2018-04-22 14:32:55 GMT 48.437119 11.628535 11,000 83 307 -64
2018-04-22 14:32:52 GMT 48.436478 11.620014 11,000 83 307 -64
2018-04-22 14:32:49 GMT 48.436203 11.616633 11,000 83 306 0
2018-04-22 14:32:45 GMT 48.435413 11.606694 11,000 83 305 128
2018-04-22 14:32:42 GMT 48.434875 11.599309 10,975 83 305 128
2018-04-22 14:32:38 GMT 48.434299 11.591949 10,975 83 305 0
2018-04-22 14:32:34 GMT 48.433784 11.584794 10,975 83 305 -128
2018-04-22 14:32:31 GMT 48.433086 11.575470 10,975 83 307 0
2018-04-22 14:32:26 GMT 48.432404 11.566772 11,000 83 307 0
2018-04-22 14:32:23 GMT 48.431992 11.561209 10,975 83 308 0
2018-04-22 14:32:20 GMT 48.431412 11.553786 11,000 83 308 -64
2018-04-22 14:32:17 GMT 48.430939 11.547124 11,000 83 308 0
2018-04-22 14:32:14 GMT 48.430527 11.541631 11,000 83 308 64
2018-04-22 14:32:11 GMT 48.430069 11.535222 11,000 84 306 0
2018-04-22 14:32:08 GMT 48.429409 11.525670 11,000 84 307 0
2018-04-22 14:32:04 GMT 48.428898 11.518442 11,000 84 306 -64
2018-04-22 14:32:01 GMT 48.428650 11.514376 11,000 84 306 0
2018-04-22 14:31:57 GMT 48.428013 11.504420 10,975 84 306 0
2018-04-22 14:31:53 GMT 48.427547 11.496325 10,975 85 307 -128
2018-04-22 14:31:50 GMT 48.427036 11.487435 11,000 85 307 -64
2018-04-22 14:31:47 GMT 48.426758 11.481942 11,000 85 307 0
2018-04-22 14:31:44 GMT 48.426498 11.477051 11,000 85 307 128
2018-04-22 14:31:41 GMT 48.426178 11.471487 11,000 82 306 0
2018-04-22 14:31:38 GMT 48.425827 11.465534 11,000 83 307 -64
2018-04-22 14:31:35 GMT 48.425453 11.459824 11,000 80 307 192
2018-04-22 14:31:30 GMT 48.424210 11.445641 11,000 79 308 -256
2018-04-22 14:31:27 GMT 48.423450 11.439153 10,975 79 308 128
2018-04-22 14:31:22 GMT 48.422150 11.429232 10,975 79 309 -320
2018-04-22 14:31:19 GMT 48.421555 11.424161 11,000 79 309 -192
2018-04-22 14:31:16 GMT 48.420799 11.417614 11,000 82 309 128
2018-04-22 14:31:12 GMT 48.420101 11.410314 10,975 83 310 0
2018-04-22 14:31:09 GMT 48.419495 11.402823 10,975 83 310 -64
2018-04-22 14:31:04 GMT 48.418762 11.392963 11,000 83 310 -64
2018-04-22 14:31:01 GMT 48.418098 11.384655 11,025 83 309 -192
2018-04-22 14:30:58 GMT 48.417770 11.380390 11,025 84 308 192
2018-04-22 14:30:55 GMT 48.417343 11.374160 11,025 84 308 192
2018-04-22 14:30:49 GMT 48.416840 11.359863 10,975 93 308 0
2018-04-22 14:30:45 GMT 48.417068 11.353243 10,975 103 307 -64
2018-04-22 14:30:42 GMT 48.418076 11.344440 10,975 103 307 -64
2018-04-22 14:30:38 GMT 48.419308 11.338035 11,000 108 307 -64
2018-04-22 14:30:35 GMT 48.420567 11.332831 11,000 113 305 64
2018-04-22 14:30:32 GMT 48.422565 11.326326 10,975 117 304 192
2018-04-22 14:30:29 GMT 48.424664 11.320833 10,975 121 304 192
2018-04-22 14:30:26 GMT 48.428200 11.313244 10,975 128 302 -128
2018-04-22 14:30:23 GMT 48.429596 11.310642 10,975 130 302 -128
2018-04-22 14:30:19 GMT 48.433502 11.304368 10,975 136 301 -128
2018-04-22 14:30:16 GMT 48.437759 11.298312 11,000 137 300 0
2018-04-22 14:30:13 GMT 48.439747 11.295680 10,975 138 300 64
2018-04-22 14:30:08 GMT 48.444992 11.288523 10,975 138 300 0
2018-04-22 14:30:04 GMT 48.448746 11.283522 10,975 138 300 -64
2018-04-22 14:30:01 GMT 48.452595 11.278405 11,000 138 303 64
2018-04-22 14:29:58 GMT 48.455612 11.274297 11,000 137 304 64
2018-04-22 14:29:55 GMT 48.459435 11.269082 11,000 137 304 64
2018-04-22 14:29:52 GMT 48.461655 11.266127 11,000 138 306 0
2018-04-22 14:29:49 GMT 48.464813 11.261902 10,975 138 306 -64
2018-04-22 14:29:46 GMT 48.467743 11.257888 11,000 138 318 -256
2018-04-22 14:29:43 GMT 48.471680 11.252602 11,000 138 310 -64
2018-04-22 14:29:40 GMT 48.474564 11.248662 10,975 138 314 128
2018-04-22 14:29:36 GMT 48.478149 11.243856 10,975 138 315 128
2018-04-22 14:29:32 GMT 48.483078 11.237253 10,975 138 320 -320
2018-04-22 14:29:29 GMT 48.485832 11.233521 11,000 138 327 64
2018-04-22 14:29:26 GMT 48.489944 11.228027 11,000 138 325 -64
2018-04-22 14:29:21 GMT 48.495468 11.220583 11,000 138 372 -128
2018-04-22 14:29:17 GMT 48.500610 11.213661 11,000 138 334 -64
2018-04-22 14:29:14 GMT 48.503941 11.209163 11,000 138 336 64
2018-04-22 14:29:11 GMT 48.507065 11.204928 11,000 137 338 0
2018-04-22 14:29:07 GMT 48.511108 11.199405 11,000 137 343 0
2018-04-22 14:29:03 GMT 48.517345 11.190876 11,000 138 348 0
2018-04-22 14:28:59 GMT 48.521210 11.185702 11,000 138 351 0
2018-04-22 14:28:56 GMT 48.524937 11.180685 11,000 137 354 64
2018-04-22 14:28:52 GMT 48.529079 11.175047 11,000 137 382 -1024
2018-04-22 14:28:47 GMT 48.535583 11.166264 10,975 137 362 64
2018-04-22 14:28:44 GMT 48.539181 11.161314 10,975 137 365 0
2018-04-22 14:28:41 GMT 48.542812 11.156399 10,975 137 369 128
2018-04-22 14:28:37 GMT 48.548771 11.148304 10,975 138 371 0
2018-04-22 14:28:34 GMT 48.552475 11.143306 10,975 137 373 0
2018-04-22 14:28:31 GMT 48.555706 11.138908 11,000 138 372 -128
2018-04-22 14:28:28 GMT 48.559803 11.133343 11,000 138 373 64
2018-04-22 14:28:25 GMT 48.564922 11.126404 11,000 138 375 -128
2018-04-22 14:28:21 GMT 48.568417 11.121706 11,000 138 375 0
2018-04-22 14:28:17 GMT 48.573853 11.114361 11,000 137 375 192
2018-04-22 14:28:14 GMT 48.577309 11.109635 11,000 138 376 -128
2018-04-22 14:28:11 GMT 48.582474 11.102552 11,000 137 377 -128
2018-04-22 14:28:08 GMT 48.585983 11.097811 11,025 137 377 -64
2018-04-22 14:28:04 GMT 48.591660 11.090064 11,025 137 377 -256
2018-04-22 14:28:00 GMT 48.596996 11.082820 11,050 137 378 -704
2018-04-22 14:27:56 GMT 48.602444 11.075375 11,100 137 379 -896
2018-04-22 14:27:53 GMT 48.606491 11.069923 11,150 137 379 -896
2018-04-22 14:27:49 GMT 48.610382 11.064571 11,175 137 379 -1024
2018-04-22 14:27:46 GMT 48.614273 11.059289 11,400 137 381 -960
2018-04-22 14:27:43 GMT 48.618320 11.053764 11,325 137 380 -896
2018-04-22 14:27:40 GMT 48.621948 11.048777 11,325 137 379 -896
2018-04-22 14:27:36 GMT 48.627163 11.041693 11,450 137 381 -960
2018-04-22 14:27:31 GMT 48.634472 11.031647 11,575 137 380 -960
2018-04-22 14:27:25 GMT 48.641968 11.021470 11,575 137 382 -1024
2018-04-22 14:27:22 GMT 48.644947 11.017336 11,625 137 382 -1024
2018-04-22 14:27:19 GMT 48.648998 11.011770 11,675 137 380 -960
2018-04-22 14:27:15 GMT 48.654739 11.003934 11,750 137 380 -960
2018-04-22 14:27:11 GMT 48.659332 10.997676 11,825 138 380 -960
2018-04-22 14:27:08 GMT 48.664314 10.990954 11,875 138 380 -1024
2018-04-22 14:27:05 GMT 48.668224 10.985605 11,925 138 378 -1088
2018-04-22 14:27:02 GMT 48.671902 10.980690 11,975 138 378 -960
2018-04-22 14:26:58 GMT 48.677673 10.972957 12,050 138 378 -960
2018-04-22 14:26:55 GMT 48.680145 10.969637 12,125 137 379 -1024
2018-04-22 14:26:52 GMT 48.686005 10.961609 12,150 137 379 -1024
2018-04-22 14:26:49 GMT 48.688477 10.958228 12,250 136 381 -1472
2018-04-22 14:26:45 GMT 48.693832 10.950552 12,275 135 381 -1728
2018-04-22 14:26:42 GMT 48.698994 10.942889 12,425 134 381 -1856
2018-04-22 14:26:38 GMT 48.701740 10.938769 12,525 134 383 -1664
2018-04-22 14:26:35 GMT 48.705551 10.932805 12,650 133 384 -1792
2018-04-22 14:26:32 GMT 48.709888 10.926048 12,725 134 384 -1856
2018-04-22 14:26:27 GMT 48.715569 10.917158 12,975 133 384 -1920
2018-04-22 14:26:23 GMT 48.721115 10.908438 12,925 133 384 -1920
2018-04-22 14:26:20 GMT 48.724319 10.903352 13,025 133 384 -1984
2018-04-22 14:26:16 GMT 48.729767 10.894846 13,225 133 384 -2048
2018-04-22 14:26:12 GMT 48.735306 10.886150 13,325 133 384 -2048
2018-04-22 14:26:08 GMT 48.740616 10.877803 13,450 133 385 -1792
2018-04-22 14:26:05 GMT 48.743088 10.873930 13,525 133 386 -1216
2018-04-22 14:26:01 GMT 48.747688 10.866707 13,625 133 389 -768
2018-04-22 14:25:58 GMT 48.751923 10.860058 13,650 133 389 -768
2018-04-22 14:25:55 GMT 48.755554 10.854348 13,775 133 392 -1408
2018-04-22 14:25:51 GMT 48.759930 10.847481 13,875 133 393 -2048
2018-04-22 14:25:48 GMT 48.764832 10.839703 13,875 133 393 -2048
2018-04-22 14:25:44 GMT 48.769363 10.832590 13,975 133 394 -1920
2018-04-22 14:25:39 GMT 48.775955 10.822237 14,150 133 394 -2048
2018-04-22 14:25:35 GMT 48.781532 10.813510 14,300 133 396 -1408
2018-04-22 14:25:31 GMT 48.785954 10.806499 14,425 133 398 -1088
2018-04-22 14:25:28 GMT 48.789772 10.800428 14,450 133 398 -960
2018-04-22 14:25:24 GMT 48.794380 10.793200 14,500 133 401 -832
2018-04-22 14:25:20 GMT 48.801083 10.782647 14,575 133 403 -1600
2018-04-22 14:25:17 GMT 48.803364 10.778961 14,625 133 403 -1664
2018-04-22 14:25:14 GMT 48.807129 10.773010 14,725 133 403 -1728
2018-04-22 14:25:11 GMT 48.811138 10.766746 14,925 133 403 -1152
2018-04-22 14:25:07 GMT 48.816307 10.758579 14,950 133 403 -512
2018-04-22 14:25:04 GMT 48.820816 10.751460 14,975 133 401 64
2018-04-22 14:25:01 GMT 48.824547 10.745569 15,000 133 401 -256
2018-04-22 14:24:57 GMT 48.829666 10.737401 15,000 133 401 64
2018-04-22 14:24:54 GMT 48.833130 10.731952 15,000 134 400 64
2018-04-22 14:24:51 GMT 48.838531 10.723431 14,975 133 402 -64
2018-04-22 14:24:47 GMT 48.842926 10.716529 14,975 133 403 0
2018-04-22 14:24:44 GMT 48.847000 10.709980 14,975 133 403 0
2018-04-22 14:24:40 GMT 48.850754 10.704081 14,975 133 403 0
2018-04-22 14:24:37 GMT 48.855923 10.695913 14,975 133 403 0
2018-04-22 14:24:34 GMT 48.858353 10.692092 15,000 133 403 0
2018-04-22 14:24:31 GMT 48.863525 10.683922 15,000 133 402 -128
2018-04-22 14:24:28 GMT 48.866867 10.678641 15,000 133 402 -128
2018-04-22 14:24:25 GMT 48.870483 10.672936 15,000 133 401 64
2018-04-22 14:24:22 GMT 48.875751 10.664617 15,000 133 401 64
2018-04-22 14:24:18 GMT 48.880596 10.656883 14,975 133 399 0
2018-04-22 14:24:15 GMT 48.885086 10.649837 14,975 133 401 0
2018-04-22 14:24:12 GMT 48.888931 10.643710 15,000 133 401 0
2018-04-22 14:24:09 GMT 48.891628 10.639464 15,000 133 401 0
2018-04-22 14:24:03 GMT 48.898178 10.629061 14,975 133 402 64
2018-04-22 14:24:00 GMT 48.903915 10.619876 14,975 133 402 0
2018-04-22 14:23:56 GMT 48.908295 10.612938 14,975 133 401 -128
2018-04-22 14:23:52 GMT 48.913834 10.604201 15,000 133 400 64
2018-04-22 14:23:48 GMT 48.917908 10.597722 15,000 133 400 0
2018-04-22 14:23:44 GMT 48.922913 10.589808 15,000 133 398 0
2018-04-22 14:23:41 GMT 48.926331 10.584341 15,000 133 398 0
2018-04-22 14:23:37 GMT 48.932968 10.573848 15,000 133 398 64
2018-04-22 14:23:34 GMT 48.935619 10.569570 14,975 133 398 128
2018-04-22 14:23:31 GMT 48.939438 10.563499 14,975 133 399 0
2018-04-22 14:23:27 GMT 48.945812 10.553380 14,975 133 399 -192
2018-04-22 14:23:24 GMT 48.948887 10.548537 15,000 133 399 0
2018-04-22 14:23:21 GMT 48.953384 10.541382 15,000 133 399 64
2018-04-22 14:23:15 GMT 48.959747 10.531241 14,975 133 398 0
2018-04-22 14:23:12 GMT 48.964157 10.524180 15,000 133 398 0
2018-04-22 14:23:09 GMT 48.967850 10.518282 14,975 133 398 0
2018-04-22 14:23:05 GMT 48.973709 10.508986 14,975 133 398 64
2018-04-22 14:23:02 GMT 48.976631 10.504303 15,000 133 398 64
2018-04-22 14:22:59 GMT 48.979706 10.499460 14,975 133 398 -64
2018-04-22 14:22:56 GMT 48.984650 10.491521 15,000 133 398 -128
2018-04-22 14:22:53 GMT 48.988316 10.485655 15,000 133 398 0
2018-04-22 14:22:50 GMT 48.993530 10.477365 15,000 133 398 0
2018-04-22 14:22:46 GMT 48.997330 10.471309 15,000 133 398 64
2018-04-22 14:22:43 GMT 49.002281 10.463393 15,000 133 398 0
2018-04-22 14:22:39 GMT 49.006256 10.457153 15,000 133 399 0
2018-04-22 14:22:36 GMT 49.010056 10.451026 15,000 133 401 64
2018-04-22 14:22:32 GMT 49.015915 10.441589 15,000 133 401 64
2018-04-22 14:22:29 GMT 49.018707 10.437153 15,000 133 401 0
2018-04-22 14:22:26 GMT 49.023056 10.430180 14,975 133 401 0
2018-04-22 14:22:21 GMT 49.028538 10.421327 15,000 133 403 0
2018-04-22 14:22:18 GMT 49.032402 10.415184 15,000 133 403 -64
2018-04-22 14:22:14 GMT 49.038548 10.405354 15,000 133 403 -64
2018-04-22 14:22:11 GMT 49.042786 10.398560 15,000 133 402 0
2018-04-22 14:22:08 GMT 49.045853 10.393630 14,975 133 401 64
2018-04-22 14:22:05 GMT 49.049534 10.387646 15,000 133 401 0
2018-04-22 14:22:02 GMT 49.052837 10.382297 14,975 133 401 0
2018-04-22 14:21:58 GMT 49.059261 10.372033 14,975 133 404 0
2018-04-22 14:21:55 GMT 49.061310 10.368709 14,975 133 404 0
2018-04-22 14:21:52 GMT 49.065685 10.361698 14,975 133 406 0
2018-04-22 14:21:48 GMT 49.071487 10.352361 14,975 133 406 0
2018-04-22 14:21:44 GMT 49.075607 10.345741 15,000 133 404 0
2018-04-22 14:21:41 GMT 49.080070 10.338424 15,000 133 405 0
2018-04-22 14:21:37 GMT 49.085751 10.329317 15,000 133 403 -64
2018-04-22 14:21:34 GMT 49.088654 10.324543 15,000 133 403 -64
2018-04-22 14:21:31 GMT 49.093151 10.317319 15,000 133 403 0
2018-04-22 14:21:27 GMT 49.099640 10.306796 15,000 133 401 0
2018-04-22 14:21:24 GMT 49.101810 10.303297 15,000 133 400 0
2018-04-22 14:21:21 GMT 49.106506 10.295739 15,000 133 400 0
2018-04-22 14:21:18 GMT 49.110855 10.288837 14,975 133 400 0
2018-04-22 14:21:15 GMT 49.113308 10.284938 14,975 133 401 0
2018-04-22 14:21:12 GMT 49.116615 10.279661 14,975 133 401 0
2018-04-22 14:21:08 GMT 49.122665 10.270104 15,000 133 401 0
2018-04-22 14:21:05 GMT 49.126556 10.263977 15,000 132 401 64
2018-04-22 14:21:02 GMT 49.129742 10.258845 15,000 132 402 0
2018-04-22 14:20:59 GMT 49.134338 10.251089 15,000 130 402 0
2018-04-22 14:20:53 GMT 49.141148 10.238680 15,000 127 403 0
2018-04-22 14:20:50 GMT 49.144966 10.230946 15,000 125 403 0
2018-04-22 14:20:45 GMT 49.150223 10.219539 15,000 123 404 0
2018-04-22 14:20:40 GMT 49.155762 10.206651 14,975 122 406 0
2018-04-22 14:20:36 GMT 49.158279 10.200589 14,975 122 406 -64
2018-04-22 14:20:33 GMT 49.163307 10.188518 15,000 122 402 0
2018-04-22 14:20:28 GMT 49.166706 10.180279 15,000 122 404 64
2018-04-22 14:20:25 GMT 49.170101 10.172111 15,000 122 404 64
2018-04-22 14:20:22 GMT 49.173203 10.164607 14,975 122 405 64
2018-04-22 14:20:18 GMT 49.176407 10.156931 14,975 122 406 0
2018-04-22 14:20:15 GMT 49.180485 10.147030 14,975 122 405 0
2018-04-22 14:20:11 GMT 49.183510 10.139803 15,000 122 402 0
2018-04-22 14:20:07 GMT 49.188446 10.127916 15,000 122 405 0
2018-04-22 14:20:04 GMT 49.191055 10.121648 15,000 122 405 0
2018-04-22 14:20:01 GMT 49.193665 10.115380 15,000 122 404 0
2018-04-22 14:19:58 GMT 49.196640 10.108126 15,000 122 403 0
2018-04-22 14:19:55 GMT 49.200733 10.098243 15,000 122 403 0
2018-04-22 14:19:51 GMT 49.205158 10.087690 15,000 122 403 0
2018-04-22 14:19:48 GMT 49.206848 10.083618 15,000 122 402 0
2018-04-22 14:19:45 GMT 49.210236 10.075449 15,000 122 403 0
2018-04-22 14:19:42 GMT 49.213116 10.068464 15,000 122 402 0
2018-04-22 14:19:39 GMT 49.216702 10.059790 15,000 122 402 0
2018-04-22 14:19:35 GMT 49.220287 10.051189 15,000 122 402 0
2018-04-22 14:19:31 GMT 49.224010 10.042010 15,000 122 402 0
2018-04-22 14:19:28 GMT 49.226990 10.034854 15,000 122 403 0
2018-04-22 14:19:25 GMT 49.230576 10.026181 15,000 122 403 0
2018-04-22 14:19:21 GMT 49.234344 10.017002 15,000 122 404 0
2018-04-22 14:19:16 GMT 49.240116 10.002979 15,000 122 405 0
2018-04-22 14:19:12 GMT 49.242645 9.996925 15,000 122 406 0
2018-04-22 14:19:09 GMT 49.245667 9.989601 15,000 122 406 0
2018-04-22 14:19:05 GMT 49.249649 9.979952 15,000 122 406 0
2018-04-22 14:19:02 GMT 49.252853 9.972135 15,000 122 407 0
2018-04-22 14:18:58 GMT 49.256882 9.962416 15,000 122 407 64
2018-04-22 14:18:53 GMT 49.262100 9.949740 14,975 122 408 0
2018-04-22 14:18:50 GMT 49.264755 9.943402 15,000 122 408 0
2018-04-22 14:18:47 GMT 49.267445 9.936772 15,000 122 407 0
2018-04-22 14:18:44 GMT 49.270981 9.928260 15,000 122 408 0
2018-04-22 14:18:39 GMT 49.276794 9.914105 15,000 122 407 0
2018-04-22 14:18:36 GMT 49.279503 9.907500 15,000 122 407 64
2018-04-22 14:18:31 GMT 49.283504 9.897742 14,975 122 408 64
2018-04-22 14:18:28 GMT 49.287415 9.888259 14,975 122 408 0
2018-04-22 14:18:22 GMT 49.293560 9.873312 15,000 122 407 -64
2018-04-22 14:18:17 GMT 49.299377 9.859145 15,000 122 408 0
2018-04-22 14:18:14 GMT 49.300873 9.855511 15,000 122 407 0
2018-04-22 14:18:10 GMT 49.305084 9.845229 15,000 122 407 -64
2018-04-22 14:18:05 GMT 49.309845 9.833538 15,000 122 406 64
2018-04-22 14:18:02 GMT 49.313232 9.825299 15,000 122 404 0
2018-04-22 14:17:58 GMT 49.316849 9.816566 15,000 122 408 0
2018-04-22 14:17:55 GMT 49.320831 9.806847 14,975 122 405 0
2018-04-22 14:17:50 GMT 49.324402 9.798044 14,975 122 407 0
2018-04-22 14:17:47 GMT 49.328102 9.789035 14,975 122 407 0
2018-04-22 14:17:44 GMT 49.331081 9.781735 14,975 122 408 0
2018-04-22 14:17:41 GMT 49.334106 9.774363 15,000 122 408 0
2018-04-22 14:17:37 GMT 49.338181 9.764381 15,000 122 408 0
2018-04-22 14:17:31 GMT 49.344299 9.749427 15,000 122 408 0
2018-04-22 14:17:28 GMT 49.347095 9.742560 15,000 121 407 0
2018-04-22 14:17:23 GMT 49.353012 9.728112 15,000 122 408 0
2018-04-22 14:17:20 GMT 49.356033 9.720788 15,000 122 408 0
2018-04-22 14:17:17 GMT 49.358128 9.715673 15,000 122 408 0
2018-04-22 14:17:14 GMT 49.361107 9.708300 15,000 122 409 0
2018-04-22 14:17:11 GMT 49.364044 9.701209 15,000 121 405 0
2018-04-22 14:17:08 GMT 49.368137 9.691098 15,000 122 409 0
2018-04-22 14:17:01 GMT 49.375351 9.673462 15,000 122 409 0
2018-04-22 14:16:57 GMT 49.379356 9.663632 15,000 122 409 0
2018-04-22 14:16:54 GMT 49.381405 9.658717 15,000 121 410 0
2018-04-22 14:16:51 GMT 49.383682 9.653039 15,000 121 410 0
2018-04-22 14:16:47 GMT 49.388805 9.640503 15,000 121 410 0
2018-04-22 14:16:44 GMT 49.390621 9.636094 15,000 121 410 0
2018-04-22 14:16:41 GMT 49.393646 9.628649 14,975 121 410 0
2018-04-22 14:16:38 GMT 49.396545 9.621559 15,000 121 410 0
2018-04-22 14:16:34 GMT 49.400631 9.611447 14,975 122 409 0
2018-04-22 14:16:31 GMT 49.404144 9.602825 15,000 121 407 0
2018-04-22 14:16:25 GMT 49.410870 9.586366 14,975 121 407 0
2018-04-22 14:16:22 GMT 49.413059 9.580945 14,975 121 405 0
2018-04-22 14:16:19 GMT 49.416225 9.573139 15,000 121 407 0
2018-04-22 14:16:15 GMT 49.419937 9.564092 15,000 121 403 0
2018-04-22 14:16:12 GMT 49.423019 9.556515 14,975 121 405 0
2018-04-22 14:16:09 GMT 49.425396 9.550661 15,000 122 405 0
2018-04-22 14:16:05 GMT 49.431122 9.536504 15,000 121 405 0
2018-04-22 14:16:02 GMT 49.433308 9.531159 15,000 121 403 0
2018-04-22 14:15:58 GMT 49.436737 9.522617 15,000 121 403 -64
2018-04-22 14:15:55 GMT 49.439594 9.515571 15,000 121 403 -64
2018-04-22 14:15:52 GMT 49.442574 9.508296 15,000 121 403 0
2018-04-22 14:15:49 GMT 49.445984 9.499849 15,000 121 403 0
2018-04-22 14:15:46 GMT 49.448067 9.494711 15,000 121 403 128
2018-04-22 14:15:43 GMT 49.451000 9.487437 14,975 121 404 64
2018-04-22 14:15:39 GMT 49.455376 9.476747 14,975 121 405 0
2018-04-22 14:15:34 GMT 49.460587 9.463782 14,975 121 405 0
2018-04-22 14:15:31 GMT 49.463562 9.456410 15,000 121 405 0
2018-04-22 14:15:27 GMT 49.467617 9.446386 15,000 121 405 0
2018-04-22 14:15:24 GMT 49.471157 9.437627 15,000 121 404 0
2018-04-22 14:15:21 GMT 49.474743 9.428868 15,000 121 404 0
2018-04-22 14:15:18 GMT 49.476696 9.423968 15,000 121 404 0
2018-04-22 14:15:14 GMT 49.480362 9.414922 15,000 121 404 0
2018-04-22 14:15:10 GMT 49.483704 9.406610 14,975 121 404 0
2018-04-22 14:15:04 GMT 49.489498 9.392197 14,975 121 406 0
2018-04-22 14:15:01 GMT 49.492584 9.384565 14,975 121 406 0
2018-04-22 14:14:58 GMT 49.496014 9.376015 15,000 121 406 -64
2018-04-22 14:14:54 GMT 49.500206 9.365696 15,000 121 407 0
2018-04-22 14:14:50 GMT 49.504951 9.353819 15,000 121 407 -64
2018-04-22 14:14:44 GMT 49.509384 9.342788 15,000 121 408 64
2018-04-22 14:14:41 GMT 49.513889 9.331698 15,000 121 408 64
2018-04-22 14:14:37 GMT 49.517242 9.323310 14,975 121 409 0
2018-04-22 14:14:33 GMT 49.521198 9.313511 14,975 121 409 0
2018-04-22 14:14:30 GMT 49.523621 9.307498 14,975 121 411 -64
2018-04-22 14:14:27 GMT 49.526276 9.300866 15,000 121 411 0
2018-04-22 14:14:21 GMT 49.532372 9.285674 15,000 121 411 64
2018-04-22 14:14:18 GMT 49.535397 9.278251 15,000 121 412 0
2018-04-22 14:14:15 GMT 49.539276 9.268558 14,975 121 412 0
2018-04-22 14:14:10 GMT 49.544010 9.256872 14,975 121 412 0
2018-04-22 14:14:07 GMT 49.547104 9.249115 15,000 121 409 0
2018-04-22 14:14:04 GMT 49.550434 9.240912 15,000 121 411 0
2018-04-22 14:13:58 GMT 49.555786 9.227476 15,000 121 409 0
2018-04-22 14:13:54 GMT 49.559792 9.217529 15,000 121 409 0
2018-04-22 14:13:50 GMT 49.564041 9.206904 15,000 121 409 0
2018-04-22 14:13:47 GMT 49.567520 9.198229 15,000 121 409 0
2018-04-22 14:13:44 GMT 49.569992 9.192087 15,000 121 409 0
2018-04-22 14:13:41 GMT 49.572784 9.185149 14,975 121 410 0
2018-04-22 14:13:36 GMT 49.578224 9.171505 14,975 121 410 0
2018-04-22 14:13:31 GMT 49.582901 9.159923 14,975 121 409 0
2018-04-22 14:13:27 GMT 49.586288 9.151467 15,000 121 410 0
2018-04-22 14:13:24 GMT 49.589859 9.142504 14,975 121 410 0
2018-04-22 14:13:21 GMT 49.593018 9.134554 14,975 121 410 0
2018-04-22 14:13:18 GMT 49.595627 9.128049 14,975 121 410 0
2018-04-22 14:13:15 GMT 49.598476 9.120879 15,000 121 410 0
2018-04-22 14:13:12 GMT 49.601166 9.114171 15,000 121 408 0
2018-04-22 14:13:09 GMT 49.603958 9.107160 15,000 121 409 0
2018-04-22 14:13:05 GMT 49.608021 9.096977 15,000 121 409 0
2018-04-22 14:13:02 GMT 49.612164 9.086584 15,000 121 408 0
2018-04-22 14:12:59 GMT 49.614956 9.079606 15,000 121 408 0
2018-04-22 14:12:56 GMT 49.618309 9.071218 15,000 121 408 64
2018-04-22 14:12:53 GMT 49.621243 9.063795 15,000 121 408 0
2018-04-22 14:12:50 GMT 49.623138 9.059023 15,000 121 408 64
2018-04-22 14:12:47 GMT 49.626480 9.050638 14,975 121 408 0
2018-04-22 14:12:42 GMT 49.632088 9.036478 14,975 121 409 0
2018-04-22 14:12:39 GMT 49.634460 9.030465 14,975 121 411 0
2018-04-22 14:12:33 GMT 49.640076 9.016234 15,000 121 409 128
2018-04-22 14:12:29 GMT 49.644424 9.005247 15,000 121 409 128
2018-04-22 14:12:23 GMT 49.649822 8.991567 14,975 121 408 0
2018-04-22 14:12:20 GMT 49.653595 8.982140 14,975 121 408 0
2018-04-22 14:12:16 GMT 49.656528 8.974642 14,975 121 408 0
2018-04-22 14:12:12 GMT 49.660671 8.964250 15,000 121 408 -64
2018-04-22 14:12:08 GMT 49.664703 8.954074 15,000 121 407 0
2018-04-22 14:12:05 GMT 49.667561 8.946880 15,000 121 407 0
2018-04-22 14:12:01 GMT 49.671097 8.937972 15,000 121 404 0
2018-04-22 14:11:57 GMT 49.676468 8.924368 15,000 121 405 -64
2018-04-22 14:11:52 GMT 49.680828 8.913327 15,000 121 404 64
2018-04-22 14:11:49 GMT 49.683472 8.906660 15,000 121 404 64
2018-04-22 14:11:46 GMT 49.686878 8.898035 15,000 121 406 0
2018-04-22 14:11:42 GMT 49.690659 8.888373 15,000 121 406 0
2018-04-22 14:11:39 GMT 49.692513 8.883708 14,975 121 406 0
2018-04-22 14:11:36 GMT 49.696609 8.873242 15,000 121 409 0
2018-04-22 14:11:33 GMT 49.698563 8.868268 15,000 121 409 -64
2018-04-22 14:11:30 GMT 49.701729 8.860325 15,000 121 409 0
2018-04-22 14:11:27 GMT 49.704662 8.852828 15,000 121 410 64
2018-04-22 14:11:21 GMT 49.711441 8.835610 15,000 121 410 64
2018-04-22 14:11:18 GMT 49.713879 8.829296 14,975 121 410 64
2018-04-22 14:11:13 GMT 49.719418 8.815341 14,975 121 411 0
2018-04-22 14:11:09 GMT 49.722656 8.807060 14,975 121 412 0
2018-04-22 14:11:03 GMT 49.730392 8.787400 14,975 121 412 -64
2018-04-22 14:11:00 GMT 49.731354 8.784943 14,975 121 412 0
2018-04-22 14:10:57 GMT 49.734222 8.777631 15,000 121 411 0
2018-04-22 14:10:52 GMT 49.739346 8.764566 15,000 121 410 0
2018-04-22 14:10:49 GMT 49.742020 8.757838 15,000 121 410 0
2018-04-22 14:10:46 GMT 49.745361 8.749309 15,000 121 408 -64
2018-04-22 14:10:42 GMT 49.749847 8.737817 15,000 121 408 0
2018-04-22 14:10:39 GMT 49.752548 8.730806 15,000 121 408 0
2018-04-22 14:10:36 GMT 49.754929 8.724879 15,000 121 407 0
2018-04-22 14:10:33 GMT 49.758408 8.715917 15,000 121 407 128
2018-04-22 14:10:30 GMT 49.761337 8.708400 15,000 121 407 0
2018-04-22 14:10:26 GMT 49.764763 8.699687 15,000 121 407 -64
2018-04-22 14:10:21 GMT 49.770023 8.686251 15,000 121 407 64
2018-04-22 14:10:17 GMT 49.773746 8.676824 15,000 121 407 128
2018-04-22 14:10:14 GMT 49.776581 8.669586 15,000 121 408 64
2018-04-22 14:10:08 GMT 49.782990 8.653107 15,000 121 409 0
2018-04-22 14:10:04 GMT 49.786407 8.644310 15,000 121 409 0
2018-04-22 14:10:00 GMT 49.790817 8.633013 14,975 121 409 0
2018-04-22 14:09:56 GMT 49.793858 8.625307 15,000 121 408 0
2018-04-22 14:09:53 GMT 49.796974 8.617290 14,975 121 408 0
2018-04-22 14:09:49 GMT 49.800385 8.608511 14,975 121 410 64
2018-04-22 14:09:46 GMT 49.804276 8.598464 14,975 121 410 64
2018-04-22 14:09:43 GMT 49.806610 8.592465 14,975 121 410 -64
2018-04-22 14:09:39 GMT 49.810730 8.581912 14,975 121 410 -64
2018-04-22 14:09:36 GMT 49.813549 8.574606 15,000 121 410 -64
2018-04-22 14:09:33 GMT 49.816406 8.567384 15,000 121 408 64
2018-04-22 14:09:30 GMT 49.819645 8.559092 15,000 121 408 64
2018-04-22 14:09:27 GMT 49.822765 8.551075 15,000 121 408 0
2018-04-22 14:09:24 GMT 49.825790 8.543316 14,975 121 408 0
2018-04-22 14:09:21 GMT 49.827713 8.538328 14,975 121 408 0
2018-04-22 14:09:18 GMT 49.830914 8.530067 14,975 121 408 0
2018-04-22 14:09:14 GMT 49.835011 8.519601 15,000 121 408 0
2018-04-22 14:09:11 GMT 49.837753 8.512548 15,000 120 408 0
2018-04-22 14:09:08 GMT 49.840874 8.504606 15,000 121 407 0
2018-04-22 14:09:05 GMT 49.844650 8.494817 15,000 120 406 0
2018-04-22 14:09:02 GMT 49.846573 8.489830 15,000 120 406 0
2018-04-22 14:08:59 GMT 49.849579 8.482113 15,000 120 406 0
2018-04-22 14:08:56 GMT 49.852699 8.474096 15,000 121 407 0
2018-04-22 14:08:51 GMT 49.857307 8.462145 14,975 106 417 0
2018-04-22 14:08:48 GMT 49.861313 8.451883 15,000 120 408 0
2018-04-22 14:08:45 GMT 49.862755 8.448189 15,000 120 408 0
2018-04-22 14:08:40 GMT 49.867970 8.434679 14,975 120 409 0
2018-04-22 14:08:36 GMT 49.871384 8.425863 14,975 120 409 0
2018-04-22 14:08:32 GMT 49.876419 8.412781 15,000 120 410 0
2018-04-22 14:08:29 GMT 49.878204 8.408227 15,000 120 409 0
2018-04-22 14:08:26 GMT 49.881981 8.398380 15,000 120 409 0
2018-04-22 14:08:20 GMT 49.888355 8.381752 14,975 120 410 0
2018-04-22 14:08:16 GMT 49.891289 8.374180 14,975 122 408 64
2018-04-22 14:08:13 GMT 49.893723 8.367896 14,975 122 408 64
2018-04-22 14:08:10 GMT 49.898300 8.356404 14,975 121 411 0
2018-04-22 14:08:06 GMT 49.901627 8.348125 14,975 122 411 0
2018-04-22 14:08:01 GMT 49.906559 8.336248 15,000 123 410 -192
2018-04-22 14:07:57 GMT 49.910702 8.326449 15,000 123 408 -64
2018-04-22 14:07:54 GMT 49.913086 8.320770 15,000 122 408 64
2018-04-22 14:07:50 GMT 49.917500 8.310192 15,000 116 410 0
2018-04-22 14:07:47 GMT 49.920246 8.303214 15,000 119 409 192
2018-04-22 14:07:44 GMT 49.923645 8.293342 14,975 112 411 -128
2018-04-22 14:07:41 GMT 49.925694 8.286438 15,000 110 411 -64
2018-04-22 14:07:38 GMT 49.927643 8.279066 15,000 110 411 -64
2018-04-22 14:07:35 GMT 49.929882 8.269290 15,000 107 413 0
2018-04-22 14:07:30 GMT 49.932678 8.255503 15,000 106 414 0
2018-04-22 14:07:27 GMT 49.934006 8.248636 15,000 106 414 0
2018-04-22 14:07:24 GMT 49.935974 8.238445 15,000 106 415 64
2018-04-22 14:07:21 GMT 49.938030 8.227943 15,000 106 415 64
2018-04-22 14:07:17 GMT 49.939705 8.219407 15,000 106 415 64
2018-04-22 14:07:13 GMT 49.942291 8.205992 14,975 106 417 0
2018-04-22 14:07:10 GMT 49.943104 8.201665 14,975 106 417 0
2018-04-22 14:07:07 GMT 49.945335 8.190233 14,975 106 417 0
2018-04-22 14:07:04 GMT 49.947571 8.178727 14,975 106 418 0
2018-04-22 14:06:57 GMT 49.951111 8.160392 14,975 106 418 -64
2018-04-22 14:06:53 GMT 49.952785 8.151781 14,975 106 417 64
2018-04-22 14:06:50 GMT 49.954460 8.143170 15,000 106 417 64
2018-04-22 14:06:44 GMT 49.958176 8.123956 14,975 106 416 0
2018-04-22 14:06:41 GMT 49.959442 8.117338 14,975 106 416 0
2018-04-22 14:06:38 GMT 49.962250 8.102778 14,975 106 416 0
2018-04-22 14:06:33 GMT 49.964191 8.092767 14,975 106 416 0
2018-04-22 14:06:30 GMT 49.966141 8.082757 15,000 106 415 0
2018-04-22 14:06:27 GMT 49.967869 8.073912 15,000 106 415 0
2018-04-22 14:06:24 GMT 49.969345 8.066205 15,000 106 415 0
2018-04-22 14:06:20 GMT 49.971172 8.056764 15,000 106 415 0
2018-04-22 14:06:17 GMT 49.973595 8.044293 15,000 106 414 0
2018-04-22 14:06:14 GMT 49.975159 8.035993 15,000 106 413 0
2018-04-22 14:06:11 GMT 49.976200 8.030635 15,000 106 411 0
2018-04-22 14:06:07 GMT 49.978455 8.019008 15,000 106 411 0
2018-04-22 14:06:03 GMT 49.981091 8.005099 15,000 106 415 0
2018-04-22 14:05:59 GMT 49.982437 7.998047 15,000 106 414 0
2018-04-22 14:05:56 GMT 49.984634 7.986699 14,975 106 413 0
2018-04-22 14:05:53 GMT 49.986053 7.979254 14,975 106 414 0
2018-04-22 14:05:50 GMT 49.988342 7.967329 14,975 106 415 0
2018-04-22 14:05:47 GMT 49.989143 7.963084 14,975 106 415 0
2018-04-22 14:05:44 GMT 49.991096 7.952765 15,000 106 415 0
2018-04-22 14:05:41 GMT 49.992371 7.946223 14,975 106 413 0
2018-04-22 14:05:38 GMT 49.994797 7.933719 15,000 106 414 0
2018-04-22 14:05:33 GMT 49.997177 7.921215 14,975 106 413 0
2018-04-22 14:05:30 GMT 49.998547 7.914091 14,975 106 413 0
2018-04-22 14:05:26 GMT 50.000885 7.901917 14,975 106 413 0
2018-04-22 14:05:22 GMT 50.003433 7.888555 15,000 106 411 -64
2018-04-22 14:05:17 GMT 50.005810 7.876084 14,975 106 409 0
2018-04-22 14:05:14 GMT 50.007019 7.869923 14,975 106 409 0
2018-04-22 14:05:11 GMT 50.008511 7.862054 14,975 106 407 0
2018-04-22 14:05:08 GMT 50.011139 7.848286 15,000 106 406 0
2018-04-22 14:05:05 GMT 50.012100 7.843299 15,000 106 407 64
2018-04-22 14:05:00 GMT 50.014664 7.829855 15,000 106 409 0
2018-04-22 14:04:56 GMT 50.017410 7.815255 14,975 106 409 0
2018-04-22 14:04:50 GMT 50.020020 7.801739 14,975 106 409 0
2018-04-22 14:04:46 GMT 50.022354 7.789307 15,000 106 409 0
2018-04-22 14:04:43 GMT 50.024506 7.778031 15,000 106 409 0
2018-04-22 14:04:40 GMT 50.025406 7.773273 15,000 106 408 0
2018-04-22 14:04:34 GMT 50.029083 7.753890 15,000 106 407 0
2018-04-22 14:04:29 GMT 50.030949 7.744099 15,000 106 411 0
2018-04-22 14:04:22 GMT 50.034859 7.723389 14,975 106 408 0
2018-04-22 14:04:18 GMT 50.037186 7.711246 14,975 106 411 0
2018-04-22 14:04:14 GMT 50.039429 7.699392 14,975 106 410 0
2018-04-22 14:04:11 GMT 50.040710 7.692598 15,000 106 411 0
2018-04-22 14:04:08 GMT 50.042583 7.682710 14,975 106 411 0
2018-04-22 14:04:04 GMT 50.044464 7.672721 15,000 106 411 0
2018-04-22 14:04:01 GMT 50.046387 7.662530 15,000 106 411 -64
2018-04-22 14:03:58 GMT 50.048031 7.653759 15,000 106 410 -64
2018-04-22 14:03:50 GMT 50.051788 7.633691 14,975 106 411 0
2018-04-22 14:03:47 GMT 50.053432 7.624957 15,000 106 409 0
2018-04-22 14:03:40 GMT 50.057419 7.603768 14,975 106 412 0
2018-04-22 14:03:36 GMT 50.059528 7.592666 14,975 106 412 0
2018-04-22 14:03:29 GMT 50.063255 7.572772 14,975 106 413 0
2018-04-22 14:03:26 GMT 50.065109 7.562786 15,000 106 412 0
2018-04-22 14:03:22 GMT 50.066940 7.553101 15,000 106 411 0
2018-04-22 14:03:18 GMT 50.069595 7.538934 15,000 106 411 0
2018-04-22 14:03:15 GMT 50.070557 7.533802 15,000 106 411 0
2018-04-22 14:03:08 GMT 50.074333 7.513683 15,000 106 408 64
2018-04-22 14:03:05 GMT 50.075867 7.505469 14,975 106 411 0
2018-04-22 14:03:00 GMT 50.078705 7.490146 15,000 106 411 -64
2018-04-22 14:02:57 GMT 50.080246 7.481912 15,000 106 410 0
2018-04-22 14:02:54 GMT 50.081680 7.474317 15,000 106 409 0
2018-04-22 14:02:45 GMT 50.086945 7.446128 14,975 106 408 0
2018-04-22 14:02:37 GMT 50.091476 7.421915 14,975 106 409 0
2018-04-22 14:02:33 GMT 50.092674 7.415400 14,975 106 409 0
2018-04-22 14:02:27 GMT 50.096100 7.397051 15,000 106 409 0
2018-04-22 14:02:23 GMT 50.098297 7.385198 15,000 106 408 0
2018-04-22 14:02:18 GMT 50.100777 7.371975 15,000 106 407 0
2018-04-22 14:02:15 GMT 50.102509 7.362719 15,000 106 407 0
2018-04-22 14:02:12 GMT 50.103745 7.355925 15,000 106 407 0
2018-04-22 14:02:04 GMT 50.108086 7.332632 15,000 106 407 0
2018-04-22 14:02:00 GMT 50.110107 7.321737 14,975 106 409 -64
2018-04-22 14:01:55 GMT 50.112579 7.308221 15,000 106 407 64
2018-04-22 14:01:52 GMT 50.114414 7.298411 15,000 106 407 0
2018-04-22 14:01:49 GMT 50.115952 7.289948 14,975 105 406 0
2018-04-22 14:01:45 GMT 50.118118 7.278442 15,000 105 406 64
2018-04-22 14:01:41 GMT 50.120003 7.267976 14,975 106 409 -64
2018-04-22 14:01:36 GMT 50.123108 7.251338 14,975 106 409 -64
2018-04-22 14:01:33 GMT 50.124115 7.245700 14,975 106 409 -64
2018-04-22 14:01:30 GMT 50.125488 7.238328 14,975 106 408 0
2018-04-22 14:01:27 GMT 50.127090 7.229871 15,000 106 408 0
2018-04-22 14:01:22 GMT 50.129963 7.214306 15,000 105 407 0
2018-04-22 14:01:19 GMT 50.131172 7.207551 15,000 105 407 0
2018-04-22 14:01:14 GMT 50.134201 7.191220 15,000 105 406 64
2018-04-22 14:01:11 GMT 50.135468 7.184191 15,000 105 406 64
2018-04-22 14:01:08 GMT 50.137180 7.174889 15,000 105 407 64
2018-04-22 14:01:02 GMT 50.140961 7.154268 14,975 105 411 -64
2018-04-22 14:00:58 GMT 50.142426 7.146245 14,975 105 411 -64
2018-04-22 14:00:53 GMT 50.145309 7.130633 15,000 105 414 0
2018-04-22 14:00:50 GMT 50.146362 7.124634 14,975 105 414 0
2018-04-22 14:00:47 GMT 50.147964 7.116033 15,000 106 413 64
2018-04-22 14:00:41 GMT 50.151306 7.097746 14,975 105 413 0
2018-04-22 14:00:38 GMT 50.152912 7.088854 14,975 105 414 0
2018-04-22 14:00:34 GMT 50.154877 7.078303 15,000 105 413 0
2018-04-22 14:00:31 GMT 50.156590 7.068811 15,000 105 412 64
2018-04-22 14:00:26 GMT 50.159058 7.055153 15,000 105 411 64
2018-04-22 14:00:21 GMT 50.161880 7.039851 15,000 105 413 -128
2018-04-22 14:00:17 GMT 50.163940 7.028576 15,000 105 410 -64
2018-04-22 14:00:14 GMT 50.165436 7.020412 15,000 105 409 -64
2018-04-22 14:00:10 GMT 50.167236 7.010434 15,000 105 408 0
2018-04-22 14:00:06 GMT 50.169674 6.997178 15,000 105 408 64
2018-04-22 14:00:03 GMT 50.170761 6.990629 15,000 105 408 64
2018-04-22 14:00:00 GMT 50.173256 6.977358 14,975 105 410 0
2018-04-22 13:59:56 GMT 50.174465 6.970528 14,975 105 410 0
2018-04-22 13:59:53 GMT 50.175980 6.962296 14,975 105 411 0
2018-04-22 13:59:50 GMT 50.178329 6.949298 14,975 105 412 0
2018-04-22 13:59:46 GMT 50.180382 6.938089 14,975 105 413 -64
2018-04-22 13:59:42 GMT 50.181541 6.931631 14,975 105 413 -64
2018-04-22 13:59:38 GMT 50.184010 6.917972 15,000 105 414 64
2018-04-22 13:59:35 GMT 50.185734 6.908322 15,000 105 409 0
2018-04-22 13:59:32 GMT 50.186966 6.901727 15,000 105 409 0
2018-04-22 13:59:29 GMT 50.188667 6.892288 15,000 105 409 0
2018-04-22 13:59:24 GMT 50.191544 6.876213 14,975 105 411 0
2018-04-22 13:59:21 GMT 50.192780 6.869491 14,975 105 412 128
2018-04-22 13:59:18 GMT 50.194344 6.861185 14,975 105 413 0
2018-04-22 13:59:14 GMT 50.196396 6.849470 14,975 105 411 0
2018-04-22 13:59:11 GMT 50.197952 6.840796 14,975 105 415 -64
2018-04-22 13:59:08 GMT 50.199738 6.830894 15,000 105 412 64
2018-04-22 13:59:05 GMT 50.201294 6.822293 15,000 105 414 0
2018-04-22 13:59:00 GMT 50.203537 6.809572 15,000 105 412 64
2018-04-22 13:58:57 GMT 50.204819 6.802987 15,000 105 411 64
2018-04-22 13:58:54 GMT 50.206776 6.791778 14,975 105 414 64
2018-04-22 13:58:51 GMT 50.208344 6.782973 14,975 105 412 64
2018-04-22 13:58:48 GMT 50.209488 6.776685 14,975 105 412 64
2018-04-22 13:58:43 GMT 50.212234 6.761507 14,975 105 415 0
2018-04-22 13:58:40 GMT 50.214085 6.751099 14,975 105 415 -64
2018-04-22 13:58:37 GMT 50.215385 6.743601 15,000 105 414 -128
2018-04-22 13:58:34 GMT 50.216721 6.736426 15,000 105 409 64
2018-04-22 13:58:30 GMT 50.219421 6.721103 15,000 105 412 0
2018-04-22 13:58:27 GMT 50.220840 6.713442 15,000 105 411 0
2018-04-22 13:58:22 GMT 50.223068 6.700992 14,975 105 409 64
2018-04-22 13:58:19 GMT 50.224915 6.690746 14,975 105 415 0
2018-04-22 13:58:16 GMT 50.226059 6.684386 14,975 105 410 0
2018-04-22 13:58:13 GMT 50.227818 6.674714 14,975 105 410 0
2018-04-22 13:58:09 GMT 50.229721 6.663786 14,975 105 412 -64
2018-04-22 13:58:06 GMT 50.231167 6.655711 14,975 105 413 -64
2018-04-22 13:58:03 GMT 50.232937 6.645986 15,000 105 413 0
2018-04-22 13:58:00 GMT 50.234287 6.638340 15,000 105 412 0
2018-04-22 13:57:56 GMT 50.236679 6.624828 15,000 105 411 0
2018-04-22 13:57:53 GMT 50.237778 6.618829 15,000 105 411 0
2018-04-22 13:57:50 GMT 50.240013 6.606272 15,000 105 416 0
2018-04-22 13:57:44 GMT 50.242630 6.591508 15,000 105 414 0
2018-04-22 13:57:41 GMT 50.243820 6.584497 15,000 105 414 0
2018-04-22 13:57:38 GMT 50.245148 6.577341 14,975 105 414 0
2018-04-22 13:57:34 GMT 50.248123 6.560645 14,975 105 414 0
2018-04-22 13:57:28 GMT 50.250504 6.547346 15,000 105 415 0
2018-04-22 13:57:23 GMT 50.253754 6.528987 15,000 105 416 0
2018-04-22 13:57:17 GMT 50.255997 6.516410 15,000 105 414 0
2018-04-22 13:57:14 GMT 50.257565 6.507247 15,000 105 415 0
2018-04-22 13:57:11 GMT 50.259155 6.498341 15,000 105 416 0
2018-04-22 13:57:08 GMT 50.261398 6.485620 14,975 105 416 0
2018-04-22 13:57:05 GMT 50.263058 6.476440 14,975 105 416 0
2018-04-22 13:57:02 GMT 50.264313 6.469240 14,975 105 417 0
2018-04-22 13:56:58 GMT 50.266502 6.456917 14,975 105 417 0
2018-04-22 13:56:55 GMT 50.267303 6.452227 15,000 105 418 -64
2018-04-22 13:56:52 GMT 50.269135 6.442108 15,000 105 416 0
2018-04-22 13:56:49 GMT 50.270550 6.433980 15,000 105 416 0
2018-04-22 13:56:46 GMT 50.272087 6.425146 15,000 105 415 0
2018-04-22 13:56:42 GMT 50.274124 6.413558 14,975 105 416 0
2018-04-22 13:56:38 GMT 50.275810 6.403396 15,000 105 415 0
2018-04-22 13:56:34 GMT 50.278046 6.390183 14,975 105 416 0
2018-04-22 13:56:31 GMT 50.280029 6.379081 15,000 105 417 0
2018-04-22 13:56:28 GMT 50.280899 6.374094 15,000 105 417 0
2018-04-22 13:56:25 GMT 50.283188 6.361156 15,000 105 418 64
2018-04-22 13:56:21 GMT 50.284611 6.352399 14,975 105 418 0
2018-04-22 13:56:18 GMT 50.286331 6.343046 15,000 106 417 0
2018-04-22 13:56:14 GMT 50.288521 6.330872 15,000 105 417 0
2018-04-22 13:56:11 GMT 50.289963 6.323066 15,000 105 417 0
2018-04-22 13:56:08 GMT 50.291824 6.312536 15,000 106 417 0
2018-04-22 13:56:01 GMT 50.295502 6.292853 15,000 105 415 0
2018-04-22 13:55:58 GMT 50.296509 6.286999 15,000 105 415 0
2018-04-22 13:55:55 GMT 50.297974 6.279048 15,000 105 414 0
2018-04-22 13:55:52 GMT 50.300018 6.267849 15,000 105 414 0
2018-04-22 13:55:49 GMT 50.301228 6.261168 15,000 105 414 0
2018-04-22 13:55:45 GMT 50.303139 6.250330 15,000 105 414 0
2018-04-22 13:55:42 GMT 50.304768 6.240680 15,000 105 414 128
2018-04-22 13:55:39 GMT 50.306259 6.231778 14,975 107 414 64
2018-04-22 13:55:35 GMT 50.308399 6.219078 15,000 107 414 64
2018-04-22 13:55:31 GMT 50.310150 6.209155 15,000 113 413 -64
2018-04-22 13:55:28 GMT 50.311981 6.199108 15,000 106 414 128
2018-04-22 13:55:24 GMT 50.313766 6.188844 15,000 107 414 64
2018-04-22 13:55:20 GMT 50.316128 6.178102 15,000 113 413 -64
2018-04-22 13:55:14 GMT 50.320923 6.159767 15,000 114 413 0
2018-04-22 13:55:09 GMT 50.325348 6.144610 15,000 114 412 0
2018-04-22 13:55:06 GMT 50.327717 6.136458 15,000 114 412 0
2018-04-22 13:55:03 GMT 50.329605 6.130082 15,000 114 412 0
2018-04-22 13:54:59 GMT 50.332466 6.119830 15,000 114 412 0
2018-04-22 13:54:53 GMT 50.338425 6.100901 15,000 114 412 0
2018-04-22 13:54:49 GMT 50.340519 6.093032 15,000 114 412 0
2018-04-22 13:54:46 GMT 50.343407 6.083085 15,000 114 413 0
2018-04-22 13:54:43 GMT 50.345764 6.075512 14,975 114 413 0
2018-04-22 13:54:40 GMT 50.348190 6.067417 14,975 114 413 0
2018-04-22 13:54:37 GMT 50.350754 6.058020 14,975 114 414 0
2018-04-22 13:54:34 GMT 50.353683 6.048118 14,975 114 414 0
2018-04-22 13:54:31 GMT 50.355976 6.040550 14,975 114 414 0
2018-04-22 13:54:28 GMT 50.357025 6.037060 14,975 114 412 0
2018-04-22 13:54:25 GMT 50.360001 6.026941 14,975 114 413 0
2018-04-22 13:54:22 GMT 50.363052 6.016870 14,975 114 413 0
2018-04-22 13:54:18 GMT 50.365658 6.007888 15,000 114 412 0
2018-04-22 13:54:13 GMT 50.370220 5.992077 14,975 114 412 0
2018-04-22 13:54:10 GMT 50.372456 5.983986 14,975 114 410 0
2018-04-22 13:54:07 GMT 50.374130 5.978789 14,975 114 411 0
2018-04-22 13:54:03 GMT 50.376831 5.968991 15,000 114 410 -64
2018-04-22 13:54:00 GMT 50.380089 5.958079 15,000 114 409 -64
2018-04-22 13:53:56 GMT 50.383068 5.948057 15,000 114 408 0
2018-04-22 13:53:53 GMT 50.385536 5.940486 15,000 114 407 0
2018-04-22 13:53:50 GMT 50.387833 5.932039 15,000 114 407 0
2018-04-22 13:53:47 GMT 50.389866 5.924749 15,000 114 406 0
2018-04-22 13:53:44 GMT 50.392960 5.914258 15,000 114 406 0
2018-04-22 13:53:41 GMT 50.394661 5.908789 15,000 114 407 64
2018-04-22 13:53:37 GMT 50.397903 5.898068 14,975 114 411 0
2018-04-22 13:53:33 GMT 50.400879 5.887226 14,975 114 411 0
2018-04-22 13:53:30 GMT 50.402901 5.879616 14,975 114 412 0
2018-04-22 13:53:27 GMT 50.405972 5.869372 14,975 114 413 0
2018-04-22 13:53:24 GMT 50.407700 5.864025 15,000 114 413 0
2018-04-22 13:53:21 GMT 50.411140 5.852001 14,975 114 413 0
2018-04-22 13:53:18 GMT 50.412769 5.846137 15,000 114 413 0
2018-04-22 13:53:14 GMT 50.416077 5.835041 15,000 114 412 0
2018-04-22 13:53:11 GMT 50.418915 5.825500 15,000 114 411 -64
2018-04-22 13:53:08 GMT 50.421661 5.815960 15,000 114 410 0
2018-04-22 13:53:05 GMT 50.423847 5.808279 15,000 114 410 0
2018-04-22 13:53:02 GMT 50.425140 5.803672 15,000 114 410 0
2018-04-22 13:52:59 GMT 50.427567 5.795433 15,000 114 409 0
2018-04-22 13:52:55 GMT 50.430588 5.784663 15,000 114 409 0
2018-04-22 13:52:52 GMT 50.433472 5.775412 15,000 114 409 0
2018-04-22 13:52:49 GMT 50.435345 5.768862 15,000 114 409 0
2018-04-22 13:52:45 GMT 50.438553 5.757776 14,975 114 413 0
2018-04-22 13:52:42 GMT 50.440605 5.750675 14,975 114 413 0
2018-04-22 13:52:39 GMT 50.443260 5.741693 14,975 114 413 0
2018-04-22 13:52:35 GMT 50.447525 5.726768 14,975 114 413 0
2018-04-22 13:52:31 GMT 50.449360 5.720314 15,000 114 413 0
2018-04-22 13:52:27 GMT 50.453842 5.704868 15,000 114 413 0
2018-04-22 13:52:23 GMT 50.456669 5.695223 15,000 114 413 0
2018-04-22 13:52:20 GMT 50.457962 5.690701 15,000 114 413 0
2018-04-22 13:52:16 GMT 50.461277 5.678967 15,000 114 413 0
2018-04-22 13:52:13 GMT 50.463776 5.671041 15,000 114 413 0
2018-04-22 13:52:09 GMT 50.467606 5.657736 15,000 114 413 0
2018-04-22 13:52:04 GMT 50.470688 5.646973 15,000 114 412 0
2018-04-22 13:52:01 GMT 50.473660 5.636506 15,000 114 412 0
2018-04-22 13:51:58 GMT 50.476044 5.628542 15,000 114 412 0
2018-04-22 13:51:54 GMT 50.479111 5.618206 15,000 114 413 0
2018-04-22 13:51:51 GMT 50.481400 5.610038 15,000 114 414 0
2018-04-22 13:51:48 GMT 50.484375 5.599703 15,000 114 413 0
2018-04-22 13:51:43 GMT 50.487442 5.588716 15,000 114 414 0
2018-04-22 13:51:40 GMT 50.489998 5.579719 15,000 114 414 0
2018-04-22 13:51:37 GMT 50.492523 5.571225 15,000 114 414 0
2018-04-22 13:51:34 GMT 50.494747 5.562645 14,975 114 414 0
2018-04-22 13:51:31 GMT 50.497448 5.554034 14,975 114 414 0
2018-04-22 13:51:28 GMT 50.499214 5.547279 14,975 114 414 0
2018-04-22 13:51:25 GMT 50.501312 5.540301 15,000 114 413 0
2018-04-22 13:51:22 GMT 50.504059 5.530428 15,000 114 413 0
2018-04-22 13:51:19 GMT 50.506989 5.520919 15,000 114 413 0
2018-04-22 13:51:15 GMT 50.509785 5.511425 15,000 114 413 0
2018-04-22 13:51:12 GMT 50.511978 5.503428 15,000 114 413 0
2018-04-22 13:51:09 GMT 50.513832 5.496505 15,000 112 414 0
2018-04-22 13:51:05 GMT 50.517654 5.483551 14,975 114 413 0
2018-04-22 13:51:01 GMT 50.520813 5.472854 15,000 114 413 0
2018-04-22 13:50:58 GMT 50.523056 5.464686 15,000 114 413 0
2018-04-22 13:50:55 GMT 50.525528 5.456230 15,000 114 413 0
2018-04-22 13:50:52 GMT 50.528549 5.445533 15,000 114 413 0
2018-04-22 13:50:49 GMT 50.529755 5.441424 15,000 114 413 0
2018-04-22 13:50:45 GMT 50.533058 5.429473 15,000 114 413 0
2018-04-22 13:50:42 GMT 50.535599 5.420886 15,000 114 412 0
2018-04-22 13:50:38 GMT 50.538300 5.411562 15,000 114 412 0
2018-04-22 13:50:34 GMT 50.541763 5.399112 15,000 114 411 0
2018-04-22 13:50:31 GMT 50.545071 5.387903 15,000 114 411 0
2018-04-22 13:50:28 GMT 50.546219 5.383879 15,000 114 411 0
2018-04-22 13:50:23 GMT 50.550842 5.367472 14,975 114 411 0
2018-04-22 13:50:18 GMT 50.554241 5.355835 14,975 114 412 0
2018-04-22 13:50:12 GMT 50.559769 5.336320 15,000 114 412 0
2018-04-22 13:50:08 GMT 50.562607 5.326562 15,000 114 412 0
2018-04-22 13:50:03 GMT 50.566017 5.314265 14,975 114 412 0
2018-04-22 13:50:00 GMT 50.568161 5.307065 15,000 115 411 0
2018-04-22 13:49:56 GMT 50.571213 5.296350 15,000 114 412 0
2018-04-22 13:49:53 GMT 50.574142 5.286809 15,000 112 414 0
2018-04-22 13:49:48 GMT 50.578449 5.271804 15,000 115 411 0
2018-04-22 13:49:45 GMT 50.580826 5.263535 15,000 115 411 0
2018-04-22 13:49:42 GMT 50.582748 5.257753 14,975 109 415 0
2018-04-22 13:49:37 GMT 50.587326 5.241707 14,975 113 413 0
2018-04-22 13:49:33 GMT 50.589615 5.233468 14,975 112 414 0
2018-04-22 13:49:30 GMT 50.591576 5.226374 15,000 107 415 0
2018-04-22 13:49:25 GMT 50.595474 5.209037 15,000 108 416 0
2018-04-22 13:49:21 GMT 50.597488 5.199131 15,000 107 416 0
2018-04-22 13:49:18 GMT 50.599026 5.190520 15,000 106 415 0
2018-04-22 13:49:15 GMT 50.601257 5.179386 15,000 106 414 0
2018-04-22 13:49:11 GMT 50.604424 5.164465 14,975 106 415 0
2018-04-22 13:49:08 GMT 50.605225 5.160177 14,975 106 415 0
2018-04-22 13:49:05 GMT 50.606598 5.153238 15,000 106 414 -64
2018-04-22 13:49:02 GMT 50.608795 5.141891 15,000 106 414 0
2018-04-22 13:48:59 GMT 50.609917 5.134921 15,000 106 414 0
2018-04-22 13:48:56 GMT 50.612106 5.124602 15,000 106 414 64
2018-04-22 13:48:53 GMT 50.612942 5.118887 14,975 106 416 0
2018-04-22 13:48:49 GMT 50.615177 5.107232 14,975 106 416 0
2018-04-22 13:48:44 GMT 50.618202 5.092312 14,975 106 416 0
2018-04-22 13:48:41 GMT 50.619972 5.082364 15,000 106 417 0
2018-04-22 13:48:37 GMT 50.621834 5.073754 15,000 106 417 64
2018-04-22 13:48:34 GMT 50.623791 5.063881 14,975 106 417 0
2018-04-22 13:48:31 GMT 50.624908 5.056602 15,000 106 417 0
2018-04-22 13:48:27 GMT 50.628120 5.041240 15,000 106 417 0
2018-04-22 13:48:24 GMT 50.629028 5.034991 15,000 106 417 0
2018-04-22 13:48:21 GMT 50.631004 5.024909 15,000 106 417 0
2018-04-22 13:48:18 GMT 50.633148 5.014442 15,000 106 416 0
2018-04-22 13:48:14 GMT 50.635197 5.003901 15,000 106 416 0
2018-04-22 13:48:11 GMT 50.636639 4.996478 15,000 106 416 0
2018-04-22 13:48:07 GMT 50.639153 4.983191 15,000 106 416 0
2018-04-22 13:48:03 GMT 50.641205 4.971819 15,000 106 415 0
2018-04-22 13:48:00 GMT 50.642410 4.966414 15,000 106 415 0
2018-04-22 13:47:56 GMT 50.644913 4.952738 15,000 106 415 0
2018-04-22 13:47:53 GMT 50.646606 4.944787 15,000 106 415 0
2018-04-22 13:47:49 GMT 50.649033 4.931994 15,000 106 414 0
2018-04-22 13:47:46 GMT 50.650681 4.921947 15,000 106 414 0
2018-04-22 13:47:43 GMT 50.652283 4.915298 15,000 106 414 0
2018-04-22 13:47:40 GMT 50.653336 4.908142 15,000 106 414 0
2018-04-22 13:47:37 GMT 50.655441 4.897879 15,000 106 414 0
2018-04-22 13:47:34 GMT 50.656860 4.890434 15,000 106 414 0
2018-04-22 13:47:31 GMT 50.658646 4.880893 15,000 106 414 0
2018-04-22 13:47:27 GMT 50.661026 4.869039 15,000 106 414 64
2018-04-22 13:47:24 GMT 50.661987 4.862751 15,000 106 414 0
2018-04-22 13:47:21 GMT 50.664597 4.848874 15,000 106 414 0
2018-04-22 13:47:18 GMT 50.666061 4.842007 15,000 106 414 0
2018-04-22 13:47:14 GMT 50.667736 4.832351 15,000 106 414 0
2018-04-22 13:47:10 GMT 50.670296 4.818990 15,000 106 414 64
2018-04-22 13:47:07 GMT 50.671783 4.812086 14,975 106 414 0
2018-04-22 13:47:03 GMT 50.673553 4.801865 15,000 106 414 0
2018-04-22 13:46:59 GMT 50.676113 4.789047 14,975 106 414 0
2018-04-22 13:46:55 GMT 50.677826 4.780315 15,000 106 414 0
2018-04-22 13:46:52 GMT 50.680298 4.767027 15,000 106 413 0
2018-04-22 13:46:49 GMT 50.682121 4.757309 15,000 106 413 0
2018-04-22 13:46:46 GMT 50.683285 4.751205 15,000 106 413 0
2018-04-22 13:46:43 GMT 50.685051 4.742508 15,000 106 413 0
2018-04-22 13:46:39 GMT 50.687519 4.729156 15,000 106 413 0
2018-04-22 13:46:33 GMT 50.690685 4.712524 15,000 106 413 0
2018-04-22 13:46:28 GMT 50.693199 4.698639 15,000 106 413 0
2018-04-22 13:46:23 GMT 50.695541 4.685595 15,000 106 412 0
2018-04-22 13:46:20 GMT 50.697948 4.673691 15,000 106 413 0
2018-04-22 13:46:17 GMT 50.699661 4.664364 15,000 106 413 0
2018-04-22 13:46:12 GMT 50.701813 4.652405 14,975 106 415 0
2018-04-22 13:46:09 GMT 50.703415 4.644099 14,975 106 416 0
2018-04-22 13:46:06 GMT 50.705063 4.635117 14,975 106 416 0
2018-04-22 13:46:01 GMT 50.707676 4.621735 15,000 106 416 0
2018-04-22 13:45:58 GMT 50.709259 4.612961 15,000 106 416 0
2018-04-22 13:45:55 GMT 50.711472 4.600525 15,000 106 416 0
2018-04-22 13:45:51 GMT 50.713669 4.590058 15,000 106 416 0
2018-04-22 13:45:48 GMT 50.714722 4.583155 15,000 106 416 0
2018-04-22 13:45:45 GMT 50.716599 4.574173 14,975 106 417 0
2018-04-22 13:45:41 GMT 50.719269 4.559555 14,975 106 416 0
2018-04-22 13:45:38 GMT 50.720478 4.553757 15,000 106 416 0
2018-04-22 13:45:34 GMT 50.722504 4.542476 15,000 106 416 0
2018-04-22 13:45:31 GMT 50.723877 4.535349 15,000 106 416 0
2018-04-22 13:45:28 GMT 50.725925 4.524078 15,000 106 417 0
2018-04-22 13:45:25 GMT 50.727539 4.515084 15,000 106 417 0
2018-04-22 13:45:22 GMT 50.729004 4.507512 15,000 106 416 0
2018-04-22 13:45:17 GMT 50.731750 4.492963 15,000 106 416 0
2018-04-22 13:45:14 GMT 50.733376 4.484558 15,000 106 415 0
2018-04-22 13:45:11 GMT 50.734543 4.477151 15,000 106 415 0
2018-04-22 13:45:08 GMT 50.736603 4.466759 15,000 106 415 0
2018-04-22 13:45:05 GMT 50.737984 4.459534 15,000 106 414 0
2018-04-22 13:45:02 GMT 50.739567 4.450836 15,000 106 414 0
2018-04-22 13:44:59 GMT 50.741455 4.441000 15,000 106 414 64
2018-04-22 13:44:55 GMT 50.743607 4.429049 15,000 106 414 64
2018-04-22 13:44:52 GMT 50.744980 4.422071 15,000 106 414 0
2018-04-22 13:44:49 GMT 50.746502 4.412994 15,000 106 415 0
2018-04-22 13:44:46 GMT 50.748596 4.402618 15,000 106 415 0
2018-04-22 13:44:42 GMT 50.751202 4.388123 14,975 106 416 64
2018-04-22 13:44:39 GMT 50.752945 4.379091 14,975 106 416 64
2018-04-22 13:44:36 GMT 50.753540 4.375008 15,000 106 417 -128
2018-04-22 13:44:33 GMT 50.755764 4.363556 15,000 106 415 0
2018-04-22 13:44:29 GMT 50.757397 4.353638 15,000 106 417 0
2018-04-22 13:44:25 GMT 50.759766 4.342346 15,000 106 415 0
2018-04-22 13:44:19 GMT 50.762840 4.325104 15,000 106 416 0
2018-04-22 13:44:16 GMT 50.764664 4.316142 15,000 106 416 0
2018-04-22 13:44:12 GMT 50.767090 4.302112 14,975 106 416 0
2018-04-22 13:44:09 GMT 50.768692 4.293947 14,975 106 417 0
2018-04-22 13:44:04 GMT 50.771545 4.277802 14,975 106 417 0
2018-04-22 13:44:01 GMT 50.772758 4.272232 14,975 106 417 0
2018-04-22 13:43:58 GMT 50.773968 4.264450 14,975 106 417 0
2018-04-22 13:43:54 GMT 50.776203 4.253311 15,000 106 418 0
2018-04-22 13:43:51 GMT 50.778305 4.241317 15,000 106 417 0
2018-04-22 13:43:48 GMT 50.779770 4.233745 15,000 106 417 0
2018-04-22 13:43:44 GMT 50.781601 4.222870 15,000 106 417 0
2018-04-22 13:43:41 GMT 50.783066 4.215632 15,000 106 417 0
2018-04-22 13:43:38 GMT 50.785355 4.203310 15,000 106 416 0
2018-04-22 13:43:32 GMT 50.788723 4.184418 15,000 106 416 0
2018-04-22 13:43:29 GMT 50.790344 4.175399 15,000 106 416 0
2018-04-22 13:43:26 GMT 50.791424 4.169846 15,000 106 416 0
2018-04-22 13:43:21 GMT 50.794029 4.155807 15,000 106 416 0
2018-04-22 13:43:17 GMT 50.796204 4.143850 14,975 106 417 0
2018-04-22 13:43:14 GMT 50.798454 4.131317 15,000 106 417 0
2018-04-22 13:43:11 GMT 50.799896 4.123688 14,975 106 417 0
2018-04-22 13:43:07 GMT 50.801422 4.115196 14,975 106 417 0
2018-04-22 13:43:03 GMT 50.803902 4.102020 15,000 106 417 0
2018-04-22 13:43:00 GMT 50.805588 4.091813 15,000 106 417 0
2018-04-22 13:42:57 GMT 50.807251 4.083328 15,000 106 417 0
2018-04-22 13:42:53 GMT 50.809532 4.071045 15,000 106 416 0
2018-04-22 13:42:49 GMT 50.811581 4.059372 15,000 106 416 0
2018-04-22 13:42:46 GMT 50.812729 4.053213 15,000 106 416 0
2018-04-22 13:42:43 GMT 50.814793 4.041824 15,000 106 416 0
2018-04-22 13:42:40 GMT 50.816143 4.033661 15,000 106 416 0
2018-04-22 13:42:37 GMT 50.817635 4.026108 15,000 106 416 0
2018-04-22 13:42:34 GMT 50.819000 4.018843 15,000 106 416 0
2018-04-22 13:42:30 GMT 50.821404 4.005661 15,000 105 414 0
2018-04-22 13:42:25 GMT 50.823685 3.992920 15,000 106 415 64
2018-04-22 13:42:22 GMT 50.825687 3.981857 15,000 105 414 0
2018-04-22 13:42:19 GMT 50.826756 3.975983 15,000 105 414 0
2018-04-22 13:42:16 GMT 50.829086 3.963165 15,000 105 414 0
2018-04-22 13:42:13 GMT 50.829712 3.958864 15,000 105 414 0
2018-04-22 13:42:10 GMT 50.832184 3.946022 15,000 105 414 0
2018-04-22 13:42:05 GMT 50.834473 3.933180 21,000 105 415 0
2018-04-22 13:42:02 GMT 50.836021 3.924713 21,000 106 416 0
2018-04-22 13:41:59 GMT 50.838207 3.913040 15,000 105 415 0
2018-04-22 13:41:53 GMT 50.840721 3.898468 15,000 106 416 0
2018-04-22 13:41:50 GMT 50.842255 3.889977 15,000 105 415 0
2018-04-22 13:41:47 GMT 50.843655 3.882141 15,000 106 416 0
2018-04-22 13:41:43 GMT 50.846077 3.868103 15,000 105 416 0
2018-04-22 13:41:40 GMT 50.848125 3.857651 15,000 105 416 0
2018-04-22 13:41:37 GMT 50.849762 3.848555 15,000 105 415 0
2018-04-22 13:41:32 GMT 50.852142 3.835119 15,000 105 415 0
2018-04-22 13:41:28 GMT 50.853699 3.826954 14,975 105 416 0
2018-04-22 13:41:25 GMT 50.855530 3.816413 14,975 105 416 0
2018-04-22 13:41:22 GMT 50.857407 3.805872 15,000 105 416 0
2018-04-22 13:41:17 GMT 50.859512 3.794069 14,975 105 416 0
2018-04-22 13:41:14 GMT 50.861671 3.782196 14,975 105 416 0
2018-04-22 13:41:10 GMT 50.863037 3.773136 15,000 105 416 0
2018-04-22 13:41:07 GMT 50.864777 3.764896 15,000 105 416 0
2018-04-22 13:41:04 GMT 50.866241 3.756730 15,000 105 416 0
2018-04-22 13:41:00 GMT 50.868530 3.743814 14,975 105 416 0
2018-04-22 13:40:57 GMT 50.869957 3.736496 14,975 105 415 0
2018-04-22 13:40:53 GMT 50.872192 3.723679 14,975 105 415 0
2018-04-22 13:40:50 GMT 50.873680 3.715515 15,000 105 415 0
2018-04-22 13:40:47 GMT 50.875534 3.705288 14,975 105 414 0
2018-04-22 13:40:41 GMT 50.878384 3.688660 15,000 105 414 0
2018-04-22 13:40:38 GMT 50.880569 3.677302 14,975 105 412 64
2018-04-22 13:40:34 GMT 50.882355 3.667578 15,000 105 412 64
2018-04-22 13:40:28 GMT 50.885040 3.652725 15,000 105 412 64
2018-04-22 13:40:25 GMT 50.886841 3.642636 14,975 105 412 64
2018-04-22 13:40:22 GMT 50.888626 3.632689 14,975 105 414 0
2018-04-22 13:40:19 GMT 50.890301 3.623047 14,975 105 414 0
2018-04-22 13:40:16 GMT 50.891884 3.614273 14,975 105 415 -128
2018-04-22 13:40:12 GMT 50.894257 3.600769 15,000 105 415 -64
2018-04-22 13:40:09 GMT 50.895905 3.591787 15,000 107 413 128
2018-04-22 13:40:06 GMT 50.896633 3.587494 15,000 105 414 -64
2018-04-22 13:40:03 GMT 50.898285 3.577831 15,000 105 414 -64
2018-04-22 13:40:00 GMT 50.899658 3.571091 15,000 106 413 -128
2018-04-22 13:39:57 GMT 50.901077 3.562168 15,000 107 412 -128
2018-04-22 13:39:54 GMT 50.902824 3.553848 15,000 107 412 -64
2018-04-22 13:39:51 GMT 50.904640 3.544540 15,000 108 411 0
2018-04-22 13:39:48 GMT 50.907059 3.533096 15,000 108 411 0
2018-04-22 13:39:45 GMT 50.908722 3.525349 15,000 110 410 0
2018-04-22 13:39:40 GMT 50.911621 3.512039 15,000 119 405 0
2018-04-22 13:39:35 GMT 50.915222 3.496696 15,000 112 408 0
2018-04-22 13:39:32 GMT 50.917114 3.488541 15,000 113 408 0
2018-04-22 13:39:29 GMT 50.918839 3.482221 15,000 119 405 0
2018-04-22 13:39:25 GMT 50.922089 3.470195 14,975 115 407 0
2018-04-22 13:39:21 GMT 50.925430 3.459580 14,975 117 407 0
2018-04-22 13:39:18 GMT 50.928009 3.452301 14,975 118 406 0
2018-04-22 13:39:14 GMT 50.931976 3.440651 14,975 119 406 0
2018-04-22 13:39:09 GMT 50.936554 3.428254 14,975 119 405 0
2018-04-22 13:39:03 GMT 50.942184 3.412294 15,000 119 405 -128
2018-04-22 13:38:58 GMT 50.946762 3.400046 14,975 119 404 0
2018-04-22 13:38:53 GMT 50.951569 3.387204 15,000 119 402 0
2018-04-22 13:38:50 GMT 50.954407 3.378890 15,000 119 402 0
2018-04-22 13:38:47 GMT 50.956238 3.373248 15,000 119 402 64
2018-04-22 13:38:42 GMT 50.962456 3.355484 15,000 118 401 192
2018-04-22 13:38:39 GMT 50.963470 3.352612 14,975 115 402 64
2018-04-22 13:38:36 GMT 50.966183 3.343277 15,000 113 404 0
2018-04-22 13:38:32 GMT 50.969238 3.331530 15,000 110 405 0
2018-04-22 13:38:28 GMT 50.971767 3.320236 14,975 106 409 0
2018-04-22 13:38:25 GMT 50.973083 3.313937 14,975 106 409 64
2018-04-22 13:38:22 GMT 50.974960 3.303025 14,975 106 409 0
2018-04-22 13:38:19 GMT 50.977020 3.292929 14,975 106 410 0
2018-04-22 13:38:15 GMT 50.978760 3.283724 14,975 106 410 0
2018-04-22 13:38:12 GMT 50.980911 3.272144 14,975 106 410 0
2018-04-22 13:38:08 GMT 50.982834 3.262123 15,000 106 409 0
2018-04-22 13:38:05 GMT 50.984573 3.252399 15,000 106 409 0
2018-04-22 13:38:02 GMT 50.985687 3.246536 15,000 106 408 0
2018-04-22 13:37:58 GMT 50.987782 3.235626 15,000 106 406 0
2018-04-22 13:37:54 GMT 50.990387 3.221518 15,000 106 406 0
2018-04-22 13:37:50 GMT 50.992218 3.211942 15,000 106 406 0
2018-04-22 13:37:46 GMT 50.994160 3.200607 15,000 106 406 0
2018-04-22 13:37:43 GMT 50.996201 3.190118 15,000 106 406 0
2018-04-22 13:37:38 GMT 50.999001 3.174896 15,000 106 409 0
2018-04-22 13:37:34 GMT 51.001141 3.163528 14,975 106 408 64
2018-04-22 13:37:31 GMT 51.002724 3.154831 14,975 106 408 64
2018-04-22 13:37:28 GMT 51.003983 3.148251 15,000 106 409 0
2018-04-22 13:37:22 GMT 51.007782 3.127615 14,975 106 408 0
2018-04-22 13:37:19 GMT 51.008286 3.124794 15,000 106 409 0
2018-04-22 13:37:16 GMT 51.010162 3.114772 15,000 106 408 0
2018-04-22 13:37:12 GMT 51.012688 3.100891 15,000 106 408 0
2018-04-22 13:37:07 GMT 51.014603 3.090276 15,000 106 408 0
2018-04-22 13:37:01 GMT 51.018738 3.068237 15,000 106 409 64
2018-04-22 13:36:57 GMT 51.020279 3.059618 14,975 106 409 0
2018-04-22 13:36:52 GMT 51.023254 3.043733 14,975 106 410 0
2018-04-22 13:36:49 GMT 51.024811 3.034602 15,000 106 410 0
2018-04-22 13:36:46 GMT 51.026184 3.027550 14,975 106 409 0
2018-04-22 13:36:43 GMT 51.027374 3.020943 15,000 106 408 0
2018-04-22 13:36:37 GMT 51.030945 3.001569 15,000 106 409 -64
2018-04-22 13:36:31 GMT 51.034054 2.984467 15,000 106 408 0
2018-04-22 13:36:27 GMT 51.036118 2.973212 15,000 106 408 0
2018-04-22 13:36:23 GMT 51.039001 2.957920 15,000 106 408 0
2018-04-22 13:36:18 GMT 51.040878 2.947676 15,000 106 411 0
2018-04-22 13:36:14 GMT 51.042847 2.936690 14,975 106 411 0
2018-04-22 13:36:09 GMT 51.045460 2.921982 14,975 106 409 0
2018-04-22 13:36:06 GMT 51.047882 2.909164 14,975 106 410 0
2018-04-22 13:35:59 GMT 51.051178 2.891557 15,000 106 411 0
2018-04-22 13:35:54 GMT 51.053375 2.879028 15,000 106 411 0
2018-04-22 13:35:51 GMT 51.054977 2.870104 15,000 106 411 0
2018-04-22 13:35:44 GMT 51.059006 2.848434 15,000 106 411 0
2018-04-22 13:35:38 GMT 51.061935 2.831949 15,000 105 410 0
2018-04-22 13:35:35 GMT 51.063538 2.823189 15,000 105 410 0
2018-04-22 13:35:32 GMT 51.064774 2.816360 15,000 105 410 0
2018-04-22 13:35:28 GMT 51.067432 2.801514 15,000 105 410 0
2018-04-22 13:35:23 GMT 51.069717 2.789117 15,000 105 411 0
2018-04-22 13:35:19 GMT 51.071621 2.778320 15,000 105 410 0
2018-04-22 13:35:15 GMT 51.073997 2.764893 15,000 105 410 0
2018-04-22 13:35:12 GMT 51.075813 2.754974 15,000 105 410 0
2018-04-22 13:35:08 GMT 51.077408 2.746062 15,000 106 410 0
2018-04-22 13:35:03 GMT 51.080326 2.729950 15,000 106 410 0
2018-04-22 13:35:00 GMT 51.081482 2.722902 15,000 106 409 0
2018-04-22 13:34:57 GMT 51.083221 2.714143 15,000 106 410 0
2018-04-22 13:34:54 GMT 51.085236 2.703973 14,975 106 409 0
2018-04-22 13:34:50 GMT 51.087616 2.690685 15,000 104 410 0
2018-04-22 13:34:47 GMT 51.088760 2.683485 15,000 105 409 0
2018-04-22 13:34:43 GMT 51.090683 2.673835 15,000 104 409 0
2018-04-22 13:34:39 GMT 51.093109 2.658098 15,000 102 410 0
2018-04-22 13:34:36 GMT 51.094109 2.651901 15,000 99 412 0
2018-04-22 13:34:33 GMT 51.094990 2.643127 15,000 100 411 0
2018-04-22 13:34:30 GMT 51.096268 2.633898 15,000 100 411 0
2018-04-22 13:34:26 GMT 51.097645 2.623520 15,000 99 412 0
2018-04-22 13:34:22 GMT 51.098854 2.611618 15,000 99 412 0
2018-04-22 13:34:16 GMT 51.100983 2.590398 15,000 99 412 0
2018-04-22 13:34:13 GMT 51.101578 2.583272 15,000 99 412 0
2018-04-22 13:34:09 GMT 51.102764 2.572784 15,000 99 412 0
2018-04-22 13:34:05 GMT 51.104187 2.559443 15,000 99 412 0
2018-04-22 13:34:02 GMT 51.105240 2.549867 15,000 99 412 0
2018-04-22 13:33:54 GMT 51.107529 2.526633 15,000 99 411 0
2018-04-22 13:33:51 GMT 51.108719 2.517651 15,000 99 412 0
2018-04-22 13:33:46 GMT 51.110027 2.504196 15,000 99 412 0
2018-04-22 13:33:43 GMT 51.111008 2.493600 15,000 99 411 0
2018-04-22 13:33:40 GMT 51.111740 2.485211 15,000 99 411 0
2018-04-22 13:33:36 GMT 51.113007 2.474976 14,975 99 411 0
2018-04-22 13:33:31 GMT 51.114716 2.456112 15,000 99 412 0
2018-04-22 13:33:26 GMT 51.116081 2.442703 15,000 99 412 0
2018-04-22 13:33:21 GMT 51.117920 2.425826 15,000 99 411 0
2018-04-22 13:33:18 GMT 51.118591 2.419434 15,000 99 411 0
2018-04-22 13:33:15 GMT 51.119244 2.412186 15,000 99 411 0
2018-04-22 13:33:12 GMT 51.120346 2.401329 15,000 99 411 0
2018-04-22 13:33:09 GMT 51.121262 2.392347 15,000 99 411 0
2018-04-22 13:33:05 GMT 51.122452 2.380322 15,000 99 411 0
2018-04-22 13:32:59 GMT 51.124878 2.360056 15,000 99 411 0
2018-04-22 13:32:54 GMT 51.125900 2.347794 15,000 99 411 0
2018-04-22 13:32:51 GMT 51.126572 2.339123 15,000 99 411 64
2018-04-22 13:32:48 GMT 51.127766 2.328720 15,000 99 411 64
2018-04-22 13:32:44 GMT 51.129135 2.317893 14,975 99 412 0
2018-04-22 13:32:37 GMT 51.131256 2.294769 14,975 99 413 0
2018-04-22 13:32:32 GMT 51.132698 2.281723 15,000 99 412 0
2018-04-22 13:32:29 GMT 51.133350 2.274475 14,975 99 411 0
2018-04-22 13:32:26 GMT 51.134674 2.262293 14,975 99 409 0
2018-04-22 13:32:23 GMT 51.135586 2.254181 15,000 99 411 0
2018-04-22 13:32:19 GMT 51.136551 2.243883 14,975 99 411 0
2018-04-22 13:32:15 GMT 51.138290 2.228963 14,975 99 411 0
2018-04-22 13:32:07 GMT 51.140305 2.206693 15,000 98 410 0
2018-04-22 13:32:04 GMT 51.141129 2.197191 15,000 98 407 0
2018-04-22 13:31:57 GMT 51.143051 2.177520 15,000 99 407 0
2018-04-22 13:31:53 GMT 51.144291 2.166061 15,000 99 409 0
2018-04-22 13:31:50 GMT 51.145267 2.156754 15,000 98 406 0
2018-04-22 13:31:47 GMT 51.145920 2.148285 15,000 99 407 0
2018-04-22 13:31:44 GMT 51.146713 2.141740 15,000 99 407 0
2018-04-22 13:31:41 GMT 51.147766 2.129863 15,000 99 407 0
2018-04-22 13:31:38 GMT 51.148758 2.121124 14,975 99 408 0
2018-04-22 13:31:35 GMT 51.149826 2.110711 14,975 99 409 64
2018-04-22 13:31:29 GMT 51.151245 2.094900 14,975 98 410 0
2018-04-22 13:31:25 GMT 51.152252 2.084730 14,975 99 410 0
2018-04-22 13:31:22 GMT 51.153259 2.075748 15,000 98 408 0
2018-04-22 13:31:16 GMT 51.155319 2.055408 15,000 99 409 0
2018-04-22 13:31:13 GMT 51.155960 2.049693 15,000 98 408 0
2018-04-22 13:31:10 GMT 51.156719 2.040482 15,000 98 408 0
2018-04-22 13:31:07 GMT 51.157837 2.030095 15,000 99 409 0
2018-04-22 13:31:03 GMT 51.158890 2.018886 14,975 98 410 0
2018-04-22 13:30:59 GMT 51.160442 2.004242 14,975 98 410 0
2018-04-22 13:30:55 GMT 51.161591 1.990901 15,000 98 410 0
2018-04-22 13:30:52 GMT 51.162048 1.986595 15,000 98 410 0
2018-04-22 13:30:48 GMT 51.163559 1.973011 15,000 98 410 0
2018-04-22 13:30:45 GMT 51.164402 1.964417 15,000 98 410 0
2018-04-22 13:30:42 GMT 51.165619 1.952078 15,000 98 411 0
2018-04-22 13:30:38 GMT 51.166351 1.943170 15,000 98 411 0
2018-04-22 13:30:35 GMT 51.167130 1.934781 15,000 98 411 0
2018-04-22 13:30:32 GMT 51.168091 1.925725 15,000 98 410 0
2018-04-22 13:30:29 GMT 51.169235 1.915110 15,000 98 410 0
2018-04-22 13:30:25 GMT 51.170315 1.903534 14,975 98 411 0
2018-04-22 13:30:22 GMT 51.170975 1.897665 14,975 98 411 0
2018-04-22 13:30:19 GMT 51.171844 1.888832 15,000 97 411 0
2018-04-22 13:30:16 GMT 51.172668 1.877920 15,000 98 412 0
2018-04-22 13:30:13 GMT 51.173851 1.866913 15,000 98 412 0
2018-04-22 13:30:10 GMT 51.174362 1.861218 15,000 97 412 0
2018-04-22 13:30:06 GMT 51.175343 1.849518 15,000 97 412 0
2018-04-22 13:30:03 GMT 51.176273 1.837540 15,000 97 412 -128
2018-04-22 13:30:00 GMT 51.176971 1.830292 15,000 97 411 -64
2018-04-22 13:29:56 GMT 51.178040 1.816330 15,000 97 411 64
2018-04-22 13:29:53 GMT 51.178528 1.808439 15,000 98 410 192
2018-04-22 13:29:49 GMT 51.179531 1.797867 14,975 102 409 0
2018-04-22 13:29:45 GMT 51.181904 1.781921 14,975 106 408 -64
2018-04-22 13:29:42 GMT 51.182693 1.777781 15,000 110 405 0
2018-04-22 13:29:39 GMT 51.184231 1.769485 15,000 110 404 0
2018-04-22 13:29:35 GMT 51.187042 1.756847 15,000 110 405 0
2018-04-22 13:29:32 GMT 51.189102 1.747791 15,000 110 405 0
2018-04-22 13:29:29 GMT 51.190842 1.739477 15,000 110 405 0
2018-04-22 13:29:23 GMT 51.194916 1.723146 15,000 109 404 0
2018-04-22 13:29:20 GMT 51.196655 1.714758 15,000 110 405 0
2018-04-22 13:29:16 GMT 51.199448 1.703772 15,000 110 404 0
2018-04-22 13:29:13 GMT 51.200775 1.696200 15,000 109 404 0
2018-04-22 13:29:10 GMT 51.203705 1.684174 15,000 110 404 0
2018-04-22 13:29:07 GMT 51.205318 1.676331 15,000 110 404 0
2018-04-22 13:29:04 GMT 51.206810 1.670303 15,000 109 404 0
2018-04-22 13:29:01 GMT 51.208740 1.662202 15,000 109 407 0
2018-04-22 13:28:58 GMT 51.211258 1.650993 15,000 109 404 0
2018-04-22 13:28:54 GMT 51.213558 1.641083 15,000 109 405 0
2018-04-22 13:28:50 GMT 51.215973 1.630282 15,000 109 406 0
2018-04-22 13:28:47 GMT 51.218216 1.620483 15,000 109 406 0
2018-04-22 13:28:44 GMT 51.219452 1.614396 15,000 109 406 0
2018-04-22 13:28:41 GMT 51.221382 1.605911 15,000 109 407 0
2018-04-22 13:28:38 GMT 51.223206 1.598808 15,000 109 407 0
2018-04-22 13:28:35 GMT 51.225723 1.588118 15,000 109 408 0
2018-04-22 13:28:29 GMT 51.229248 1.571193 15,000 109 408 0
2018-04-22 13:28:25 GMT 51.232681 1.556941 15,000 109 409 0
2018-04-22 13:28:22 GMT 51.234009 1.550186 15,000 109 409 0
2018-04-22 13:28:18 GMT 51.236481 1.539348 15,000 109 409 0
2018-04-22 13:28:15 GMT 51.238815 1.529252 15,000 109 409 0
2018-04-22 13:28:12 GMT 51.241074 1.519775 15,000 109 409 0
2018-04-22 13:28:09 GMT 51.241653 1.516707 15,000 109 409 0
2018-04-22 13:28:06 GMT 51.243587 1.507874 15,000 109 409 0
2018-04-22 13:28:03 GMT 51.245914 1.498260 15,000 109 409 0
2018-04-22 13:27:59 GMT 51.248428 1.487503 15,000 109 408 0
2018-04-22 13:27:55 GMT 51.250854 1.477067 15,000 109 408 0
2018-04-22 13:27:52 GMT 51.252804 1.468277 15,000 109 406 0
2018-04-22 13:27:48 GMT 51.255272 1.457596 15,000 109 408 0
2018-04-22 13:27:45 GMT 51.257812 1.446558 14,975 109 408 0
2018-04-22 13:27:42 GMT 51.259972 1.436615 14,975 109 408 0
2018-04-22 13:27:39 GMT 51.261089 1.430969 15,000 109 408 0
2018-04-22 13:27:36 GMT 51.263260 1.421096 15,000 109 408 0
2018-04-22 13:27:33 GMT 51.264862 1.415024 15,000 109 408 0
2018-04-22 13:27:30 GMT 51.267326 1.403809 15,000 109 408 0
2018-04-22 13:27:27 GMT 51.268890 1.397342 15,000 109 408 0
2018-04-22 13:27:24 GMT 51.271053 1.387482 15,000 109 408 0
2018-04-22 13:27:20 GMT 51.273613 1.376190 15,000 109 408 0
2018-04-22 13:27:17 GMT 51.274933 1.369654 15,000 109 408 0
2018-04-22 13:27:13 GMT 51.277615 1.358032 15,000 109 407 0
2018-04-22 13:27:09 GMT 51.280655 1.345454 15,000 109 407 0
2018-04-22 13:27:06 GMT 51.283016 1.334305 15,000 109 406 0
2018-04-22 13:27:03 GMT 51.284775 1.326748 15,000 109 406 0
2018-04-22 13:27:00 GMT 51.286320 1.319580 15,000 109 405 0
2018-04-22 13:26:57 GMT 51.288986 1.307967 15,000 109 405 0
2018-04-22 13:26:52 GMT 51.291321 1.296906 15,000 109 407 0
2018-04-22 13:26:48 GMT 51.293976 1.285549 14,975 109 406 0
2018-04-22 13:26:44 GMT 51.296284 1.275101 14,975 109 407 0
2018-04-22 13:26:41 GMT 51.298096 1.266917 14,975 109 407 0
2018-04-22 13:26:37 GMT 51.301025 1.254965 15,000 109 407 0
2018-04-22 13:26:34 GMT 51.302536 1.247097 15,000 109 407 0
2018-04-22 13:26:31 GMT 51.305222 1.235504 15,000 109 407 0
2018-04-22 13:26:27 GMT 51.307343 1.226163 15,000 109 407 0
2018-04-22 13:26:23 GMT 51.310043 1.213173 15,000 109 407 0
2018-04-22 13:26:20 GMT 51.311783 1.206418 15,000 109 407 0
2018-04-22 13:26:16 GMT 51.314850 1.192239 15,000 109 406 0
2018-04-22 13:26:13 GMT 51.316441 1.185913 15,000 109 406 0
2018-04-22 13:26:10 GMT 51.318443 1.176147 15,000 109 407 0
2018-04-22 13:26:07 GMT 51.320026 1.168823 15,000 109 406 0
2018-04-22 13:26:04 GMT 51.321655 1.161346 15,000 109 407 0
2018-04-22 13:26:00 GMT 51.324371 1.149704 15,000 109 407 0
2018-04-22 13:25:56 GMT 51.326889 1.138570 15,000 109 407 0
2018-04-22 13:25:53 GMT 51.328812 1.129959 15,000 109 406 0
2018-04-22 13:25:50 GMT 51.330406 1.122437 15,000 109 406 0
2018-04-22 13:25:46 GMT 51.333385 1.109390 15,000 109 406 0
2018-04-22 13:25:43 GMT 51.334625 1.104052 15,000 109 406 0
2018-04-22 13:25:40 GMT 51.337250 1.091843 15,000 109 407 0
2018-04-22 13:25:37 GMT 51.339111 1.083638 14,975 109 407 0
2018-04-22 13:25:34 GMT 51.341347 1.073151 15,000 109 407 0
2018-04-22 13:25:31 GMT 51.342407 1.068940 15,000 109 407 0
2018-04-22 13:25:28 GMT 51.344604 1.059364 15,000 109 407 0
2018-04-22 13:25:25 GMT 51.346390 1.051347 15,000 109 407 0
2018-04-22 13:25:22 GMT 51.348141 1.043091 15,000 109 406 0
2018-04-22 13:25:19 GMT 51.350281 1.033903 15,000 109 406 0
2018-04-22 13:25:14 GMT 51.353031 1.021118 15,000 109 407 128
2018-04-22 13:25:11 GMT 51.355316 1.010668 15,000 109 405 0
2018-04-22 13:25:08 GMT 51.357285 1.001537 15,000 109 406 0
2018-04-22 13:25:05 GMT 51.358932 0.994263 15,000 108 407 0
2018-04-22 13:25:02 GMT 51.360397 0.986765 15,000 108 407 0
2018-04-22 13:24:58 GMT 51.363319 0.973434 15,000 107 408 -64
2018-04-22 13:24:54 GMT 51.365368 0.964203 14,975 108 408 0
2018-04-22 13:24:51 GMT 51.367218 0.954252 15,000 108 409 0
2018-04-22 13:24:48 GMT 51.368904 0.945969 15,000 108 408 0
2018-04-22 13:24:45 GMT 51.370396 0.939178 15,000 108 408 128
2018-04-22 13:24:42 GMT 51.372910 0.927048 15,000 109 408 128
2018-04-22 13:24:39 GMT 51.374397 0.920181 15,000 118 402 0
2018-04-22 13:24:36 GMT 51.375961 0.912533 14,975 118 402 0
2018-04-22 13:24:33 GMT 51.378353 0.903397 14,975 117 403 0
2018-04-22 13:24:30 GMT 51.380684 0.895081 14,975 118 403 0
2018-04-22 13:24:26 GMT 51.384407 0.883408 15,000 118 402 0
2018-04-22 13:24:21 GMT 51.388962 0.870147 15,000 118 402 0
2018-04-22 13:24:18 GMT 51.390923 0.864639 15,000 118 402 0
2018-04-22 13:24:15 GMT 51.394135 0.855331 15,000 118 403 0
2018-04-22 13:24:11 GMT 51.397522 0.845353 15,000 118 402 0
2018-04-22 13:24:08 GMT 51.400143 0.837479 15,000 118 402 0
2018-04-22 13:24:05 GMT 51.404068 0.826276 14,975 118 402 0
2018-04-22 13:24:02 GMT 51.405495 0.821533 15,000 118 402 0
2018-04-22 13:23:58 GMT 51.409378 0.810167 15,000 118 403 0
2018-04-22 13:23:55 GMT 51.412582 0.801185 15,000 118 403 0
2018-04-22 13:23:52 GMT 51.414433 0.796051 15,000 118 403 0
2018-04-22 13:23:49 GMT 51.416992 0.788498 15,000 118 403 0
2018-04-22 13:23:46 GMT 51.419880 0.780029 15,000 118 403 0
2018-04-22 13:23:43 GMT 51.423557 0.769043 15,000 118 404 0
2018-04-22 13:23:40 GMT 51.425400 0.764366 14,975 118 405 0
2018-04-22 13:23:37 GMT 51.427933 0.756607 14,975 118 404 0
2018-04-22 13:23:34 GMT 51.430958 0.747223 14,975 118 405 0
2018-04-22 13:23:31 GMT 51.433594 0.740093 14,975 118 405 0
2018-04-22 13:23:27 GMT 51.436890 0.730665 14,975 118 406 0
2018-04-22 13:23:24 GMT 51.439571 0.722275 15,000 118 406 -64
2018-04-22 13:23:21 GMT 51.443295 0.711365 15,000 118 405 0
2018-04-22 13:23:18 GMT 51.445129 0.706169 15,000 118 405 0
2018-04-22 13:23:15 GMT 51.447556 0.698745 15,000 118 405 0
2018-04-22 13:23:11 GMT 51.452141 0.685654 15,000 118 404 0
2018-04-22 13:23:08 GMT 51.454281 0.678635 15,000 118 404 0
2018-04-22 13:23:05 GMT 51.457672 0.669498 15,000 118 405 64
2018-04-22 13:23:02 GMT 51.459137 0.664079 15,000 118 404 64
2018-04-22 13:22:59 GMT 51.462196 0.655441 14,975 118 407 0
2018-04-22 13:22:55 GMT 51.465408 0.646591 14,975 118 407 0
2018-04-22 13:22:52 GMT 51.470032 0.633124 14,975 118 408 0
2018-04-22 13:22:49 GMT 51.471634 0.627260 14,975 118 406 0
2018-04-22 13:22:46 GMT 51.473415 0.622711 14,975 118 408 0
2018-04-22 13:22:43 GMT 51.477467 0.610504 14,975 118 406 0
2018-04-22 13:22:40 GMT 51.478443 0.607834 15,000 118 406 0
2018-04-22 13:22:37 GMT 51.482445 0.595551 15,000 118 406 0
2018-04-22 13:22:34 GMT 51.484406 0.590144 15,000 118 406 0
2018-04-22 13:22:31 GMT 51.487427 0.580826 15,000 118 407 0
2018-04-22 13:22:28 GMT 51.490585 0.571512 15,000 118 407 0
2018-04-22 13:22:25 GMT 51.492874 0.564346 15,000 118 406 0
2018-04-22 13:22:22 GMT 51.495117 0.557705 15,000 118 406 0
2018-04-22 13:22:19 GMT 51.498322 0.547683 14,975 117 407 -64
2018-04-22 13:22:16 GMT 51.500275 0.541992 14,975 118 406 0
2018-04-22 13:22:13 GMT 51.502991 0.534396 14,975 118 406 0
2018-04-22 13:22:10 GMT 51.507065 0.521479 15,000 118 406 0
2018-04-22 13:22:06 GMT 51.509026 0.515976 15,000 118 406 0
2018-04-22 13:22:03 GMT 51.511276 0.508340 15,000 117 406 0
2018-04-22 13:22:00 GMT 51.514751 0.498428 15,000 117 406 64
2018-04-22 13:21:57 GMT 51.517548 0.490228 15,000 117 405 0
2018-04-22 13:21:54 GMT 51.519424 0.483918 15,000 117 404 0
2018-04-22 13:21:51 GMT 51.522079 0.476346 15,000 117 406 64
2018-04-22 13:21:48 GMT 51.525787 0.465286 15,000 117 404 0
2018-04-22 13:21:45 GMT 51.527786 0.458679 14,975 117 406 0
2018-04-22 13:21:42 GMT 51.529770 0.453038 14,975 117 407 0
2018-04-22 13:21:39 GMT 51.533249 0.442422 14,975 117 407 64
2018-04-22 13:21:36 GMT 51.535767 0.434405 14,975 117 407 0
2018-04-22 13:21:32 GMT 51.539429 0.423790 15,000 117 407 0
2018-04-22 13:21:28 GMT 51.543385 0.411758 15,000 117 405 0
2018-04-22 13:21:25 GMT 51.545151 0.406418 15,000 118 406 0
2018-04-22 13:21:22 GMT 51.547943 0.397661 15,000 117 406 0
2018-04-22 13:21:19 GMT 51.550735 0.389718 14,975 117 406 0
2018-04-22 13:21:16 GMT 51.552879 0.383148 14,975 117 407 0
2018-04-22 13:21:13 GMT 51.556416 0.372009 15,000 117 406 0
2018-04-22 13:21:10 GMT 51.559212 0.363922 15,000 117 406 0
2018-04-22 13:21:07 GMT 51.561722 0.356091 15,000 117 405 0
2018-04-22 13:21:04 GMT 51.564190 0.348969 15,000 117 404 0
2018-04-22 13:21:01 GMT 51.566116 0.342284 15,000 117 405 64
2018-04-22 13:20:58 GMT 51.568474 0.335693 15,000 117 405 64
2018-04-22 13:20:55 GMT 51.571640 0.326157 14,975 117 405 0
2018-04-22 13:20:51 GMT 51.575272 0.314743 15,000 117 406 0
2018-04-22 13:20:48 GMT 51.578110 0.306396 14,975 117 406 0
2018-04-22 13:20:44 GMT 51.580673 0.298709 15,000 117 406 0
2018-04-22 13:20:41 GMT 51.583324 0.290527 15,000 117 406 64
2018-04-22 13:20:38 GMT 51.586304 0.280838 15,000 117 406 64
2018-04-22 13:20:34 GMT 51.589691 0.270872 14,975 117 407 0
2018-04-22 13:20:31 GMT 51.592804 0.261296 15,000 117 407 0
2018-04-22 13:20:28 GMT 51.595230 0.253947 15,000 117 407 0
2018-04-22 13:20:25 GMT 51.596970 0.248454 15,000 117 407 0
2018-04-22 13:20:22 GMT 51.600224 0.238571 15,000 117 407 0
2018-04-22 13:20:19 GMT 51.603561 0.228115 15,000 117 406 0
2018-04-22 13:20:16 GMT 51.605389 0.222626 15,000 117 406 0
2018-04-22 13:20:13 GMT 51.608135 0.214005 15,000 117 406 64
2018-04-22 13:20:10 GMT 51.610474 0.206662 15,000 117 406 0
2018-04-22 13:20:07 GMT 51.612762 0.199758 14,975 117 407 0
2018-04-22 13:20:04 GMT 51.616104 0.189663 14,975 117 407 0
2018-04-22 13:20:01 GMT 51.617588 0.184479 14,975 117 407 0
2018-04-22 13:19:58 GMT 51.620289 0.176468 14,975 117 408 0
2018-04-22 13:19:55 GMT 51.623520 0.166651 15,000 117 407 0
2018-04-22 13:19:52 GMT 51.626247 0.158157 15,000 117 407 0
2018-04-22 13:19:49 GMT 51.628296 0.151825 15,000 117 406 0
2018-04-22 13:19:46 GMT 51.630936 0.142822 15,000 117 406 0
2018-04-22 13:19:43 GMT 51.634720 0.131912 15,000 117 405 0
2018-04-22 13:19:40 GMT 51.636566 0.126343 14,975 117 404 0
2018-04-22 13:19:37 GMT 51.639931 0.116043 14,975 117 404 0
2018-04-22 13:19:34 GMT 51.641655 0.110703 14,975 117 404 0
2018-04-22 13:19:31 GMT 51.644260 0.102615 14,975 117 405 0
2018-04-22 13:19:28 GMT 51.647381 0.093002 14,975 117 405 0
2018-04-22 13:19:25 GMT 51.649384 0.086670 14,975 117 404 0
2018-04-22 13:19:22 GMT 51.652634 0.076756 15,000 117 404 0
2018-04-22 13:19:19 GMT 51.655243 0.068739 15,000 117 404 0
2018-04-22 13:19:16 GMT 51.657303 0.062281 15,000 117 404 0
2018-04-22 13:19:13 GMT 51.660694 0.051880 15,000 117 403 0
2018-04-22 13:19:09 GMT 51.662842 0.045356 15,000 117 403 0
2018-04-22 13:19:06 GMT 51.666138 0.035260 14,975 117 403 64
2018-04-22 13:19:03 GMT 51.668610 0.027618 15,000 117 403 64
2018-04-22 13:19:00 GMT 51.671215 0.019379 14,975 117 403 0
2018-04-22 13:18:57 GMT 51.673637 0.012207 14,975 117 401 0
2018-04-22 13:18:54 GMT 51.676010 0.004654 14,975 117 404 -64
2018-04-22 13:18:51 GMT 51.680199 -0.008621 15,000 117 404 -64
2018-04-22 13:18:48 GMT 51.682060 -0.013962 15,000 117 403 0
2018-04-22 13:18:45 GMT 51.684158 -0.020370 15,000 117 403 0
2018-04-22 13:18:42 GMT 51.686325 -0.027020 15,000 117 403 0
2018-04-22 13:18:39 GMT 51.689323 -0.036316 15,000 117 402 0
2018-04-22 13:18:35 GMT 51.693512 -0.049290 15,000 117 401 0
2018-04-22 13:18:32 GMT 51.695145 -0.054321 15,000 117 401 0
2018-04-22 13:18:29 GMT 51.697815 -0.062726 15,000 117 401 0
2018-04-22 13:18:26 GMT 51.700195 -0.069926 15,000 117 400 0
2018-04-22 13:18:23 GMT 51.703197 -0.079117 15,000 117 400 0
2018-04-22 13:18:20 GMT 51.705780 -0.086851 15,000 117 401 0
2018-04-22 13:18:17 GMT 51.708691 -0.096054 15,000 117 401 0
2018-04-22 13:18:14 GMT 51.711502 -0.104890 15,000 117 401 0
2018-04-22 13:18:11 GMT 51.713112 -0.109863 14,975 116 403 0
2018-04-22 13:18:08 GMT 51.716370 -0.119934 14,975 117 401 0
2018-04-22 13:18:05 GMT 51.719009 -0.128199 14,975 117 402 0
2018-04-22 13:18:01 GMT 51.721630 -0.136337 14,975 117 402 0
2018-04-22 13:17:58 GMT 51.724274 -0.144604 14,975 117 402 0
2018-04-22 13:17:55 GMT 51.727386 -0.154180 15,000 117 402 0
2018-04-22 13:17:52 GMT 51.729500 -0.160980 15,000 117 401 0
2018-04-22 13:17:49 GMT 51.731644 -0.167467 15,000 117 401 0
2018-04-22 13:17:46 GMT 51.735271 -0.178986 15,000 117 401 0
2018-04-22 13:17:43 GMT 51.736908 -0.184021 15,000 117 401 0
2018-04-22 13:17:40 GMT 51.739368 -0.191650 15,000 116 401 0
2018-04-22 13:17:37 GMT 51.741806 -0.199387 15,000 117 401 0
2018-04-22 13:17:34 GMT 51.745186 -0.210266 15,000 117 401 0
2018-04-22 13:17:31 GMT 51.747467 -0.216599 15,000 117 401 0
2018-04-22 13:17:28 GMT 51.749702 -0.224152 15,000 117 401 0
2018-04-22 13:17:25 GMT 51.752728 -0.233612 15,000 117 402 0
2018-04-22 13:17:22 GMT 51.755337 -0.242081 15,000 116 401 0
2018-04-22 13:17:19 GMT 51.758034 -0.250168 15,000 116 401 0
2018-04-22 13:17:15 GMT 51.760780 -0.259247 15,000 116 402 0
2018-04-22 13:17:12 GMT 51.763248 -0.267105 15,000 116 402 0
2018-04-22 13:17:09 GMT 51.766415 -0.276871 15,000 116 402 0
2018-04-22 13:17:06 GMT 51.767998 -0.282288 14,975 116 403 0
2018-04-22 13:17:03 GMT 51.771194 -0.292622 14,975 116 403 0
2018-04-22 13:16:59 GMT 51.774170 -0.301753 14,975 116 403 0
2018-04-22 13:16:56 GMT 51.776283 -0.308456 15,000 116 403 0
2018-04-22 13:16:53 GMT 51.779541 -0.319138 15,000 116 403 0
2018-04-22 13:16:50 GMT 51.782181 -0.326917 15,000 116 402 0
2018-04-22 13:16:47 GMT 51.783592 -0.332108 15,000 115 403 0
2018-04-22 13:16:44 GMT 51.786896 -0.342789 15,000 111 405 0
2018-04-22 13:16:41 GMT 51.789185 -0.350152 15,000 113 403 0
2018-04-22 13:16:38 GMT 51.791969 -0.361023 15,000 112 404 0
2018-04-22 13:16:35 GMT 51.793945 -0.368933 15,000 110 406 0
2018-04-22 13:16:32 GMT 51.795509 -0.374985 15,000 110 406 64
2018-04-22 13:16:29 GMT 51.796906 -0.381699 14,975 108 409 0
2018-04-22 13:16:26 GMT 51.799374 -0.393295 14,975 108 409 0
2018-04-22 13:16:23 GMT 51.801132 -0.400556 14,975 107 410 0
2018-04-22 13:16:20 GMT 51.803101 -0.411022 15,000 107 410 0
2018-04-22 13:16:17 GMT 51.804565 -0.419856 15,000 107 407 0
2018-04-22 13:16:14 GMT 51.806168 -0.428615 15,000 107 410 0
2018-04-22 13:16:11 GMT 51.807816 -0.435593 15,000 107 410 0
2018-04-22 13:16:08 GMT 51.808823 -0.442352 15,000 107 410 0
2018-04-22 13:16:05 GMT 51.811104 -0.454025 15,000 107 410 0
2018-04-22 13:16:02 GMT 51.812393 -0.461871 15,000 107 410 0
2018-04-22 13:15:59 GMT 51.814457 -0.471497 15,000 107 410 -64
2018-04-22 13:15:56 GMT 51.816193 -0.479390 15,000 107 408 0
2018-04-22 13:15:53 GMT 51.817841 -0.488149 15,000 107 408 0
2018-04-22 13:15:50 GMT 51.819344 -0.497131 15,000 107 408 0
2018-04-22 13:15:46 GMT 51.822372 -0.511310 15,000 107 408 0
2018-04-22 13:15:43 GMT 51.823532 -0.518799 15,000 107 407 0
2018-04-22 13:15:40 GMT 51.825027 -0.525933 15,000 107 407 0
2018-04-22 13:15:37 GMT 51.826698 -0.534363 14,975 107 408 0
2018-04-22 13:15:34 GMT 51.828598 -0.544491 15,000 107 409 0
2018-04-22 13:15:31 GMT 51.830521 -0.554290 15,000 107 410 0
2018-04-22 13:15:27 GMT 51.832306 -0.563717 15,000 107 410 0
2018-04-22 13:15:24 GMT 51.834320 -0.573590 15,000 107 409 0
2018-04-22 13:15:21 GMT 51.836563 -0.584577 15,000 108 409 0
2018-04-22 13:15:18 GMT 51.837845 -0.590515 14,975 125 400 0
2018-04-22 13:15:15 GMT 51.839222 -0.597610 15,000 110 408 0
2018-04-22 13:15:12 GMT 51.842285 -0.610409 15,000 113 407 64
2018-04-22 13:15:09 GMT 51.844204 -0.617523 15,000 115 405 64
2018-04-22 13:15:06 GMT 51.845947 -0.623623 15,000 116 405 128
2018-04-22 13:15:03 GMT 51.848694 -0.632382 14,975 120 402 0
2018-04-22 13:15:00 GMT 51.851624 -0.640696 14,975 121 402 0
2018-04-22 13:14:57 GMT 51.853745 -0.646057 14,975 123 401 -64
2018-04-22 13:14:54 GMT 51.857330 -0.654755 15,000 126 398 0
2018-04-22 13:14:51 GMT 51.861282 -0.663485 15,000 126 399 0
2018-04-22 13:14:48 GMT 51.864033 -0.669403 15,000 126 399 0
2018-04-22 13:14:45 GMT 51.867279 -0.676253 15,000 126 399 0
2018-04-22 13:14:42 GMT 51.871063 -0.684814 15,000 126 398 0
2018-04-22 13:14:39 GMT 51.875244 -0.693549 15,000 126 399 0
2018-04-22 13:14:36 GMT 51.877022 -0.697556 15,000 126 399 0
2018-04-22 13:14:33 GMT 51.880653 -0.705261 15,000 126 399 0
2018-04-22 13:14:30 GMT 51.884518 -0.713882 15,000 126 399 0
2018-04-22 13:14:27 GMT 51.887356 -0.720062 15,000 126 399 0
2018-04-22 13:14:24 GMT 51.890900 -0.727547 15,000 126 399 0
2018-04-22 13:14:20 GMT 51.894608 -0.736160 15,000 126 399 0
2018-04-22 13:14:17 GMT 51.898911 -0.745239 15,000 126 399 0
2018-04-22 13:14:14 GMT 51.900951 -0.749817 15,000 126 399 0
2018-04-22 13:14:11 GMT 51.904083 -0.756836 15,000 126 398 0
2018-04-22 13:14:08 GMT 51.909256 -0.767822 15,000 126 397 0
2018-04-22 13:14:05 GMT 51.911270 -0.772552 15,000 126 397 0
2018-04-22 13:14:02 GMT 51.914543 -0.779402 15,000 127 396 64
2018-04-22 13:13:59 GMT 51.918083 -0.787092 15,000 129 394 0
2018-04-22 13:13:56 GMT 51.922272 -0.795175 15,000 132 392 0
2018-04-22 13:13:53 GMT 51.924274 -0.798628 14,975 137 388 128
2018-04-22 13:13:50 GMT 51.929398 -0.807343 15,000 136 388 128
2018-04-22 13:13:47 GMT 51.932281 -0.811890 15,000 142 385 -64
2018-04-22 13:13:44 GMT 51.937260 -0.818795 14,975 140 385 -64
2018-04-22 13:13:40 GMT 51.942333 -0.825073 14,975 145 384 0
2018-04-22 13:13:37 GMT 51.945877 -0.829391 14,975 145 384 0
2018-04-22 13:13:34 GMT 51.950340 -0.834412 15,000 146 383 0
2018-04-22 13:13:31 GMT 51.957001 -0.841599 15,000 146 383 0
2018-04-22 13:13:28 GMT 51.960861 -0.846026 15,000 145 382 64
2018-04-22 13:13:25 GMT 51.965332 -0.850813 14,975 145 382 0
2018-04-22 13:13:21 GMT 51.970917 -0.856855 14,975 145 383 -64
2018-04-22 13:13:18 GMT 51.973938 -0.860367 14,975 145 383 -64
2018-04-22 13:13:14 GMT 51.979980 -0.866852 15,000 145 382 0
2018-04-22 13:13:11 GMT 51.984787 -0.872040 15,000 145 382 0
2018-04-22 13:13:08 GMT 51.989273 -0.876846 15,000 145 382 0
2018-04-22 13:13:04 GMT 51.995266 -0.883615 15,000 146 381 0
2018-04-22 13:13:01 GMT 51.999390 -0.888214 15,000 146 381 0
2018-04-22 13:12:58 GMT 52.003738 -0.892639 15,000 146 381 0
2018-04-22 13:12:55 GMT 52.007462 -0.896798 14,975 145 381 0
2018-04-22 13:12:52 GMT 52.014118 -0.904332 15,000 145 381 0
2018-04-22 13:12:49 GMT 52.017792 -0.908203 15,000 145 381 0
2018-04-22 13:12:46 GMT 52.022034 -0.912807 14,975 145 382 0
2018-04-22 13:12:43 GMT 52.026733 -0.917986 14,975 145 382 0
2018-04-22 13:12:40 GMT 52.031479 -0.923233 14,975 145 382 0
2018-04-22 13:12:37 GMT 52.034321 -0.926304 14,975 146 383 0
2018-04-22 13:12:34 GMT 52.038372 -0.930856 15,000 146 383 0
2018-04-22 13:12:31 GMT 52.043335 -0.936050 15,000 145 382 0
2018-04-22 13:12:28 GMT 52.048325 -0.941467 15,000 145 382 0
2018-04-22 13:12:25 GMT 52.053360 -0.946808 15,000 145 382 0
2018-04-22 13:12:22 GMT 52.056290 -0.950317 15,000 145 382 0
2018-04-22 13:12:19 GMT 52.061783 -0.956345 15,000 145 382 0
2018-04-22 13:12:16 GMT 52.066406 -0.961609 15,000 145 382 0
2018-04-22 13:12:13 GMT 52.070892 -0.966415 15,000 145 382 0
2018-04-22 13:12:10 GMT 52.073658 -0.969230 15,000 145 382 0
2018-04-22 13:12:07 GMT 52.079544 -0.975876 15,000 145 383 0
2018-04-22 13:12:04 GMT 52.082645 -0.979431 15,000 145 383 0
2018-04-22 13:12:01 GMT 52.087830 -0.984955 15,000 145 383 0
2018-04-22 13:11:58 GMT 52.091583 -0.989075 15,000 145 383 0
2018-04-22 13:11:55 GMT 52.095520 -0.993347 15,000 145 384 0
2018-04-22 13:11:52 GMT 52.099682 -0.998029 15,000 145 384 64
2018-04-22 13:11:49 GMT 52.104614 -1.003523 15,000 145 384 0
2018-04-22 13:11:46 GMT 52.109692 -1.009094 14,975 145 384 0
2018-04-22 13:11:42 GMT 52.117447 -1.017761 14,975 145 384 0
2018-04-22 13:11:39 GMT 52.120239 -1.020966 15,000 145 384 0
2018-04-22 13:11:36 GMT 52.123425 -1.024475 15,000 145 384 0
2018-04-22 13:11:33 GMT 52.128296 -1.029816 15,000 145 383 64
2018-04-22 13:11:30 GMT 52.133240 -1.035309 14,975 145 383 0
2018-04-22 13:11:26 GMT 52.140739 -1.043544 15,000 145 382 0
2018-04-22 13:11:23 GMT 52.144455 -1.047745 15,000 145 382 64
2018-04-22 13:11:20 GMT 52.146561 -1.049979 15,000 145 382 0
2018-04-22 13:11:17 GMT 52.152706 -1.056728 15,000 145 382 64
2018-04-22 13:11:13 GMT 52.159081 -1.063947 15,000 145 381 0
2018-04-22 13:11:10 GMT 52.162994 -1.068107 15,000 145 381 0
2018-04-22 13:11:07 GMT 52.167507 -1.073286 15,000 145 381 0
2018-04-22 13:11:04 GMT 52.171463 -1.077652 15,000 145 381 0
2018-04-22 13:11:01 GMT 52.175858 -1.082611 14,975 145 380 0
2018-04-22 13:10:58 GMT 52.180077 -1.087333 14,975 145 380 0
2018-04-22 13:10:55 GMT 52.183289 -1.090707 15,000 145 380 0
2018-04-22 13:10:52 GMT 52.188503 -1.096514 15,000 145 380 0
2018-04-22 13:10:49 GMT 52.191833 -1.100311 14,975 145 379 0
2018-04-22 13:10:46 GMT 52.196697 -1.105539 15,000 145 379 0
2018-04-22 13:10:43 GMT 52.201584 -1.110953 15,000 145 379 0
2018-04-22 13:10:40 GMT 52.204880 -1.114731 15,000 145 379 0
2018-04-22 13:10:37 GMT 52.210850 -1.121155 15,000 145 378 0
2018-04-22 13:10:34 GMT 52.214767 -1.125488 15,000 145 378 0
2018-04-22 13:10:31 GMT 52.219254 -1.130295 15,000 145 378 0
2018-04-22 13:10:27 GMT 52.224564 -1.136322 15,000 145 377 64
2018-04-22 13:10:24 GMT 52.229050 -1.141323 14,975 145 378 0
2018-04-22 13:10:21 GMT 52.233238 -1.145874 14,975 145 378 0
2018-04-22 13:10:18 GMT 52.236694 -1.149826 14,975 145 378 0
2018-04-22 13:10:15 GMT 52.241295 -1.154820 15,000 145 378 0
2018-04-22 13:10:12 GMT 52.246090 -1.160313 14,975 145 378 0
2018-04-22 13:10:09 GMT 52.250557 -1.165100 15,000 145 378 0
2018-04-22 13:10:06 GMT 52.254467 -1.169573 15,000 145 378 0
2018-04-22 13:10:03 GMT 52.259033 -1.174774 15,000 145 378 0
2018-04-22 13:10:00 GMT 52.263840 -1.180191 15,000 145 378 0
2018-04-22 13:09:57 GMT 52.268574 -1.185346 15,000 145 378 0
2018-04-22 13:09:54 GMT 52.272484 -1.189584 15,000 145 378 0
2018-04-22 13:09:51 GMT 52.278442 -1.196411 14,975 145 379 0
2018-04-22 13:09:47 GMT 52.281967 -1.200562 15,000 145 379 0
2018-04-22 13:09:44 GMT 52.286449 -1.205279 15,000 145 379 0
2018-04-22 13:09:41 GMT 52.290527 -1.209793 15,000 145 379 0
2018-04-22 13:09:38 GMT 52.294601 -1.214371 15,000 145 379 0
2018-04-22 13:09:35 GMT 52.299156 -1.219482 15,000 145 379 0
2018-04-22 13:09:32 GMT 52.304371 -1.225525 15,000 145 379 0
2018-04-22 13:09:29 GMT 52.308468 -1.229919 15,000 145 379 0
2018-04-22 13:09:26 GMT 52.312519 -1.234392 15,000 145 379 0
2018-04-22 13:09:23 GMT 52.318222 -1.240845 15,000 145 380 0
2018-04-22 13:09:20 GMT 52.320339 -1.243182 15,000 145 379 0
2018-04-22 13:09:16 GMT 52.326599 -1.250305 14,975 145 380 0
2018-04-22 13:09:13 GMT 52.332767 -1.257228 15,000 145 381 0
2018-04-22 13:09:10 GMT 52.336395 -1.261292 15,000 145 381 0
2018-04-22 13:09:06 GMT 52.341934 -1.267548 15,000 146 380 0
2018-04-22 13:09:03 GMT 52.345734 -1.271744 15,000 146 379 0
2018-04-22 13:09:00 GMT 52.350830 -1.277082 15,000 146 379 0
2018-04-22 13:08:57 GMT 52.354694 -1.281398 15,000 147 379 0
2018-04-22 13:08:54 GMT 52.359398 -1.286107 14,975 148 379 0
2018-04-22 13:08:51 GMT 52.364548 -1.291504 14,975 149 378 0
2018-04-22 13:08:48 GMT 52.368576 -1.295166 15,000 149 377 0
2018-04-22 13:08:45 GMT 52.373177 -1.299761 15,000 150 377 0
2018-04-22 13:08:42 GMT 52.376808 -1.302822 15,000 150 376 0
2018-04-22 13:08:39 GMT 52.382401 -1.308136 15,000 150 375 0
2018-04-22 13:08:36 GMT 52.386749 -1.312027 15,000 150 375 0
2018-04-22 13:08:33 GMT 52.391190 -1.316147 14,975 150 375 0
2018-04-22 13:08:30 GMT 52.395706 -1.320164 14,975 150 375 0
2018-04-22 13:08:27 GMT 52.398468 -1.322784 14,975 150 375 0
2018-04-22 13:08:24 GMT 52.403900 -1.327619 14,975 150 375 0
2018-04-22 13:08:21 GMT 52.408184 -1.331700 15,000 150 374 0
2018-04-22 13:08:18 GMT 52.413071 -1.335983 15,000 150 374 0
2018-04-22 13:08:15 GMT 52.419029 -1.341352 15,000 151 373 0
2018-04-22 13:08:12 GMT 52.421310 -1.343549 15,000 151 373 0
2018-04-22 13:08:09 GMT 52.427502 -1.348964 15,000 151 373 0
2018-04-22 13:08:06 GMT 52.432438 -1.353673 15,000 151 372 0
2018-04-22 13:08:03 GMT 52.436829 -1.357574 15,000 151 372 0
2018-04-22 13:08:00 GMT 52.441956 -1.361923 15,000 151 372 64
2018-04-22 13:07:57 GMT 52.445984 -1.365914 15,000 151 372 0
2018-04-22 13:07:54 GMT 52.450500 -1.369995 15,000 150 372 0
2018-04-22 13:07:51 GMT 52.455666 -1.374390 14,975 150 372 0
2018-04-22 13:07:47 GMT 52.459763 -1.378326 15,000 150 372 0
2018-04-22 13:07:44 GMT 52.466141 -1.384199 15,000 150 372 0
2018-04-22 13:07:41 GMT 52.469101 -1.386566 15,000 150 373 64
2018-04-22 13:07:38 GMT 52.473171 -1.390555 15,000 150 373 0
2018-04-22 13:07:35 GMT 52.478989 -1.395950 15,000 150 373 0
2018-04-22 13:07:32 GMT 52.482147 -1.398697 15,000 150 373 0
2018-04-22 13:07:29 GMT 52.489372 -1.405465 15,000 150 373 0
2018-04-22 13:07:26 GMT 52.493912 -1.409378 15,000 150 373 64
2018-04-22 13:07:22 GMT 52.499908 -1.414795 14,975 150 373 0
2018-04-22 13:07:19 GMT 52.501335 -1.416059 14,975 150 373 0
2018-04-22 13:07:16 GMT 52.506641 -1.421160 14,975 150 373 0
2018-04-22 13:07:13 GMT 52.512817 -1.426849 15,000 150 373 0
2018-04-22 13:07:10 GMT 52.516342 -1.430130 15,000 150 373 0
2018-04-22 13:07:07 GMT 52.521790 -1.434860 15,000 150 373 64
2018-04-22 13:07:04 GMT 52.526047 -1.438980 15,000 150 372 0
2018-04-22 13:07:01 GMT 52.529526 -1.442261 15,000 150 372 0
2018-04-22 13:06:58 GMT 52.533501 -1.445722 15,000 150 372 0
2018-04-22 13:06:55 GMT 52.537876 -1.449881 15,000 150 372 0
2018-04-22 13:06:52 GMT 52.543091 -1.454511 15,000 150 372 0
2018-04-22 13:06:49 GMT 52.547882 -1.459045 15,000 150 372 0
2018-04-22 13:06:46 GMT 52.553238 -1.464005 14,975 150 372 0
2018-04-22 13:06:43 GMT 52.556534 -1.466751 14,975 150 372 0
2018-04-22 13:06:40 GMT 52.560783 -1.470677 15,000 150 372 0
2018-04-22 13:06:37 GMT 52.566414 -1.475935 15,000 150 372 0
2018-04-22 13:06:34 GMT 52.569489 -1.478806 15,000 150 372 0
2018-04-22 13:06:31 GMT 52.573444 -1.482213 15,000 150 372 0
2018-04-22 13:06:28 GMT 52.577774 -1.486293 14,975 150 371 0
2018-04-22 13:06:25 GMT 52.583591 -1.491551 14,975 150 371 0
2018-04-22 13:06:22 GMT 52.586838 -1.494675 15,000 150 371 0
2018-04-22 13:06:19 GMT 52.592392 -1.499791 15,000 150 372 0
2018-04-22 13:06:16 GMT 52.598396 -1.505284 15,000 150 372 0
2018-04-22 13:06:13 GMT 52.602310 -1.508713 15,000 150 372 0
2018-04-22 13:06:10 GMT 52.606247 -1.512299 15,000 150 371 0
2018-04-22 13:06:07 GMT 52.609756 -1.515721 15,000 150 372 0
2018-04-22 13:06:04 GMT 52.615761 -1.521214 15,000 150 372 0
2018-04-22 13:06:01 GMT 52.619019 -1.523961 14,975 150 372 0
2018-04-22 13:05:58 GMT 52.625153 -1.529617 14,975 150 372 0
2018-04-22 13:05:55 GMT 52.628723 -1.532898 14,975 150 372 0
2018-04-22 13:05:52 GMT 52.632847 -1.536909 14,975 150 372 0
2018-04-22 13:05:49 GMT 52.636780 -1.540298 15,000 150 372 0
2018-04-22 13:05:46 GMT 52.641876 -1.544835 15,000 150 372 0
2018-04-22 13:05:42 GMT 52.648819 -1.551590 15,000 151 371 0
2018-04-22 13:05:39 GMT 52.652481 -1.554565 15,000 150 370 0
2018-04-22 13:05:36 GMT 52.658356 -1.559980 15,000 150 370 0
2018-04-22 13:05:31 GMT 52.664612 -1.565857 15,000 150 371 0
2018-04-22 13:05:28 GMT 52.668320 -1.569138 15,000 150 372 0
2018-04-22 13:05:25 GMT 52.672462 -1.573085 15,000 150 372 0
2018-04-22 13:05:22 GMT 52.677658 -1.577911 15,000 150 372 0
2018-04-22 13:05:19 GMT 52.683289 -1.583176 15,000 150 372 0
2018-04-22 13:05:16 GMT 52.686893 -1.586112 15,000 150 373 0
2018-04-22 13:05:13 GMT 52.691345 -1.590195 15,000 150 373 64
2018-04-22 13:05:10 GMT 52.695877 -1.594666 15,000 150 374 64
2018-04-22 13:05:07 GMT 52.700546 -1.598740 14,975 150 375 0
2018-04-22 13:05:04 GMT 52.703888 -1.601944 14,975 150 376 0
2018-04-22 13:05:01 GMT 52.709152 -1.606750 14,975 150 376 0
2018-04-22 13:04:58 GMT 52.713799 -1.611067 14,975 150 375 0
2018-04-22 13:04:55 GMT 52.720184 -1.617126 15,000 150 375 0
2018-04-22 13:04:52 GMT 52.723110 -1.619542 15,000 150 373 0
2018-04-22 13:04:49 GMT 52.727097 -1.623306 15,000 150 373 64
2018-04-22 13:04:46 GMT 52.733139 -1.629105 14,975 150 372 64
2018-04-22 13:04:43 GMT 52.737579 -1.633224 14,975 150 371 0
2018-04-22 13:04:40 GMT 52.742336 -1.637512 14,975 150 371 0
2018-04-22 13:04:37 GMT 52.746384 -1.641122 14,975 150 370 0
2018-04-22 13:04:34 GMT 52.750076 -1.644592 14,975 150 369 0
2018-04-22 13:04:30 GMT 52.756027 -1.650085 14,975 150 368 0
2018-04-22 13:04:27 GMT 52.760632 -1.654306 14,975 150 364 0
2018-04-22 13:04:24 GMT 52.766262 -1.659406 15,000 150 363 0
2018-04-22 13:04:20 GMT 52.770035 -1.663284 15,000 150 362 0
2018-04-22 13:04:17 GMT 52.774319 -1.667097 15,000 150 358 0
2018-04-22 13:04:14 GMT 52.778824 -1.671219 15,000 150 357 0
2018-04-22 13:04:11 GMT 52.784466 -1.676357 15,000 150 355 0
2018-04-22 13:04:08 GMT 52.788116 -1.680069 15,000 150 356 0
2018-04-22 13:04:05 GMT 52.793076 -1.684596 15,000 150 355 0
2018-04-22 13:04:02 GMT 52.796448 -1.687546 15,000 150 355 0
2018-04-22 13:03:58 GMT 52.803226 -1.694170 15,000 150 355 0
2018-04-22 13:03:55 GMT 52.807228 -1.697859 15,000 150 355 0
2018-04-22 13:03:52 GMT 52.810490 -1.700919 15,000 150 355 0
2018-04-22 13:03:49 GMT 52.815948 -1.706009 15,000 150 355 0
2018-04-22 13:03:46 GMT 52.819382 -1.709366 15,000 150 355 0
2018-04-22 13:03:43 GMT 52.824501 -1.714103 15,000 150 355 0
2018-04-22 13:03:40 GMT 52.828903 -1.718140 15,000 150 355 0
2018-04-22 13:03:37 GMT 52.833160 -1.722336 14,975 150 355 0
2018-04-22 13:03:34 GMT 52.837349 -1.725952 15,000 150 355 0
2018-04-22 13:03:31 GMT 52.840794 -1.729562 15,000 150 355 0
2018-04-22 13:03:28 GMT 52.845016 -1.733322 15,000 150 354 0
2018-04-22 13:03:25 GMT 52.849358 -1.737566 15,000 150 354 0
2018-04-22 13:03:22 GMT 52.854904 -1.743011 15,000 150 354 0
2018-04-22 13:03:19 GMT 52.857834 -1.745178 15,000 150 353 0
2018-04-22 13:03:16 GMT 52.863235 -1.750412 15,000 150 353 0
2018-04-22 13:03:13 GMT 52.867516 -1.754517 15,000 150 353 0
2018-04-22 13:03:10 GMT 52.870834 -1.757660 15,000 150 354 0
2018-04-22 13:03:07 GMT 52.874634 -1.761246 15,000 150 353 0
2018-04-22 13:03:04 GMT 52.880127 -1.766357 15,000 150 354 0
2018-04-22 13:03:01 GMT 52.883423 -1.769562 15,000 149 354 0
2018-04-22 13:02:58 GMT 52.888412 -1.774597 15,000 146 357 0
2018-04-22 13:02:55 GMT 52.891068 -1.777115 14,975 146 358 0
2018-04-22 13:02:52 GMT 52.896469 -1.783003 14,975 141 362 0
2018-04-22 13:02:49 GMT 52.900085 -1.787033 14,975 145 359 0
2018-04-22 13:02:46 GMT 52.903965 -1.791242 14,975 142 362 0
2018-04-22 13:02:43 GMT 52.908600 -1.797180 14,975 142 362 0
2018-04-22 13:02:40 GMT 52.913460 -1.803484 14,975 140 363 0
2018-04-22 13:02:37 GMT 52.916069 -1.806780 15,000 140 364 0
2018-04-22 13:02:34 GMT 52.920071 -1.812666 15,000 139 364 0
2018-04-22 13:02:31 GMT 52.923702 -1.817531 15,000 139 362 0
2018-04-22 13:02:28 GMT 52.928467 -1.824265 15,000 139 361 0
2018-04-22 13:02:25 GMT 52.932175 -1.829381 15,000 139 362 0
2018-04-22 13:02:22 GMT 52.935482 -1.834167 15,000 139 361 0
2018-04-22 13:02:19 GMT 52.939957 -1.840363 15,000 139 361 0
2018-04-22 13:02:16 GMT 52.942650 -1.843977 15,000 139 361 0
2018-04-22 13:02:13 GMT 52.947819 -1.851196 15,000 139 361 0
2018-04-22 13:02:10 GMT 52.952053 -1.857239 15,000 139 361 0
2018-04-22 13:02:07 GMT 52.953918 -1.859894 14,975 139 361 0
2018-04-22 13:02:04 GMT 52.958431 -1.866106 14,975 139 361 0
2018-04-22 13:02:01 GMT 52.962250 -1.871414 14,975 139 361 0
2018-04-22 13:01:58 GMT 52.965912 -1.876602 15,000 139 361 0
2018-04-22 13:01:55 GMT 52.969650 -1.881801 14,975 139 361 0
2018-04-22 13:01:52 GMT 52.974197 -1.888199 15,000 139 361 0
2018-04-22 13:01:49 GMT 52.978271 -1.893921 15,000 139 361 0
2018-04-22 13:01:46 GMT 52.982117 -1.899109 15,000 139 360 0
2018-04-22 13:01:42 GMT 52.985756 -1.904245 15,000 139 360 0
2018-04-22 13:01:39 GMT 52.991482 -1.912249 15,000 139 360 0
2018-04-22 13:01:36 GMT 52.995113 -1.917585 15,000 139 360 0
2018-04-22 13:01:33 GMT 52.998459 -1.921921 15,000 139 361 0
2018-04-22 13:01:30 GMT 53.002213 -1.927261 15,000 139 359 0
2018-04-22 13:01:27 GMT 53.004776 -1.930695 15,000 139 359 0
2018-04-22 13:01:24 GMT 53.010757 -1.939087 15,000 139 360 0
2018-04-22 13:01:21 GMT 53.012524 -1.941598 14,975 139 360 0
2018-04-22 13:01:18 GMT 53.016529 -1.947248 14,975 139 361 0
2018-04-22 13:01:15 GMT 53.020626 -1.953134 14,975 139 361 0
2018-04-22 13:01:12 GMT 53.024490 -1.958313 15,000 139 361 0
2018-04-22 13:01:09 GMT 53.029514 -1.965690 15,000 139 361 0
2018-04-22 13:01:06 GMT 53.032196 -1.969223 15,000 139 361 0
2018-04-22 13:01:03 GMT 53.035892 -1.974557 15,000 139 361 0
2018-04-22 13:01:00 GMT 53.039989 -1.980129 15,000 139 360 0
2018-04-22 13:00:57 GMT 53.044598 -1.986564 15,000 139 360 0
2018-04-22 13:00:54 GMT 53.048309 -1.991730 15,000 139 360 0
2018-04-22 13:00:51 GMT 53.051010 -1.995850 15,000 139 361 0
2018-04-22 13:00:48 GMT 53.054840 -2.000924 15,000 139 361 0
2018-04-22 13:00:45 GMT 53.059731 -2.007673 15,000 139 361 0
2018-04-22 13:00:42 GMT 53.063232 -2.012863 15,000 139 361 0
2018-04-22 13:00:39 GMT 53.066990 -2.018110 15,000 139 361 0
2018-04-22 13:00:36 GMT 53.071564 -2.024460 15,000 139 361 0
2018-04-22 13:00:33 GMT 53.074299 -2.028547 15,000 139 361 0
2018-04-22 13:00:30 GMT 53.078613 -2.034454 14,975 139 361 0
2018-04-22 13:00:27 GMT 53.081680 -2.038727 15,000 139 361 0
2018-04-22 13:00:23 GMT 53.086807 -2.045898 15,000 139 361 0
2018-04-22 13:00:20 GMT 53.090469 -2.051468 15,000 139 362 0
2018-04-22 13:00:17 GMT 53.095432 -2.058402 14,975 139 362 0
2018-04-22 13:00:14 GMT 53.099121 -2.063625 14,975 139 361 0
2018-04-22 13:00:11 GMT 53.102276 -2.068095 14,975 139 361 -64
2018-04-22 13:00:08 GMT 53.106979 -2.074639 15,000 139 360 0
2018-04-22 13:00:05 GMT 53.109402 -2.078193 15,000 139 360 0
2018-04-22 13:00:02 GMT 53.113544 -2.083767 15,000 139 359 128
2018-04-22 12:59:59 GMT 53.117500 -2.089583 15,000 139 359 64
2018-04-22 12:59:56 GMT 53.122108 -2.095965 15,000 139 359 -64
2018-04-22 12:59:52 GMT 53.126266 -2.101920 15,000 139 359 0
2018-04-22 12:59:49 GMT 53.129883 -2.107099 15,000 139 359 0
2018-04-22 12:59:46 GMT 53.133499 -2.112279 15,000 159 342 0
2018-04-22 12:59:43 GMT 53.138947 -2.119420 15,000 142 357 0
2018-04-22 12:59:40 GMT 53.141567 -2.122785 15,000 144 354 64
2018-04-22 12:59:37 GMT 53.146820 -2.128758 14,975 159 342 0
2018-04-22 12:59:34 GMT 53.149574 -2.131752 14,975 150 350 64
2018-04-22 12:59:31 GMT 53.153961 -2.136213 14,975 151 349 0
2018-04-22 12:59:27 GMT 53.159584 -2.140961 14,975 159 341 0
2018-04-22 12:59:23 GMT 53.165775 -2.145242 14,975 159 342 0
2018-04-22 12:59:20 GMT 53.171036 -2.148473 14,975 159 342 0
2018-04-22 12:59:17 GMT 53.173409 -2.150251 15,000 159 341 0
2018-04-22 12:59:14 GMT 53.178623 -2.153482 15,000 159 341 0
2018-04-22 12:59:11 GMT 53.183990 -2.156381 15,000 159 341 0
2018-04-22 12:59:07 GMT 53.189621 -2.159834 15,000 159 341 0
2018-04-22 12:59:04 GMT 53.194496 -2.162853 15,000 159 341 0
2018-04-22 12:59:01 GMT 53.197723 -2.164934 15,000 159 341 0
2018-04-22 12:58:58 GMT 53.203110 -2.168184 14,975 159 342 0
2018-04-22 12:58:54 GMT 53.208572 -2.171448 14,975 159 342 0
2018-04-22 12:58:51 GMT 53.213722 -2.174727 14,975 159 341 0
2018-04-22 12:58:48 GMT 53.218426 -2.177716 15,000 160 342 0
2018-04-22 12:58:45 GMT 53.222893 -2.180221 15,000 160 342 0
2018-04-22 12:58:41 GMT 53.228153 -2.183452 15,000 160 342 0
2018-04-22 12:58:38 GMT 53.232010 -2.185730 15,000 159 341 0
2018-04-22 12:58:35 GMT 53.238052 -2.189340 15,000 159 341 0
2018-04-22 12:58:31 GMT 53.243271 -2.192714 15,000 159 341 0
2018-04-22 12:58:28 GMT 53.247101 -2.195004 15,000 159 342 0
2018-04-22 12:58:25 GMT 53.252083 -2.197912 15,000 159 342 0
2018-04-22 12:58:22 GMT 53.257187 -2.201268 15,000 159 342 0
2018-04-22 12:58:19 GMT 53.260181 -2.203001 14,975 159 342 0
2018-04-22 12:58:16 GMT 53.267490 -2.207363 15,000 159 342 0
2018-04-22 12:58:13 GMT 53.270554 -2.209272 14,975 160 342 0
2018-04-22 12:58:10 GMT 53.273544 -2.211322 14,975 160 342 0
2018-04-22 12:58:07 GMT 53.278198 -2.213824 14,975 160 343 0
2018-04-22 12:58:04 GMT 53.282806 -2.216653 14,975 159 341 0
2018-04-22 12:58:01 GMT 53.288086 -2.220023 14,975 160 343 0
2018-04-22 12:57:58 GMT 53.291931 -2.222299 14,975 160 343 0
2018-04-22 12:57:55 GMT 53.298019 -2.225752 14,975 160 342 0
2018-04-22 12:57:51 GMT 53.303925 -2.229361 14,975 160 342 0
2018-04-22 12:57:48 GMT 53.307541 -2.231637 15,000 159 341 0
2018-04-22 12:57:45 GMT 53.311481 -2.234183 15,000 159 341 0
2018-04-22 12:57:42 GMT 53.316185 -2.236849 15,000 159 341 0
2018-04-22 12:57:39 GMT 53.319908 -2.239030 15,000 159 341 0
2018-04-22 12:57:36 GMT 53.325531 -2.242467 15,000 159 341 0
2018-04-22 12:57:33 GMT 53.328964 -2.244742 15,000 159 341 0
2018-04-22 12:57:30 GMT 53.334595 -2.247881 15,000 159 341 0
2018-04-22 12:57:27 GMT 53.337738 -2.250259 15,000 159 341 0
2018-04-22 12:57:24 GMT 53.341370 -2.252359 15,000 159 341 64
2018-04-22 12:57:21 GMT 53.347237 -2.255994 15,000 160 341 0
2018-04-22 12:57:18 GMT 53.351852 -2.258868 15,000 160 341 0
2018-04-22 12:57:14 GMT 53.356750 -2.261928 14,975 161 340 0
2018-04-22 12:57:11 GMT 53.362289 -2.264753 14,975 162 341 0
2018-04-22 12:57:08 GMT 53.366959 -2.267029 15,000 163 341 0
2018-04-22 12:57:05 GMT 53.369953 -2.268596 15,000 163 341 0
2018-04-22 12:57:02 GMT 53.374653 -2.270939 15,000 163 341 0
2018-04-22 12:56:59 GMT 53.381081 -2.274089 15,000 163 341 0
2018-04-22 12:56:56 GMT 53.383392 -2.275426 15,000 163 340 0
2018-04-22 12:56:53 GMT 53.389645 -2.278532 15,000 163 339 0
2018-04-22 12:56:50 GMT 53.392731 -2.280055 15,000 163 340 0
2018-04-22 12:56:47 GMT 53.397606 -2.282814 15,000 163 340 0
2018-04-22 12:56:44 GMT 53.402634 -2.285075 15,000 163 340 0
2018-04-22 12:56:41 GMT 53.408066 -2.287824 15,000 163 339 0
2018-04-22 12:56:38 GMT 53.411636 -2.289865 15,000 163 340 0
2018-04-22 12:56:35 GMT 53.415207 -2.291670 15,000 163 340 0
2018-04-22 12:56:32 GMT 53.420334 -2.294024 15,000 163 340 0
2018-04-22 12:56:29 GMT 53.424839 -2.296546 15,000 163 340 0
2018-04-22 12:56:26 GMT 53.429626 -2.298968 15,000 163 340 0
2018-04-22 12:56:23 GMT 53.433655 -2.300694 15,000 163 340 0
2018-04-22 12:56:20 GMT 53.437866 -2.303127 15,000 163 340 0
2018-04-22 12:56:17 GMT 53.443924 -2.306240 15,000 163 340 0
2018-04-22 12:56:14 GMT 53.448112 -2.308341 15,000 163 341 0
2018-04-22 12:56:11 GMT 53.453201 -2.310660 15,000 163 341 0
2018-04-22 12:56:08 GMT 53.456959 -2.312784 14,975 163 341 0
2018-04-22 12:56:05 GMT 53.461578 -2.315055 14,975 163 341 0
2018-04-22 12:56:02 GMT 53.465710 -2.317227 15,000 163 341 0
2018-04-22 12:55:59 GMT 53.470734 -2.319920 15,000 163 341 0
2018-04-22 12:55:56 GMT 53.474648 -2.321750 15,000 163 341 0
2018-04-22 12:55:53 GMT 53.479752 -2.324393 15,000 163 340 0
2018-04-22 12:55:50 GMT 53.484425 -2.326678 14,975 163 340 0
2018-04-22 12:55:47 GMT 53.487717 -2.328395 14,975 163 340 0
2018-04-22 12:55:44 GMT 53.492851 -2.331040 14,975 163 340 0
2018-04-22 12:55:41 GMT 53.496643 -2.333025 14,975 163 338 0
2018-04-22 12:55:38 GMT 53.501602 -2.335241 15,000 163 340 0
2018-04-22 12:55:35 GMT 53.506897 -2.338126 14,975 163 340 0
2018-04-22 12:55:32 GMT 53.511471 -2.340492 14,975 163 340 0
2018-04-22 12:55:29 GMT 53.515896 -2.342673 15,000 163 339 0
2018-04-22 12:55:26 GMT 53.520454 -2.345016 15,000 163 339 0
2018-04-22 12:55:23 GMT 53.525112 -2.347439 15,000 163 338 0
2018-04-22 12:55:20 GMT 53.527954 -2.348877 15,000 163 338 0
2018-04-22 12:55:17 GMT 53.534283 -2.352124 15,000 163 338 0
2018-04-22 12:55:14 GMT 53.537476 -2.353585 15,000 163 338 0
2018-04-22 12:55:11 GMT 53.542419 -2.356253 15,000 163 338 0
2018-04-22 12:55:08 GMT 53.548004 -2.359157 15,000 163 338 0
2018-04-22 12:55:05 GMT 53.550716 -2.360526 15,000 163 339 0
2018-04-22 12:55:02 GMT 53.556015 -2.363316 15,000 163 339 0
2018-04-22 12:54:58 GMT 53.561417 -2.366141 15,000 163 339 0
2018-04-22 12:54:55 GMT 53.566040 -2.368103 15,000 163 340 0
2018-04-22 12:54:52 GMT 53.570251 -2.370614 14,975 163 340 0
2018-04-22 12:54:49 GMT 53.576111 -2.373596 14,975 163 340 0
2018-04-22 12:54:46 GMT 53.581440 -2.376278 15,000 163 340 0
2018-04-22 12:54:43 GMT 53.583847 -2.377520 15,000 163 340 0
2018-04-22 12:54:40 GMT 53.588837 -2.380031 15,000 163 340 0
2018-04-22 12:54:36 GMT 53.594379 -2.382821 15,000 163 340 0
2018-04-22 12:54:33 GMT 53.599220 -2.385245 15,000 163 340 0
2018-04-22 12:54:30 GMT 53.604401 -2.387878 15,000 163 340 0
2018-04-22 12:54:27 GMT 53.607880 -2.389930 15,000 163 339 0
2018-04-22 12:54:24 GMT 53.612274 -2.392116 15,000 163 339 0
2018-04-22 12:54:21 GMT 53.617538 -2.394627 15,000 163 338 0
2018-04-22 12:54:18 GMT 53.621986 -2.396878 15,000 163 338 0
2018-04-22 12:54:15 GMT 53.626831 -2.399414 15,000 163 338 0
2018-04-22 12:54:12 GMT 53.631763 -2.401967 15,000 163 338 0
2018-04-22 12:54:08 GMT 53.637722 -2.405036 15,000 163 338 0
2018-04-22 12:54:05 GMT 53.640656 -2.406491 15,000 163 338 0
2018-04-22 12:54:02 GMT 53.646469 -2.409537 15,000 163 338 0
2018-04-22 12:53:59 GMT 53.651501 -2.412064 15,000 163 338 0
2018-04-22 12:53:56 GMT 53.654339 -2.413599 15,000 162 340 0
2018-04-22 12:53:53 GMT 53.659286 -2.416051 14,975 163 339 0
2018-04-22 12:53:49 GMT 53.665054 -2.419033 14,975 163 339 0
2018-04-22 12:53:46 GMT 53.671936 -2.422566 14,975 163 339 0
2018-04-22 12:53:43 GMT 53.673615 -2.423662 15,000 163 338 0
2018-04-22 12:53:40 GMT 53.678192 -2.425860 15,000 163 339 0
2018-04-22 12:53:37 GMT 53.682953 -2.428292 15,000 163 339 0
2018-04-22 12:53:34 GMT 53.686844 -2.430254 15,000 163 339 0
2018-04-22 12:53:31 GMT 53.692154 -2.433001 15,000 163 338 0
2018-04-22 12:53:28 GMT 53.695724 -2.434926 15,000 163 338 0
2018-04-22 12:53:25 GMT 53.701950 -2.438180 15,000 163 338 0
2018-04-22 12:53:22 GMT 53.705643 -2.440015 15,000 163 338 0
2018-04-22 12:53:19 GMT 53.709915 -2.441947 14,975 163 338 0
2018-04-22 12:53:16 GMT 53.714252 -2.444296 15,000 163 338 0
2018-04-22 12:53:13 GMT 53.719711 -2.447126 15,000 163 338 0
2018-04-22 12:53:10 GMT 53.722725 -2.448739 15,000 163 338 0
2018-04-22 12:53:07 GMT 53.728867 -2.451913 15,000 162 337 0
2018-04-22 12:53:04 GMT 53.732437 -2.453796 15,000 162 337 0
2018-04-22 12:53:01 GMT 53.737198 -2.456229 15,000 162 337 0
2018-04-22 12:52:58 GMT 53.741020 -2.458191 15,000 162 337 0
2018-04-22 12:52:55 GMT 53.745583 -2.460453 15,000 162 337 0
2018-04-22 12:52:52 GMT 53.750290 -2.462899 15,000 162 337 0
2018-04-22 12:52:49 GMT 53.754940 -2.465219 15,000 162 337 0
2018-04-22 12:52:46 GMT 53.760479 -2.468208 15,000 162 337 0
2018-04-22 12:52:43 GMT 53.762760 -2.469420 14,975 162 340 0
2018-04-22 12:52:40 GMT 53.768253 -2.472247 14,975 163 338 0
2018-04-22 12:52:37 GMT 53.773361 -2.474906 14,975 163 338 0
2018-04-22 12:52:34 GMT 53.776932 -2.476868 14,975 163 338 0
2018-04-22 12:52:31 GMT 53.782837 -2.479928 14,975 163 339 0
2018-04-22 12:52:28 GMT 53.787003 -2.481890 14,975 163 339 0
2018-04-22 12:52:25 GMT 53.790737 -2.483718 15,000 163 338 0
2018-04-22 12:52:22 GMT 53.795517 -2.486363 15,000 162 340 0
2018-04-22 12:52:19 GMT 53.801193 -2.489423 15,000 162 340 0
2018-04-22 12:52:16 GMT 53.805122 -2.491311 15,000 162 340 0
2018-04-22 12:52:13 GMT 53.808884 -2.493269 15,000 162 339 0
2018-04-22 12:52:10 GMT 53.813549 -2.495593 15,000 162 339 0
2018-04-22 12:52:07 GMT 53.817551 -2.497936 15,000 162 339 0
2018-04-22 12:52:04 GMT 53.822346 -2.500278 15,000 163 338 0
2018-04-22 12:52:01 GMT 53.826538 -2.502540 15,000 163 338 0
2018-04-22 12:51:58 GMT 53.832821 -2.505771 15,000 163 338 0
2018-04-22 12:51:55 GMT 53.836548 -2.507549 15,000 163 338 0
2018-04-22 12:51:52 GMT 53.840130 -2.509487 15,000 163 338 0
2018-04-22 12:51:48 GMT 53.847336 -2.513201 15,000 163 338 0
2018-04-22 12:51:45 GMT 53.852051 -2.515634 15,000 163 338 0
2018-04-22 12:51:42 GMT 53.855770 -2.517485 15,000 163 338 0
2018-04-22 12:51:39 GMT 53.859123 -2.519343 15,000 163 338 0
2018-04-22 12:51:36 GMT 53.865280 -2.522461 15,000 163 338 0
2018-04-22 12:51:32 GMT 53.869675 -2.524972 15,000 163 338 0
2018-04-22 12:51:29 GMT 53.876209 -2.528229 14,975 163 338 0
2018-04-22 12:51:26 GMT 53.880398 -2.530410 15,000 163 338 0
2018-04-22 12:51:23 GMT 53.885010 -2.532741 14,975 163 338 0
2018-04-22 12:51:20 GMT 53.887798 -2.534126 14,975 163 338 0
2018-04-22 12:51:17 GMT 53.894039 -2.537276 15,000 163 338 0
2018-04-22 12:51:14 GMT 53.897781 -2.539333 15,000 162 337 0
2018-04-22 12:51:11 GMT 53.903858 -2.542527 15,000 162 337 0
2018-04-22 12:51:08 GMT 53.905769 -2.543497 15,000 162 336 0
2018-04-22 12:51:05 GMT 53.910095 -2.545925 15,000 162 336 0
2018-04-22 12:51:01 GMT 53.916183 -2.548985 15,000 162 336 0
2018-04-22 12:50:58 GMT 53.920990 -2.551339 15,000 163 335 0
2018-04-22 12:50:55 GMT 53.925598 -2.553837 15,000 162 335 0
2018-04-22 12:50:51 GMT 53.933002 -2.557553 15,000 163 335 0
2018-04-22 12:50:48 GMT 53.936169 -2.559330 15,000 163 335 0
2018-04-22 12:50:45 GMT 53.941242 -2.561834 14,975 163 336 0
2018-04-22 12:50:42 GMT 53.944778 -2.563773 15,000 163 336 0
2018-04-22 12:50:39 GMT 53.950180 -2.566519 15,000 163 335 0
2018-04-22 12:50:34 GMT 53.956139 -2.569589 14,975 163 335 0
2018-04-22 12:50:31 GMT 53.961823 -2.572606 14,975 162 335 0
2018-04-22 12:50:27 GMT 53.966751 -2.575082 15,000 162 335 0
2018-04-22 12:50:23 GMT 53.972031 -2.577863 15,000 162 335 0
2018-04-22 12:50:20 GMT 53.978764 -2.581464 15,000 162 335 0
2018-04-22 12:50:17 GMT 53.982330 -2.583357 15,000 162 335 0
2018-04-22 12:50:14 GMT 53.986912 -2.585826 15,000 162 335 0
2018-04-22 12:50:11 GMT 53.990494 -2.587523 15,000 162 335 0
2018-04-22 12:50:08 GMT 53.994141 -2.589713 15,000 162 335 0
2018-04-22 12:50:04 GMT 54.000221 -2.592854 15,000 162 335 0
2018-04-22 12:50:01 GMT 54.004532 -2.595206 15,000 163 334 0
2018-04-22 12:49:58 GMT 54.009396 -2.597863 15,000 162 336 0
2018-04-22 12:49:54 GMT 54.015911 -2.601336 15,000 162 336 0
2018-04-22 12:49:51 GMT 54.019684 -2.603275 15,000 163 334 0
2018-04-22 12:49:48 GMT 54.023499 -2.605375 15,000 162 336 0
2018-04-22 12:49:45 GMT 54.029270 -2.608445 15,000 162 336 0
2018-04-22 12:49:42 GMT 54.033695 -2.610788 15,000 162 336 0
2018-04-22 12:49:39 GMT 54.037605 -2.612727 15,000 162 336 0
2018-04-22 12:49:36 GMT 54.043945 -2.616237 15,000 162 336 0
2018-04-22 12:49:33 GMT 54.046738 -2.617807 15,000 162 336 0
2018-04-22 12:49:30 GMT 54.050858 -2.620004 15,000 162 335 0
2018-04-22 12:49:27 GMT 54.058228 -2.623771 15,000 162 334 0
2018-04-22 12:49:23 GMT 54.061752 -2.625497 15,000 163 335 0
2018-04-22 12:49:20 GMT 54.066326 -2.627833 15,000 163 335 0
2018-04-22 12:49:17 GMT 54.069946 -2.629970 14,975 163 334 0
2018-04-22 12:49:12 GMT 54.078323 -2.633972 15,000 163 334 0
2018-04-22 12:49:09 GMT 54.082626 -2.636405 15,000 163 334 0
2018-04-22 12:49:06 GMT 54.086746 -2.638367 15,000 166 332 0
2018-04-22 12:49:03 GMT 54.090408 -2.640093 15,000 164 334 0
2018-04-22 12:49:00 GMT 54.096447 -2.642939 15,000 164 333 0
2018-04-22 12:48:57 GMT 54.103271 -2.646057 15,000 165 333 0
2018-04-22 12:48:54 GMT 54.105713 -2.647059 15,000 165 333 0
2018-04-22 12:48:51 GMT 54.109482 -2.648755 14,975 166 333 0
2018-04-22 12:48:48 GMT 54.113579 -2.650290 14,975 166 332 0
2018-04-22 12:48:43 GMT 54.121674 -2.653512 15,000 167 333 0
2018-04-22 12:48:40 GMT 54.125793 -2.655239 14,975 166 333 0
2018-04-22 12:48:37 GMT 54.130665 -2.656914 14,975 166 334 0
2018-04-22 12:48:34 GMT 54.135460 -2.659095 15,000 163 335 -128
2018-04-22 12:48:31 GMT 54.138672 -2.660307 15,000 163 335 -128
2018-04-22 12:48:28 GMT 54.142273 -2.662144 15,000 161 336 0
2018-04-22 12:48:25 GMT 54.146957 -2.664831 15,000 160 336 64
2018-04-22 12:48:22 GMT 54.152390 -2.668187 14,975 152 343 192
2018-04-22 12:48:19 GMT 54.156593 -2.671374 14,975 146 349 -128
2018-04-22 12:48:16 GMT 54.159714 -2.674308 14,975 144 350 -128
2018-04-22 12:48:13 GMT 54.164429 -2.679330 14,975 143 351 -128
2018-04-22 12:48:10 GMT 54.169487 -2.685915 15,000 138 355 0
2018-04-22 12:48:07 GMT 54.172989 -2.691258 15,000 137 357 0
2018-04-22 12:48:03 GMT 54.179401 -2.701425 15,000 136 357 0
2018-04-22 12:48:00 GMT 54.182056 -2.705706 15,000 136 357 0
2018-04-22 12:47:57 GMT 54.184479 -2.709503 15,000 136 357 0
2018-04-22 12:47:54 GMT 54.189507 -2.717662 15,000 136 357 0
2018-04-22 12:47:51 GMT 54.192902 -2.723075 15,000 136 357 0
2018-04-22 12:47:48 GMT 54.195465 -2.727114 15,000 136 357 0
2018-04-22 12:47:45 GMT 54.199326 -2.733495 14,975 136 357 0
2018-04-22 12:47:42 GMT 54.202724 -2.738746 14,975 136 357 0
2018-04-22 12:47:38 GMT 54.207367 -2.746111 14,975 136 357 0
2018-04-22 12:47:35 GMT 54.210361 -2.751187 15,000 136 356 0
2018-04-22 12:47:32 GMT 54.214096 -2.757098 14,975 136 355 0
2018-04-22 12:47:29 GMT 54.218628 -2.764239 15,000 136 355 0
2018-04-22 12:47:25 GMT 54.225163 -2.774936 15,000 136 354 0
2018-04-22 12:47:22 GMT 54.226273 -2.776637 15,000 136 354 0
2018-04-22 12:47:18 GMT 54.232426 -2.786488 15,000 136 354 0
2018-04-22 12:47:15 GMT 54.234753 -2.790285 15,000 136 354 0
2018-04-22 12:47:12 GMT 54.238571 -2.796344 15,000 136 354 0
2018-04-22 12:47:09 GMT 54.241409 -2.801029 15,000 136 353 0
2018-04-22 12:47:06 GMT 54.246670 -2.809511 15,000 136 353 0
2018-04-22 12:47:02 GMT 54.252026 -2.817832 15,000 136 353 0
2018-04-22 12:46:59 GMT 54.253654 -2.820497 15,000 136 353 0
2018-04-22 12:46:56 GMT 54.258911 -2.828979 15,000 136 355 0
2018-04-22 12:46:52 GMT 54.262482 -2.834787 14,975 136 354 0
2018-04-22 12:46:48 GMT 54.268364 -2.844166 14,975 136 355 0
2018-04-22 12:46:45 GMT 54.271317 -2.849069 14,975 136 355 0
2018-04-22 12:46:42 GMT 54.274475 -2.853934 14,975 136 355 0
2018-04-22 12:46:39 GMT 54.277222 -2.858721 14,975 136 355 0
2018-04-22 12:46:36 GMT 54.281845 -2.865897 15,000 136 355 0
2018-04-22 12:46:32 GMT 54.285233 -2.871148 15,000 136 355 0
2018-04-22 12:46:29 GMT 54.290569 -2.879916 15,000 136 354 0
2018-04-22 12:46:26 GMT 54.293690 -2.884743 15,000 136 353 0
2018-04-22 12:46:22 GMT 54.297272 -2.890653 15,000 136 353 0
2018-04-22 12:46:19 GMT 54.300766 -2.896396 15,000 136 353 0
2018-04-22 12:46:16 GMT 54.305237 -2.903380 15,000 136 353 0
2018-04-22 12:46:13 GMT 54.308212 -2.908131 15,000 136 353 0
2018-04-22 12:46:09 GMT 54.314026 -2.917355 15,000 136 353 0
2018-04-22 12:46:05 GMT 54.318741 -2.925191 15,000 136 352 0
2018-04-22 12:46:02 GMT 54.322586 -2.931249 15,000 136 352 0
2018-04-22 12:45:59 GMT 54.326385 -2.937066 15,000 136 353 0
2018-04-22 12:45:56 GMT 54.328766 -2.941105 15,000 136 353 0
2018-04-22 12:45:53 GMT 54.332233 -2.946666 15,000 136 353 0
2018-04-22 12:45:50 GMT 54.336365 -2.953060 14,975 136 353 64
2018-04-22 12:45:47 GMT 54.340897 -2.960573 14,975 136 353 0
2018-04-22 12:45:44 GMT 54.343174 -2.964145 14,975 136 353 0
2018-04-22 12:45:41 GMT 54.346478 -2.969555 14,975 136 353 0
2018-04-22 12:45:38 GMT 54.351181 -2.977212 14,975 136 353 64
2018-04-22 12:45:35 GMT 54.353165 -2.980122 14,975 136 353 64
2018-04-22 12:45:32 GMT 54.356873 -2.986100 14,975 136 353 0
2018-04-22 12:45:29 GMT 54.360443 -2.991916 14,975 136 350 0
2018-04-22 12:45:25 GMT 54.366543 -3.001681 14,975 136 353 0
2018-04-22 12:45:22 GMT 54.369801 -3.007008 14,975 136 353 0
2018-04-22 12:45:19 GMT 54.372360 -3.010920 15,000 136 352 0
2018-04-22 12:45:15 GMT 54.377949 -3.019992 15,000 136 351 0
2018-04-22 12:45:12 GMT 54.381115 -3.025318 15,000 136 350 0
2018-04-22 12:45:08 GMT 54.387165 -3.034890 15,000 136 350 0
2018-04-22 12:45:03 GMT 54.392937 -3.043962 15,000 136 350 0
2018-04-22 12:45:00 GMT 54.395870 -3.048873 15,000 136 350 0
2018-04-22 12:44:57 GMT 54.400387 -3.056197 15,000 135 352 128
2018-04-22 12:44:54 GMT 54.402603 -3.059612 15,000 136 350 0
2018-04-22 12:44:51 GMT 54.406113 -3.065685 15,000 135 352 192
2018-04-22 12:44:48 GMT 54.408829 -3.069629 14,975 135 354 128
2018-04-22 12:44:45 GMT 54.412903 -3.076737 14,975 135 355 0
2018-04-22 12:44:42 GMT 54.417423 -3.084328 15,000 134 357 -192
2018-04-22 12:44:39 GMT 54.420357 -3.089572 15,025 133 358 -256
2018-04-22 12:44:34 GMT 54.425674 -3.098710 15,025 133 357 -64
2018-04-22 12:44:31 GMT 54.429249 -3.104969 15,025 133 357 64
2018-04-22 12:44:28 GMT 54.433159 -3.112044 15,000 134 356 320
2018-04-22 12:44:25 GMT 54.437534 -3.119618 15,000 137 353 384
2018-04-22 12:44:22 GMT 54.439861 -3.123363 14,975 141 350 0
2018-04-22 12:44:19 GMT 54.444611 -3.130105 14,975 145 347 -128
2018-04-22 12:44:13 GMT 54.450989 -3.137485 15,000 153 340 -128
2018-04-22 12:44:10 GMT 54.455429 -3.140878 15,000 155 338 -64
2018-04-22 12:44:07 GMT 54.459324 -3.144004 15,000 155 338 -64
2018-04-22 12:44:02 GMT 54.468109 -3.150491 15,000 156 336 0
2018-04-22 12:43:58 GMT 54.474125 -3.154907 15,000 156 336 0
2018-04-22 12:43:53 GMT 54.480560 -3.159862 15,000 156 336 0
2018-04-22 12:43:50 GMT 54.484924 -3.163397 15,000 156 336 64
2018-04-22 12:43:46 GMT 54.489532 -3.166728 15,000 156 337 0
2018-04-22 12:43:42 GMT 54.496704 -3.171969 14,975 156 337 0
2018-04-22 12:43:39 GMT 54.499264 -3.173967 14,975 156 337 0
2018-04-22 12:43:36 GMT 54.503082 -3.176826 14,975 156 337 64
2018-04-22 12:43:33 GMT 54.508392 -3.180380 14,975 156 336 0
2018-04-22 12:43:30 GMT 54.511833 -3.183455 14,975 156 337 0
2018-04-22 12:43:27 GMT 54.516720 -3.186867 15,000 156 337 0
2018-04-22 12:43:19 GMT 54.528122 -3.195325 15,000 156 338 0
2018-04-22 12:43:16 GMT 54.531921 -3.198476 15,000 156 337 0
2018-04-22 12:43:11 GMT 54.539703 -3.204050 15,000 156 337 0
2018-04-22 12:43:08 GMT 54.544235 -3.207685 14,975 156 340 0
2018-04-22 12:43:04 GMT 54.550232 -3.212128 15,000 156 337 0
2018-04-22 12:43:00 GMT 54.554489 -3.215117 15,000 156 337 0
2018-04-22 12:42:57 GMT 54.559891 -3.219075 15,000 156 338 0
2018-04-22 12:42:54 GMT 54.563507 -3.221990 15,000 156 338 0
2018-04-22 12:42:51 GMT 54.567787 -3.225320 15,000 156 337 0
2018-04-22 12:42:48 GMT 54.573395 -3.229496 15,000 156 337 0
2018-04-22 12:42:44 GMT 54.577564 -3.232394 15,000 156 338 0
2018-04-22 12:42:40 GMT 54.583969 -3.237412 15,000 156 338 0
2018-04-22 12:42:37 GMT 54.588821 -3.240886 14,975 156 338 0
2018-04-22 12:42:34 GMT 54.592575 -3.243633 14,975 156 339 0
2018-04-22 12:42:29 GMT 54.598846 -3.248641 14,975 156 339 0
2018-04-22 12:42:25 GMT 54.605118 -3.253326 14,975 156 340 0
2018-04-22 12:42:19 GMT 54.613815 -3.259870 14,975 156 340 0
2018-04-22 12:42:15 GMT 54.620087 -3.264474 15,000 156 340 0
2018-04-22 12:42:11 GMT 54.626495 -3.269402 15,000 156 340 0
2018-04-22 12:42:08 GMT 54.630249 -3.272310 15,000 156 340 0
2018-04-22 12:42:05 GMT 54.634266 -3.275008 15,000 156 340 0
2018-04-22 12:42:02 GMT 54.638855 -3.278611 15,000 156 339 0
2018-04-22 12:41:59 GMT 54.642410 -3.281416 15,000 156 339 0
2018-04-22 12:41:56 GMT 54.647301 -3.285245 15,000 156 340 0
2018-04-22 12:41:53 GMT 54.652496 -3.288870 15,000 156 340 0
2018-04-22 12:41:47 GMT 54.660187 -3.294767 15,000 156 340 0
2018-04-22 12:41:43 GMT 54.666294 -3.299727 15,000 156 340 0
2018-04-22 12:41:40 GMT 54.669830 -3.302224 15,000 156 340 0
2018-04-22 12:41:37 GMT 54.673691 -3.305108 15,000 156 341 0
2018-04-22 12:41:34 GMT 54.678589 -3.308743 14,975 156 341 64
2018-04-22 12:41:31 GMT 54.684589 -3.313127 14,975 157 342 0
2018-04-22 12:41:27 GMT 54.688980 -3.316579 14,975 157 342 0
2018-04-22 12:41:23 GMT 54.695667 -3.321284 14,975 156 343 0
2018-04-22 12:41:20 GMT 54.699280 -3.324172 14,975 155 345 -64
2018-04-22 12:41:17 GMT 54.703445 -3.327161 15,000 153 346 -64
2018-04-22 12:41:14 GMT 54.708252 -3.331200 15,000 151 346 0
2018-04-22 12:41:11 GMT 54.712334 -3.335183 15,000 149 348 128
2018-04-22 12:41:07 GMT 54.717873 -3.340926 14,975 143 352 128
2018-04-22 12:41:04 GMT 54.722389 -3.347168 15,000 133 361 -128
2018-04-22 12:41:01 GMT 54.725327 -3.351396 14,975 135 359 -64
2018-04-22 12:40:57 GMT 54.729767 -3.358989 14,975 131 362 -64
2018-04-22 12:40:53 GMT 54.734074 -3.367393 15,000 130 363 0
2018-04-22 12:40:50 GMT 54.737549 -3.374338 15,000 128 364 0
2018-04-22 12:40:47 GMT 54.741150 -3.382374 15,000 128 364 0
2018-04-22 12:40:43 GMT 54.745712 -3.392195 15,000 128 363 0
2018-04-22 12:40:38 GMT 54.750961 -3.403177 15,000 128 363 0
2018-04-22 12:40:35 GMT 54.753616 -3.409235 15,000 128 364 0
2018-04-22 12:40:32 GMT 54.756866 -3.415859 15,000 128 364 0
2018-04-22 12:40:29 GMT 54.759613 -3.421837 14,975 128 364 0
2018-04-22 12:40:24 GMT 54.765244 -3.433874 15,000 128 365 0
2018-04-22 12:40:21 GMT 54.769455 -3.442921 15,000 128 365 64
2018-04-22 12:40:16 GMT 54.773712 -3.452050 15,000 128 365 0
2018-04-22 12:40:12 GMT 54.778343 -3.462441 14,975 128 365 0
2018-04-22 12:40:09 GMT 54.781509 -3.468767 15,000 128 364 0
2018-04-22 12:40:06 GMT 54.783836 -3.474343 15,000 128 364 0
2018-04-22 12:40:03 GMT 54.787628 -3.482424 15,000 128 364 64
2018-04-22 12:39:59 GMT 54.792404 -3.492987 15,000 128 364 0
2018-04-22 12:39:55 GMT 54.795639 -3.499711 14,975 128 364 -64
2018-04-22 12:39:52 GMT 54.798363 -3.505305 15,000 128 364 0
2018-04-22 12:39:49 GMT 54.802273 -3.514044 15,000 128 364 64
2018-04-22 12:39:46 GMT 54.805717 -3.521285 15,000 128 364 64
2018-04-22 12:39:43 GMT 54.809052 -3.528712 15,000 128 364 64
2018-04-22 12:39:40 GMT 54.812302 -3.535578 15,000 128 365 64
2018-04-22 12:39:37 GMT 54.814453 -3.540263 14,975 128 366 0
2018-04-22 12:39:34 GMT 54.817566 -3.547130 14,975 128 366 0
2018-04-22 12:39:31 GMT 54.821686 -3.556258 14,975 128 366 0
2018-04-22 12:39:28 GMT 54.824295 -3.561751 15,000 128 366 0
2018-04-22 12:39:24 GMT 54.828388 -3.570557 15,000 128 364 64
2018-04-22 12:39:21 GMT 54.831600 -3.577548 15,000 128 364 0
2018-04-22 12:39:18 GMT 54.835876 -3.586713 15,000 128 364 64
2018-04-22 12:39:15 GMT 54.838165 -3.591697 14,975 128 364 0
2018-04-22 12:39:12 GMT 54.841278 -3.598265 14,975 128 365 0
2018-04-22 12:39:09 GMT 54.844822 -3.606179 14,975 128 366 -64
2018-04-22 12:39:04 GMT 54.850113 -3.617329 15,000 128 365 0
2018-04-22 12:39:00 GMT 54.854408 -3.626653 15,000 128 364 0
2018-04-22 12:38:57 GMT 54.857624 -3.633478 15,000 128 364 0
2018-04-22 12:38:54 GMT 54.861115 -3.641135 15,000 128 364 0
2018-04-22 12:38:49 GMT 54.865768 -3.651500 15,000 128 363 0
2018-04-22 12:38:46 GMT 54.868469 -3.657074 15,000 128 363 0
2018-04-22 12:38:42 GMT 54.873596 -3.668141 15,000 128 362 64
2018-04-22 12:38:38 GMT 54.877579 -3.677108 15,000 128 362 64
2018-04-22 12:38:35 GMT 54.879456 -3.681066 14,975 128 363 0
2018-04-22 12:38:32 GMT 54.882668 -3.688077 14,975 128 363 0
2018-04-22 12:38:29 GMT 54.885647 -3.694486 14,975 128 363 0
2018-04-22 12:38:26 GMT 54.889755 -3.703362 15,000 128 363 0
2018-04-22 12:38:22 GMT 54.893646 -3.712086 15,000 128 364 0
2018-04-22 12:38:19 GMT 54.896805 -3.718791 15,000 128 364 0
2018-04-22 12:38:16 GMT 54.900684 -3.727362 15,000 128 364 0
2018-04-22 12:38:12 GMT 54.904312 -3.735518 15,000 128 363 0
2018-04-22 12:38:09 GMT 54.907200 -3.741511 15,000 128 363 0
2018-04-22 12:38:05 GMT 54.911018 -3.749834 15,000 128 364 64
2018-04-22 12:38:01 GMT 54.915161 -3.758822 14,975 128 364 0
2018-04-22 12:37:57 GMT 54.919212 -3.767561 14,975 128 365 0
2018-04-22 12:37:54 GMT 54.922806 -3.775581 14,975 128 365 0
2018-04-22 12:37:50 GMT 54.927589 -3.785872 15,000 128 365 0
2018-04-22 12:37:46 GMT 54.932281 -3.796099 15,000 128 365 0
2018-04-22 12:37:43 GMT 54.934982 -3.802239 15,000 128 365 0
2018-04-22 12:37:38 GMT 54.939285 -3.811933 15,000 128 365 0
2018-04-22 12:37:35 GMT 54.943405 -3.820576 15,000 128 365 0
2018-04-22 12:37:32 GMT 54.946304 -3.826738 15,000 128 365 0
2018-04-22 12:37:28 GMT 54.950821 -3.836975 15,000 128 365 0
2018-04-22 12:37:24 GMT 54.954483 -3.844892 15,000 128 365 0
2018-04-22 12:37:20 GMT 54.958969 -3.854989 15,000 128 365 0
2018-04-22 12:37:17 GMT 54.962784 -3.863026 15,000 128 364 0
2018-04-22 12:37:13 GMT 54.965607 -3.869288 15,000 128 364 128
2018-04-22 12:37:10 GMT 54.969086 -3.876639 15,000 128 364 128
2018-04-22 12:37:06 GMT 54.973572 -3.886817 14,975 128 365 0
2018-04-22 12:37:03 GMT 54.976227 -3.892634 14,975 128 365 -64
2018-04-22 12:37:00 GMT 54.979683 -3.900230 15,000 128 367 0
2018-04-22 12:36:53 GMT 54.987534 -3.917515 15,000 128 367 0
2018-04-22 12:36:49 GMT 54.991287 -3.925350 15,000 128 367 0
2018-04-22 12:36:45 GMT 54.995682 -3.935044 15,000 128 366 0
2018-04-22 12:36:42 GMT 54.997837 -3.939847 15,000 128 366 0
2018-04-22 12:36:39 GMT 55.001099 -3.946922 15,000 128 365 64
2018-04-22 12:36:35 GMT 55.005844 -3.957409 15,000 128 365 64
2018-04-22 12:36:32 GMT 55.008591 -3.963318 15,000 128 365 0
2018-04-22 12:36:29 GMT 55.012177 -3.971225 15,000 128 366 0
2018-04-22 12:36:24 GMT 55.017334 -3.982625 14,975 128 366 0
2018-04-22 12:36:20 GMT 55.021591 -3.991915 14,975 128 366 0
2018-04-22 12:36:13 GMT 55.029678 -4.010259 15,000 128 366 0
2018-04-22 12:36:10 GMT 55.031403 -4.013755 15,000 128 366 0
2018-04-22 12:36:07 GMT 55.034958 -4.022127 14,975 128 366 0
2018-04-22 12:36:03 GMT 55.039314 -4.032066 15,000 128 366 0
2018-04-22 12:35:59 GMT 55.044716 -4.043718 14,975 127 368 0
2018-04-22 12:35:52 GMT 55.051281 -4.058699 14,975 127 367 0
2018-04-22 12:35:48 GMT 55.054726 -4.066190 14,975 127 368 0
2018-04-22 12:35:45 GMT 55.057938 -4.073504 14,975 127 368 0
2018-04-22 12:35:41 GMT 55.062965 -4.084917 15,000 127 368 0
2018-04-22 12:35:38 GMT 55.064781 -4.088495 15,000 127 368 0
2018-04-22 12:35:35 GMT 55.068550 -4.096985 15,000 127 368 0
2018-04-22 12:35:31 GMT 55.072723 -4.106221 14,975 127 369 0
2018-04-22 12:35:28 GMT 55.075974 -4.113491 15,000 127 369 0
2018-04-22 12:35:21 GMT 55.083984 -4.131506 15,000 127 368 0
2018-04-22 12:35:17 GMT 55.086845 -4.138350 15,000 127 368 0
2018-04-22 12:35:11 GMT 55.094433 -4.155162 15,000 127 368 0
2018-04-22 12:35:08 GMT 55.096855 -4.160156 15,000 127 368 0
2018-04-22 12:35:05 GMT 55.100006 -4.167373 15,000 127 369 0
2018-04-22 12:35:01 GMT 55.104172 -4.176905 15,000 127 369 0
2018-04-22 12:34:57 GMT 55.107700 -4.184709 15,000 127 369 0
2018-04-22 12:34:51 GMT 55.114609 -4.200413 14,975 127 369 0
2018-04-22 12:34:48 GMT 55.117722 -4.207521 14,975 127 370 0
2018-04-22 12:34:45 GMT 55.121063 -4.214755 15,000 127 370 0
2018-04-22 12:34:41 GMT 55.125870 -4.225293 15,000 127 369 0
2018-04-22 12:34:38 GMT 55.129120 -4.232968 15,000 127 369 0
2018-04-22 12:34:35 GMT 55.130699 -4.236228 15,000 128 368 0
2018-04-22 12:34:29 GMT 55.138752 -4.254456 15,000 128 368 64
2018-04-22 12:34:25 GMT 55.141640 -4.260698 15,000 128 368 0
2018-04-22 12:34:18 GMT 55.148853 -4.276511 14,975 129 368 0
2018-04-22 12:34:15 GMT 55.152512 -4.284587 14,975 129 369 0
2018-04-22 12:34:08 GMT 55.160889 -4.301874 14,975 130 369 0
2018-04-22 12:34:05 GMT 55.163544 -4.307368 14,975 131 368 -64
2018-04-22 12:33:59 GMT 55.169987 -4.320041 15,000 131 367 -64
2018-04-22 12:33:56 GMT 55.173706 -4.327563 14,975 128 370 320
2018-04-22 12:33:53 GMT 55.176926 -4.334606 14,975 127 371 256
2018-04-22 12:33:49 GMT 55.180462 -4.343345 14,975 121 375 -64
2018-04-22 12:33:45 GMT 55.184235 -4.354165 14,975 115 379 -128
2018-04-22 12:33:42 GMT 55.186375 -4.361655 15,000 113 381 -64
2018-04-22 12:33:39 GMT 55.188629 -4.371589 15,000 110 384 0
2018-04-22 12:33:36 GMT 55.190369 -4.380394 15,000 109 384 -64
2018-04-22 12:33:33 GMT 55.192612 -4.391202 15,000 109 384 0
2018-04-22 12:33:29 GMT 55.194241 -4.399359 15,000 109 384 64
2018-04-22 12:33:25 GMT 55.196548 -4.410768 15,000 109 384 0
2018-04-22 12:33:22 GMT 55.198383 -4.419750 15,000 109 384 0
2018-04-22 12:33:18 GMT 55.200665 -4.431069 14,975 109 386 0
2018-04-22 12:33:15 GMT 55.202946 -4.442305 14,975 109 386 0
2018-04-22 12:33:12 GMT 55.204670 -4.450961 14,975 109 387 0
2018-04-22 12:33:07 GMT 55.207260 -4.463600 14,975 109 387 0
2018-04-22 12:33:04 GMT 55.209183 -4.473213 15,000 109 388 64
2018-04-22 12:33:01 GMT 55.210876 -4.481210 14,975 109 387 0
2018-04-22 12:32:58 GMT 55.212799 -4.491469 14,975 109 388 0
2018-04-22 12:32:55 GMT 55.214905 -4.500355 15,000 109 388 0
2018-04-22 12:32:52 GMT 55.217007 -4.511053 15,000 109 388 0
2018-04-22 12:32:48 GMT 55.219193 -4.521790 15,000 109 387 0
2018-04-22 12:32:44 GMT 55.221588 -4.533476 15,000 109 388 64
2018-04-22 12:32:41 GMT 55.223099 -4.540908 15,000 109 388 64
2018-04-22 12:32:38 GMT 55.225296 -4.551571 14,975 109 389 0
2018-04-22 12:32:34 GMT 55.227432 -4.562572 15,000 109 389 0
2018-04-22 12:32:31 GMT 55.229507 -4.571847 15,000 109 390 0
2018-04-22 12:32:25 GMT 55.233067 -4.589788 14,975 110 390 64
2018-04-22 12:32:21 GMT 55.235870 -4.602706 14,975 110 391 0
2018-04-22 12:32:13 GMT 55.240517 -4.624828 15,000 109 392 0
2018-04-22 12:32:10 GMT 55.242233 -4.634049 15,000 110 391 0
2018-04-22 12:32:07 GMT 55.244190 -4.642722 15,000 110 391 64
2018-04-22 12:32:03 GMT 55.246845 -4.655290 14,975 110 392 128
2018-04-22 12:32:00 GMT 55.248707 -4.664279 14,975 110 393 64
2018-04-22 12:31:54 GMT 55.251938 -4.679530 14,975 110 394 0
2018-04-22 12:31:50 GMT 55.255325 -4.695605 15,000 110 394 0
2018-04-22 12:31:45 GMT 55.257660 -4.707076 15,000 110 394 0
2018-04-22 12:31:42 GMT 55.259628 -4.716608 15,000 110 393 0
2018-04-22 12:31:39 GMT 55.261742 -4.727034 15,000 110 393 0
2018-04-22 12:31:36 GMT 55.263466 -4.735357 15,000 110 393 0
2018-04-22 12:31:32 GMT 55.266117 -4.747176 14,975 110 393 0
2018-04-22 12:31:28 GMT 55.268307 -4.757413 14,975 110 392 0
2018-04-22 12:31:25 GMT 55.270386 -4.767339 15,000 110 392 0
2018-04-22 12:31:22 GMT 55.272636 -4.778387 15,000 110 391 0
2018-04-22 12:31:18 GMT 55.274963 -4.789706 15,000 110 390 0
2018-04-22 12:31:15 GMT 55.276638 -4.797197 15,000 110 390 0
2018-04-22 12:31:12 GMT 55.278809 -4.807488 15,000 110 389 0
2018-04-22 12:31:08 GMT 55.281063 -4.818087 15,000 110 389 0
2018-04-22 12:31:05 GMT 55.282784 -4.826078 15,000 110 389 0
2018-04-22 12:31:01 GMT 55.285717 -4.838978 15,000 110 389 0
2018-04-22 12:30:58 GMT 55.287720 -4.848050 15,000 110 388 -128
2018-04-22 12:30:55 GMT 55.289070 -4.855707 15,000 110 388 -64
2018-04-22 12:30:52 GMT 55.291397 -4.865974 15,000 112 387 128
2018-04-22 12:30:49 GMT 55.293491 -4.875017 15,000 113 386 128
2018-04-22 12:30:46 GMT 55.295399 -4.882341 15,000 117 384 64
2018-04-22 12:30:43 GMT 55.298008 -4.891163 15,000 117 384 64
2018-04-22 12:30:40 GMT 55.301147 -4.900468 15,000 122 381 0
2018-04-22 12:30:37 GMT 55.304398 -4.908465 15,000 127 378 0
2018-04-22 12:30:34 GMT 55.307270 -4.914468 15,000 134 374 0
2018-04-22 12:30:31 GMT 55.311035 -4.921956 15,000 137 371 0
2018-04-22 12:30:28 GMT 55.314285 -4.927126 15,000 141 368 0
2018-04-22 12:30:25 GMT 55.318535 -4.932945 15,000 148 364 0
2018-04-22 12:30:20 GMT 55.324356 -4.939728 15,000 149 362 0
2018-04-22 12:30:17 GMT 55.330547 -4.945762 15,000 161 355 0
2018-04-22 12:30:14 GMT 55.334381 -4.948695 15,000 158 356 0
2018-04-22 12:30:10 GMT 55.341675 -4.953169 15,000 166 352 0
2018-04-22 12:30:07 GMT 55.344326 -4.954251 14,975 182 344 0
2018-04-22 12:30:04 GMT 55.350376 -4.956166 15,000 173 348 0
2018-04-22 12:30:01 GMT 55.353928 -4.956934 15,000 176 346 0
2018-04-22 12:29:57 GMT 55.360886 -4.957096 14,975 194 339 0
2018-04-22 12:29:54 GMT 55.366112 -4.956332 14,975 194 339 0
2018-04-22 12:29:51 GMT 55.370674 -4.955167 14,975 193 339 0
2018-04-22 12:29:47 GMT 55.376633 -4.952330 14,975 199 338 0
2018-04-22 12:29:42 GMT 55.384640 -4.947094 14,975 206 335 0
2018-04-22 12:29:38 GMT 55.389404 -4.942636 14,975 212 334 0
2018-04-22 12:29:34 GMT 55.395721 -4.934859 14,975 226 332 0
2018-04-22 12:29:29 GMT 55.400116 -4.927934 14,975 229 331 0
2018-04-22 12:29:25 GMT 55.403496 -4.921875 15,000 249 330 64
2018-04-22 12:29:22 GMT 55.406845 -4.914717 14,975 237 330 0
2018-04-22 12:29:18 GMT 55.410568 -4.904314 15,000 243 330 0
2018-04-22 12:29:15 GMT 55.412617 -4.897405 14,975 250 331 64
2018-04-22 12:29:11 GMT 55.414761 -4.887002 14,975 257 332 0
2018-04-22 12:29:06 GMT 55.416531 -4.875599 14,975 260 333 -64
2018-04-22 12:29:03 GMT 55.417282 -4.867347 14,975 268 336 0
2018-04-22 12:29:00 GMT 55.417694 -4.859869 14,975 267 335 -64
2018-04-22 12:28:55 GMT 55.418106 -4.844486 15,000 269 336 0
2018-04-22 12:28:52 GMT 55.418114 -4.835815 15,000 269 336 0
2018-04-22 12:28:46 GMT 55.418106 -4.819848 15,000 269 335 0
2018-04-22 12:28:43 GMT 55.418392 -4.812012 15,000 269 335 0
2018-04-22 12:28:40 GMT 55.418335 -4.803126 15,000 269 335 0
2018-04-22 12:28:37 GMT 55.418610 -4.793836 15,000 269 335 0
2018-04-22 12:28:33 GMT 55.418625 -4.784379 15,000 269 336 0
2018-04-22 12:28:30 GMT 55.418793 -4.775821 15,000 269 336 0
2018-04-22 12:28:25 GMT 55.418903 -4.762989 15,000 269 337 0
2018-04-22 12:28:22 GMT 55.418839 -4.754010 15,000 269 338 0
2018-04-22 12:28:18 GMT 55.419113 -4.745205 15,000 269 338 0
2018-04-22 12:28:15 GMT 55.419159 -4.735269 15,000 270 339 0
2018-04-22 12:28:12 GMT 55.419273 -4.724537 15,000 270 340 0
2018-04-22 12:28:09 GMT 55.419205 -4.718224 15,000 269 340 0
2018-04-22 12:28:06 GMT 55.419369 -4.710305 14,975 269 340 0
2018-04-22 12:28:03 GMT 55.419479 -4.704410 14,975 269 340 0
2018-04-22 12:28:00 GMT 55.419479 -4.693909 14,975 269 339 0
2018-04-22 12:27:54 GMT 55.419525 -4.678964 14,975 269 340 0
2018-04-22 12:27:51 GMT 55.419880 -4.669356 14,975 269 339 0
2018-04-22 12:27:48 GMT 55.419880 -4.659618 14,975 269 339 0
2018-04-22 12:27:43 GMT 55.419975 -4.646801 15,000 272 338 64
2018-04-22 12:27:39 GMT 55.420021 -4.636980 15,000 271 338 0
2018-04-22 12:27:35 GMT 55.420021 -4.626409 15,000 273 338 128
2018-04-22 12:27:32 GMT 55.419571 -4.618620 14,975 284 342 128
2018-04-22 12:27:29 GMT 55.419090 -4.609597 14,975 283 341 128
2018-04-22 12:27:23 GMT 55.416916 -4.591962 14,975 290 346 -64
2018-04-22 12:27:19 GMT 55.414478 -4.580050 14,975 295 349 -192
2018-04-22 12:27:14 GMT 55.410755 -4.567399 15,000 301 351 0
2018-04-22 12:27:11 GMT 55.409733 -4.563737 14,975 301 351 0
2018-04-22 12:27:04 GMT 55.403137 -4.545189 14,975 303 350 0
2018-04-22 12:27:01 GMT 55.400795 -4.538685 14,975 303 351 0
2018-04-22 12:26:58 GMT 55.397629 -4.529530 15,000 303 350 -64
2018-04-22 12:26:53 GMT 55.393433 -4.518289 15,000 303 350 0
2018-04-22 12:26:50 GMT 55.391296 -4.512218 15,000 303 349 -64
2018-04-22 12:26:47 GMT 55.388180 -4.503479 15,000 303 349 -64
2018-04-22 12:26:44 GMT 55.385513 -4.496236 15,000 303 349 -192
2018-04-22 12:26:41 GMT 55.383224 -4.490015 15,000 303 348 -192
2018-04-22 12:26:36 GMT 55.378727 -4.477595 15,025 303 349 -128
2018-04-22 12:26:32 GMT 55.375145 -4.467773 15,050 303 351 -384
2018-04-22 12:26:29 GMT 55.372559 -4.460853 15,075 303 353 -768
2018-04-22 12:26:25 GMT 55.369720 -4.452694 15,075 303 353 -896
2018-04-22 12:26:22 GMT 55.366390 -4.444386 15,150 303 355 -960
2018-04-22 12:26:19 GMT 55.364456 -4.438234 15,175 303 355 -960
2018-04-22 12:26:16 GMT 55.361084 -4.429238 15,250 303 360 -960
2018-04-22 12:26:13 GMT 55.358433 -4.422330 15,300 303 358 -960
2018-04-22 12:26:10 GMT 55.355125 -4.413091 15,350 303 360 -960
2018-04-22 12:26:05 GMT 55.351135 -4.402609 15,425 303 361 -960
2018-04-22 12:26:02 GMT 55.347382 -4.392269 15,500 303 362 -960
2018-04-22 12:25:58 GMT 55.345688 -4.387261 15,525 303 363 -960
2018-04-22 12:25:55 GMT 55.341934 -4.377325 15,600 303 365 -960
2018-04-22 12:25:52 GMT 55.339672 -4.371060 15,650 303 366 -960
2018-04-22 12:25:49 GMT 55.335846 -4.360845 15,725 303 367 -960
2018-04-22 12:25:46 GMT 55.334599 -4.357078 15,925 304 370 -1024
2018-04-22 12:25:43 GMT 55.331589 -4.349374 15,775 304 368 -1024
2018-04-22 12:25:40 GMT 55.328499 -4.340765 15,850 304 370 -960
2018-04-22 12:25:36 GMT 55.324821 -4.330611 16,900 300 376 -1664
2018-04-22 12:25:33 GMT 55.321014 -4.320939 16,025 304 370 -1024
2018-04-22 12:25:29 GMT 55.318771 -4.314719 16,225 304 371 -1024
2018-04-22 12:25:26 GMT 55.314926 -4.304783 16,150 304 372 -1472
2018-04-22 12:25:21 GMT 55.309891 -4.290727 16,175 304 372 -1344
2018-04-22 12:25:17 GMT 55.307190 -4.283456 16,350 303 373 -1664
2018-04-22 12:25:14 GMT 55.303802 -4.274328 16,350 304 372 -1792
2018-04-22 12:25:11 GMT 55.301285 -4.267300 16,475 303 373 -1600
2018-04-22 12:25:08 GMT 55.298950 -4.261322 16,500 303 373 -1536
2018-04-22 12:25:05 GMT 55.296204 -4.253567 16,575 303 373 -1344
2018-04-22 12:25:01 GMT 55.292130 -4.242823 16,675 303 375 -1088
2018-04-22 12:24:58 GMT 55.289566 -4.235633 16,775 301 377 -1344
2018-04-22 12:24:55 GMT 55.286091 -4.226324 16,775 302 377 -1152
2018-04-22 12:24:52 GMT 55.283661 -4.219315 16,875 300 376 -1664
2018-04-22 12:24:49 GMT 55.280968 -4.211176 16,925 298 374 -1984
2018-04-22 12:24:45 GMT 55.277802 -4.199274 17,075 292 370 -2496
2018-04-22 12:24:41 GMT 55.275661 -4.190285 17,300 288 365 -2496
2018-04-22 12:24:38 GMT 55.273636 -4.178682 17,375 284 362 -2240
2018-04-22 12:24:33 GMT 55.271988 -4.165434 17,725 278 369 -1728
2018-04-22 12:24:29 GMT 55.271053 -4.154913 17,675 278 358 -1664
2018-04-22 12:24:25 GMT 55.270111 -4.140634 17,800 278 358 -1536
2018-04-22 12:24:19 GMT 55.269058 -4.126416 17,925 278 360 -1024
2018-04-22 12:24:14 GMT 55.267914 -4.113168 18,000 278 363 -640
2018-04-22 12:24:08 GMT 55.266350 -4.094571 18,075 278 366 -896
2018-04-22 12:24:03 GMT 55.265419 -4.079840 18,275 278 369 -1728
2018-04-22 12:24:00 GMT 55.264572 -4.070515 18,350 278 369 -2048
2018-04-22 12:23:56 GMT 55.263744 -4.057867 18,500 278 370 -2112
2018-04-22 12:23:53 GMT 55.263336 -4.048704 18,500 278 370 -2176
2018-04-22 12:23:48 GMT 55.262375 -4.035779 18,700 278 370 -1984
2018-04-22 12:23:45 GMT 55.261780 -4.027297 18,850 278 369 -1920
2018-04-22 12:23:42 GMT 55.260765 -4.015253 18,900 278 370 -1856
2018-04-22 12:23:37 GMT 55.259926 -4.001936 19,025 278 370 -1728
2018-04-22 12:23:33 GMT 55.259079 -3.991026 19,125 278 370 -1856
2018-04-22 12:23:30 GMT 55.258438 -3.980713 19,250 278 370 -1920
2018-04-22 12:23:27 GMT 55.257751 -3.974304 19,750 278 374 -1600
2018-04-22 12:23:23 GMT 55.256744 -3.960814 19,925 278 371 -1984
2018-04-22 12:23:19 GMT 55.256016 -3.948503 19,675 278 372 -1792
2018-04-22 12:23:16 GMT 55.255280 -3.940376 19,700 278 372 -1792
2018-04-22 12:23:12 GMT 55.254433 -3.928861 19,925 278 373 -1600
2018-04-22 12:23:08 GMT 55.253643 -3.917458 19,975 278 373 -1600
2018-04-22 12:23:05 GMT 55.252899 -3.906851 20,025 278 374 -1600
2018-04-22 12:23:02 GMT 55.252167 -3.898531 20,100 278 374 -1600
2018-04-22 12:22:58 GMT 55.251343 -3.884798 20,250 278 376 -1728
2018-04-22 12:22:55 GMT 55.250664 -3.875427 20,300 278 377 -1792
2018-04-22 12:22:51 GMT 55.249695 -3.862502 20,450 278 378 -1664
2018-04-22 12:22:47 GMT 55.248825 -3.851435 20,550 278 378 -1664
2018-04-22 12:22:44 GMT 55.248322 -3.844326 20,625 278 379 -1728
2018-04-22 12:22:41 GMT 55.247730 -3.834145 20,750 278 380 -1792
2018-04-22 12:22:38 GMT 55.246941 -3.826988 20,900 278 380 -1792
2018-04-22 12:22:35 GMT 55.246170 -3.814518 20,900 278 380 -1920
2018-04-22 12:22:32 GMT 55.245529 -3.807651 21,050 278 380 -2240
2018-04-22 12:22:29 GMT 55.244659 -3.795049 21,125 278 380 -2240
2018-04-22 12:22:24 GMT 55.243790 -3.782367 21,300 278 380 -2112
2018-04-22 12:22:21 GMT 55.243076 -3.772805 21,575 278 381 -1600
2018-04-22 12:22:18 GMT 55.242554 -3.764595 21,475 278 381 -1600
2018-04-22 12:22:14 GMT 55.241592 -3.753608 21,625 278 382 -1408
2018-04-22 12:22:11 GMT 55.240540 -3.740683 21,700 278 385 -1600
2018-04-22 12:22:05 GMT 55.239258 -3.723783 21,800 278 385 -1600
2018-04-22 12:22:02 GMT 55.238525 -3.713540 21,900 278 386 -1856
2018-04-22 12:21:59 GMT 55.237907 -3.705222 22,125 278 391 -1408
2018-04-22 12:21:54 GMT 55.237061 -3.690841 22,200 278 387 -2048
2018-04-22 12:21:51 GMT 55.236328 -3.681955 22,250 278 387 -1984
2018-04-22 12:21:48 GMT 55.235302 -3.669267 22,450 278 388 -1856
2018-04-22 12:21:43 GMT 55.234406 -3.656024 22,500 278 388 -1792
2018-04-22 12:21:40 GMT 55.233627 -3.647784 22,800 278 390 -1664
2018-04-22 12:21:37 GMT 55.233112 -3.638639 22,775 278 389 -1728
2018-04-22 12:21:34 GMT 55.232273 -3.627403 23,000 278 392 -1344
2018-04-22 12:21:31 GMT 55.231339 -3.617895 22,975 278 391 -1408
2018-04-22 12:21:28 GMT 55.230831 -3.610091 23,325 278 400 -2112
2018-04-22 12:21:25 GMT 55.230133 -3.600103 23,025 278 394 -1344
2018-04-22 12:21:22 GMT 55.229324 -3.590914 23,225 278 395 -1536
2018-04-22 12:21:19 GMT 55.228271 -3.577504 23,175 278 395 -1664
2018-04-22 12:21:16 GMT 55.227993 -3.572138 23,225 278 396 -1792
2018-04-22 12:21:13 GMT 55.227036 -3.561105 23,375 278 398 -1664
2018-04-22 12:21:09 GMT 55.226269 -3.548584 23,475 278 398 -1664
2018-04-22 12:21:06 GMT 55.225616 -3.539845 23,750 278 399 -1728
2018-04-22 12:21:03 GMT 55.224609 -3.528550 23,650 278 400 -1856
2018-04-22 12:21:00 GMT 55.224129 -3.519953 23,800 278 400 -2112
2018-04-22 12:20:56 GMT 55.223152 -3.506969 23,875 278 400 -2112
2018-04-22 12:20:53 GMT 55.222137 -3.495672 24,225 278 401 -1920
2018-04-22 12:20:50 GMT 55.221634 -3.488240 24,125 278 401 -1856
2018-04-22 12:20:46 GMT 55.220032 -3.466914 24,275 278 402 -1792
2018-04-22 12:20:42 GMT 55.219521 -3.460860 24,325 278 402 -1792
2018-04-22 12:20:39 GMT 55.219009 -3.454201 24,450 279 404 -1792
2018-04-22 12:20:35 GMT 55.217972 -3.440417 24,550 279 405 -1728
2018-04-22 12:20:32 GMT 55.217010 -3.430077 24,600 279 406 -1664
2018-04-22 12:20:29 GMT 55.216400 -3.421326 24,725 279 408 -1472
2018-04-22 12:20:25 GMT 55.215328 -3.408924 24,900 279 408 -1472
2018-04-22 12:20:22 GMT 55.214035 -3.394291 24,900 279 409 -1472
2018-04-22 12:20:19 GMT 55.213699 -3.388034 25,000 279 410 -1664
2018-04-22 12:20:16 GMT 55.212769 -3.378379 25,025 279 411 -1792
2018-04-22 12:20:13 GMT 55.212025 -3.368308 25,450 279 412 -2176
2018-04-22 12:20:10 GMT 55.211281 -3.358737 25,300 279 412 0
2018-04-22 12:20:07 GMT 55.210602 -3.350830 25,300 279 412 -2112
2018-04-22 12:20:03 GMT 55.209187 -3.333352 25,550 279 412 -2560
2018-04-22 12:20:00 GMT 55.208359 -3.323283 25,625 279 412 -2560
2018-04-22 12:19:57 GMT 55.207809 -3.315205 25,725 279 412 -2496
2018-04-22 12:19:54 GMT 55.206810 -3.302474 25,900 279 412 -2496
2018-04-22 12:19:51 GMT 55.206066 -3.295815 25,975 279 411 -2432
2018-04-22 12:19:48 GMT 55.205383 -3.285881 26,150 279 411 -2240
2018-04-22 12:19:45 GMT 55.204468 -3.273199 26,250 279 411 -2240
2018-04-22 12:19:40 GMT 55.203049 -3.258093 26,425 279 411 -1984
2018-04-22 12:19:37 GMT 55.202480 -3.250455 26,500 279 412 -1856
2018-04-22 12:19:33 GMT 55.201180 -3.235307 26,650 279 413 -1856
2018-04-22 12:19:30 GMT 55.200340 -3.224071 26,850 279 415 -2496
2018-04-22 12:19:27 GMT 55.199688 -3.216331 26,825 279 414 -1920
2018-04-22 12:19:23 GMT 55.198429 -3.200267 27,000 279 415 -2112
2018-04-22 12:19:20 GMT 55.197781 -3.193859 27,050 279 415 -2304
2018-04-22 12:19:17 GMT 55.197037 -3.183954 27,225 279 415 -2496
2018-04-22 12:19:14 GMT 55.196011 -3.173884 27,350 279 410 -2240
2018-04-22 12:19:11 GMT 55.195171 -3.163313 27,450 279 414 -2688
2018-04-22 12:19:08 GMT 55.194660 -3.153825 27,575 279 414 -2688
2018-04-22 12:19:05 GMT 55.193802 -3.145887 27,925 279 413 -2432
2018-04-22 12:19:02 GMT 55.192749 -3.133931 27,925 279 413 -2240
2018-04-22 12:18:59 GMT 55.191879 -3.122541 28,000 279 413 -2176
2018-04-22 12:18:56 GMT 55.191193 -3.115432 28,175 279 413 -1984
2018-04-22 12:18:53 GMT 55.190239 -3.103222 28,200 279 414 -1792
2018-04-22 12:18:50 GMT 55.189445 -3.095148 28,275 279 414 -1792
2018-04-22 12:18:47 GMT 55.188377 -3.081998 28,400 279 416 -1600
2018-04-22 12:18:44 GMT 55.187897 -3.074233 28,550 279 411 -1536
2018-04-22 12:18:41 GMT 55.186981 -3.064020 28,600 279 416 -2752
2018-04-22 12:18:38 GMT 55.186050 -3.054033 28,775 279 416 -2944
2018-04-22 12:18:35 GMT 55.185471 -3.045798 28,875 279 411 -1536
2018-04-22 12:18:32 GMT 55.184647 -3.035700 29,075 279 413 -3392
2018-04-22 12:18:29 GMT 55.183628 -3.023571 29,575 279 411 -3200
2018-04-22 12:18:26 GMT 55.182743 -3.012335 29,375 279 411 -3008
2018-04-22 12:18:23 GMT 55.182186 -3.006592 29,600 279 410 -2560
2018-04-22 12:18:20 GMT 55.181305 -2.995632 29,700 279 410 -2240
2018-04-22 12:18:17 GMT 55.180756 -2.987150 29,825 279 410 -2048
2018-04-22 12:18:13 GMT 55.178692 -2.965310 29,975 279 411 -1600
2018-04-22 12:18:10 GMT 55.178650 -2.962431 30,000 279 411 -1536
2018-04-22 12:18:07 GMT 55.177715 -2.953408 30,100 279 412 -1280
2018-04-22 12:18:04 GMT 55.176819 -2.942720 30,125 279 414 -1024
2018-04-22 12:17:59 GMT 55.175201 -2.922363 30,225 279 417 -704
2018-04-22 12:17:56 GMT 55.174438 -2.914770 30,375 279 419 -704
2018-04-22 12:17:53 GMT 55.173615 -2.906207 30,300 279 420 -832
2018-04-22 12:17:50 GMT 55.172607 -2.894494 30,450 279 422 -1216
2018-04-22 12:17:47 GMT 55.172131 -2.887740 30,375 279 423 -1344
2018-04-22 12:17:44 GMT 55.171005 -2.875833 31,000 279 425 -1536
2018-04-22 12:17:39 GMT 55.169403 -2.855395 30,625 279 426 -1728
2018-04-22 12:17:36 GMT 55.168545 -2.848122 30,725 279 427 -1920
2018-04-22 12:17:33 GMT 55.167709 -2.837623 31,025 279 427 -2240
2018-04-22 12:17:29 GMT 55.166775 -2.827148 30,950 279 426 -2752
2018-04-22 12:17:26 GMT 55.165695 -2.815247 31,050 279 426 -2816
2018-04-22 12:17:23 GMT 55.164959 -2.805093 31,225 279 425 -2752
2018-04-22 12:17:20 GMT 55.163956 -2.794728 31,400 279 424 -2624
2018-04-22 12:17:17 GMT 55.162960 -2.781539 31,575 279 424 -2304
2018-04-22 12:17:14 GMT 55.162491 -2.775098 31,675 279 424 -2240
2018-04-22 12:17:11 GMT 55.161423 -2.764060 31,725 279 424 -2176
2018-04-22 12:17:07 GMT 55.160118 -2.749828 31,975 279 425 -1856
2018-04-22 12:17:04 GMT 55.159653 -2.742171 32,000 279 425 -1856
2018-04-22 12:17:01 GMT 55.158234 -2.727033 32,100 279 426 -1920
2018-04-22 12:16:57 GMT 55.157513 -2.717202 32,150 279 426 -1984
2018-04-22 12:16:53 GMT 55.156162 -2.702137 32,425 279 427 -1472
2018-04-22 12:16:50 GMT 55.155186 -2.690652 32,425 279 427 -1472
2018-04-22 12:16:47 GMT 55.154114 -2.681746 32,500 279 429 -896
2018-04-22 12:16:44 GMT 55.153473 -2.672505 32,525 279 432 -704
2018-04-22 12:16:41 GMT 55.152420 -2.659418 32,600 279 436 -1024
2018-04-22 12:16:37 GMT 55.151321 -2.649078 32,600 279 434 -832
2018-04-22 12:16:34 GMT 55.150085 -2.635265 32,675 279 437 -1344
2018-04-22 12:16:31 GMT 55.149353 -2.626944 32,775 279 438 -2496
2018-04-22 12:16:28 GMT 55.148712 -2.616910 32,850 279 438 -1856
2018-04-22 12:16:24 GMT 55.147568 -2.603841 32,925 279 438 -2496
2018-04-22 12:16:21 GMT 55.146378 -2.591239 33,725 279 438 -1792
2018-04-22 12:16:18 GMT 55.145279 -2.580091 33,200 279 439 -2432
2018-04-22 12:16:15 GMT 55.144665 -2.570634 33,575 279 438 -2368
2018-04-22 12:16:12 GMT 55.143448 -2.561188 33,550 279 438 -2304
2018-04-22 12:16:09 GMT 55.142895 -2.550409 33,625 279 439 -2048
2018-04-22 12:16:06 GMT 55.141872 -2.539257 33,700 279 438 -1984
2018-04-22 12:16:03 GMT 55.140884 -2.530329 33,800 279 439 -1792
2018-04-22 12:16:00 GMT 55.140335 -2.521695 33,975 279 439 -1856
2018-04-22 12:15:56 GMT 55.138611 -2.504883 34,075 279 440 -1856
2018-04-22 12:15:53 GMT 55.137497 -2.491150 34,100 279 441 -1856
2018-04-22 12:15:50 GMT 55.137123 -2.484492 34,150 279 442 -2048
2018-04-22 12:15:47 GMT 55.136307 -2.474347 34,300 279 442 -2752
2018-04-22 12:15:44 GMT 55.135391 -2.465219 34,425 279 442 -2816
2018-04-22 12:15:41 GMT 55.134155 -2.451890 34,575 279 441 -3264
2018-04-22 12:15:38 GMT 55.133350 -2.441046 34,700 279 438 -2688
2018-04-22 12:15:35 GMT 55.132328 -2.432473 34,900 279 438 -3264
2018-04-22 12:15:31 GMT 55.130814 -2.413357 35,125 279 438 -2560
2018-04-22 12:15:28 GMT 55.130081 -2.404229 35,225 279 438 -2176
2018-04-22 12:15:25 GMT 55.129257 -2.395827 35,425 280 439 -1280
2018-04-22 12:15:21 GMT 55.127670 -2.379539 35,400 280 441 -704
2018-04-22 12:15:18 GMT 55.127106 -2.371512 35,450 280 444 -704
2018-04-22 12:15:15 GMT 55.126183 -2.361228 35,475 280 444 -704
2018-04-22 12:15:12 GMT 55.124973 -2.349909 35,625 284 454 -1280
2018-04-22 12:15:09 GMT 55.124367 -2.341336 35,525 279 447 -832
2018-04-22 12:15:06 GMT 55.123215 -2.329102 35,700 280 450 -1216
2018-04-22 12:15:03 GMT 55.122177 -2.318615 35,625 281 451 -1280
2018-04-22 12:15:00 GMT 55.121063 -2.307878 35,725 283 454 -1280
2018-04-22 12:14:57 GMT 55.119781 -2.297597 35,850 286 457 -1024
2018-04-22 12:14:54 GMT 55.117851 -2.284324 35,850 286 457 -1024
2018-04-22 12:14:51 GMT 55.116592 -2.275085 35,900 289 461 -448
2018-04-22 12:14:48 GMT 55.114655 -2.266253 35,950 289 461 -320
2018-04-22 12:14:45 GMT 55.112274 -2.253490 35,975 293 466 0
2018-04-22 12:14:42 GMT 55.110123 -2.242709 36,000 296 467 0
2018-04-22 12:14:39 GMT 55.107834 -2.233456 36,000 295 466 0
2018-04-22 12:14:36 GMT 55.105141 -2.223566 36,000 301 471 -64
2018-04-22 12:14:33 GMT 55.101509 -2.211581 36,000 300 470 -64
2018-04-22 12:14:30 GMT 55.097717 -2.200255 36,000 302 471 0
2018-04-22 12:14:27 GMT 55.095154 -2.193550 36,000 302 472 0
2018-04-22 12:14:23 GMT 55.090710 -2.180953 36,000 303 472 0
2018-04-22 12:14:20 GMT 55.086685 -2.169800 36,000 303 472 0
2018-04-22 12:14:17 GMT 55.083710 -2.161560 36,000 303 472 -64
2018-04-22 12:14:14 GMT 55.079086 -2.148554 36,000 303 472 0
2018-04-22 12:14:11 GMT 55.076370 -2.140753 36,000 303 471 0
2018-04-22 12:14:08 GMT 55.073391 -2.132679 36,000 303 471 0
2018-04-22 12:14:05 GMT 55.069668 -2.122525 36,000 303 471 0
2018-04-22 12:14:02 GMT 55.064407 -2.106961 35,975 303 471 0
2018-04-22 12:13:59 GMT 55.061829 -2.101135 35,975 303 471 0
2018-04-22 12:13:54 GMT 55.057297 -2.088129 35,975 303 471 0
2018-04-22 12:13:51 GMT 55.054092 -2.079324 35,975 303 471 0
2018-04-22 12:13:48 GMT 55.050674 -2.069175 35,975 302 471 0
2018-04-22 12:13:43 GMT 55.045555 -2.055192 35,975 303 471 0
2018-04-22 12:13:40 GMT 55.041733 -2.044588 35,975 303 471 0
2018-04-22 12:13:37 GMT 55.037567 -2.033036 35,975 303 471 0
2018-04-22 12:13:34 GMT 55.034180 -2.023989 36,000 303 471 0
2018-04-22 12:13:31 GMT 55.030098 -2.011996 36,000 303 471 0
2018-04-22 12:13:27 GMT 55.026375 -2.001759 36,000 303 471 0
2018-04-22 12:13:24 GMT 55.023376 -1.993049 36,000 303 470 0
2018-04-22 12:13:21 GMT 55.018742 -1.980619 36,000 303 471 0
2018-04-22 12:13:18 GMT 55.016228 -1.972878 36,000 303 472 0
2018-04-22 12:13:15 GMT 55.011703 -1.960413 36,000 303 471 0
2018-04-22 12:13:10 GMT 55.006729 -1.946494 36,000 303 471 0
2018-04-22 12:13:07 GMT 55.001724 -1.932947 35,975 303 472 0
2018-04-22 12:13:03 GMT 54.997650 -1.921396 36,000 303 472 0
2018-04-22 12:13:00 GMT 54.994858 -1.914691 35,975 303 472 0
2018-04-22 12:12:57 GMT 54.991787 -1.905462 36,000 303 472 0
2018-04-22 12:12:54 GMT 54.987808 -1.894334 36,000 303 472 0
2018-04-22 12:12:51 GMT 54.984833 -1.885852 36,000 303 472 -64
2018-04-22 12:12:48 GMT 54.980892 -1.875832 36,000 303 472 0
2018-04-22 12:12:45 GMT 54.977028 -1.865096 36,000 303 472 -64
2018-04-22 12:12:42 GMT 54.972652 -1.852944 36,000 303 472 0
2018-04-22 12:12:38 GMT 54.969673 -1.843872 36,000 303 472 0
2018-04-22 12:12:35 GMT 54.965157 -1.831804 36,000 303 472 0
2018-04-22 12:12:32 GMT 54.961945 -1.823481 36,000 303 472 0
2018-04-22 12:12:28 GMT 54.957336 -1.810663 36,000 303 472 0
2018-04-22 12:12:25 GMT 54.954712 -1.802727 36,000 303 472 0
2018-04-22 12:12:22 GMT 54.950363 -1.791175 36,000 303 473 0
2018-04-22 12:12:18 GMT 54.945786 -1.778897 36,000 303 473 0
2018-04-22 12:12:15 GMT 54.942535 -1.769284 36,000 303 473 0
2018-04-22 12:12:12 GMT 54.939926 -1.762983 36,000 303 473 64
2018-04-22 12:12:09 GMT 54.936447 -1.752723 36,000 303 473 0
2018-04-22 12:12:06 GMT 54.932648 -1.742464 35,975 303 473 64
2018-04-22 12:12:03 GMT 54.927589 -1.728516 35,975 303 473 0
2018-04-22 12:12:00 GMT 54.924774 -1.720572 35,975 303 473 0
2018-04-22 12:11:57 GMT 54.921818 -1.713285 35,975 303 473 0
2018-04-22 12:11:54 GMT 54.916946 -1.699973 35,975 303 473 0
2018-04-22 12:11:51 GMT 54.914291 -1.691733 36,000 303 473 0
2018-04-22 12:11:48 GMT 54.910229 -1.681158 36,000 303 473 0
2018-04-22 12:11:45 GMT 54.908596 -1.676164 36,000 303 472 0
2018-04-22 12:11:42 GMT 54.904129 -1.663929 36,000 303 471 0
2018-04-22 12:11:39 GMT 54.900871 -1.655523 36,000 303 471 0
2018-04-22 12:11:36 GMT 54.897144 -1.644703 35,975 303 472 0
2018-04-22 12:11:33 GMT 54.893562 -1.635298 35,975 303 472 0
2018-04-22 12:11:29 GMT 54.889233 -1.623563 35,975 303 472 0
2018-04-22 12:11:26 GMT 54.885086 -1.611840 35,975 303 472 0
2018-04-22 12:11:23 GMT 54.882111 -1.604004 36,000 303 472 0
2018-04-22 12:11:20 GMT 54.877083 -1.590354 35,975 303 472 0
2018-04-22 12:11:17 GMT 54.875656 -1.586393 36,000 303 472 -64
2018-04-22 12:11:14 GMT 54.872147 -1.576372 36,000 303 472 -64
2018-04-22 12:11:11 GMT 54.868793 -1.567466 36,000 303 472 0
2018-04-22 12:11:08 GMT 54.865311 -1.558201 36,000 303 472 0
2018-04-22 12:11:05 GMT 54.861008 -1.546083 36,000 303 472 0
2018-04-22 12:11:02 GMT 54.857071 -1.536066 36,000 303 472 -64
2018-04-22 12:10:59 GMT 54.853619 -1.526101 36,000 303 472 0
2018-04-22 12:10:56 GMT 54.850021 -1.516840 36,000 303 472 0
2018-04-22 12:10:53 GMT 54.846268 -1.505935 36,000 303 472 0
2018-04-22 12:10:50 GMT 54.843155 -1.498422 36,000 303 472 0
2018-04-22 12:10:47 GMT 54.839794 -1.488481 36,000 303 472 0
2018-04-22 12:10:43 GMT 54.834347 -1.473833 36,000 303 472 0
2018-04-22 12:10:40 GMT 54.830715 -1.464428 36,000 303 472 0
2018-04-22 12:10:36 GMT 54.827316 -1.454773 35,975 303 472 0
2018-04-22 12:10:33 GMT 54.823059 -1.443652 36,000 303 472 0
2018-04-22 12:10:30 GMT 54.819992 -1.434685 35,975 303 472 0
2018-04-22 12:10:27 GMT 54.816147 -1.424977 35,975 303 472 0
2018-04-22 12:10:24 GMT 54.812840 -1.415322 35,975 303 472 0
2018-04-22 12:10:21 GMT 54.808548 -1.404150 35,975 303 472 0
2018-04-22 12:10:18 GMT 54.805809 -1.396262 35,975 303 472 0
2018-04-22 12:10:15 GMT 54.802139 -1.386943 35,975 303 472 0
2018-04-22 12:10:12 GMT 54.798935 -1.377492 35,975 303 472 0
2018-04-22 12:10:09 GMT 54.795273 -1.367879 35,975 303 472 0
2018-04-22 12:10:06 GMT 54.792030 -1.358809 35,975 303 471 0
2018-04-22 12:10:02 GMT 54.786942 -1.345098 35,975 303 471 0
2018-04-22 12:09:59 GMT 54.782639 -1.333708 35,975 303 471 0
2018-04-22 12:09:56 GMT 54.779369 -1.324435 35,975 303 471 0
2018-04-22 12:09:53 GMT 54.777420 -1.319733 35,975 303 470 0
2018-04-22 12:09:50 GMT 54.773735 -1.309287 35,975 303 470 0
2018-04-22 12:09:47 GMT 54.769405 -1.297885 35,975 303 470 0
2018-04-22 12:09:43 GMT 54.763912 -1.283236 35,975 303 470 0
2018-04-22 12:09:40 GMT 54.760841 -1.274497 36,000 303 470 -64
2018-04-22 12:09:37 GMT 54.757164 -1.265009 35,975 303 469 0
2018-04-22 12:09:34 GMT 54.754322 -1.256853 35,975 303 470 0
2018-04-22 12:09:30 GMT 54.750000 -1.245656 35,975 303 469 -64
2018-04-22 12:09:27 GMT 54.746658 -1.236204 35,975 303 469 -64
2018-04-22 12:09:24 GMT 54.742966 -1.226557 36,000 303 469 -64
2018-04-22 12:09:21 GMT 54.739471 -1.217069 36,000 303 469 -64
2018-04-22 12:09:18 GMT 54.734711 -1.203972 36,000 303 469 0
2018-04-22 12:09:15 GMT 54.732056 -1.197348 36,000 303 468 0
2018-04-22 12:09:12 GMT 54.727936 -1.185958 35,975 303 469 0
2018-04-22 12:09:08 GMT 54.722900 -1.172548 36,000 303 468 0
2018-04-22 12:09:05 GMT 54.720795 -1.166570 36,000 303 468 0
2018-04-22 12:09:02 GMT 54.717087 -1.157200 36,000 303 468 0
2018-04-22 12:08:59 GMT 54.714157 -1.148798 36,000 303 468 0
2018-04-22 12:08:56 GMT 54.710175 -1.138135 36,000 303 468 0
2018-04-22 12:08:53 GMT 54.706329 -1.128603 36,000 303 468 0
2018-04-22 12:08:50 GMT 54.701813 -1.115861 36,000 303 468 0
2018-04-22 12:08:46 GMT 54.698639 -1.107276 36,000 303 468 0
2018-04-22 12:08:43 GMT 54.695061 -1.097551 36,000 303 468 0
2018-04-22 12:08:40 GMT 54.691360 -1.087808 36,000 303 468 0
2018-04-22 12:08:36 GMT 54.686401 -1.074912 36,000 303 468 0
2018-04-22 12:08:33 GMT 54.683098 -1.065507 36,000 303 468 0
2018-04-22 12:08:30 GMT 54.679230 -1.055980 36,000 303 469 0
2018-04-22 12:08:27 GMT 54.675980 -1.046529 36,000 303 469 0
2018-04-22 12:08:24 GMT 54.672409 -1.037966 36,000 303 469 0
2018-04-22 12:08:20 GMT 54.666733 -1.021890 36,000 303 469 0
2018-04-22 12:08:16 GMT 54.663082 -1.012407 36,000 303 469 0
2018-04-22 12:08:13 GMT 54.659168 -1.001670 36,000 303 469 64
2018-04-22 12:08:09 GMT 54.652863 -0.984892 36,000 303 469 64
2018-04-22 12:08:06 GMT 54.649071 -0.975203 35,975 304 469 64
2018-04-22 12:08:02 GMT 54.646774 -0.968897 35,975 303 470 0
2018-04-22 12:07:59 GMT 54.643574 -0.960138 35,975 303 470 0
2018-04-22 12:07:53 GMT 54.636730 -0.941828 35,975 303 470 0
2018-04-22 12:07:50 GMT 54.631393 -0.927779 36,000 304 469 0
2018-04-22 12:07:47 GMT 54.628830 -0.920913 35,975 303 469 0
2018-04-22 12:07:44 GMT 54.625992 -0.913400 35,975 303 468 0
2018-04-22 12:07:41 GMT 54.621552 -0.902091 36,000 303 468 0
2018-04-22 12:07:38 GMT 54.618210 -0.892720 36,000 304 467 0
2018-04-22 12:07:35 GMT 54.613735 -0.881153 36,000 304 467 0
2018-04-22 12:07:31 GMT 54.609825 -0.870667 35,975 304 466 0
2018-04-22 12:07:27 GMT 54.605255 -0.859115 35,975 304 466 0
2018-04-22 12:07:22 GMT 54.597977 -0.839323 35,975 303 463 0
2018-04-22 12:07:19 GMT 54.596279 -0.834545 35,975 304 464 0
2018-04-22 12:07:16 GMT 54.592026 -0.823894 35,975 304 464 0
2018-04-22 12:07:13 GMT 54.587677 -0.812746 35,975 304 462 0
2018-04-22 12:07:10 GMT 54.585297 -0.805314 36,000 304 462 0
2018-04-22 12:07:07 GMT 54.581863 -0.797317 36,000 304 461 0
2018-04-22 12:07:04 GMT 54.578217 -0.787187 36,000 303 461 0
2018-04-22 12:07:00 GMT 54.573212 -0.773971 36,000 304 460 0
2018-04-22 12:06:57 GMT 54.569744 -0.764549 36,000 304 460 0
2018-04-22 12:06:54 GMT 54.566986 -0.756845 36,000 304 459 0
2018-04-22 12:06:51 GMT 54.562668 -0.745322 36,000 304 458 0
2018-04-22 12:06:48 GMT 54.560108 -0.739496 36,000 304 458 0
2018-04-22 12:06:44 GMT 54.553482 -0.721382 36,000 304 457 0
2018-04-22 12:06:41 GMT 54.551029 -0.715110 36,000 304 457 0
2018-04-22 12:06:38 GMT 54.547302 -0.705629 36,000 304 457 0
2018-04-22 12:06:34 GMT 54.543118 -0.694303 36,000 304 456 0
2018-04-22 12:06:30 GMT 54.539246 -0.684222 36,000 304 456 0
2018-04-22 12:06:27 GMT 54.536411 -0.676741 36,000 304 456 0
2018-04-22 12:06:24 GMT 54.531429 -0.663508 36,000 304 456 0
2018-04-22 12:06:21 GMT 54.528488 -0.655868 36,000 304 455 0
2018-04-22 12:06:18 GMT 54.524448 -0.645280 35,975 304 455 0
2018-04-22 12:06:14 GMT 54.519928 -0.632683 36,000 304 456 0
2018-04-22 12:06:11 GMT 54.517227 -0.626301 36,000 304 456 0
2018-04-22 12:06:08 GMT 54.514343 -0.618304 35,975 304 455 0
2018-04-22 12:06:05 GMT 54.510387 -0.607744 35,975 304 456 0
2018-04-22 12:06:02 GMT 54.505733 -0.595759 36,000 304 456 0
2018-04-22 12:05:58 GMT 54.502617 -0.587769 36,000 304 456 0
2018-04-22 12:05:55 GMT 54.498779 -0.578398 36,000 304 455 0
2018-04-22 12:05:51 GMT 54.494469 -0.566711 36,000 304 456 0
2018-04-22 12:05:48 GMT 54.490280 -0.555808 36,000 304 455 0
2018-04-22 12:05:44 GMT 54.486603 -0.546154 36,000 304 455 0
2018-04-22 12:05:41 GMT 54.482117 -0.534453 36,000 304 455 0
2018-04-22 12:05:38 GMT 54.477150 -0.520852 35,975 304 456 0
2018-04-22 12:05:35 GMT 54.474449 -0.514776 35,975 304 456 0
2018-04-22 12:05:32 GMT 54.472542 -0.508867 35,975 304 456 0
2018-04-22 12:05:29 GMT 54.468933 -0.499312 35,975 304 457 0
2018-04-22 12:05:26 GMT 54.464863 -0.489391 35,975 304 457 0
2018-04-22 12:05:23 GMT 54.461929 -0.481401 35,975 304 457 0
2018-04-22 12:05:20 GMT 54.457489 -0.469746 35,975 304 457 0
2018-04-22 12:05:17 GMT 54.455063 -0.463849 35,975 304 457 0
2018-04-22 12:05:14 GMT 54.450806 -0.452782 36,000 304 457 0
2018-04-22 12:05:09 GMT 54.445076 -0.438038 35,975 304 457 0
2018-04-22 12:05:06 GMT 54.440979 -0.427135 36,000 304 458 0
2018-04-22 12:05:03 GMT 54.439304 -0.422807 36,000 304 458 0
2018-04-22 12:05:00 GMT 54.434834 -0.411321 36,000 304 458 0
2018-04-22 12:04:57 GMT 54.431625 -0.402536 36,000 304 458 0
2018-04-22 12:04:54 GMT 54.428009 -0.392761 36,000 304 459 0
2018-04-22 12:04:51 GMT 54.424255 -0.383714 36,000 304 459 0
2018-04-22 12:04:47 GMT 54.420403 -0.373119 36,000 304 459 0
2018-04-22 12:04:44 GMT 54.415466 -0.360206 36,000 304 459 0
2018-04-22 12:04:40 GMT 54.411930 -0.351396 36,000 304 459 0
2018-04-22 12:04:37 GMT 54.408440 -0.342074 36,000 304 459 0
2018-04-22 12:04:34 GMT 54.403133 -0.328258 35,975 304 460 0
2018-04-22 12:04:30 GMT 54.400806 -0.322682 36,000 304 460 0
2018-04-22 12:04:27 GMT 54.397430 -0.313191 36,000 304 460 0
2018-04-22 12:04:24 GMT 54.393311 -0.302689 36,000 304 460 0
2018-04-22 12:04:20 GMT 54.387497 -0.287906 36,000 304 461 0
2018-04-22 12:04:17 GMT 54.385300 -0.281525 36,000 304 460 0
2018-04-22 12:04:14 GMT 54.380135 -0.268749 36,000 304 461 0
2018-04-22 12:04:11 GMT 54.378387 -0.264157 36,000 304 460 0
2018-04-22 12:04:07 GMT 54.373993 -0.253089 35,975 304 460 0
2018-04-22 12:04:04 GMT 54.369507 -0.240891 35,975 304 461 0
2018-04-22 12:04:00 GMT 54.365799 -0.231462 36,000 304 460 0
2018-04-22 12:03:57 GMT 54.361839 -0.221141 35,975 304 461 0
2018-04-22 12:03:54 GMT 54.357468 -0.209952 36,000 304 460 0
2018-04-22 12:03:51 GMT 54.354534 -0.202332 36,000 304 460 0
2018-04-22 12:03:48 GMT 54.350342 -0.191512 36,000 304 460 0
2018-04-22 12:03:45 GMT 54.348175 -0.185637 36,000 304 460 0
2018-04-22 12:03:42 GMT 54.343872 -0.174731 36,000 304 460 0
2018-04-22 12:03:39 GMT 54.339798 -0.164472 36,000 304 460 0
2018-04-22 12:03:36 GMT 54.337051 -0.157040 36,000 304 460 0
2018-04-22 12:03:33 GMT 54.332092 -0.144820 36,000 304 460 0
2018-04-22 12:03:29 GMT 54.327805 -0.132967 36,000 304 460 0
2018-04-22 12:03:25 GMT 54.324188 -0.124081 36,000 304 460 0
2018-04-22 12:03:22 GMT 54.320663 -0.114872 36,000 304 459 0
2018-04-22 12:03:19 GMT 54.317104 -0.106201 36,000 304 460 0
2018-04-22 12:03:16 GMT 54.313519 -0.096380 36,000 304 459 0
2018-04-22 12:03:13 GMT 54.308899 -0.084740 36,000 304 459 0
2018-04-22 12:03:10 GMT 54.306564 -0.078762 36,000 304 459 0
2018-04-22 12:03:07 GMT 54.302532 -0.068665 36,000 304 459 0
2018-04-22 12:03:04 GMT 54.298531 -0.057845 35,975 304 459 0
2018-04-22 12:03:00 GMT 54.293610 -0.045642 36,000 304 459 0
2018-04-22 12:02:57 GMT 54.290291 -0.036704 36,000 304 459 0
2018-04-22 12:02:54 GMT 54.287033 -0.028964 35,975 304 459 0
2018-04-22 12:02:51 GMT 54.284611 -0.022306 35,975 304 459 0
2018-04-22 12:02:48 GMT 54.279446 -0.009072 36,000 304 458 0
2018-04-22 12:02:44 GMT 54.276371 -0.001293 36,000 304 458 0
2018-04-22 12:02:41 GMT 54.272552 0.008083 35,975 304 458 0
2018-04-22 12:02:38 GMT 54.269165 0.017029 36,000 304 459 0
2018-04-22 12:02:35 GMT 54.264954 0.027858 36,000 304 459 0
2018-04-22 12:02:32 GMT 54.261894 0.035382 36,000 304 458 0
2018-04-22 12:02:29 GMT 54.257446 0.047084 36,000 304 458 0
2018-04-22 12:02:26 GMT 54.253887 0.055820 35,975 304 459 0
2018-04-22 12:02:23 GMT 54.250443 0.064868 35,975 304 459 0
2018-04-22 12:02:20 GMT 54.248116 0.070846 35,975 304 459 0
2018-04-22 12:02:17 GMT 54.244762 0.079247 35,975 304 459 0
2018-04-22 12:02:14 GMT 54.239502 0.092495 35,975 304 458 0
2018-04-22 12:02:11 GMT 54.237122 0.098877 36,000 304 458 0
2018-04-22 12:02:08 GMT 54.232727 0.110177 36,000 304 458 0
2018-04-22 12:02:04 GMT 54.228329 0.121334 36,000 304 459 0
2018-04-22 12:02:01 GMT 54.225220 0.129482 35,975 304 459 0
2018-04-22 12:01:57 GMT 54.220741 0.140560 36,000 304 459 0
2018-04-22 12:01:54 GMT 54.216293 0.152239 35,975 304 459 0
2018-04-22 12:01:51 GMT 54.212952 0.160008 35,975 304 459 0
2018-04-22 12:01:48 GMT 54.210068 0.167855 35,975 304 459 0
2018-04-22 12:01:45 GMT 54.206085 0.177979 36,000 304 459 -64
2018-04-22 12:01:42 GMT 54.201424 0.189676 35,975 305 459 -64
2018-04-22 12:01:39 GMT 54.200134 0.193045 35,975 305 459 -64
2018-04-22 12:01:36 GMT 54.195602 0.204503 35,975 304 460 0
2018-04-22 12:01:33 GMT 54.192307 0.212742 36,000 304 460 -64
2018-04-22 12:01:30 GMT 54.188782 0.221924 36,000 304 460 0
2018-04-22 12:01:27 GMT 54.185165 0.230791 36,000 304 460 0
2018-04-22 12:01:24 GMT 54.181641 0.239973 36,000 304 460 0
2018-04-22 12:01:21 GMT 54.177307 0.250989 36,000 304 460 0
2018-04-22 12:01:18 GMT 54.173908 0.259390 36,000 304 460 0
2018-04-22 12:01:14 GMT 54.169510 0.270578 36,000 304 460 0
2018-04-22 12:01:11 GMT 54.165527 0.280701 36,000 304 460 0
2018-04-22 12:01:08 GMT 54.161900 0.290007 36,000 304 460 0
2018-04-22 12:01:05 GMT 54.159477 0.296065 36,000 304 460 0
2018-04-22 12:01:02 GMT 54.155548 0.306048 36,000 305 460 0
2018-04-22 12:00:59 GMT 54.152588 0.313433 35,975 305 460 0
2018-04-22 12:00:56 GMT 54.147720 0.325745 35,975 305 460 0
2018-04-22 12:00:52 GMT 54.143559 0.336376 35,975 304 461 0
2018-04-22 12:00:49 GMT 54.139206 0.347403 35,975 304 461 0
2018-04-22 12:00:45 GMT 54.134628 0.358861 35,975 304 461 0
2018-04-22 12:00:42 GMT 54.131058 0.367885 36,000 304 461 0
2018-04-22 12:00:39 GMT 54.126705 0.379028 36,000 305 462 0
2018-04-22 12:00:36 GMT 54.124241 0.385006 36,000 305 462 0
2018-04-22 12:00:33 GMT 54.120792 0.394054 36,000 305 462 0
2018-04-22 12:00:30 GMT 54.116547 0.404532 36,000 305 462 0
2018-04-22 12:00:27 GMT 54.113663 0.411830 36,000 305 462 0
2018-04-22 12:00:24 GMT 54.109589 0.421953 35,975 305 468 0
2018-04-22 12:00:21 GMT 54.106018 0.430978 36,000 305 462 0
2018-04-22 12:00:18 GMT 54.102779 0.439211 36,000 304 463 0
2018-04-22 12:00:15 GMT 54.100296 0.445339 36,000 304 463 0
2018-04-22 12:00:12 GMT 54.095142 0.458437 36,000 305 463 0
2018-04-22 12:00:09 GMT 54.092606 0.464800 36,000 305 463 0
2018-04-22 12:00:06 GMT 54.088074 0.476179 36,000 305 463 0
2018-04-22 12:00:03 GMT 54.084110 0.486145 36,000 305 464 0
2018-04-22 11:59:59 GMT 54.079926 0.496739 36,000 305 464 0
2018-04-22 11:59:56 GMT 54.076309 0.505763 36,000 305 465 0
2018-04-22 11:59:52 GMT 54.071354 0.517973 36,000 305 465 0
2018-04-22 11:59:49 GMT 54.067383 0.528128 36,000 305 465 0
2018-04-22 11:59:46 GMT 54.064270 0.535819 36,000 305 465 0
2018-04-22 11:59:43 GMT 54.060883 0.544373 36,000 305 465 0
2018-04-22 11:59:39 GMT 54.055069 0.558890 36,000 305 465 0
2018-04-22 11:59:35 GMT 54.051338 0.568139 35,975 305 465 0
2018-04-22 11:59:32 GMT 54.046543 0.580175 36,000 305 465 0
2018-04-22 11:59:28 GMT 54.041981 0.591808 36,000 305 465 0
2018-04-22 11:59:24 GMT 54.037354 0.603463 36,000 305 465 0
2018-04-22 11:59:21 GMT 54.034103 0.611468 36,000 305 465 0
2018-04-22 11:59:18 GMT 54.029709 0.622375 36,000 305 465 0
2018-04-22 11:59:15 GMT 54.027176 0.628725 36,000 305 466 0
2018-04-22 11:59:12 GMT 54.024059 0.636480 36,000 305 466 0
2018-04-22 11:59:09 GMT 54.019451 0.648032 36,000 305 465 0
2018-04-22 11:59:05 GMT 54.014095 0.661199 36,000 305 465 0
2018-04-22 11:59:01 GMT 54.010464 0.670974 36,000 305 466 0
2018-04-22 11:58:58 GMT 54.006599 0.680021 35,975 305 467 0
2018-04-22 11:58:55 GMT 54.001877 0.691589 35,975 305 467 0
2018-04-22 11:58:52 GMT 53.999954 0.696612 36,000 305 467 0
2018-04-22 11:58:49 GMT 53.995941 0.706437 36,000 305 467 0
2018-04-22 11:58:46 GMT 53.990772 0.719201 36,000 305 467 0
2018-04-22 11:58:43 GMT 53.988819 0.724613 35,975 305 466 0
2018-04-22 11:58:40 GMT 53.983017 0.738831 36,000 305 466 0
2018-04-22 11:58:37 GMT 53.981182 0.743274 35,975 305 466 0
2018-04-22 11:58:34 GMT 53.977783 0.751836 36,000 305 466 0
2018-04-22 11:58:31 GMT 53.973640 0.762177 35,975 305 466 0
2018-04-22 11:58:28 GMT 53.970200 0.770926 36,000 305 467 0
2018-04-22 11:58:24 GMT 53.965805 0.782227 35,975 305 465 0
2018-04-22 11:58:21 GMT 53.960838 0.794085 35,975 305 467 0
2018-04-22 11:58:18 GMT 53.958252 0.800668 35,975 305 467 0
2018-04-22 11:58:14 GMT 53.952740 0.814119 35,975 305 467 0
2018-04-22 11:58:10 GMT 53.948784 0.824379 36,000 305 468 0
2018-04-22 11:58:07 GMT 53.943924 0.836060 36,000 305 467 0
2018-04-22 11:58:04 GMT 53.940308 0.845319 36,000 305 467 0
2018-04-22 11:58:01 GMT 53.936169 0.855803 36,000 305 468 0
2018-04-22 11:57:58 GMT 53.934219 0.860386 36,000 305 468 0
2018-04-22 11:57:53 GMT 53.926620 0.878906 36,000 305 468 0
2018-04-22 11:57:49 GMT 53.922527 0.889731 36,000 305 468 0
2018-04-22 11:57:46 GMT 53.918106 0.900408 36,000 305 468 0
2018-04-22 11:57:42 GMT 53.914616 0.908957 36,000 305 468 0
2018-04-22 11:57:39 GMT 53.910332 0.919782 36,000 305 468 0
2018-04-22 11:57:36 GMT 53.907772 0.925921 36,000 305 468 0
2018-04-22 11:57:33 GMT 53.903503 0.936428 36,000 305 468 0
2018-04-22 11:57:30 GMT 53.899204 0.947086 36,000 305 468 0
2018-04-22 11:57:27 GMT 53.894989 0.957615 36,000 305 468 0
2018-04-22 11:57:24 GMT 53.891373 0.966640 35,975 305 468 0
2018-04-22 11:57:21 GMT 53.887985 0.974956 36,000 305 468 0
2018-04-22 11:57:18 GMT 53.885334 0.982065 36,000 305 468 0
2018-04-22 11:57:15 GMT 53.880726 0.992970 35,975 305 468 0
2018-04-22 11:57:12 GMT 53.877365 1.001011 35,975 305 468 0
2018-04-22 11:57:09 GMT 53.874207 1.009487 35,975 305 468 0
2018-04-22 11:57:05 GMT 53.869270 1.021244 36,000 305 468 0
2018-04-22 11:57:02 GMT 53.865692 1.030204 35,975 305 466 0
2018-04-22 11:56:58 GMT 53.857910 1.049273 36,000 305 467 0
2018-04-22 11:56:55 GMT 53.856564 1.052668 35,975 305 467 0
2018-04-22 11:56:52 GMT 53.853699 1.059553 36,000 305 467 0
2018-04-22 11:56:49 GMT 53.849579 1.069833 36,000 305 467 0
2018-04-22 11:56:46 GMT 53.845963 1.078779 35,975 305 466 0
2018-04-22 11:56:43 GMT 53.841751 1.089059 35,975 305 466 0
2018-04-22 11:56:40 GMT 53.838779 1.096452 36,000 305 466 0
2018-04-22 11:56:37 GMT 53.834473 1.107030 35,975 305 466 0
2018-04-22 11:56:33 GMT 53.829575 1.119036 35,975 305 465 0
2018-04-22 11:56:29 GMT 53.825840 1.128280 36,000 305 465 0
2018-04-22 11:56:26 GMT 53.821838 1.138341 36,000 305 465 0
2018-04-22 11:56:22 GMT 53.817123 1.149641 36,000 305 465 0
2018-04-22 11:56:19 GMT 53.813175 1.159381 36,000 305 465 0
2018-04-22 11:56:16 GMT 53.809387 1.168710 36,000 305 465 0
2018-04-22 11:56:12 GMT 53.804947 1.179618 36,000 305 465 0
2018-04-22 11:56:08 GMT 53.800003 1.191774 36,000 305 462 0
2018-04-22 11:56:05 GMT 53.795975 1.201590 36,000 305 465 0
2018-04-22 11:56:02 GMT 53.790924 1.213747 36,000 305 465 0
2018-04-22 11:55:59 GMT 53.789017 1.219321 36,000 305 465 0
2018-04-22 11:55:55 GMT 53.782730 1.234104 36,000 305 464 0
2018-04-22 11:55:51 GMT 53.779266 1.242789 36,000 305 464 0
2018-04-22 11:55:48 GMT 53.775471 1.251957 36,000 305 464 0
2018-04-22 11:55:45 GMT 53.771046 1.262620 36,000 305 464 0
2018-04-22 11:55:41 GMT 53.767502 1.271354 36,000 305 463 0
2018-04-22 11:55:37 GMT 53.762108 1.284512 36,000 305 463 0
2018-04-22 11:55:34 GMT 53.758530 1.293248 36,000 305 463 0
2018-04-22 11:55:31 GMT 53.753777 1.304707 36,000 305 462 0
2018-04-22 11:55:28 GMT 53.750145 1.313755 36,000 305 462 0
2018-04-22 11:55:25 GMT 53.747452 1.320164 36,000 303 458 0
2018-04-22 11:55:22 GMT 53.742836 1.331688 36,000 305 462 0
2018-04-22 11:55:19 GMT 53.738846 1.341431 35,975 305 462 0
2018-04-22 11:55:16 GMT 53.736420 1.347159 36,000 305 462 0
2018-04-22 11:55:13 GMT 53.733387 1.354792 36,000 305 462 0
2018-04-22 11:55:10 GMT 53.728638 1.366307 36,000 305 462 0
2018-04-22 11:55:07 GMT 53.725021 1.374939 35,975 305 461 0
2018-04-22 11:55:02 GMT 53.718475 1.391105 35,975 305 462 0
2018-04-22 11:54:58 GMT 53.713554 1.403180 35,975 305 462 0
2018-04-22 11:54:55 GMT 53.711040 1.409239 35,975 305 462 0
2018-04-22 11:54:52 GMT 53.707363 1.418610 35,975 306 461 0
2018-04-22 11:54:49 GMT 53.701824 1.431535 35,975 306 461 0
2018-04-22 11:54:46 GMT 53.699776 1.436058 35,975 306 461 0
2018-04-22 11:54:43 GMT 53.696320 1.444702 36,000 306 461 0
2018-04-22 11:54:40 GMT 53.691536 1.456254 35,975 303 458 0
2018-04-22 11:54:37 GMT 53.688721 1.462908 35,975 305 460 0
2018-04-22 11:54:34 GMT 53.685856 1.470229 35,975 304 459 0
2018-04-22 11:54:31 GMT 53.682690 1.478065 35,975 304 459 0
2018-04-22 11:54:28 GMT 53.677643 1.491316 36,000 302 458 0
2018-04-22 11:54:25 GMT 53.675079 1.498378 36,000 302 457 0
2018-04-22 11:54:22 GMT 53.671890 1.506985 36,000 301 456 0
2018-04-22 11:54:19 GMT 53.667572 1.519488 36,000 300 455 0
2018-04-22 11:54:15 GMT 53.664814 1.527261 36,000 298 453 0
2018-04-22 11:54:12 GMT 53.661465 1.537924 36,000 298 453 0
2018-04-22 11:54:09 GMT 53.658966 1.547110 35,975 297 451 0
2018-04-22 11:54:05 GMT 53.654938 1.560216 36,000 297 452 0
2018-04-22 11:54:02 GMT 53.652107 1.569914 36,000 297 452 0
2018-04-22 11:53:59 GMT 53.648987 1.580305 36,000 297 450 0
2018-04-22 11:53:56 GMT 53.646751 1.588090 36,000 297 451 0
2018-04-22 11:53:53 GMT 53.644379 1.596330 36,000 297 451 0
2018-04-22 11:53:50 GMT 53.641113 1.607300 36,000 297 451 0
2018-04-22 11:53:47 GMT 53.638699 1.615152 36,000 297 451 0
2018-04-22 11:53:44 GMT 53.636078 1.624407 36,000 297 451 0
2018-04-22 11:53:41 GMT 53.632320 1.637124 36,000 297 451 0
2018-04-22 11:53:37 GMT 53.629574 1.646737 36,000 297 450 0
2018-04-22 11:53:33 GMT 53.625366 1.660662 36,000 297 451 0
2018-04-22 11:53:28 GMT 53.620605 1.676592 36,000 297 451 0
2018-04-22 11:53:24 GMT 53.617237 1.688179 35,975 297 450 0
2018-04-22 11:53:21 GMT 53.613190 1.701831 36,000 297 450 0
2018-04-22 11:53:18 GMT 53.611633 1.707982 35,975 297 450 0
2018-04-22 11:53:13 GMT 53.607285 1.723127 36,000 297 450 0
2018-04-22 11:53:10 GMT 53.604218 1.732936 36,000 297 450 0
2018-04-22 11:53:07 GMT 53.601597 1.741414 36,000 297 450 0
2018-04-22 11:53:03 GMT 53.598267 1.753104 36,000 297 450 0
2018-04-22 11:53:00 GMT 53.595016 1.764326 36,000 297 449 0
2018-04-22 11:52:57 GMT 53.591728 1.775100 35,975 297 449 0
2018-04-22 11:52:54 GMT 53.588795 1.784632 36,000 297 449 0
2018-04-22 11:52:51 GMT 53.585632 1.795480 36,000 297 449 0
2018-04-22 11:52:48 GMT 53.583847 1.801758 36,000 297 449 0
2018-04-22 11:52:45 GMT 53.581512 1.809134 36,000 297 449 0
2018-04-22 11:52:42 GMT 53.578720 1.818551 36,000 297 449 0
2018-04-22 11:52:39 GMT 53.576294 1.827183 36,000 297 448 0
2018-04-22 11:52:35 GMT 53.572269 1.840695 36,000 297 449 0
2018-04-22 11:52:31 GMT 53.568192 1.854728 35,975 297 448 0
2018-04-22 11:52:28 GMT 53.565102 1.864929 36,000 297 448 0
2018-04-22 11:52:25 GMT 53.562973 1.872149 36,000 297 448 0
2018-04-22 11:52:22 GMT 53.559586 1.883292 36,000 297 447 0
2018-04-22 11:52:19 GMT 53.556610 1.893258 36,000 297 448 0
2018-04-22 11:52:16 GMT 53.553314 1.904480 36,000 297 448 0
2018-04-22 11:52:13 GMT 53.551575 1.910444 36,000 297 448 0
2018-04-22 11:52:10 GMT 53.548737 1.919939 36,000 297 448 0
2018-04-22 11:52:06 GMT 53.545315 1.931413 36,000 297 447 0
2018-04-22 11:52:02 GMT 53.541080 1.945792 36,000 297 447 0
2018-04-22 11:51:59 GMT 53.539398 1.951486 36,000 297 447 0
2018-04-22 11:51:55 GMT 53.533863 1.969865 35,975 297 446 0
2018-04-22 11:51:52 GMT 53.532578 1.974557 36,000 297 447 0
2018-04-22 11:51:49 GMT 53.529488 1.984729 36,000 297 447 0
2018-04-22 11:51:46 GMT 53.525249 1.998946 36,000 297 446 0
2018-04-22 11:51:43 GMT 53.522877 2.006378 35,975 297 446 0
2018-04-22 11:51:40 GMT 53.520309 2.015363 35,975 297 446 0
2018-04-22 11:51:36 GMT 53.517838 2.023368 35,975 297 446 0
2018-04-22 11:51:33 GMT 53.514729 2.034248 35,975 297 446 0
2018-04-22 11:51:30 GMT 53.511795 2.043771 35,975 297 446 0
2018-04-22 11:51:27 GMT 53.509689 2.051226 35,975 297 446 0
2018-04-22 11:51:24 GMT 53.506863 2.060825 36,000 297 446 0
2018-04-22 11:51:20 GMT 53.502823 2.074062 36,000 297 445 0
2018-04-22 11:51:17 GMT 53.499832 2.084252 36,000 297 446 0
2018-04-22 11:51:14 GMT 53.496948 2.093542 36,000 297 445 0
2018-04-22 11:51:11 GMT 53.494171 2.103019 36,000 297 445 0
2018-04-22 11:51:08 GMT 53.490707 2.114383 36,000 297 445 0
2018-04-22 11:51:05 GMT 53.488632 2.121068 36,000 297 445 0
2018-04-22 11:51:01 GMT 53.484695 2.134408 36,000 297 445 0
2018-04-22 11:50:58 GMT 53.482517 2.142172 35,975 297 444 0
2018-04-22 11:50:55 GMT 53.480186 2.149443 36,000 297 444 0
2018-04-22 11:50:51 GMT 53.475266 2.166425 36,000 297 444 0
2018-04-22 11:50:47 GMT 53.472198 2.176156 36,000 297 444 0
2018-04-22 11:50:44 GMT 53.470039 2.183371 36,000 297 444 0
2018-04-22 11:50:41 GMT 53.466686 2.194277 36,000 297 444 0
2018-04-22 11:50:38 GMT 53.463757 2.204294 35,975 297 444 0
2018-04-22 11:50:35 GMT 53.461056 2.212776 35,975 297 444 0
2018-04-22 11:50:31 GMT 53.457367 2.224731 35,975 297 444 0
2018-04-22 11:50:28 GMT 53.453655 2.237333 35,975 297 444 0
2018-04-22 11:50:24 GMT 53.450958 2.246704 35,975 297 444 0
2018-04-22 11:50:21 GMT 53.448578 2.254865 35,975 297 444 0
2018-04-22 11:50:18 GMT 53.445553 2.264880 35,975 297 444 0
2018-04-22 11:50:15 GMT 53.441711 2.277466 36,000 297 443 0
2018-04-22 11:50:12 GMT 53.439129 2.285641 36,000 297 443 0
2018-04-22 11:50:09 GMT 53.436939 2.293315 36,000 297 444 0
2018-04-22 11:50:06 GMT 53.434525 2.301165 36,000 297 444 0
2018-04-22 11:50:03 GMT 53.431587 2.310926 36,000 297 444 0
2018-04-22 11:50:00 GMT 53.428703 2.320781 36,000 297 444 0
2018-04-22 11:49:57 GMT 53.426422 2.328294 36,000 298 444 0
2018-04-22 11:49:54 GMT 53.421997 2.342673 36,000 297 444 0
2018-04-22 11:49:51 GMT 53.418549 2.353978 35,975 297 443 0
2018-04-22 11:49:48 GMT 53.416832 2.359799 35,975 297 444 0
2018-04-22 11:49:45 GMT 53.413193 2.371713 35,975 297 444 0
2018-04-22 11:49:41 GMT 53.409428 2.384276 35,975 297 444 0
2018-04-22 11:49:37 GMT 53.406555 2.393685 36,000 298 444 0
2018-04-22 11:49:34 GMT 53.403843 2.402613 36,000 297 444 0
2018-04-22 11:49:30 GMT 53.399094 2.418169 36,000 297 444 0
2018-04-22 11:49:27 GMT 53.397629 2.423035 36,000 297 444 0
2018-04-22 11:49:24 GMT 53.394470 2.433472 36,000 297 444 0
2018-04-22 11:49:21 GMT 53.391552 2.442923 36,000 297 444 0
2018-04-22 11:49:18 GMT 53.388702 2.452384 36,000 298 444 0
2018-04-22 11:49:15 GMT 53.386013 2.461261 35,975 298 444 0
2018-04-22 11:49:12 GMT 53.382935 2.471375 35,975 297 445 0
2018-04-22 11:49:08 GMT 53.378815 2.484794 36,000 298 444 0
2018-04-22 11:49:05 GMT 53.377075 2.490584 36,000 298 444 0
2018-04-22 11:49:02 GMT 53.374653 2.498582 35,975 297 445 0
2018-04-22 11:48:58 GMT 53.370373 2.512638 35,975 297 445 0
2018-04-22 11:48:55 GMT 53.367462 2.522069 35,975 297 445 0
2018-04-22 11:48:51 GMT 53.364040 2.533399 35,975 297 445 0
2018-04-22 11:48:48 GMT 53.360317 2.545678 35,975 297 445 0
2018-04-22 11:48:45 GMT 53.357525 2.554806 35,975 297 445 0
2018-04-22 11:48:42 GMT 53.354416 2.564915 36,000 297 445 0
2018-04-22 11:48:39 GMT 53.352356 2.571664 35,975 298 445 0
2018-04-22 11:48:35 GMT 53.347687 2.586966 36,000 298 445 -64
2018-04-22 11:48:31 GMT 53.345745 2.593339 36,000 298 445 0
2018-04-22 11:48:28 GMT 53.342651 2.603446 36,000 298 445 0
2018-04-22 11:48:25 GMT 53.339813 2.612627 36,000 298 445 0
2018-04-22 11:48:22 GMT 53.336948 2.622097 36,000 298 445 0
2018-04-22 11:48:16 GMT 53.330009 2.644716 36,000 298 445 0
2018-04-22 11:48:13 GMT 53.327217 2.653844 36,000 298 445 0
2018-04-22 11:48:07 GMT 53.322887 2.667901 36,000 298 445 0
2018-04-22 11:48:03 GMT 53.319214 2.679801 36,000 298 445 0
2018-04-22 11:48:00 GMT 53.316788 2.687727 36,000 298 445 0
2018-04-22 11:47:55 GMT 53.312119 2.703029 35,975 298 445 0
2018-04-22 11:47:52 GMT 53.308548 2.714643 36,000 298 445 0
2018-04-22 11:47:48 GMT 53.304062 2.729318 36,000 298 445 0
2018-04-22 11:47:45 GMT 53.302265 2.735111 35,975 298 445 0
2018-04-22 11:47:42 GMT 53.298679 2.746663 35,975 298 447 0
2018-04-22 11:47:39 GMT 53.295887 2.755872 36,000 298 445 0
2018-04-22 11:47:34 GMT 53.291290 2.770830 36,000 298 445 0
2018-04-22 11:47:31 GMT 53.288345 2.780268 36,000 298 445 0
2018-04-22 11:47:28 GMT 53.285740 2.788831 36,000 298 445 0
2018-04-22 11:47:25 GMT 53.283085 2.797394 36,000 298 445 0
2018-04-22 11:47:22 GMT 53.279316 2.809592 36,000 298 446 0
2018-04-22 11:47:19 GMT 53.277081 2.816943 36,000 298 446 0
2018-04-22 11:47:15 GMT 53.273495 2.828495 36,000 298 446 0
2018-04-22 11:47:11 GMT 53.270100 2.839481 36,000 298 446 0
2018-04-22 11:47:08 GMT 53.267349 2.848363 36,000 298 446 0
2018-04-22 11:47:05 GMT 53.264923 2.856288 36,000 298 446 0
2018-04-22 11:47:02 GMT 53.261997 2.865735 36,000 298 446 0
2018-04-22 11:46:59 GMT 53.257996 2.878580 36,000 298 446 0
2018-04-22 11:46:56 GMT 53.255154 2.887789 36,000 298 446 0
2018-04-22 11:46:53 GMT 53.253292 2.893847 35,975 298 446 0
2018-04-22 11:46:50 GMT 53.251011 2.901198 35,975 298 446 0
2018-04-22 11:46:47 GMT 53.247711 2.911926 35,975 298 447 0
2018-04-22 11:46:44 GMT 53.244774 2.921394 35,975 298 447 0
2018-04-22 11:46:41 GMT 53.241806 2.930838 35,975 298 447 0
2018-04-22 11:46:38 GMT 53.238419 2.941825 35,975 298 447 0
2018-04-22 11:46:35 GMT 53.235649 2.950718 36,000 298 447 0
2018-04-22 11:46:31 GMT 53.232330 2.961443 36,000 298 446 0
2018-04-22 11:46:28 GMT 53.229782 2.969621 36,000 298 446 0
2018-04-22 11:46:25 GMT 53.225780 2.982465 36,000 298 447 0
2018-04-22 11:46:22 GMT 53.223587 2.989537 36,000 298 447 0
2018-04-22 11:46:19 GMT 53.220200 3.000523 35,975 298 447 0
2018-04-22 11:46:16 GMT 53.217819 3.008154 36,000 298 447 0
2018-04-22 11:46:13 GMT 53.215439 3.015747 36,000 298 446 0
2018-04-22 11:46:10 GMT 53.211723 3.027622 36,000 298 446 0
2018-04-22 11:46:07 GMT 53.209717 3.034031 36,000 298 446 0
2018-04-22 11:46:03 GMT 53.206100 3.045567 36,000 298 446 0
2018-04-22 11:45:59 GMT 53.201855 3.059288 36,000 298 445 0
2018-04-22 11:45:56 GMT 53.198826 3.069063 36,000 298 444 0
2018-04-22 11:45:53 GMT 53.196358 3.076980 36,000 298 445 0
2018-04-22 11:45:50 GMT 53.193100 3.087320 36,000 298 445 0
2018-04-22 11:45:47 GMT 53.190262 3.096448 36,000 298 445 0
2018-04-22 11:45:44 GMT 53.187981 3.103718 36,000 298 445 0
2018-04-22 11:45:41 GMT 53.184582 3.114624 35,975 298 445 0
2018-04-22 11:45:38 GMT 53.181744 3.123752 35,975 298 442 0
2018-04-22 11:45:35 GMT 53.178902 3.132881 36,000 298 445 0
2018-04-22 11:45:31 GMT 53.175018 3.145307 36,000 298 445 0
2018-04-22 11:45:28 GMT 53.172619 3.152915 35,975 298 442 0
2018-04-22 11:45:25 GMT 53.168564 3.165946 36,000 298 445 0
2018-04-22 11:45:19 GMT 53.163620 3.181719 35,975 298 444 0
2018-04-22 11:45:16 GMT 53.161633 3.188055 35,975 298 443 0
2018-04-22 11:45:11 GMT 53.155579 3.207442 35,975 298 445 0
2018-04-22 11:45:08 GMT 53.153297 3.214713 35,975 298 444 0
2018-04-22 11:45:05 GMT 53.149979 3.225272 36,000 298 443 0
2018-04-22 11:45:02 GMT 53.147919 3.231942 36,000 298 445 0
2018-04-22 11:44:58 GMT 53.144073 3.244027 36,000 298 444 0
2018-04-22 11:44:55 GMT 53.141785 3.251325 36,000 298 442 0
2018-04-22 11:44:51 GMT 53.136959 3.266655 36,000 298 443 0
2018-04-22 11:44:48 GMT 53.134304 3.275138 36,000 298 442 0
2018-04-22 11:44:45 GMT 53.132023 3.282327 36,000 298 443 0
2018-04-22 11:44:40 GMT 53.126404 3.300136 36,000 298 438 0
2018-04-22 11:44:37 GMT 53.124065 3.307693 36,000 298 442 0
2018-04-22 11:44:32 GMT 53.119316 3.322718 36,000 298 442 0
2018-04-22 11:44:27 GMT 53.114380 3.338309 36,000 298 442 0
2018-04-22 11:44:24 GMT 53.112030 3.345886 36,000 298 442 0
2018-04-22 11:44:21 GMT 53.107269 3.360875 36,000 298 442 0
2018-04-22 11:44:18 GMT 53.106049 3.364805 35,975 298 441 0
2018-04-22 11:44:15 GMT 53.103516 3.372960 36,000 298 442 0
2018-04-22 11:44:11 GMT 53.099625 3.385243 36,000 298 442 0
2018-04-22 11:44:07 GMT 53.095432 3.398411 36,000 298 441 0
2018-04-22 11:44:04 GMT 53.092781 3.406860 36,000 298 441 0
2018-04-22 11:44:00 GMT 53.088825 3.419416 36,000 298 437 0
2018-04-22 11:43:57 GMT 53.086544 3.426636 36,000 298 441 0
2018-04-22 11:43:54 GMT 53.083786 3.435287 35,975 298 441 0
2018-04-22 11:43:49 GMT 53.078293 3.452682 35,975 298 441 0
2018-04-22 11:43:46 GMT 53.075325 3.461949 36,000 298 439 0
2018-04-22 11:43:43 GMT 53.072021 3.472443 35,975 298 439 0
2018-04-22 11:43:40 GMT 53.069458 3.480469 35,975 298 440 0
2018-04-22 11:43:37 GMT 53.066895 3.488541 35,975 298 440 0
2018-04-22 11:43:34 GMT 53.063507 3.499298 36,000 298 439 0
2018-04-22 11:43:31 GMT 53.061630 3.505249 36,000 298 439 0
2018-04-22 11:43:28 GMT 53.058891 3.513899 36,000 298 438 0
2018-04-22 11:43:25 GMT 53.056049 3.522845 36,000 298 439 0
2018-04-22 11:43:22 GMT 53.053165 3.531712 36,000 298 439 0
2018-04-22 11:43:19 GMT 53.049580 3.543012 36,000 298 439 0
2018-04-22 11:43:16 GMT 53.047211 3.550415 36,000 298 438 0
2018-04-22 11:43:13 GMT 53.044373 3.559341 36,000 298 437 0
2018-04-22 11:43:09 GMT 53.041168 3.569412 36,000 298 437 0
2018-04-22 11:43:06 GMT 53.037003 3.582458 35,975 298 437 0
2018-04-22 11:43:03 GMT 53.034264 3.591038 36,000 298 437 0
2018-04-22 11:43:00 GMT 53.031982 3.598179 36,000 298 437 0
2018-04-22 11:42:57 GMT 53.029449 3.606186 35,975 298 437 0
2018-04-22 11:42:54 GMT 53.026245 3.616180 35,975 298 437 0
2018-04-22 11:42:51 GMT 53.022766 3.627136 36,000 298 437 0
2018-04-22 11:42:47 GMT 53.020115 3.635454 36,000 298 437 0
2018-04-22 11:42:43 GMT 53.016403 3.646927 36,000 298 437 0
2018-04-22 11:42:40 GMT 53.012897 3.657898 36,000 298 437 0
2018-04-22 11:42:37 GMT 53.010662 3.664961 35,975 298 436 0
2018-04-22 11:42:34 GMT 53.007889 3.673477 36,000 298 436 0
2018-04-22 11:42:31 GMT 53.004501 3.684158 36,000 298 437 0
2018-04-22 11:42:26 GMT 52.997070 3.707493 36,000 298 436 0
2018-04-22 11:42:22 GMT 52.995159 3.713379 36,000 298 437 0
2018-04-22 11:42:19 GMT 52.992599 3.721313 35,975 299 437 0
2018-04-22 11:42:16 GMT 52.990723 3.727264 35,975 298 437 0
2018-04-22 11:42:12 GMT 52.986008 3.741989 36,000 298 437 0
2018-04-22 11:42:08 GMT 52.982620 3.752594 36,000 298 437 0
2018-04-22 11:42:04 GMT 52.978821 3.764420 36,000 298 437 0
2018-04-22 11:42:01 GMT 52.976532 3.771439 36,000 298 437 0
2018-04-22 11:41:58 GMT 52.973236 3.781808 36,000 298 437 0
2018-04-22 11:41:55 GMT 52.970768 3.789420 36,000 299 436 0
2018-04-22 11:41:51 GMT 52.967056 3.800964 36,000 299 437 0
2018-04-22 11:41:48 GMT 52.964218 3.809814 36,000 299 437 0
2018-04-22 11:41:45 GMT 52.961563 3.818054 36,000 299 437 0
2018-04-22 11:41:42 GMT 52.957764 3.829803 36,000 299 437 0
2018-04-22 11:41:39 GMT 52.954659 3.839565 36,000 299 437 0
2018-04-22 11:41:34 GMT 52.950943 3.851013 36,000 298 437 0
2018-04-22 11:41:30 GMT 52.947144 3.862839 35,975 299 437 0
2018-04-22 11:41:27 GMT 52.944305 3.871689 36,000 299 438 0
2018-04-22 11:41:24 GMT 52.940277 3.884048 36,000 299 438 0
2018-04-22 11:41:21 GMT 52.937901 3.891436 36,000 299 438 0
2018-04-22 11:41:18 GMT 52.935516 3.898773 36,000 299 438 0
2018-04-22 11:41:14 GMT 52.931808 3.909988 36,000 299 439 -64
2018-04-22 11:41:11 GMT 52.928329 3.920593 36,000 299 439 0
2018-04-22 11:41:08 GMT 52.925995 3.927612 36,000 298 438 0
2018-04-22 11:41:05 GMT 52.922745 3.937683 35,975 298 438 0
2018-04-22 11:41:02 GMT 52.919888 3.946838 36,000 297 438 0
2018-04-22 11:40:59 GMT 52.917324 3.955235 36,000 296 438 0
2018-04-22 11:40:55 GMT 52.913834 3.967320 36,000 296 438 0
2018-04-22 11:40:51 GMT 52.910431 3.979111 36,000 296 438 0
2018-04-22 11:40:48 GMT 52.907822 3.988190 36,000 296 438 0
2018-04-22 11:40:45 GMT 52.905762 3.995438 36,000 296 438 0
2018-04-22 11:40:41 GMT 52.901127 4.011422 36,000 296 438 0
2018-04-22 11:40:38 GMT 52.898438 4.020844 36,000 296 439 0
2018-04-22 11:40:34 GMT 52.896332 4.028091 36,000 296 439 0
2018-04-22 11:40:31 GMT 52.893070 4.039280 35,975 296 440 0
2018-04-22 11:40:28 GMT 52.890465 4.048383 35,975 296 439 -64
2018-04-22 11:40:25 GMT 52.888184 4.056231 36,000 296 439 0
2018-04-22 11:40:22 GMT 52.885578 4.065334 35,975 296 439 0
2018-04-22 11:40:19 GMT 52.882271 4.076791 35,975 296 439 -64
2018-04-22 11:40:16 GMT 52.879211 4.087372 35,975 296 439 0
2018-04-22 11:40:13 GMT 52.877571 4.093192 35,975 296 438 -64
2018-04-22 11:40:10 GMT 52.873940 4.105905 35,975 296 438 0
2018-04-22 11:40:07 GMT 52.872299 4.111633 35,975 296 438 0
2018-04-22 11:40:04 GMT 52.869099 4.122855 35,975 296 438 0
2018-04-22 11:40:01 GMT 52.866863 4.130702 35,975 296 438 0
2018-04-22 11:39:58 GMT 52.863789 4.141610 35,975 296 439 0
2018-04-22 11:39:55 GMT 52.861588 4.149170 36,000 296 438 0
2018-04-22 11:39:52 GMT 52.859344 4.157028 36,000 296 438 0
2018-04-22 11:39:49 GMT 52.856873 4.165497 36,000 296 439 0
2018-04-22 11:39:46 GMT 52.853897 4.175720 36,000 296 438 0
2018-04-22 11:39:43 GMT 52.851608 4.183578 36,000 296 438 0
2018-04-22 11:39:40 GMT 52.848633 4.193878 36,000 296 438 0
2018-04-22 11:39:37 GMT 52.845261 4.205645 35,975 296 438 0
2018-04-22 11:39:34 GMT 52.843414 4.211960 36,000 296 438 0
2018-04-22 11:39:31 GMT 52.841400 4.218907 36,000 296 438 0
2018-04-22 11:39:28 GMT 52.838379 4.229507 36,000 296 438 0
2018-04-22 11:39:25 GMT 52.835674 4.238839 36,000 296 438 0
2018-04-22 11:39:22 GMT 52.833298 4.246979 36,000 296 438 0
2018-04-22 11:39:19 GMT 52.829819 4.259033 36,000 296 437 0
2018-04-22 11:39:16 GMT 52.827618 4.266541 36,000 296 437 0
2018-04-22 11:39:13 GMT 52.825199 4.274937 36,000 296 437 0
2018-04-22 11:39:10 GMT 52.821625 4.287338 36,000 296 437 0
2018-04-22 11:39:07 GMT 52.819798 4.293614 36,000 296 437 0
2018-04-22 11:39:04 GMT 52.817276 4.302368 36,000 296 437 0
2018-04-22 11:39:01 GMT 52.814484 4.311981 36,000 296 437 0
2018-04-22 11:38:58 GMT 52.812561 4.318619 36,000 296 436 0
2018-04-22 11:38:55 GMT 52.808716 4.331818 36,000 296 437 0
2018-04-22 11:38:52 GMT 52.806904 4.338109 36,000 296 437 0
2018-04-22 11:38:48 GMT 52.803452 4.349823 36,000 296 437 0
2018-04-22 11:38:45 GMT 52.800945 4.358512 35,975 296 437 0
2018-04-22 11:38:42 GMT 52.797134 4.371414 35,975 296 436 0
2018-04-22 11:38:39 GMT 52.794987 4.378915 35,975 296 437 0
2018-04-22 11:38:36 GMT 52.793545 4.383702 36,000 296 436 0
2018-04-22 11:38:33 GMT 52.789726 4.396885 36,000 296 436 0
2018-04-22 11:38:30 GMT 52.787888 4.403229 36,000 296 436 0
2018-04-22 11:38:27 GMT 52.785095 4.412766 36,000 296 436 0
2018-04-22 11:38:23 GMT 52.781067 4.426575 35,975 296 435 0
2018-04-22 11:38:20 GMT 52.778740 4.434631 35,975 296 436 0
2018-04-22 11:38:17 GMT 52.775848 4.444504 36,000 296 436 0
2018-04-22 11:38:14 GMT 52.773560 4.452286 36,000 296 436 0
2018-04-22 11:38:11 GMT 52.770584 4.462433 36,000 296 436 0
2018-04-22 11:38:08 GMT 52.768661 4.469070 36,000 296 436 0
2018-04-22 11:38:05 GMT 52.765686 4.479218 36,000 296 436 0
2018-04-22 11:38:02 GMT 52.763077 4.488144 36,000 296 436 0
2018-04-22 11:37:59 GMT 52.760723 4.496233 36,000 296 436 0
2018-04-22 11:37:56 GMT 52.757557 4.506984 36,000 297 436 0
2018-04-22 11:37:53 GMT 52.755020 4.515610 36,000 296 435 0
2018-04-22 11:37:49 GMT 52.751541 4.527588 36,000 296 435 0
2018-04-22 11:37:46 GMT 52.749252 4.535294 36,000 296 435 0
2018-04-22 11:37:43 GMT 52.746460 4.544830 36,000 296 435 0
2018-04-22 11:37:40 GMT 52.744034 4.553223 36,000 296 435 0
2018-04-22 11:37:37 GMT 52.740509 4.565125 36,000 296 435 0
2018-04-22 11:37:33 GMT 52.737900 4.574127 36,000 296 435 0
2018-04-22 11:37:30 GMT 52.734982 4.583967 36,000 296 436 0
2018-04-22 11:37:27 GMT 52.732372 4.592913 36,000 296 436 0
2018-04-22 11:37:24 GMT 52.729721 4.601780 36,000 296 435 0
2018-04-22 11:37:21 GMT 52.726227 4.613708 36,000 296 435 0
2018-04-22 11:37:18 GMT 52.724396 4.619980 36,000 296 435 0
2018-04-22 11:37:15 GMT 52.722366 4.626892 36,000 296 435 0
2018-04-22 11:37:12 GMT 52.718948 4.638519 36,000 296 435 0
2018-04-22 11:37:08 GMT 52.715057 4.651642 36,000 296 436 0
2018-04-22 11:37:05 GMT 52.713242 4.657889 36,000 296 436 0
2018-04-22 11:37:02 GMT 52.710587 4.666835 36,000 296 436 0
2018-04-22 11:36:59 GMT 52.707607 4.676958 36,000 296 436 0
2018-04-22 11:36:55 GMT 52.704163 4.688568 36,000 296 436 0
2018-04-22 11:36:52 GMT 52.701370 4.698105 36,000 296 436 0
2018-04-22 11:36:49 GMT 52.698811 4.706778 35,975 296 436 0
2018-04-22 11:36:46 GMT 52.696243 4.715424 35,975 296 436 0
2018-04-22 11:36:42 GMT 52.692802 4.727025 35,975 296 436 0
2018-04-22 11:36:39 GMT 52.689636 4.737697 36,000 296 436 0
2018-04-22 11:36:36 GMT 52.687271 4.745789 36,000 296 436 0
2018-04-22 11:36:33 GMT 52.684704 4.754412 35,975 296 436 0
2018-04-22 11:36:30 GMT 52.681679 4.764535 36,000 296 436 0
2018-04-22 11:36:27 GMT 52.679489 4.771957 36,000 296 436 0
2018-04-22 11:36:24 GMT 52.677116 4.779994 36,000 297 436 0
2018-04-22 11:36:21 GMT 52.674091 4.790118 36,000 297 436 0
2018-04-22 11:36:18 GMT 52.671524 4.798737 36,000 297 436 0
2018-04-22 11:36:14 GMT 52.667633 4.811859 36,000 297 436 0
2018-04-22 11:36:11 GMT 52.665058 4.820487 36,000 297 436 0
2018-04-22 11:36:08 GMT 52.663376 4.826126 36,000 297 436 0
2018-04-22 11:36:05 GMT 52.659378 4.839556 36,000 297 436 0
2018-04-22 11:36:02 GMT 52.658169 4.843715 36,000 297 436 0
2018-04-22 11:35:59 GMT 52.654724 4.855270 36,000 296 436 0
2018-04-22 11:35:55 GMT 52.650467 4.869614 36,000 304 435 0
2018-04-22 11:35:52 GMT 52.648670 4.875889 36,000 296 436 0
2018-04-22 11:35:49 GMT 52.645695 4.886012 36,000 296 436 0
2018-04-22 11:35:45 GMT 52.642639 4.896469 36,000 297 436 0
2018-04-22 11:35:42 GMT 52.640293 4.904532 36,000 297 436 0
2018-04-22 11:35:39 GMT 52.636707 4.916382 36,000 297 437 0
2018-04-22 11:35:36 GMT 52.634102 4.924622 36,000 298 437 0
2018-04-22 11:35:33 GMT 52.630936 4.934588 36,000 300 438 64
2018-04-22 11:35:30 GMT 52.628376 4.942200 35,975 300 438 64
2018-04-22 11:35:27 GMT 52.625816 4.949733 35,975 302 440 0
2018-04-22 11:35:24 GMT 52.623001 4.957428 35,975 302 439 0
2018-04-22 11:35:21 GMT 52.619614 4.966507 35,975 303 439 0
2018-04-22 11:35:17 GMT 52.615677 4.976654 35,975 304 439 0
2018-04-22 11:35:14 GMT 52.612106 4.985580 35,975 304 439 0
2018-04-22 11:35:11 GMT 52.608810 4.993896 36,000 304 439 0
2018-04-22 11:35:08 GMT 52.605564 5.001997 36,000 304 438 0
2018-04-22 11:35:05 GMT 52.601143 5.013140 36,000 304 437 0
2018-04-22 11:35:02 GMT 52.598145 5.020599 36,000 304 436 0
2018-04-22 11:34:59 GMT 52.594299 5.030247 36,000 304 436 0
2018-04-22 11:34:56 GMT 52.591412 5.037467 36,000 304 435 0
2018-04-22 11:34:53 GMT 52.588108 5.045785 36,000 304 435 0
2018-04-22 11:34:50 GMT 52.585327 5.052643 36,000 304 434 0
2018-04-22 11:34:47 GMT 52.581802 5.061417 36,000 304 434 0
2018-04-22 11:34:44 GMT 52.578094 5.070801 36,000 304 433 0
2018-04-22 11:34:41 GMT 52.574570 5.079575 36,000 304 432 0
2018-04-22 11:34:38 GMT 52.571815 5.086356 36,000 304 432 0
2018-04-22 11:34:35 GMT 52.568848 5.093765 36,000 304 431 0
2018-04-22 11:34:32 GMT 52.564785 5.103856 35,975 304 429 0
2018-04-22 11:34:28 GMT 52.561947 5.110918 35,975 304 430 0
2018-04-22 11:34:25 GMT 52.557449 5.121994 35,975 304 429 0
2018-04-22 11:34:22 GMT 52.554611 5.129089 36,000 304 429 0
2018-04-22 11:34:19 GMT 52.551193 5.137442 36,000 304 429 0
2018-04-22 11:34:16 GMT 52.547050 5.147723 36,000 304 427 0
2018-04-22 11:34:13 GMT 52.543976 5.155256 36,000 304 427 0
2018-04-22 11:34:10 GMT 52.540253 5.164359 36,000 304 426 0
2018-04-22 11:34:07 GMT 52.538223 5.169525 36,000 304 425 0
2018-04-22 11:34:04 GMT 52.535156 5.177002 36,000 304 425 0
2018-04-22 11:34:01 GMT 52.531494 5.186157 36,000 304 423 0
2018-04-22 11:33:58 GMT 52.527832 5.195236 35,975 304 423 0
2018-04-22 11:33:55 GMT 52.524937 5.202497 35,975 304 423 0
2018-04-22 11:33:52 GMT 52.522247 5.209198 35,975 304 423 0
2018-04-22 11:33:49 GMT 52.518700 5.218035 35,975 304 423 0
2018-04-22 11:33:46 GMT 52.514648 5.228158 36,000 304 422 0
2018-04-22 11:33:42 GMT 52.511307 5.236435 36,000 304 422 0
2018-04-22 11:33:39 GMT 52.507233 5.246582 36,000 304 422 0
2018-04-22 11:33:36 GMT 52.503242 5.256487 36,000 304 422 0
2018-04-22 11:33:33 GMT 52.501419 5.261002 36,000 304 422 0
2018-04-22 11:33:30 GMT 52.497574 5.270615 36,000 304 422 0
2018-04-22 11:33:27 GMT 52.493839 5.280029 36,000 304 422 0
2018-04-22 11:33:24 GMT 52.491577 5.285568 36,000 304 422 0
2018-04-22 11:33:21 GMT 52.488487 5.293370 35,975 304 422 0
2018-04-22 11:33:18 GMT 52.485168 5.301590 36,000 304 422 0
2018-04-22 11:33:15 GMT 52.482605 5.307999 36,000 304 422 0
2018-04-22 11:33:12 GMT 52.478851 5.317383 36,000 304 422 0
2018-04-22 11:33:09 GMT 52.476288 5.323739 35,975 304 421 0
2018-04-22 11:33:06 GMT 52.472893 5.332293 36,000 304 421 0
2018-04-22 11:33:03 GMT 52.469681 5.340219 35,975 304 421 0
2018-04-22 11:33:00 GMT 52.465897 5.349579 35,975 304 421 0
2018-04-22 11:32:57 GMT 52.463673 5.355129 35,975 304 422 0
2018-04-22 11:32:54 GMT 52.459808 5.364702 35,975 304 421 0
2018-04-22 11:32:51 GMT 52.455597 5.375061 35,975 304 421 0
2018-04-22 11:32:48 GMT 52.453857 5.379333 35,975 304 421 0
2018-04-22 11:32:45 GMT 52.450012 5.388870 35,975 304 421 0
2018-04-22 11:32:42 GMT 52.447334 5.395464 35,975 304 421 0
2018-04-22 11:32:39 GMT 52.443558 5.404739 35,975 304 421 0
2018-04-22 11:32:36 GMT 52.439896 5.413742 35,975 304 421 0
2018-04-22 11:32:33 GMT 52.436646 5.421677 36,000 304 421 0
2018-04-22 11:32:30 GMT 52.433971 5.428266 36,000 304 421 -64
2018-04-22 11:32:27 GMT 52.431179 5.435172 36,000 304 421 0
2018-04-22 11:32:24 GMT 52.427315 5.444667 36,000 304 421 0
2018-04-22 11:32:21 GMT 52.424103 5.452593 36,000 304 421 0
2018-04-22 11:32:18 GMT 52.421402 5.459213 36,000 304 423 0
2018-04-22 11:32:15 GMT 52.418198 5.467148 36,000 304 421 0
2018-04-22 11:32:12 GMT 52.414841 5.475429 36,000 304 421 0
2018-04-22 11:32:09 GMT 52.410645 5.485687 36,000 304 423 0
2018-04-22 11:32:06 GMT 52.408371 5.491281 36,000 304 421 0
2018-04-22 11:32:03 GMT 52.404602 5.500565 36,000 304 423 0
2018-04-22 11:32:00 GMT 52.401012 5.509330 35,975 304 423 0
2018-04-22 11:31:56 GMT 52.397644 5.517578 36,000 304 424 0
2018-04-22 11:31:53 GMT 52.394077 5.526358 36,000 304 424 0
2018-04-22 11:31:50 GMT 52.390400 5.535461 36,000 304 424 0
2018-04-22 11:31:47 GMT 52.387711 5.542145 36,000 304 424 0
2018-04-22 11:31:44 GMT 52.383884 5.551470 36,000 304 425 0
2018-04-22 11:31:41 GMT 52.380207 5.560573 36,000 304 425 0
2018-04-22 11:31:38 GMT 52.377731 5.566711 36,000 304 426 0
2018-04-22 11:31:35 GMT 52.374481 5.574799 36,000 304 426 0
2018-04-22 11:31:32 GMT 52.371315 5.582546 36,000 304 427 0
2018-04-22 11:31:29 GMT 52.367523 5.591965 36,000 304 427 0
2018-04-22 11:31:26 GMT 52.365028 5.598162 36,000 304 427 0
2018-04-22 11:31:23 GMT 52.361958 5.605695 35,975 304 428 0
2018-04-22 11:31:20 GMT 52.358597 5.614014 36,000 304 428 0
2018-04-22 11:31:17 GMT 52.354889 5.623169 36,000 304 429 0
2018-04-22 11:31:14 GMT 52.350998 5.632935 35,975 304 429 0
2018-04-22 11:31:11 GMT 52.348270 5.639675 36,000 304 429 0
2018-04-22 11:31:08 GMT 52.345665 5.646188 36,000 304 430 0
2018-04-22 11:31:05 GMT 52.341614 5.656128 36,000 304 429 64
2018-04-22 11:31:02 GMT 52.338261 5.664551 36,000 304 430 0
2018-04-22 11:30:59 GMT 52.335423 5.671613 35,975 304 430 0
2018-04-22 11:30:56 GMT 52.332165 5.679696 35,975 304 430 0
2018-04-22 11:30:53 GMT 52.328979 5.687561 35,975 304 431 0
2018-04-22 11:30:50 GMT 52.325832 5.695469 35,975 304 431 0
2018-04-22 11:30:47 GMT 52.323303 5.701675 35,975 304 430 0
2018-04-22 11:30:44 GMT 52.319454 5.711164 35,975 304 430 0
2018-04-22 11:30:41 GMT 52.315266 5.721444 35,975 304 430 0
2018-04-22 11:30:38 GMT 52.312088 5.729294 35,975 304 430 0
2018-04-22 11:30:35 GMT 52.308701 5.737610 35,975 304 431 -64
2018-04-22 11:30:32 GMT 52.305908 5.744400 35,975 304 431 -64
2018-04-22 11:30:28 GMT 52.301514 5.755157 36,000 304 430 -64
2018-04-22 11:30:25 GMT 52.297016 5.766253 36,000 304 430 64
2018-04-22 11:30:22 GMT 52.294693 5.771866 36,000 304 430 128
2018-04-22 11:30:19 GMT 52.291351 5.779953 36,000 304 430 -128
2018-04-22 11:30:16 GMT 52.288239 5.787430 36,000 304 430 0
2018-04-22 11:30:13 GMT 52.283936 5.797878 36,000 304 430 -64
2018-04-22 11:30:10 GMT 52.280685 5.805664 36,000 305 430 0
2018-04-22 11:30:07 GMT 52.278488 5.811081 35,975 305 430 0
2018-04-22 11:30:04 GMT 52.274158 5.821498 35,975 305 430 0
2018-04-22 11:30:01 GMT 52.271927 5.826913 35,975 304 431 0
2018-04-22 11:29:58 GMT 52.268280 5.835800 36,000 304 432 0
2018-04-22 11:29:55 GMT 52.264938 5.843887 36,000 304 433 0
2018-04-22 11:29:52 GMT 52.260845 5.853908 36,000 304 433 0
2018-04-22 11:29:49 GMT 52.257957 5.860971 36,000 304 434 0
2018-04-22 11:29:46 GMT 52.255188 5.867844 35,975 304 434 0
2018-04-22 11:29:43 GMT 52.250565 5.879288 36,000 304 436 -64
2018-04-22 11:29:40 GMT 52.247910 5.885849 36,000 304 435 -64
2018-04-22 11:29:37 GMT 52.245026 5.892944 36,000 304 435 -64
2018-04-22 11:29:34 GMT 52.241386 5.901934 36,000 304 435 -64
2018-04-22 11:29:31 GMT 52.239151 5.907427 36,000 304 436 -64
2018-04-22 11:29:28 GMT 52.235962 5.915375 36,000 304 436 0
2018-04-22 11:29:25 GMT 52.231892 5.925555 36,000 304 437 0
2018-04-22 11:29:22 GMT 52.228539 5.933794 36,000 304 438 0
2018-04-22 11:29:19 GMT 52.224350 5.944231 36,000 304 439 0
2018-04-22 11:29:16 GMT 52.221649 5.950902 36,000 304 439 0
2018-04-22 11:29:13 GMT 52.218342 5.959220 36,000 304 441 64
2018-04-22 11:29:10 GMT 52.213989 5.970001 36,000 304 442 0
2018-04-22 11:29:07 GMT 52.212204 5.974503 35,975 304 443 0
2018-04-22 11:29:04 GMT 52.207947 5.985031 36,000 304 443 0
2018-04-22 11:29:01 GMT 52.205246 5.991745 36,000 304 443 0
2018-04-22 11:28:58 GMT 52.201859 6.000061 36,000 304 445 0
2018-04-22 11:28:55 GMT 52.197372 6.011200 36,000 304 444 64
2018-04-22 11:28:52 GMT 52.195770 6.015091 36,000 304 444 -64
2018-04-22 11:28:49 GMT 52.190693 6.027649 35,975 304 444 0
2018-04-22 11:28:46 GMT 52.187714 6.034869 35,975 304 444 0
2018-04-22 11:28:43 GMT 52.184875 6.041794 35,975 304 445 0
2018-04-22 11:28:40 GMT 52.181335 6.050406 35,975 304 445 0
2018-04-22 11:28:37 GMT 52.178009 6.058502 35,975 304 445 0
2018-04-22 11:28:34 GMT 52.174805 6.066284 35,975 304 445 0
2018-04-22 11:28:31 GMT 52.170532 6.076538 35,975 304 445 0
2018-04-22 11:28:28 GMT 52.166977 6.085129 36,000 304 445 0
2018-04-22 11:28:25 GMT 52.164459 6.091232 36,000 304 445 0
2018-04-22 11:28:22 GMT 52.160339 6.101227 35,975 305 445 0
2018-04-22 11:28:19 GMT 52.157452 6.108163 35,975 305 445 0
2018-04-22 11:28:16 GMT 52.152843 6.119228 36,000 305 445 0
2018-04-22 11:28:13 GMT 52.150406 6.125031 36,000 304 445 0
2018-04-22 11:28:10 GMT 52.145370 6.137238 35,975 304 445 0
2018-04-22 11:28:07 GMT 52.144226 6.139984 36,000 304 444 0
2018-04-22 11:28:04 GMT 52.140106 6.149979 36,000 304 445 0
2018-04-22 11:28:01 GMT 52.136131 6.159720 36,000 303 444 0
2018-04-22 11:27:58 GMT 52.133900 6.165292 36,000 303 444 0
2018-04-22 11:27:55 GMT 52.129852 6.175690 36,000 302 443 0
2018-04-22 11:27:52 GMT 52.126419 6.184769 36,000 302 442 0
2018-04-22 11:27:49 GMT 52.122665 6.194992 35,975 301 442 0
2018-04-22 11:27:46 GMT 52.120678 6.200448 35,975 301 441 0
2018-04-22 11:27:43 GMT 52.116669 6.211624 36,000 301 441 0
2018-04-22 11:27:40 GMT 52.114113 6.218811 36,000 301 441 0
2018-04-22 11:27:37 GMT 52.110622 6.228542 35,975 301 441 0
2018-04-22 11:27:34 GMT 52.107239 6.237946 36,000 301 441 0
2018-04-22 11:27:31 GMT 52.104172 6.246490 36,000 301 440 0
2018-04-22 11:27:28 GMT 52.101219 6.254752 36,000 301 441 0
2018-04-22 11:27:25 GMT 52.099121 6.260481 35,975 301 440 0
2018-04-22 11:27:22 GMT 52.096050 6.269034 36,000 301 440 0
2018-04-22 11:27:19 GMT 52.092793 6.278137 36,000 301 440 0
2018-04-22 11:27:16 GMT 52.089157 6.288147 36,000 301 440 0
2018-04-22 11:27:13 GMT 52.086414 6.295794 36,000 301 440 0
2018-04-22 11:27:10 GMT 52.083111 6.304975 35,975 301 440 0
2018-04-22 11:27:07 GMT 52.080551 6.312027 35,975 301 440 0
2018-04-22 11:27:04 GMT 52.077755 6.319728 35,975 301 440 0
2018-04-22 11:27:01 GMT 52.073238 6.332284 36,000 301 440 0
2018-04-22 11:26:58 GMT 52.071304 6.337738 35,975 301 440 0
2018-04-22 11:26:55 GMT 52.067413 6.348572 36,000 301 440 0
2018-04-22 11:26:52 GMT 52.064442 6.356768 35,975 301 440 0
2018-04-22 11:26:49 GMT 52.061462 6.365051 36,000 301 440 0
2018-04-22 11:26:46 GMT 52.058296 6.373875 36,000 301 440 0
2018-04-22 11:26:43 GMT 52.055511 6.381531 36,000 301 440 0
2018-04-22 11:26:40 GMT 52.053452 6.387253 35,975 301 440 0
2018-04-22 11:26:37 GMT 52.049870 6.397182 35,975 301 440 0
2018-04-22 11:26:34 GMT 52.045853 6.408310 36,000 301 440 0
2018-04-22 11:26:31 GMT 52.042786 6.416855 35,975 301 440 0
2018-04-22 11:26:28 GMT 52.039398 6.426217 36,000 301 440 0
2018-04-22 11:26:25 GMT 52.037247 6.432190 35,975 301 440 0
2018-04-22 11:26:22 GMT 52.033539 6.442413 36,000 301 441 0
2018-04-22 11:26:18 GMT 52.029900 6.452349 35,975 301 440 0
2018-04-22 11:26:15 GMT 52.026596 6.461452 36,000 301 440 0
2018-04-22 11:26:12 GMT 52.023010 6.471405 35,975 301 440 0
2018-04-22 11:26:09 GMT 52.020721 6.477585 35,975 301 440 0
2018-04-22 11:26:06 GMT 52.016727 6.488682 35,975 301 440 0
2018-04-22 11:26:03 GMT 52.014130 6.495819 35,975 301 440 0
2018-04-22 11:26:00 GMT 52.011372 6.503435 35,975 301 440 0
2018-04-22 11:25:57 GMT 52.008301 6.511989 36,000 301 439 0
2018-04-22 11:25:54 GMT 52.004578 6.522191 36,000 301 440 0
2018-04-22 11:25:51 GMT 52.002411 6.528168 36,000 301 440 0
2018-04-22 11:25:47 GMT 51.998291 6.539459 35,975 301 440 0
2018-04-22 11:25:44 GMT 51.995686 6.546596 36,000 301 440 0
2018-04-22 11:25:41 GMT 51.991470 6.558228 36,000 301 440 0
2018-04-22 11:25:38 GMT 51.988235 6.566999 36,000 301 440 0
2018-04-22 11:25:35 GMT 51.985348 6.574925 36,000 301 440 0
2018-04-22 11:25:31 GMT 51.981205 6.586304 36,000 301 440 0
2018-04-22 11:25:28 GMT 51.979156 6.591954 36,000 301 441 0
2018-04-22 11:25:25 GMT 51.975246 6.602705 36,000 301 440 0
2018-04-22 11:25:22 GMT 51.972549 6.610081 36,000 301 440 0
2018-04-22 11:25:19 GMT 51.969475 6.618556 36,000 301 440 0
2018-04-22 11:25:16 GMT 51.966476 6.626816 36,000 301 440 0
2018-04-22 11:25:13 GMT 51.962631 6.637312 35,975 301 440 0
2018-04-22 11:25:10 GMT 51.959328 6.646336 35,975 301 440 0
2018-04-22 11:25:07 GMT 51.956772 6.653442 35,975 301 438 0
2018-04-22 11:25:04 GMT 51.953136 6.663286 35,975 301 438 0
2018-04-22 11:25:00 GMT 51.948486 6.676025 35,975 301 439 0
2018-04-22 11:24:57 GMT 51.946426 6.681671 35,975 301 438 0
2018-04-22 11:24:53 GMT 51.941822 6.694284 35,975 301 438 0
2018-04-22 11:24:49 GMT 51.938705 6.702759 36,000 301 432 0
2018-04-22 11:24:46 GMT 51.934608 6.714059 36,000 301 437 0
2018-04-22 11:24:43 GMT 51.931534 6.722456 36,000 301 437 -64
2018-04-22 11:24:40 GMT 51.928837 6.729754 36,000 301 436 0
2018-04-22 11:24:37 GMT 51.926601 6.735953 36,000 301 436 0
2018-04-22 11:24:34 GMT 51.923218 6.745224 36,000 301 437 0
2018-04-22 11:24:31 GMT 51.919693 6.754761 35,975 301 436 0
2018-04-22 11:24:28 GMT 51.916126 6.764518 36,000 301 436 0
2018-04-22 11:24:25 GMT 51.913239 6.772365 35,975 301 435 0
2018-04-22 11:24:22 GMT 51.910034 6.781082 35,975 301 435 0
2018-04-22 11:24:19 GMT 51.907097 6.789158 35,975 301 435 0
2018-04-22 11:24:16 GMT 51.904022 6.797555 35,975 301 435 0
2018-04-22 11:24:12 GMT 51.899826 6.809006 36,000 301 433 0
2018-04-22 11:24:09 GMT 51.896015 6.819371 35,975 301 434 0
2018-04-22 11:24:06 GMT 51.893967 6.824942 36,000 301 434 0
2018-04-22 11:24:03 GMT 51.891129 6.832733 36,000 301 434 0
2018-04-22 11:24:00 GMT 51.887100 6.843592 36,000 301 434 64
2018-04-22 11:23:57 GMT 51.885170 6.848907 36,000 301 434 0
2018-04-22 11:23:54 GMT 51.881149 6.859700 35,975 301 434 -64
2018-04-22 11:23:51 GMT 51.878082 6.868088 36,000 301 432 0
2018-04-22 11:23:48 GMT 51.875534 6.875000 35,975 301 433 0
2018-04-22 11:23:45 GMT 51.872955 6.881970 35,975 301 431 0
2018-04-22 11:23:42 GMT 51.869705 6.890803 36,000 301 431 0
2018-04-22 11:23:39 GMT 51.866131 6.900482 36,000 301 432 0
2018-04-22 11:23:36 GMT 51.863571 6.907431 36,000 301 430 0
2018-04-22 11:23:33 GMT 51.859909 6.917378 36,000 301 431 0
2018-04-22 11:23:30 GMT 51.856956 6.925430 35,975 301 431 0
2018-04-22 11:23:27 GMT 51.855011 6.930666 36,000 301 430 0
2018-04-22 11:23:24 GMT 51.851048 6.941452 36,000 301 431 0
2018-04-22 11:23:21 GMT 51.847183 6.951904 36,000 301 430 0
2018-04-22 11:23:18 GMT 51.844437 6.959393 35,975 301 430 0
2018-04-22 11:23:15 GMT 51.841370 6.967633 36,000 301 430 0
2018-04-22 11:23:12 GMT 51.838432 6.975632 35,975 301 430 0
2018-04-22 11:23:09 GMT 51.835358 6.983871 36,000 301 429 0
2018-04-22 11:23:06 GMT 51.833221 6.989606 36,000 301 429 0
2018-04-22 11:23:03 GMT 51.829678 6.999207 36,000 301 428 0
2018-04-22 11:23:00 GMT 51.826950 7.006605 35,975 301 427 64
2018-04-22 11:22:57 GMT 51.824112 7.014325 35,975 301 428 0
2018-04-22 11:22:54 GMT 51.820450 7.024198 36,000 301 427 0
2018-04-22 11:22:51 GMT 51.817902 7.031021 36,000 301 427 0
2018-04-22 11:22:48 GMT 51.813618 7.042465 36,000 301 427 -64
2018-04-22 11:22:45 GMT 51.810516 7.050996 36,000 301 427 -64
2018-04-22 11:22:42 GMT 51.808403 7.056732 36,000 301 427 64
2018-04-22 11:22:39 GMT 51.804958 7.065964 36,000 301 426 0
2018-04-22 11:22:35 GMT 51.801819 7.074453 35,975 301 426 0
2018-04-22 11:22:32 GMT 51.798721 7.082901 36,000 301 424 -64
2018-04-22 11:22:29 GMT 51.794586 7.094050 36,000 301 426 0
2018-04-22 11:22:25 GMT 51.790623 7.104645 36,000 301 425 0
2018-04-22 11:22:22 GMT 51.788132 7.111421 36,000 301 425 0
2018-04-22 11:22:19 GMT 51.784882 7.120106 36,000 301 425 0
2018-04-22 11:22:15 GMT 51.780937 7.130737 36,000 301 425 0
2018-04-22 11:22:12 GMT 51.778519 7.137222 35,975 301 424 0
2018-04-22 11:22:09 GMT 51.774094 7.149124 35,975 301 424 0
2018-04-22 11:22:06 GMT 51.771862 7.155075 36,000 301 424 0
2018-04-22 11:22:03 GMT 51.769672 7.161102 35,975 301 423 0
2018-04-22 11:22:00 GMT 51.765621 7.171860 35,975 301 423 0
2018-04-22 11:21:56 GMT 51.761536 7.182980 36,000 301 423 0
2018-04-22 11:21:53 GMT 51.758781 7.190247 35,975 301 423 0
2018-04-22 11:21:50 GMT 51.756172 7.197266 35,975 301 423 0
2018-04-22 11:21:47 GMT 51.752586 7.207031 36,000 301 423 0
2018-04-22 11:21:44 GMT 51.750046 7.213786 35,975 301 423 0
2018-04-22 11:21:41 GMT 51.747025 7.221878 35,975 302 423 0
2018-04-22 11:21:38 GMT 51.743931 7.230225 36,000 301 423 0
2018-04-22 11:21:35 GMT 51.740906 7.238312 36,000 301 423 0
2018-04-22 11:21:32 GMT 51.738064 7.245865 36,000 301 423 0
2018-04-22 11:21:29 GMT 51.735226 7.253418 36,000 301 423 0
2018-04-22 11:21:26 GMT 51.731827 7.262573 36,000 301 423 0
2018-04-22 11:21:23 GMT 51.728897 7.270425 36,000 302 423 0
2018-04-22 11:21:20 GMT 51.725510 7.279556 36,000 302 423 0
2018-04-22 11:21:17 GMT 51.722260 7.288241 36,000 302 423 0
2018-04-22 11:21:14 GMT 51.720142 7.293854 36,000 302 423 0
2018-04-22 11:21:11 GMT 51.716511 7.303619 36,000 302 423 0
2018-04-22 11:21:07 GMT 51.713066 7.312775 36,000 302 425 0
2018-04-22 11:21:04 GMT 51.708595 7.324677 36,000 302 425 0
2018-04-22 11:21:01 GMT 51.705944 7.331696 36,000 302 425 0
2018-04-22 11:20:58 GMT 51.702915 7.339783 36,000 302 426 0
2018-04-22 11:20:55 GMT 51.699966 7.347627 36,000 302 426 0
2018-04-22 11:20:52 GMT 51.696899 7.355792 35,975 302 426 0
2018-04-22 11:20:49 GMT 51.694473 7.362250 35,975 302 426 0
2018-04-22 11:20:46 GMT 51.691933 7.369080 36,000 302 427 0
2018-04-22 11:20:43 GMT 51.687649 7.380447 35,975 302 426 0
2018-04-22 11:20:40 GMT 51.684494 7.388825 35,975 302 426 0
2018-04-22 11:20:37 GMT 51.682480 7.394318 35,975 302 426 0
2018-04-22 11:20:34 GMT 51.678406 7.405156 35,975 302 427 0
2018-04-22 11:20:31 GMT 51.675404 7.413025 36,000 302 427 0
2018-04-22 11:20:28 GMT 51.673508 7.418147 36,000 302 427 0
2018-04-22 11:20:25 GMT 51.669388 7.428985 36,000 302 427 0
2018-04-22 11:20:22 GMT 51.666233 7.437439 36,000 302 427 0
2018-04-22 11:20:18 GMT 51.662556 7.447205 36,000 302 428 0
2018-04-22 11:20:15 GMT 51.659904 7.454224 36,000 302 428 0
2018-04-22 11:20:12 GMT 51.656830 7.462387 36,000 302 427 0
2018-04-22 11:20:09 GMT 51.653458 7.471371 36,000 302 427 0
2018-04-22 11:20:06 GMT 51.650684 7.478638 36,000 302 428 0
2018-04-22 11:20:03 GMT 51.646729 7.489261 36,000 302 428 0
2018-04-22 11:19:59 GMT 51.643021 7.499060 36,000 302 428 0
2018-04-22 11:19:55 GMT 51.638626 7.510757 36,000 302 428 0
2018-04-22 11:19:51 GMT 51.634903 7.520523 36,000 302 429 0
2018-04-22 11:19:47 GMT 51.631119 7.530534 35,975 302 429 0
2018-04-22 11:19:44 GMT 51.627548 7.540054 35,975 302 429 0
2018-04-22 11:19:41 GMT 51.625080 7.546616 36,000 302 429 0
2018-04-22 11:19:37 GMT 51.619915 7.560196 35,975 302 429 0
2018-04-22 11:19:34 GMT 51.617157 7.567576 36,000 302 429 0
2018-04-22 11:19:31 GMT 51.613632 7.576781 35,975 302 429 0
2018-04-22 11:19:28 GMT 51.611801 7.581680 35,975 302 429 -64
2018-04-22 11:19:25 GMT 51.607452 7.593112 35,975 302 429 0
2018-04-22 11:19:22 GMT 51.605804 7.597491 35,975 302 429 0
2018-04-22 11:19:19 GMT 51.601456 7.608923 36,000 302 429 0
2018-04-22 11:19:16 GMT 51.598873 7.615738 36,000 302 429 0
2018-04-22 11:19:13 GMT 51.596329 7.622507 35,975 302 429 0
2018-04-22 11:19:10 GMT 51.592495 7.632599 36,000 302 429 0
2018-04-22 11:19:07 GMT 51.590027 7.639084 36,000 302 429 0
2018-04-22 11:19:04 GMT 51.587036 7.647004 36,000 302 429 0
2018-04-22 11:19:01 GMT 51.583694 7.655689 36,000 302 429 0
2018-04-22 11:18:58 GMT 51.580627 7.663855 35,975 302 429 0
2018-04-22 11:18:55 GMT 51.576992 7.673340 36,000 302 429 0
2018-04-22 11:18:51 GMT 51.572937 7.683972 36,000 302 429 0
2018-04-22 11:18:48 GMT 51.570988 7.689133 36,000 302 429 0
2018-04-22 11:18:45 GMT 51.567265 7.698898 36,000 302 429 0
2018-04-22 11:18:42 GMT 51.563644 7.708468 36,000 302 429 0
2018-04-22 11:18:39 GMT 51.561073 7.715225 36,000 302 429 0
2018-04-22 11:18:36 GMT 51.557953 7.723389 36,000 302 429 0
2018-04-22 11:18:33 GMT 51.554535 7.732371 35,975 302 429 0
2018-04-22 11:18:29 GMT 51.549480 7.745743 35,975 302 430 0
2018-04-22 11:18:26 GMT 51.547485 7.750854 35,975 302 430 0
2018-04-22 11:18:23 GMT 51.544315 7.759323 35,975 302 430 0
2018-04-22 11:18:19 GMT 51.540070 7.770452 36,000 302 428 0
2018-04-22 11:18:16 GMT 51.536865 7.778931 36,000 302 429 0
2018-04-22 11:18:13 GMT 51.533844 7.786783 36,000 302 430 0
2018-04-22 11:18:10 GMT 51.531048 7.794113 35,975 302 430 0
2018-04-22 11:18:07 GMT 51.527927 7.802277 35,975 302 430 -64
2018-04-22 11:18:04 GMT 51.524807 7.810440 36,000 302 430 0
2018-04-22 11:18:01 GMT 51.520798 7.821004 36,000 302 430 0
2018-04-22 11:17:58 GMT 51.518692 7.826423 36,000 302 430 0
2018-04-22 11:17:55 GMT 51.515682 7.834320 36,000 302 430 0
2018-04-22 11:17:52 GMT 51.511772 7.844620 36,000 302 430 0
2018-04-22 11:17:49 GMT 51.508842 7.852173 36,000 302 429 0
2018-04-22 11:17:46 GMT 51.505302 7.861404 36,000 302 429 0
2018-04-22 11:17:43 GMT 51.503540 7.865988 36,000 302 429 0
2018-04-22 11:17:40 GMT 51.500553 7.873840 36,000 302 429 0
2018-04-22 11:17:37 GMT 51.497437 7.882004 36,000 302 429 0
2018-04-22 11:17:33 GMT 51.492455 7.894974 36,000 302 429 0
2018-04-22 11:17:30 GMT 51.489441 7.902882 36,000 302 429 0
2018-04-22 11:17:27 GMT 51.486557 7.910453 36,000 302 429 0
2018-04-22 11:17:23 GMT 51.481049 7.924728 36,000 302 429 0
2018-04-22 11:17:20 GMT 51.479691 7.928269 35,975 302 429 0
2018-04-22 11:17:17 GMT 51.475937 7.937993 36,000 302 428 0
2018-04-22 11:17:14 GMT 51.471691 7.949066 35,975 302 429 0
2018-04-22 11:17:11 GMT 51.469711 7.954250 36,000 302 428 0
2018-04-22 11:17:08 GMT 51.466526 7.962570 35,975 302 428 0
2018-04-22 11:17:05 GMT 51.464310 7.968280 35,975 302 428 0
2018-04-22 11:17:02 GMT 51.460705 7.977676 36,000 302 428 0
2018-04-22 11:16:59 GMT 51.457489 7.986096 36,000 302 428 0
2018-04-22 11:16:56 GMT 51.454376 7.994113 36,000 302 428 0
2018-04-22 11:16:53 GMT 51.451767 8.000946 36,000 302 428 0
2018-04-22 11:16:50 GMT 51.447857 8.011169 36,000 302 428 0
2018-04-22 11:16:47 GMT 51.444855 8.018980 36,000 302 428 0
2018-04-22 11:16:44 GMT 51.442039 8.026276 36,000 302 428 0
2018-04-22 11:16:40 GMT 51.437576 8.037835 36,000 302 428 0
2018-04-22 11:16:36 GMT 51.433750 8.047791 36,000 302 428 0
2018-04-22 11:16:33 GMT 51.430527 8.056170 35,975 302 429 0
2018-04-22 11:16:30 GMT 51.427185 8.064781 35,975 302 428 0
2018-04-22 11:16:27 GMT 51.423889 8.073467 35,975 302 429 0
2018-04-22 11:16:24 GMT 51.420959 8.080964 35,975 302 429 0
2018-04-22 11:16:21 GMT 51.417740 8.089371 36,000 302 429 0
2018-04-22 11:16:18 GMT 51.413498 8.100413 36,000 302 429 0
2018-04-22 11:16:15 GMT 51.411312 8.106079 35,975 302 429 0
2018-04-22 11:16:12 GMT 51.408920 8.112364 36,000 302 430 0
2018-04-22 11:16:09 GMT 51.405075 8.122330 36,000 302 430 0
2018-04-22 11:16:05 GMT 51.401413 8.131739 35,975 302 432 0
2018-04-22 11:16:02 GMT 51.398327 8.139572 36,000 302 430 0
2018-04-22 11:15:59 GMT 51.393631 8.151707 36,000 302 430 0
2018-04-22 11:15:55 GMT 51.389877 8.161431 36,000 302 430 0
2018-04-22 11:15:52 GMT 51.388412 8.165217 35,975 302 432 0
2018-04-22 11:15:49 GMT 51.384315 8.175812 36,000 302 432 0
2018-04-22 11:15:46 GMT 51.381195 8.183899 35,975 302 432 0
2018-04-22 11:15:43 GMT 51.378387 8.191273 35,975 302 431 0
2018-04-22 11:15:40 GMT 51.374493 8.201218 35,975 302 431 0
2018-04-22 11:15:37 GMT 51.371513 8.208771 35,975 302 432 0
2018-04-22 11:15:34 GMT 51.368206 8.217468 36,000 302 432 0
2018-04-22 11:15:30 GMT 51.365112 8.225271 36,000 302 432 0
2018-04-22 11:15:27 GMT 51.360077 8.238261 35,975 302 432 0
2018-04-22 11:15:24 GMT 51.358059 8.243408 35,975 302 432 0
2018-04-22 11:15:21 GMT 51.355778 8.249283 36,000 302 432 0
2018-04-22 11:15:18 GMT 51.351540 8.260117 36,000 302 432 0
2018-04-22 11:15:15 GMT 51.347771 8.269882 36,000 302 432 0
2018-04-22 11:15:12 GMT 51.345383 8.276120 36,000 302 432 0
2018-04-22 11:15:09 GMT 51.341251 8.286667 35,975 302 432 -64
2018-04-22 11:15:06 GMT 51.339706 8.290743 36,000 302 432 0
2018-04-22 11:15:03 GMT 51.336914 8.297721 35,975 304 433 0
2018-04-22 11:15:00 GMT 51.331879 8.310712 36,000 302 432 0
2018-04-22 11:14:57 GMT 51.330128 8.315277 36,000 302 432 0
2018-04-22 11:14:54 GMT 51.326729 8.323898 36,000 302 432 0
2018-04-22 11:14:51 GMT 51.323982 8.330917 36,000 302 432 0
2018-04-22 11:14:48 GMT 51.319656 8.342038 36,000 302 432 0
2018-04-22 11:14:44 GMT 51.315445 8.352801 36,000 302 432 0
2018-04-22 11:14:41 GMT 51.313229 8.358536 36,000 302 432 0
2018-04-22 11:14:38 GMT 51.309875 8.367157 35,975 302 432 0
2018-04-22 11:14:33 GMT 51.303638 8.382874 35,975 302 432 0
2018-04-22 11:14:30 GMT 51.301529 8.388507 36,000 302 432 0
2018-04-22 11:14:27 GMT 51.297363 8.399345 35,975 302 432 0
2018-04-22 11:14:24 GMT 51.294235 8.407135 36,000 302 432 0
2018-04-22 11:14:21 GMT 51.291412 8.414340 35,975 302 432 0
2018-04-22 11:14:18 GMT 51.287903 8.423309 35,975 302 432 0
2018-04-22 11:14:15 GMT 51.285809 8.428650 36,000 302 432 0
2018-04-22 11:14:12 GMT 51.281387 8.440018 36,000 302 431 0
2018-04-22 11:14:09 GMT 51.279243 8.445435 36,000 302 432 0
2018-04-22 11:14:06 GMT 51.274933 8.456503 35,975 302 432 0
2018-04-22 11:14:03 GMT 51.271545 8.465040 36,000 302 432 0
2018-04-22 11:14:00 GMT 51.268616 8.472537 36,000 303 431 0
2018-04-22 11:13:57 GMT 51.266922 8.476991 36,000 303 431 0
2018-04-22 11:13:54 GMT 51.263123 8.486716 36,000 303 431 0
2018-04-22 11:13:51 GMT 51.260067 8.494492 35,975 303 433 0
2018-04-22 11:13:48 GMT 51.255798 8.505496 36,000 302 432 0
2018-04-22 11:13:44 GMT 51.252663 8.512955 36,000 303 431 64
2018-04-22 11:13:41 GMT 51.250488 8.518858 35,975 303 431 0
2018-04-22 11:13:38 GMT 51.247055 8.527618 35,975 302 432 0
2018-04-22 11:13:35 GMT 51.242096 8.540268 35,975 302 432 0
2018-04-22 11:13:32 GMT 51.239456 8.547141 35,975 303 433 64
2018-04-22 11:13:28 GMT 51.235840 8.556197 35,975 302 432 0
2018-04-22 11:13:25 GMT 51.231483 8.567352 35,975 303 433 -128
2018-04-22 11:13:21 GMT 51.228271 8.575363 36,000 303 433 -128
2018-04-22 11:13:17 GMT 51.224545 8.585052 36,000 303 432 0
2018-04-22 11:13:14 GMT 51.220451 8.595352 36,000 303 432 0
2018-04-22 11:13:11 GMT 51.216492 8.605042 36,000 303 432 -64
2018-04-22 11:13:08 GMT 51.214508 8.610609 36,000 303 432 -64
2018-04-22 11:13:05 GMT 51.210396 8.620529 36,000 303 432 0
2018-04-22 11:13:02 GMT 51.207275 8.628616 36,000 303 432 0
2018-04-22 11:12:57 GMT 51.202332 8.641341 36,000 303 432 0
2018-04-22 11:12:53 GMT 51.198151 8.651886 36,000 303 432 0
2018-04-22 11:12:49 GMT 51.194569 8.661041 36,000 303 432 0
2018-04-22 11:12:46 GMT 51.190155 8.671999 36,000 302 433 0
2018-04-22 11:12:43 GMT 51.188095 8.677063 36,000 303 432 0
2018-04-22 11:12:39 GMT 51.183861 8.687668 35,975 303 432 0
2018-04-22 11:12:36 GMT 51.180542 8.695976 35,975 303 432 0
2018-04-22 11:12:33 GMT 51.177383 8.704290 36,000 303 433 0
2018-04-22 11:12:29 GMT 51.172256 8.717206 35,975 303 433 0
2018-04-22 11:12:26 GMT 51.169189 8.724703 36,000 303 433 0
2018-04-22 11:12:23 GMT 51.167084 8.730048 36,000 303 433 0
2018-04-22 11:12:20 GMT 51.163422 8.739548 36,000 303 433 0
2018-04-22 11:12:17 GMT 51.160812 8.745563 36,000 303 433 0
2018-04-22 11:12:14 GMT 51.157696 8.753891 36,000 303 433 0
2018-04-22 11:12:11 GMT 51.153854 8.763378 36,000 302 433 0
2018-04-22 11:12:08 GMT 51.151428 8.769911 36,000 302 433 0
2018-04-22 11:12:05 GMT 51.147827 8.778839 36,000 302 432 0
2018-04-22 11:12:02 GMT 51.144012 8.788766 36,000 302 432 0
2018-04-22 11:11:59 GMT 51.140751 8.796616 35,975 306 435 0
2018-04-22 11:11:54 GMT 51.136002 8.808660 36,000 307 432 0
2018-04-22 11:11:51 GMT 51.133209 8.815079 35,975 307 435 0
2018-04-22 11:11:47 GMT 51.127903 8.827209 35,975 306 435 0
2018-04-22 11:11:44 GMT 51.124466 8.834789 36,000 307 435 0
2018-04-22 11:11:41 GMT 51.120827 8.842773 36,000 307 435 0
2018-04-22 11:11:38 GMT 51.117523 8.849945 36,000 307 435 0
2018-04-22 11:11:34 GMT 51.111423 8.863373 36,000 307 435 0
2018-04-22 11:11:31 GMT 51.108398 8.869827 35,975 307 435 0
2018-04-22 11:11:28 GMT 51.105000 8.877335 36,000 307 435 0
2018-04-22 11:11:25 GMT 51.100765 8.886642 36,000 307 435 0
2018-04-22 11:11:22 GMT 51.098328 8.892022 36,000 307 434 0
2018-04-22 11:11:19 GMT 51.094761 8.899460 35,975 307 434 0
2018-04-22 11:11:15 GMT 51.089996 8.910061 36,000 307 431 0
2018-04-22 11:11:11 GMT 51.085693 8.919340 36,000 307 433 0
2018-04-22 11:11:08 GMT 51.081631 8.928299 36,000 306 433 0
2018-04-22 11:11:05 GMT 51.078094 8.936005 36,000 307 432 0
2018-04-22 11:11:02 GMT 51.074020 8.945024 36,000 307 432 0
2018-04-22 11:10:58 GMT 51.070366 8.952942 36,000 307 432 0
2018-04-22 11:10:55 GMT 51.065781 8.962914 36,000 307 432 0
2018-04-22 11:10:50 GMT 51.061382 8.972397 36,000 307 432 0
2018-04-22 11:10:46 GMT 51.055561 8.985138 36,000 307 432 0
2018-04-22 11:10:42 GMT 51.052094 8.992606 36,000 307 432 0
2018-04-22 11:10:39 GMT 51.047695 9.001999 36,000 307 431 0
2018-04-22 11:10:36 GMT 51.044952 9.008418 36,000 307 431 0
2018-04-22 11:10:33 GMT 51.040245 9.018326 35,975 307 431 0
2018-04-22 11:10:30 GMT 51.036198 9.027481 35,975 307 431 0
2018-04-22 11:10:26 GMT 51.033325 9.033360 35,975 307 431 0
2018-04-22 11:10:23 GMT 51.029774 9.041367 35,975 307 431 0
2018-04-22 11:10:20 GMT 51.024170 9.053254 35,975 307 431 0
2018-04-22 11:10:16 GMT 51.020973 9.060135 35,975 307 430 0
2018-04-22 11:10:12 GMT 51.014832 9.073594 35,975 307 430 0
2018-04-22 11:10:09 GMT 51.012451 9.078641 35,975 307 430 0
2018-04-22 11:10:06 GMT 51.008080 9.087982 36,000 307 436 0
2018-04-22 11:10:03 GMT 51.005703 9.093170 35,975 307 430 0
2018-04-22 11:09:59 GMT 51.000443 9.104843 35,975 307 430 0
2018-04-22 11:09:55 GMT 50.996109 9.113456 36,000 307 429 0
2018-04-22 11:09:51 GMT 50.990616 9.125853 36,000 307 430 0
2018-04-22 11:09:48 GMT 50.986664 9.134827 36,000 307 430 0
2018-04-22 11:09:43 GMT 50.981079 9.146347 36,000 307 429 -192
2018-04-22 11:09:40 GMT 50.977478 9.154284 36,000 307 429 -192
2018-04-22 11:09:36 GMT 50.972561 9.164658 36,025 307 429 0
2018-04-22 11:09:33 GMT 50.970463 9.169846 36,025 307 429 -64
2018-04-22 11:09:30 GMT 50.965248 9.180222 36,000 307 429 0
2018-04-22 11:09:27 GMT 50.963436 9.184952 36,000 307 429 0
2018-04-22 11:09:24 GMT 50.958389 9.195260 36,000 307 431 0
2018-04-22 11:09:20 GMT 50.955368 9.201866 36,000 307 434 0
2018-04-22 11:09:17 GMT 50.950771 9.211731 36,000 307 434 64
2018-04-22 11:09:14 GMT 50.947002 9.219894 35,975 307 436 0
2018-04-22 11:09:10 GMT 50.941635 9.231411 35,975 307 434 0
2018-04-22 11:09:07 GMT 50.939301 9.236533 35,975 307 437 0
2018-04-22 11:09:04 GMT 50.935684 9.244179 35,975 307 437 0
2018-04-22 11:09:01 GMT 50.932343 9.251379 35,975 307 437 0
2018-04-22 11:08:58 GMT 50.927536 9.261623 35,975 307 437 0
2018-04-22 11:08:55 GMT 50.925774 9.265518 36,000 307 432 0
2018-04-22 11:08:51 GMT 50.920624 9.276544 36,000 307 437 64
2018-04-22 11:08:48 GMT 50.917740 9.282705 36,000 307 437 64
2018-04-22 11:08:45 GMT 50.912201 9.294508 35,975 307 437 0
2018-04-22 11:08:40 GMT 50.907394 9.304752 35,975 307 436 0
2018-04-22 11:08:36 GMT 50.902451 9.315338 35,975 307 436 0
2018-04-22 11:08:33 GMT 50.898262 9.324570 35,975 307 436 0
2018-04-22 11:08:29 GMT 50.893841 9.333725 36,000 307 434 0
2018-04-22 11:08:25 GMT 50.889175 9.343724 36,000 307 434 0
2018-04-22 11:08:22 GMT 50.884995 9.352722 36,000 307 434 0
2018-04-22 11:08:18 GMT 50.880844 9.361688 35,975 307 431 0
2018-04-22 11:08:14 GMT 50.876431 9.371185 35,975 307 434 0
2018-04-22 11:08:11 GMT 50.873199 9.378093 35,975 307 434 0
2018-04-22 11:08:08 GMT 50.869026 9.386978 34,200 307 431 0
2018-04-22 11:08:04 GMT 50.863998 9.397736 35,975 307 430 0
2018-04-22 11:08:01 GMT 50.860695 9.405365 35,975 307 431 0
2018-04-22 11:07:58 GMT 50.855804 9.415512 35,975 307 426 704
2018-04-22 11:07:54 GMT 50.851894 9.423981 35,975 307 430 0
2018-04-22 11:07:51 GMT 50.848915 9.430008 35,975 307 430 0
2018-04-22 11:07:48 GMT 50.845379 9.437485 35,975 307 429 0
2018-04-22 11:07:45 GMT 50.842213 9.444580 36,000 307 429 0
2018-04-22 11:07:42 GMT 50.837559 9.454117 35,975 307 428 0
2018-04-22 11:07:39 GMT 50.835297 9.459451 35,975 307 425 128
2018-04-22 11:07:36 GMT 50.831360 9.467542 35,950 307 425 768
2018-04-22 11:07:33 GMT 50.828014 9.475174 35,975 307 427 768
2018-04-22 11:07:30 GMT 50.823029 9.485507 35,975 307 425 448
2018-04-22 11:07:27 GMT 50.820694 9.490480 35,950 307 425 320
2018-04-22 11:07:24 GMT 50.817032 9.497829 35,950 307 425 768
2018-04-22 11:07:20 GMT 50.811813 9.509048 35,825 307 433 896
2018-04-22 11:07:17 GMT 50.809570 9.514383 35,900 307 425 704
2018-04-22 11:07:14 GMT 50.805359 9.522845 35,850 307 427 704
2018-04-22 11:07:11 GMT 50.800964 9.532421 35,775 307 426 768
2018-04-22 11:07:08 GMT 50.798779 9.536972 35,750 307 425 768
2018-04-22 11:07:04 GMT 50.794357 9.546432 35,700 307 435 896
2018-04-22 11:07:01 GMT 50.789886 9.556175 35,675 307 426 704
2018-04-22 11:06:58 GMT 50.786537 9.562836 35,625 307 426 704
2018-04-22 11:06:55 GMT 50.782951 9.570999 35,600 307 427 704
2018-04-22 11:06:52 GMT 50.779835 9.577408 35,575 307 427 768
2018-04-22 11:06:48 GMT 50.773872 9.589767 35,500 307 427 768
2018-04-22 11:06:44 GMT 50.769287 9.599750 35,425 307 429 960
2018-04-22 11:06:41 GMT 50.766472 9.605789 35,325 307 428 960
2018-04-22 11:06:37 GMT 50.761631 9.615860 35,325 307 429 896
2018-04-22 11:06:34 GMT 50.758793 9.621964 35,175 307 429 960
2018-04-22 11:06:31 GMT 50.755966 9.628180 35,175 307 431 896
2018-04-22 11:06:27 GMT 50.750504 9.639587 35,150 307 431 896
2018-04-22 11:06:23 GMT 50.744545 9.652100 35,075 307 431 896
2018-04-22 11:06:20 GMT 50.742405 9.656601 35,050 307 433 896
2018-04-22 11:06:16 GMT 50.736145 9.670121 34,950 307 433 896
2018-04-22 11:06:13 GMT 50.732300 9.678213 34,925 307 433 960
2018-04-22 11:06:09 GMT 50.728626 9.686050 34,875 307 435 896
2018-04-22 11:06:06 GMT 50.725159 9.693059 34,800 307 433 896
2018-04-22 11:06:03 GMT 50.721588 9.701002 34,725 307 435 896
2018-04-22 11:05:59 GMT 50.717239 9.710132 34,675 307 435 960
2018-04-22 11:05:55 GMT 50.711864 9.721527 34,650 307 435 896
2018-04-22 11:05:52 GMT 50.707626 9.730175 34,475 307 438 960
2018-04-22 11:05:49 GMT 50.705116 9.735794 34,375 307 438 896
2018-04-22 11:05:45 GMT 50.699936 9.746655 34,425 307 437 832
2018-04-22 11:05:42 GMT 50.695480 9.755936 34,375 307 437 832
2018-04-22 11:05:39 GMT 50.692932 9.761427 34,275 307 438 960
2018-04-22 11:05:36 GMT 50.689087 9.769370 34,300 307 438 960
2018-04-22 11:05:33 GMT 50.685425 9.777164 34,300 307 438 960
2018-04-22 11:05:29 GMT 50.679611 9.789412 34,200 307 438 960
2018-04-22 11:05:25 GMT 50.675034 9.799062 34,025 307 439 960
2018-04-22 11:05:22 GMT 50.672714 9.804077 34,050 307 439 960
2018-04-22 11:05:19 GMT 50.668442 9.812887 34,025 307 439 960
2018-04-22 11:05:16 GMT 50.666012 9.818288 34,025 307 439 960
2018-04-22 11:05:13 GMT 50.660564 9.829497 33,950 307 440 960
2018-04-22 11:05:09 GMT 50.656143 9.838702 33,625 307 443 960
2018-04-22 11:05:05 GMT 50.650696 9.850060 33,825 307 441 960
2018-04-22 11:05:01 GMT 50.646057 9.860013 33,750 307 441 960
2018-04-22 11:04:55 GMT 50.638458 9.875914 33,650 307 442 960
2018-04-22 11:04:52 GMT 50.634842 9.883720 33,575 307 442 960
2018-04-22 11:04:48 GMT 50.630260 9.893188 33,525 307 442 960
2018-04-22 11:04:44 GMT 50.626163 9.901874 33,450 307 443 960
2018-04-22 11:04:40 GMT 50.620438 9.913751 33,350 307 445 960
2018-04-22 11:04:35 GMT 50.615067 9.924846 33,300 307 444 960
2018-04-22 11:04:32 GMT 50.611771 9.931930 33,250 307 444 960
2018-04-22 11:04:29 GMT 50.607651 9.940386 33,250 307 444 960
2018-04-22 11:04:25 GMT 50.602749 9.950867 33,125 307 445 960
2018-04-22 11:04:22 GMT 50.599026 9.958587 33,125 307 445 960
2018-04-22 11:04:19 GMT 50.595840 9.965033 32,925 307 445 960
2018-04-22 11:04:16 GMT 50.591354 9.974863 33,025 307 445 960
2018-04-22 11:04:13 GMT 50.587479 9.982861 32,950 308 446 896
2018-04-22 11:04:10 GMT 50.582336 9.993439 32,900 308 446 960
2018-04-22 11:04:06 GMT 50.578587 10.000899 32,700 308 446 960
2018-04-22 11:04:01 GMT 50.572586 10.013098 32,725 307 447 768
2018-04-22 11:03:57 GMT 50.568111 10.022649 32,575 307 447 768
2018-04-22 11:03:53 GMT 50.561737 10.036372 32,650 308 447 448
2018-04-22 11:03:50 GMT 50.559361 10.041207 32,575 307 447 768
2018-04-22 11:03:46 GMT 50.555054 10.050322 32,525 307 447 704
2018-04-22 11:03:43 GMT 50.549332 10.062176 32,450 307 447 576
2018-04-22 11:03:39 GMT 50.544525 10.072078 32,475 308 447 448
2018-04-22 11:03:36 GMT 50.541092 10.079306 32,450 309 447 384
2018-04-22 11:03:32 GMT 50.535095 10.090942 32,425 317 449 320
2018-04-22 11:03:28 GMT 50.530918 10.097846 32,375 315 449 320
2018-04-22 11:03:24 GMT 50.525757 10.106627 32,375 314 449 320
2018-04-22 11:03:21 GMT 50.521095 10.114177 32,350 316 449 320
2018-04-22 11:03:18 GMT 50.515789 10.121971 32,300 321 451 320
2018-04-22 11:03:14 GMT 50.509918 10.129900 32,300 324 453 256
2018-04-22 11:03:11 GMT 50.505455 10.135704 32,300 330 456 192
2018-04-22 11:03:08 GMT 50.500332 10.141569 32,275 327 454 192
2018-04-22 11:03:05 GMT 50.494236 10.147730 32,275 329 455 128
2018-04-22 11:03:02 GMT 50.487717 10.153536 32,250 333 456 512
2018-04-22 11:02:59 GMT 50.485203 10.155970 32,200 333 457 768
2018-04-22 11:02:56 GMT 50.478195 10.161703 32,175 333 457 768
2018-04-22 11:02:53 GMT 50.472610 10.166401 32,175 333 457 768
2018-04-22 11:02:48 GMT 50.463043 10.174008 32,000 333 456 768
2018-04-22 11:02:45 GMT 50.459106 10.177315 32,025 333 456 768
2018-04-22 11:02:42 GMT 50.452572 10.182619 31,975 333 455 768
2018-04-22 11:02:39 GMT 50.445374 10.188591 31,850 333 456 704
2018-04-22 11:02:36 GMT 50.439816 10.192789 31,950 333 456 768
2018-04-22 11:02:33 GMT 50.436092 10.195981 31,925 333 456 704
2018-04-22 11:02:30 GMT 50.428940 10.201962 31,875 333 456 768
2018-04-22 11:02:27 GMT 50.425243 10.204666 31,825 333 456 768
2018-04-22 11:02:24 GMT 50.417542 10.211069 31,800 333 456 768
2018-04-22 11:02:21 GMT 50.413139 10.214836 31,600 333 455 704
2018-04-22 11:02:18 GMT 50.405880 10.220626 31,700 333 455 704
2018-04-22 11:02:14 GMT 50.400246 10.225228 31,650 333 455 704
2018-04-22 11:02:11 GMT 50.392227 10.231741 31,600 333 455 768
2018-04-22 11:02:07 GMT 50.385815 10.236957 31,550 333 455 768
2018-04-22 11:02:01 GMT 50.376846 10.244245 31,475 333 455 960
2018-04-22 11:01:58 GMT 50.371243 10.248908 31,400 333 455 896
2018-04-22 11:01:55 GMT 50.364403 10.254327 31,425 333 455 896
2018-04-22 11:01:52 GMT 50.357986 10.259713 31,250 333 455 896
2018-04-22 11:01:49 GMT 50.352482 10.263903 31,300 333 455 896
2018-04-22 11:01:45 GMT 50.345764 10.269759 31,250 333 455 896
2018-04-22 11:01:42 GMT 50.338898 10.275036 31,200 333 455 896
2018-04-22 11:01:39 GMT 50.334328 10.278972 30,925 333 455 960
2018-04-22 11:01:34 GMT 50.326412 10.285282 31,025 333 455 960
2018-04-22 11:01:31 GMT 50.320923 10.289661 31,025 333 455 960
2018-04-22 11:01:28 GMT 50.313751 10.295600 30,950 333 454 960
2018-04-22 11:01:25 GMT 50.307312 10.300839 30,875 333 455 960
2018-04-22 11:01:22 GMT 50.303696 10.303840 30,825 333 455 960
2018-04-22 11:01:18 GMT 50.296738 10.309296 30,650 333 455 960
2018-04-22 11:01:15 GMT 50.290100 10.314572 30,750 333 455 960
2018-04-22 11:01:11 GMT 50.282639 10.321005 30,625 333 454 960
2018-04-22 11:01:08 GMT 50.277054 10.325341 30,575 333 455 896
2018-04-22 11:01:05 GMT 50.270782 10.330266 30,575 333 453 896
2018-04-22 11:01:00 GMT 50.263229 10.336617 30,525 333 454 960
2018-04-22 11:00:57 GMT 50.255905 10.342544 30,425 333 454 960
2018-04-22 11:00:54 GMT 50.251740 10.346013 30,425 333 454 960
2018-04-22 11:00:49 GMT 50.240013 10.355579 30,250 333 454 960
2018-04-22 11:00:46 GMT 50.234707 10.359736 30,250 333 454 960
2018-04-22 11:00:43 GMT 50.230499 10.363215 30,225 333 454 960
2018-04-22 11:00:40 GMT 50.222557 10.369609 30,150 333 454 960
2018-04-22 11:00:37 GMT 50.217667 10.373840 30,075 333 454 960
2018-04-22 11:00:33 GMT 50.212082 10.378220 29,875 333 454 960
2018-04-22 11:00:29 GMT 50.201981 10.386237 29,975 333 454 960
2018-04-22 11:00:24 GMT 50.192669 10.393809 29,900 333 454 960
2018-04-22 11:00:21 GMT 50.187737 10.398411 29,800 333 454 960
2018-04-22 11:00:16 GMT 50.179825 10.404486 29,750 333 453 960
2018-04-22 11:00:13 GMT 50.173599 10.409401 29,575 333 453 960
2018-04-22 11:00:10 GMT 50.169113 10.413377 29,575 333 453 960
2018-04-22 11:00:05 GMT 50.159523 10.421052 29,575 333 453 960
2018-04-22 11:00:02 GMT 50.153183 10.426170 29,500 333 452 960
2018-04-22 10:59:58 GMT 50.147884 10.430479 29,475 333 453 960
2018-04-22 10:59:55 GMT 50.141144 10.436000 29,350 333 453 960
2018-04-22 10:59:52 GMT 50.137024 10.439325 29,375 333 452 960
2018-04-22 10:59:49 GMT 50.130157 10.444962 29,300 333 451 960
2018-04-22 10:59:45 GMT 50.122238 10.451395 29,125 333 452 960
2018-04-22 10:59:42 GMT 50.116837 10.455876 29,200 333 452 896
2018-04-22 10:59:38 GMT 50.108780 10.462454 29,125 333 452 960
2018-04-22 10:59:33 GMT 50.099030 10.470332 29,025 333 451 960
2018-04-22 10:59:30 GMT 50.093445 10.474813 29,000 333 451 960
2018-04-22 10:59:26 GMT 50.087788 10.479472 28,800 333 451 960
2018-04-22 10:59:22 GMT 50.080261 10.485800 28,875 333 451 960
2018-04-22 10:59:19 GMT 50.072983 10.491646 28,650 333 451 1024
2018-04-22 10:59:15 GMT 50.065475 10.497726 28,725 333 451 1088
2018-04-22 10:59:11 GMT 50.059578 10.502187 28,650 333 451 1024
2018-04-22 10:59:08 GMT 50.053116 10.507772 28,625 333 451 1024
2018-04-22 10:59:03 GMT 50.044327 10.515000 28,500 333 451 1024
2018-04-22 10:59:00 GMT 50.037838 10.520226 28,475 333 451 1088
2018-04-22 10:58:56 GMT 50.033066 10.524180 28,400 333 451 1088
2018-04-22 10:58:52 GMT 50.024780 10.530901 28,150 333 451 1024
2018-04-22 10:58:49 GMT 50.019470 10.535455 28,275 333 451 1024
2018-04-22 10:58:45 GMT 50.013199 10.540514 28,100 333 450 1024
2018-04-22 10:58:42 GMT 50.006367 10.546281 27,925 332 450 1088
2018-04-22 10:58:39 GMT 50.001945 10.549770 28,075 332 447 1024
2018-04-22 10:58:36 GMT 49.995754 10.554966 28,050 332 450 1088
2018-04-22 10:58:33 GMT 49.989532 10.559957 27,900 332 450 1088
2018-04-22 10:58:29 GMT 49.982117 10.566173 27,650 332 447 1088
2018-04-22 10:58:26 GMT 49.974243 10.572895 27,850 332 450 1088
2018-04-22 10:58:23 GMT 49.969482 10.576871 27,775 332 449 1024
2018-04-22 10:58:19 GMT 49.964100 10.581467 27,700 332 449 1024
2018-04-22 10:58:16 GMT 49.957581 10.586886 27,650 332 449 1088
2018-04-22 10:58:11 GMT 49.947647 10.595302 27,525 332 449 1088
2018-04-22 10:58:06 GMT 49.940231 10.601518 27,250 332 447 1024
2018-04-22 10:58:02 GMT 49.932861 10.607589 27,400 332 447 1088
2018-04-22 10:57:59 GMT 49.929062 10.610914 27,350 332 447 1024
2018-04-22 10:57:56 GMT 49.923225 10.615688 27,250 332 447 1024
2018-04-22 10:57:51 GMT 49.913269 10.624068 27,200 332 444 1152
2018-04-22 10:57:48 GMT 49.905945 10.630140 27,150 332 446 1088
2018-04-22 10:57:45 GMT 49.903347 10.632316 27,100 332 446 1024
2018-04-22 10:57:39 GMT 49.891663 10.642040 26,850 332 445 1216
2018-04-22 10:57:36 GMT 49.887222 10.645969 26,825 332 444 1152
2018-04-22 10:57:30 GMT 49.874496 10.656377 26,775 332 445 1152
2018-04-22 10:57:27 GMT 49.870193 10.660135 26,750 332 445 1216
2018-04-22 10:57:24 GMT 49.864746 10.664617 26,700 332 445 1216
2018-04-22 10:57:19 GMT 49.853348 10.673796 26,550 332 444 1152
2018-04-22 10:57:16 GMT 49.849594 10.677482 26,500 332 444 1152
2018-04-22 10:57:12 GMT 49.841995 10.683698 26,450 332 443 1152
2018-04-22 10:57:07 GMT 49.833252 10.691071 26,325 332 444 1152
2018-04-22 10:57:04 GMT 49.828629 10.694757 26,225 332 444 1152
2018-04-22 10:57:01 GMT 49.823593 10.699238 26,225 332 444 1152
2018-04-22 10:56:57 GMT 49.814014 10.707068 26,100 332 443 1152
2018-04-22 10:56:53 GMT 49.809357 10.711076 25,950 332 442 1152
2018-04-22 10:56:50 GMT 49.802887 10.716495 25,975 332 441 1152
2018-04-22 10:56:47 GMT 49.797226 10.720922 25,900 332 442 1152
2018-04-22 10:56:43 GMT 49.789852 10.727259 25,850 332 442 1216
2018-04-22 10:56:38 GMT 49.781342 10.734149 25,775 332 442 1152
2018-04-22 10:56:34 GMT 49.773701 10.740472 25,475 332 433 1152
2018-04-22 10:56:27 GMT 49.762245 10.750122 25,350 332 440 1152
2018-04-22 10:56:24 GMT 49.757221 10.754279 25,500 332 440 1152
2018-04-22 10:56:21 GMT 49.750610 10.759550 25,175 332 440 1152
2018-04-22 10:56:18 GMT 49.744976 10.764375 25,325 332 439 1152
2018-04-22 10:56:14 GMT 49.738129 10.770360 24,975 332 439 1152
2018-04-22 10:56:10 GMT 49.730869 10.776252 25,200 332 438 1152
2018-04-22 10:56:07 GMT 49.727100 10.779221 25,000 332 438 1152
2018-04-22 10:56:04 GMT 49.720444 10.784863 25,075 332 436 1216
2018-04-22 10:56:00 GMT 49.711086 10.792583 24,975 332 437 1152
2018-04-22 10:55:57 GMT 49.708466 10.794718 24,950 332 437 1152
2018-04-22 10:55:53 GMT 49.702148 10.800066 24,825 332 436 1152
2018-04-22 10:55:50 GMT 49.694748 10.806167 24,750 332 436 1152
2018-04-22 10:55:47 GMT 49.690556 10.809730 24,450 332 432 1280
2018-04-22 10:55:42 GMT 49.681641 10.817124 24,650 332 434 1152
2018-04-22 10:55:39 GMT 49.677200 10.820666 24,425 332 432 1216
2018-04-22 10:55:35 GMT 49.669933 10.826729 24,450 332 432 1280
2018-04-22 10:55:31 GMT 49.661278 10.834004 24,425 332 433 1152
2018-04-22 10:55:27 GMT 49.655228 10.839169 24,300 332 432 1216
2018-04-22 10:55:24 GMT 49.647217 10.845659 24,250 332 431 1344
2018-04-22 10:55:21 GMT 49.643772 10.848331 24,150 332 429 1472
2018-04-22 10:55:18 GMT 49.639023 10.852396 24,125 332 431 1408
2018-04-22 10:55:15 GMT 49.631809 10.858501 24,050 332 431 1344
2018-04-22 10:55:12 GMT 49.628735 10.860802 23,975 332 431 1408
2018-04-22 10:55:09 GMT 49.623596 10.865117 23,875 332 429 1472
2018-04-22 10:55:05 GMT 49.617050 10.870601 23,800 332 429 1472
2018-04-22 10:55:02 GMT 49.612015 10.874586 23,775 332 430 1472
2018-04-22 10:54:59 GMT 49.606339 10.879428 23,675 332 429 1472
2018-04-22 10:54:55 GMT 49.597916 10.886367 23,575 332 429 1408
2018-04-22 10:54:49 GMT 49.588394 10.894173 23,375 332 423 1344
2018-04-22 10:54:46 GMT 49.581345 10.900028 23,325 332 429 1216
2018-04-22 10:54:43 GMT 49.578690 10.902268 23,050 332 426 1216
2018-04-22 10:54:40 GMT 49.571800 10.907791 23,150 332 427 1216
2018-04-22 10:54:37 GMT 49.568356 10.910760 23,125 332 426 1216
2018-04-22 10:54:32 GMT 49.558582 10.918703 23,050 332 425 1344
2018-04-22 10:54:29 GMT 49.553787 10.922711 23,000 332 425 1344
2018-04-22 10:54:25 GMT 49.547058 10.928361 22,925 332 425 1344
2018-04-22 10:54:22 GMT 49.541542 10.932658 22,600 332 423 1344
2018-04-22 10:54:18 GMT 49.534561 10.938769 22,675 332 424 1408
2018-04-22 10:54:15 GMT 49.529205 10.942977 22,675 332 424 1408
2018-04-22 10:54:11 GMT 49.523296 10.947876 22,425 332 423 1344
2018-04-22 10:54:08 GMT 49.517151 10.952924 22,450 332 423 1280
2018-04-22 10:54:04 GMT 49.509235 10.959456 22,425 332 423 1216
2018-04-22 10:54:01 GMT 49.505650 10.962129 22,350 332 421 1216
2018-04-22 10:53:58 GMT 49.499039 10.967825 22,300 332 421 1216
2018-04-22 10:53:53 GMT 49.490986 10.974303 22,175 332 420 1280
2018-04-22 10:53:50 GMT 49.486519 10.978014 22,125 332 421 1344
2018-04-22 10:53:47 GMT 49.480698 10.982691 22,025 332 421 1408
2018-04-22 10:53:44 GMT 49.475006 10.987412 21,825 332 420 1472
2018-04-22 10:53:41 GMT 49.470737 10.991005 21,700 332 421 1536
2018-04-22 10:53:38 GMT 49.464218 10.996201 21,850 332 421 1472
2018-04-22 10:53:35 GMT 49.459900 10.999989 21,775 332 421 1536
2018-04-22 10:53:32 GMT 49.455460 11.003314 21,650 332 421 1536
2018-04-22 10:53:29 GMT 49.448765 11.008969 21,300 332 421 1536
2018-04-22 10:53:23 GMT 49.440308 11.015890 21,475 332 421 1536
2018-04-22 10:53:20 GMT 49.434128 11.021166 21,350 332 421 1536
2018-04-22 10:53:17 GMT 49.428795 11.025226 21,275 332 421 1536
2018-04-22 10:53:14 GMT 49.425720 11.028033 21,050 332 421 1280
2018-04-22 10:53:11 GMT 49.418289 11.034006 21,150 332 421 1536
2018-04-22 10:53:08 GMT 49.413116 11.038020 21,075 332 422 1664
2018-04-22 10:53:05 GMT 49.407799 11.042633 21,000 332 422 1664
2018-04-22 10:53:01 GMT 49.400955 11.048271 20,850 332 422 1664
2018-04-22 10:52:58 GMT 49.396069 11.052029 20,775 332 422 1408
2018-04-22 10:52:55 GMT 49.390274 11.056753 20,700 332 422 1472
2018-04-22 10:52:52 GMT 49.387665 11.058936 20,675 332 422 1408
2018-04-22 10:52:49 GMT 49.379868 11.065256 20,475 332 414 0
2018-04-22 10:52:45 GMT 49.373154 11.070838 20,475 332 422 1216
2018-04-22 10:52:42 GMT 49.369904 11.073424 20,450 332 422 1216
2018-04-22 10:52:39 GMT 49.364738 11.077760 20,400 333 422 1216
2018-04-22 10:52:36 GMT 49.359055 11.082388 20,325 332 421 1280
2018-04-22 10:52:33 GMT 49.353706 11.086723 20,225 332 421 1280
2018-04-22 10:52:29 GMT 49.345791 11.093228 20,125 332 420 1280
2018-04-22 10:52:25 GMT 49.340515 11.097459 20,050 332 420 1280
2018-04-22 10:52:22 GMT 49.335178 11.101685 20,025 332 419 1216
2018-04-22 10:52:18 GMT 49.328156 11.107459 19,925 332 419 1216
2018-04-22 10:52:15 GMT 49.322189 11.112382 19,850 332 418 1216
2018-04-22 10:52:12 GMT 49.316711 11.116896 19,800 333 417 1280
2018-04-22 10:52:07 GMT 49.308876 11.123151 19,700 332 416 1280
2018-04-22 10:52:04 GMT 49.303802 11.127343 19,575 332 416 1280
2018-04-22 10:52:01 GMT 49.297989 11.132179 19,550 332 416 1280
2018-04-22 10:51:58 GMT 49.294258 11.135150 19,350 332 410 1408
2018-04-22 10:51:54 GMT 49.287186 11.140982 19,325 333 415 1280
2018-04-22 10:51:51 GMT 49.282654 11.144644 19,350 333 415 1280
2018-04-22 10:51:48 GMT 49.277527 11.148729 19,300 332 414 1280
2018-04-22 10:51:44 GMT 49.268887 11.155749 19,175 332 413 1216
2018-04-22 10:51:41 GMT 49.265488 11.158495 19,125 332 413 1216
2018-04-22 10:51:38 GMT 49.260635 11.162532 19,075 332 412 1216
2018-04-22 10:51:34 GMT 49.254410 11.167743 19,000 332 412 1280
2018-04-22 10:51:31 GMT 49.248451 11.172517 18,900 332 411 1344
2018-04-22 10:51:28 GMT 49.243698 11.176265 18,800 333 411 1344
2018-04-22 10:51:24 GMT 49.236206 11.182347 18,775 332 410 1408
2018-04-22 10:51:21 GMT 49.230480 11.186973 18,650 333 409 1408
2018-04-22 10:51:18 GMT 49.227036 11.190068 18,575 333 409 1408
2018-04-22 10:51:15 GMT 49.221497 11.194364 18,550 333 409 1408
2018-04-22 10:51:10 GMT 49.212463 11.201501 18,425 333 407 1344
2018-04-22 10:51:07 GMT 49.208649 11.204754 18,375 333 407 1280
2018-04-22 10:51:04 GMT 49.203712 11.208801 18,325 333 407 1280
2018-04-22 10:51:00 GMT 49.196312 11.214728 17,950 333 404 1408
2018-04-22 10:50:57 GMT 49.192307 11.217692 18,175 333 406 1280
2018-04-22 10:50:54 GMT 49.187653 11.221667 18,100 333 405 1344
2018-04-22 10:50:49 GMT 49.176575 11.230268 17,950 332 401 1344
2018-04-22 10:50:46 GMT 49.173935 11.232746 17,900 333 404 1408
2018-04-22 10:50:43 GMT 49.167252 11.237957 17,825 332 404 1408
2018-04-22 10:50:39 GMT 49.159908 11.243929 17,725 332 402 1344
2018-04-22 10:50:36 GMT 49.157253 11.246169 17,675 332 403 1344
2018-04-22 10:50:33 GMT 49.150692 11.251446 17,600 332 401 1280
2018-04-22 10:50:29 GMT 49.144089 11.257113 17,300 332 399 1408
2018-04-22 10:50:26 GMT 49.141521 11.259179 17,475 332 400 1344
2018-04-22 10:50:23 GMT 49.136902 11.263029 17,400 332 400 1408
2018-04-22 10:50:19 GMT 49.128250 11.270093 17,275 332 399 1408
2018-04-22 10:50:16 GMT 49.124222 11.273452 17,200 335 398 1344
2018-04-22 10:50:11 GMT 49.115662 11.279790 17,100 336 398 1344
2018-04-22 10:50:07 GMT 49.107582 11.284911 17,000 338 398 1408
2018-04-22 10:50:03 GMT 49.103161 11.287585 16,925 339 398 1472
2018-04-22 10:49:57 GMT 49.092873 11.293728 16,675 339 397 1600
2018-04-22 10:49:53 GMT 49.083981 11.298933 16,600 339 396 1344
2018-04-22 10:49:48 GMT 49.075195 11.304087 16,500 339 395 1280
2018-04-22 10:49:44 GMT 49.070068 11.306904 16,425 339 394 1152
2018-04-22 10:49:41 GMT 49.065174 11.309991 16,400 339 393 1408
2018-04-22 10:49:37 GMT 49.056793 11.315051 16,275 339 392 1344
2018-04-22 10:49:34 GMT 49.052559 11.317219 16,200 339 391 1344
2018-04-22 10:49:31 GMT 49.046646 11.320977 16,150 339 391 1344
2018-04-22 10:49:27 GMT 49.040920 11.324375 15,925 339 387 1344
2018-04-22 10:49:23 GMT 49.034180 11.328242 15,950 339 389 1344
2018-04-22 10:49:20 GMT 49.028503 11.331623 15,900 339 388 1344
2018-04-22 10:49:15 GMT 49.020809 11.336011 15,800 339 387 1344
2018-04-22 10:49:12 GMT 49.015644 11.339119 15,650 339 383 1920
2018-04-22 10:49:09 GMT 49.009686 11.342589 15,650 339 385 1536
2018-04-22 10:49:05 GMT 49.003647 11.346130 15,550 339 384 1664
2018-04-22 10:49:01 GMT 48.996140 11.350638 15,100 339 383 1920
2018-04-22 10:48:58 GMT 48.991974 11.353032 15,275 339 384 1792
2018-04-22 10:48:55 GMT 48.986984 11.355919 15,200 339 383 1856
2018-04-22 10:48:51 GMT 48.980122 11.359936 15,150 339 383 1920
2018-04-22 10:48:47 GMT 48.974487 11.363314 14,900 339 383 1920
2018-04-22 10:48:42 GMT 48.965691 11.368392 14,850 339 383 1920
2018-04-22 10:48:39 GMT 48.961761 11.370709 14,550 339 386 0
2018-04-22 10:48:36 GMT 48.954472 11.374897 14,625 339 383 2304
2018-04-22 10:48:31 GMT 48.947815 11.378873 14,475 339 384 2496
2018-04-22 10:48:25 GMT 48.937061 11.385016 14,200 339 386 2560
2018-04-22 10:48:21 GMT 48.929947 11.389160 14,025 339 387 2432
2018-04-22 10:48:16 GMT 48.924026 11.392750 13,750 339 386 1536
2018-04-22 10:48:13 GMT 48.917816 11.396484 13,750 339 388 1536
2018-04-22 10:48:10 GMT 48.912621 11.399327 13,700 339 386 1536
2018-04-22 10:48:07 GMT 48.907921 11.402002 13,625 340 380 1792
2018-04-22 10:48:04 GMT 48.903992 11.404442 13,550 339 385 1408
2018-04-22 10:48:01 GMT 48.898422 11.407712 13,450 339 383 1472
2018-04-22 10:47:58 GMT 48.894287 11.410147 13,425 339 383 1472
2018-04-22 10:47:54 GMT 48.887192 11.414302 13,075 339 380 1728
2018-04-22 10:47:51 GMT 48.881947 11.417397 13,250 339 380 1728
2018-04-22 10:47:47 GMT 48.875793 11.421063 13,150 339 381 1664
2018-04-22 10:47:41 GMT 48.864670 11.427401 12,950 340 380 1792
2018-04-22 10:47:38 GMT 48.860157 11.430118 12,850 339 379 1792
2018-04-22 10:47:35 GMT 48.855362 11.432792 12,775 339 378 1792
2018-04-22 10:47:32 GMT 48.848801 11.436768 12,650 339 379 1792
2018-04-22 10:47:29 GMT 48.844345 11.439232 12,475 339 378 1792
2018-04-22 10:47:26 GMT 48.840931 11.441249 12,375 340 377 1728
2018-04-22 10:47:20 GMT 48.828876 11.448260 12,300 340 377 1728
2018-04-22 10:47:16 GMT 48.824112 11.450923 12,225 339 376 1792
2018-04-22 10:47:09 GMT 48.812439 11.457825 12,000 339 375 1728
2018-04-22 10:47:06 GMT 48.806904 11.461125 11,900 339 374 1664
2018-04-22 10:47:03 GMT 48.803604 11.463177 11,850 339 374 1600
2018-04-22 10:47:00 GMT 48.798477 11.465968 11,725 339 371 1472
2018-04-22 10:46:56 GMT 48.791840 11.469867 11,600 339 371 1408
2018-04-22 10:46:53 GMT 48.787025 11.472618 11,550 340 342 704
2018-04-22 10:46:50 GMT 48.782463 11.475220 11,475 339 369 1088
2018-04-22 10:46:47 GMT 48.777805 11.478111 11,475 339 368 896
2018-04-22 10:46:43 GMT 48.771240 11.481840 11,400 339 357 704
2018-04-22 10:46:37 GMT 48.760162 11.488664 11,325 339 360 704
2018-04-22 10:46:33 GMT 48.753971 11.492350 11,275 339 356 704
2018-04-22 10:46:28 GMT 48.748432 11.495530 11,225 339 352 704
2018-04-22 10:46:25 GMT 48.742847 11.498783 11,175 340 349 704
2018-04-22 10:46:21 GMT 48.737457 11.501840 10,975 342 344 768
2018-04-22 10:46:18 GMT 48.732788 11.504446 11,100 340 318 640
2018-04-22 10:46:14 GMT 48.728027 11.506911 11,050 340 342 768
2018-04-22 10:46:11 GMT 48.721893 11.510362 11,025 340 339 640
2018-04-22 10:46:07 GMT 48.717056 11.513166 10,975 340 336 576
2018-04-22 10:46:03 GMT 48.711182 11.516278 10,875 340 332 768
2018-04-22 10:45:59 GMT 48.705280 11.519743 10,875 340 329 704
2018-04-22 10:45:56 GMT 48.700485 11.522490 10,850 340 326 640
2018-04-22 10:45:51 GMT 48.692596 11.526912 10,775 340 321 704
2018-04-22 10:45:48 GMT 48.689686 11.528561 10,750 340 321 704
2018-04-22 10:45:45 GMT 48.686188 11.530433 10,725 340 318 640
2018-04-22 10:45:42 GMT 48.680561 11.533548 10,675 341 290 448
2018-04-22 10:45:39 GMT 48.676929 11.535572 10,675 340 312 576
2018-04-22 10:45:34 GMT 48.671017 11.538753 10,575 340 303 768
2018-04-22 10:45:31 GMT 48.665451 11.542124 10,375 339 290 448
2018-04-22 10:45:26 GMT 48.660309 11.544896 10,475 340 297 704
2018-04-22 10:45:23 GMT 48.657120 11.546772 10,475 340 299 704
2018-04-22 10:45:20 GMT 48.650997 11.550028 10,425 339 295 640
2018-04-22 10:45:16 GMT 48.647141 11.552406 10,375 339 290 384
2018-04-22 10:45:13 GMT 48.644062 11.554437 10,375 339 289 320
2018-04-22 10:45:09 GMT 48.637299 11.558181 10,350 339 283 320
2018-04-22 10:45:04 GMT 48.632675 11.560927 10,300 339 278 1472
2018-04-22 10:45:00 GMT 48.627396 11.564050 10,025 340 277 2560
2018-04-22 10:44:57 GMT 48.625031 11.565364 10,075 340 277 2496
2018-04-22 10:44:54 GMT 48.620789 11.567808 9,925 340 281 2496
2018-04-22 10:44:51 GMT 48.617668 11.569615 9,825 340 279 2688
2018-04-22 10:44:48 GMT 48.613106 11.572217 9,550 340 281 2624
2018-04-22 10:44:45 GMT 48.609558 11.574238 9,300 340 281 2368
2018-04-22 10:44:41 GMT 48.604477 11.576984 9,350 340 281 2176
2018-04-22 10:44:37 GMT 48.599651 11.579807 9,225 340 281 2048
2018-04-22 10:44:34 GMT 48.597092 11.581325 9,150 340 281 2048
2018-04-22 10:44:30 GMT 48.591522 11.584449 8,975 340 281 2176
2018-04-22 10:44:27 GMT 48.587643 11.586601 8,900 340 279 2176
2018-04-22 10:44:24 GMT 48.584976 11.588182 8,800 339 280 2176
2018-04-22 10:44:20 GMT 48.578659 11.591844 8,600 338 280 2176
2018-04-22 10:44:17 GMT 48.576141 11.593540 8,525 342 280 2048
2018-04-22 10:44:14 GMT 48.572140 11.595563 8,425 341 280 1984
2018-04-22 10:44:10 GMT 48.567307 11.598041 8,275 345 280 1984
2018-04-22 10:44:07 GMT 48.563622 11.599756 8,150 348 281 2048
2018-04-22 10:44:04 GMT 48.558105 11.601422 8,025 349 281 2112
2018-04-22 10:44:00 GMT 48.554916 11.602213 7,900 350 280 2304
2018-04-22 10:43:56 GMT 48.550278 11.603675 7,825 350 281 1984
2018-04-22 10:43:53 GMT 48.544907 11.605104 7,700 350 281 2176
2018-04-22 10:43:49 GMT 48.540710 11.606211 7,575 350 279 2304
2018-04-22 10:43:46 GMT 48.536713 11.607417 7,400 349 280 2112
2018-04-22 10:43:43 GMT 48.532745 11.608535 7,275 349 280 2112
2018-04-22 10:43:40 GMT 48.529171 11.609658 7,225 349 280 2048
2018-04-22 10:43:35 GMT 48.522903 11.611563 7,050 349 279 2240
2018-04-22 10:43:31 GMT 48.517273 11.613042 6,875 348 279 2368
2018-04-22 10:43:28 GMT 48.514133 11.614211 6,800 349 279 2304
2018-04-22 10:43:25 GMT 48.510319 11.615440 6,650 349 279 2304
2018-04-22 10:43:22 GMT 48.506874 11.616452 6,575 348 279 2304
2018-04-22 10:43:18 GMT 48.501331 11.618259 6,325 348 279 2368
2018-04-22 10:43:14 GMT 48.495987 11.620014 6,250 348 279 2368
2018-04-22 10:43:10 GMT 48.490173 11.621915 6,075 349 279 2240
2018-04-22 10:43:07 GMT 48.486855 11.622957 5,975 349 278 2112
2018-04-22 10:43:03 GMT 48.481781 11.624619 5,800 349 278 2048
2018-04-22 10:42:59 GMT 48.475616 11.626282 5,675 349 277 1984
2018-04-22 10:42:54 GMT 48.470901 11.627831 5,475 349 276 2048
2018-04-22 10:42:51 GMT 48.467583 11.629028 5,450 349 276 2048
2018-04-22 10:42:48 GMT 48.462708 11.630296 5,325 349 275 2048
2018-04-22 10:42:44 GMT 48.458553 11.631630 5,075 349 274 2304
2018-04-22 10:42:41 GMT 48.454285 11.633043 5,100 349 274 2304
2018-04-22 10:42:37 GMT 48.448868 11.634449 4,600 350 273 2432
2018-04-22 10:42:34 GMT 48.445843 11.635461 4,825 351 273 2432
2018-04-22 10:42:30 GMT 48.441147 11.636775 4,675 350 273 2432
2018-04-22 10:42:25 GMT 48.435333 11.638395 4,375 351 273 1664
2018-04-22 10:42:22 GMT 48.429409 11.639942 4,375 350 271 1344
2018-04-22 10:42:19 GMT 48.427547 11.640593 4,275 350 269 1152
2018-04-22 10:42:15 GMT 48.422333 11.641966 4,250 350 267 1088
2018-04-22 10:42:11 GMT 48.418144 11.643123 4,150 351 262 1024
2018-04-22 10:42:08 GMT 48.413536 11.644279 4,125 351 261 896
2018-04-22 10:42:04 GMT 48.408882 11.645508 4,000 351 256 1216
2018-04-22 10:42:00 GMT 48.404598 11.646664 4,000 350 252 1216
2018-04-22 10:41:57 GMT 48.401688 11.647198 3,925 351 251 1216
2018-04-22 10:41:53 GMT 48.395920 11.648818 3,850 350 247 896
2018-04-22 10:41:49 GMT 48.391705 11.649989 3,800 350 243 960
2018-04-22 10:41:46 GMT 48.389515 11.650423 3,775 350 243 960
2018-04-22 10:41:43 GMT 48.384201 11.651987 3,700 349 237 832
2018-04-22 10:41:38 GMT 48.380531 11.653097 3,625 345 231 1088
2018-04-22 10:41:35 GMT 48.376854 11.654615 3,600 341 229 1024
2018-04-22 10:41:31 GMT 48.372711 11.657217 3,525 337 227 832
2018-04-22 10:41:28 GMT 48.369232 11.660086 3,475 328 223 640
2018-04-22 10:41:25 GMT 48.368053 11.661987 3,450 281 201 512
2018-04-22 10:41:22 GMT 48.365772 11.664662 3,450 311 214 448
2018-04-22 10:41:18 GMT 48.363121 11.669793 3,400 305 211 640
2018-04-22 10:41:14 GMT 48.361443 11.673986 3,300 292 206 640
2018-04-22 10:41:10 GMT 48.359627 11.680635 3,300 292 206 640
2018-04-22 10:41:06 GMT 48.358978 11.684972 3,275 281 201 512
2018-04-22 10:41:03 GMT 48.358559 11.688803 3,225 265 190 704
2018-04-22 10:41:00 GMT 48.358326 11.693067 3,100 265 190 704
2018-04-22 10:40:57 GMT 48.358429 11.698679 3,175 268 194 768
2018-04-22 10:40:54 GMT 48.358559 11.701524 3,150 266 191 768
2018-04-22 10:40:50 GMT 48.358929 11.707378 3,100 265 187 1216
2018-04-22 10:40:45 GMT 48.359299 11.713609 3,025 265 187 1216
2018-04-22 10:40:41 GMT 48.359482 11.717834 2,775 264 176 1664
2018-04-22 10:40:35 GMT 48.360168 11.726145 2,825 266 184 1024
2018-04-22 10:40:31 GMT 48.360306 11.730934 2,750 265 181 768
2018-04-22 10:40:24 GMT 48.360840 11.740193 2,675 265 179 704
2018-04-22 10:40:20 GMT 48.361118 11.744385 2,625 264 178 1216
2018-04-22 10:40:09 GMT 48.362137 11.757695 2,275 264 175 2432
2018-04-22 10:39:59 GMT 48.362980 11.770911 1,850 264 178 2560
2018-04-22 10:39:47 GMT 48.364128 11.785249 0 264 199
2018-04-22 10:39:41 GMT 48.364712 11.792661 0 264 175
2018-04-22 10:39:37 GMT 48.365005 11.796660 0 264 165
2018-04-22 10:39:26 GMT 48.365776 11.807169 0 264 130
2018-04-22 10:39:21 GMT 48.366005 11.811887 0 264 98
2018-04-22 10:39:15 GMT 48.366261 11.814441 0 264 82
2018-04-22 10:39:08 GMT 48.366611 11.817765 0 264 48
2018-04-22 10:39:04 GMT 48.366669 11.818741 0 264 36
2018-04-22 10:38:59 GMT 48.366737 11.819554 0 261 22
2018-04-22 10:38:54 GMT 48.366810 11.820096 0 258 12
2018-04-22 10:38:43 GMT 48.366810 11.820657 0 315 6
2018-04-22 10:38:30 GMT 48.366611 11.821036 0 309 6
2018-04-22 10:38:22 GMT 48.366425 11.821036 0 306 7
2018-04-22 10:38:06 GMT 48.366177 11.821659 0 309 6
2018-04-22 10:38:00 GMT 48.365982 11.821800 0 309 5
2018-04-22 10:37:27 GMT 48.365959 11.822099 0 309 0
2018-04-22 10:37:18 GMT 48.365959 11.822102 0 309 0
2018-04-22 10:37:06 GMT 48.365982 11.822084 0 309 0
2018-04-22 10:36:56 GMT 48.365936 11.822169 0 306 8
2018-04-22 10:36:44 GMT 48.365593 11.822750 0 340 7
2018-04-22 10:36:33 GMT 48.365425 11.822879 0 351 7
2018-04-22 10:36:24 GMT 48.365147 11.822979 0 351 10
2018-04-22 10:36:12 GMT 48.364388 11.823042 0 354 12
2018-04-22 10:36:02 GMT 48.364002 11.823114 0 5 9
2018-04-22 10:35:51 GMT 48.363667 11.822933 0 25 9
2018-04-22 10:35:41 GMT 48.363377 11.822644 0 59 8
2018-04-22 10:35:30 GMT 48.363190 11.822337 0 78 7
2018-04-22 10:35:19 GMT 48.363132 11.821813 0 81 10
2018-04-22 10:35:11 GMT 48.363087 11.821163 0 84 11
2018-04-22 10:35:05 GMT 48.363110 11.820729 0 84 11
2018-04-22 10:34:50 GMT 48.362968 11.819735 0 81 14
2018-04-22 10:34:46 GMT 48.362926 11.819335 0 84 17
2018-04-22 10:34:31 GMT 48.362778 11.817169 0 84 22
2018-04-22 10:34:23 GMT 48.362633 11.816121 0 84 21
2018-04-22 10:34:13 GMT 48.362606 11.814951 0 84 20
2018-04-22 10:34:09 GMT 48.362595 11.814115 0 84 19
2018-04-22 10:34:03 GMT 48.362503 11.813419 0 84 18
2018-04-22 10:33:52 GMT 48.362411 11.812363 0 84 17
2018-04-22 10:33:41 GMT 48.362331 11.811359 0 84 14
2018-04-22 10:33:31 GMT 48.362251 11.810127 0 84 21
2018-04-22 10:33:19 GMT 48.362118 11.808243 0 84 29
2018-04-22 10:33:09 GMT 48.361931 11.806271 0 84 27
2018-04-22 10:33:02 GMT 48.361965 11.805056 0 84 27
2018-04-22 10:32:57 GMT 48.361794 11.804195 0 84 26
2018-04-22 10:32:47 GMT 48.361561 11.802804 0 84 24
2018-04-22 10:32:43 GMT 48.361622 11.802010 0 84 24
2018-04-22 10:32:37 GMT 48.361515 11.801214 0 84 23
2018-04-22 10:32:26 GMT 48.361404 11.799422 0 84 22
2018-04-22 10:32:15 GMT 48.361301 11.797926 0 84 20
2018-04-22 10:32:04 GMT 48.361210 11.796746 0 84 16
2018-04-22 10:31:54 GMT 48.361164 11.795739 0 90 13
2018-04-22 10:31:44 GMT 48.361095 11.794925 0 56 11
2018-04-22 10:31:41 GMT 48.360901 11.795003 0 33 10
2018-04-22 10:31:33 GMT 48.360695 11.794827 0 354 11
2018-04-22 10:31:22 GMT 48.360107 11.794962 0 351 14
2018-04-22 10:31:14 GMT 48.359676 11.795179 0 11 14
2018-04-22 10:31:11 GMT 48.359425 11.794897 0 19 14
2018-04-22 10:31:00 GMT 48.359001 11.794727 0 30 13
2018-04-22 10:30:49 GMT 48.358349 11.794058 0 25 12
2018-04-22 10:30:39 GMT 48.357777 11.793999 0 357 10
2018-04-22 10:30:28 GMT 48.357502 11.794070 0 354 9
2018-04-22 10:30:17 GMT 48.357147 11.794123 0 354 7
2018-04-22 10:29:59 GMT 48.356758 11.794175 0 354 3
2018-04-22 10:29:55 GMT 48.356823 11.794185 0 354 0
2018-04-22 10:29:40 GMT 48.356815 11.794193 0 354 0
2018-04-22 10:29:30 GMT 48.356815 11.794211 0 354 0
2018-04-22 10:29:10 GMT 48.356800 11.794167 0 354 0
2018-04-22 10:28:59 GMT 48.356815 11.794193 0 354 0
2018-04-22 10:28:49 GMT 48.356812 11.794203 0 354 0
2018-04-22 10:28:39 GMT 48.356804 11.794175 0 354 0
2018-04-22 10:28:29 GMT 48.356800 11.794130 0 354 0
2018-04-22 10:28:18 GMT 48.356812 11.794185 0 354 0
2018-04-22 10:28:08 GMT 48.356823 11.794185 0 354 0
2018-04-22 10:27:52 GMT 48.356804 11.794158 0 354 0
2018-04-22 10:27:33 GMT 48.356815 11.794158 0 354 0
2018-04-22 10:27:23 GMT 48.356823 11.794148 0 354 0
2018-04-22 10:27:13 GMT 48.356781 11.794158 0 354 0
2018-04-22 10:27:02 GMT 48.356895 11.794148 0 351 4
2018-04-22 10:26:51 GMT 48.357254 11.793769 0 340 4
2018-04-22 10:26:40 GMT 48.357044 11.793841 0 317 4
2018-04-22 10:26:30 GMT 48.357033 11.793647 0 295 4
2018-04-22 10:26:19 GMT 48.357010 11.793189 0 278 4
2018-04-22 10:26:08 GMT 48.356976 11.793066 0 270 4
2018-04-22 10:25:55 GMT 48.356941 11.792714 0 264 4
2018-04-22 10:25:45 GMT 48.356907 11.792775 0 264 4

Making use of Plane Finder data

You are free to use the raw flight data, aircraft information and images provided in this report for your own purposes provided the data is correctly attributed to Plane Finder. We ask that you please credit Plane Finder and link to planefinder.net in close proximity to the content.

Optionally one of the following logos (no smaller then 150x24px) can be used and must link to planefinder.net

Embedding the Plane Finder map

You are welcome to embed the Plane Finder playback map on your website to offer visitors a more interactive experience. We suggest using the following HTML code:

<iframe src="//planefinder.net/data/report/LH428-D-AIKA-7700-squawk-2018-04-22/map" width="800" height="600" seamless="seamless"></iframe>

Where our data comes from

Plane Finder has a global network of data feeds and antenna radars that receive data broadcast directly from aircraft. The primary technologies used are ADS-B and MLAT. We also show feeds from the FAA and a FLARM glider feed.

Click here to find out more about the Plane Finder network.

How we collect our data